<?xml version='1.0' encoding='UTF-8'?><gpx version="1.1" creator="JPX - https://github.com/jenetics/jpx" xmlns="http://www.topografix.com/GPX/1/1"><trk><trkseg><trkpt lat="44.1185884" lon="11.3796031"><ele>424.0</ele><time>2026-05-02T11:39:02.923Z</time></trkpt><trkpt lat="44.1186362" lon="11.3796763"><ele>424.0</ele><time>2026-05-02T11:39:13.923Z</time></trkpt><trkpt lat="44.1186832" lon="11.3797371"><ele>424.0</ele><time>2026-05-02T11:39:18.922Z</time></trkpt><trkpt lat="44.1187431" lon="11.3796783"><ele>424.0</ele><time>2026-05-02T11:41:41.922Z</time></trkpt><trkpt lat="44.1188054" lon="11.3796403"><ele>424.0</ele><time>2026-05-02T11:41:43.922Z</time></trkpt><trkpt lat="44.1188629" lon="11.3795716"><ele>424.0</ele><time>2026-05-02T11:41:47.922Z</time></trkpt><trkpt lat="44.1188187" lon="11.3795084"><ele>424.0</ele><time>2026-05-02T11:41:56.922Z</time></trkpt><trkpt lat="44.1187551" lon="11.3795484"><ele>424.00000000000006</ele><time>2026-05-02T11:41:59.922Z</time></trkpt><trkpt lat="44.1186859" lon="11.3795919"><ele>424.0</ele><time>2026-05-02T11:42:01.922Z</time></trkpt><trkpt lat="44.1186077" lon="11.3796668"><ele>424.0</ele><time>2026-05-02T11:42:03.922Z</time></trkpt><trkpt lat="44.1184941" lon="11.3797407"><ele>424.0</ele><time>2026-05-02T11:42:05.922Z</time></trkpt><trkpt lat="44.1184263" lon="11.3797682"><ele>424.00000000000006</ele><time>2026-05-02T11:42:06.922Z</time></trkpt><trkpt lat="44.1183522" lon="11.3797948"><ele>424.0</ele><time>2026-05-02T11:42:07.922Z</time></trkpt><trkpt lat="44.1182919" lon="11.3798267"><ele>423.33333333333337</ele><time>2026-05-02T11:42:08.922Z</time></trkpt><trkpt lat="44.1181796" lon="11.3798706"><ele>422.6666666666667</ele><time>2026-05-02T11:42:10.922Z</time></trkpt><trkpt lat="44.1181032" lon="11.3798891"><ele>422.0</ele><time>2026-05-02T11:42:12.922Z</time></trkpt><trkpt lat="44.1180378" lon="11.3799075"><ele>421.33333333333337</ele><time>2026-05-02T11:42:29.922Z</time></trkpt><trkpt lat="44.1179756" lon="11.3799388"><ele>420.6666666666667</ele><time>2026-05-02T11:42:30.922Z</time></trkpt><trkpt lat="44.1179054" lon="11.3799843"><ele>420.0</ele><time>2026-05-02T11:42:31.922Z</time></trkpt><trkpt lat="44.1178417" lon="11.3800291"><ele>420.0</ele><time>2026-05-02T11:42:32.922Z</time></trkpt><trkpt lat="44.1177247" lon="11.3801056"><ele>420.0</ele><time>2026-05-02T11:42:34.922Z</time></trkpt><trkpt lat="44.1176385" lon="11.3801552"><ele>420.0</ele><time>2026-05-02T11:42:36.922Z</time></trkpt><trkpt lat="44.1175694" lon="11.3801319"><ele>420.0</ele><time>2026-05-02T11:42:39.922Z</time></trkpt><trkpt lat="44.1175279" lon="11.3800509"><ele>420.0</ele><time>2026-05-02T11:42:41.922Z</time></trkpt><trkpt lat="44.1174859" lon="11.3799003"><ele>420.0</ele><time>2026-05-02T11:42:43.922Z</time></trkpt><trkpt lat="44.1174478" lon="11.3797784"><ele>420.0</ele><time>2026-05-02T11:42:45.922Z</time></trkpt><trkpt lat="44.117408" lon="11.3796939"><ele>420.0</ele><time>2026-05-02T11:42:48.922Z</time></trkpt><trkpt lat="44.1173462" lon="11.3796606"><ele>420.0</ele><time>2026-05-02T11:42:50.922Z</time></trkpt><trkpt lat="44.11725" lon="11.3796725"><ele>420.0</ele><time>2026-05-02T11:42:52.922Z</time></trkpt><trkpt lat="44.1171874" lon="11.379697"><ele>420.0</ele><time>2026-05-02T11:42:53.922Z</time></trkpt><trkpt lat="44.1171065" lon="11.379732"><ele>419.6</ele><time>2026-05-02T11:42:54.922Z</time></trkpt><trkpt lat="44.1170205" lon="11.3797731"><ele>419.2</ele><time>2026-05-02T11:42:55.922Z</time></trkpt><trkpt lat="44.1169309" lon="11.3798191"><ele>418.79999999999995</ele><time>2026-05-02T11:42:56.922Z</time></trkpt><trkpt lat="44.1168328" lon="11.3798657"><ele>418.4</ele><time>2026-05-02T11:42:57.922Z</time></trkpt><trkpt lat="44.1167209" lon="11.3799111"><ele>418.0</ele><time>2026-05-02T11:42:58.922Z</time></trkpt><trkpt lat="44.1165983" lon="11.379963"><ele>418.25</ele><time>2026-05-02T11:42:59.922Z</time></trkpt><trkpt lat="44.1164797" lon="11.3800042"><ele>418.5</ele><time>2026-05-02T11:43:00.922Z</time></trkpt><trkpt lat="44.1163659" lon="11.3800426"><ele>418.75</ele><time>2026-05-02T11:43:01.922Z</time></trkpt><trkpt lat="44.1162541" lon="11.3800785"><ele>419.0</ele><time>2026-05-02T11:43:02.922Z</time></trkpt><trkpt lat="44.1161402" lon="11.3801176"><ele>419.0</ele><time>2026-05-02T11:43:03.922Z</time></trkpt><trkpt lat="44.1160263" lon="11.3801474"><ele>419.0</ele><time>2026-05-02T11:43:04.922Z</time></trkpt><trkpt lat="44.1159112" lon="11.3801683"><ele>419.0</ele><time>2026-05-02T11:43:05.922Z</time></trkpt><trkpt lat="44.1158001" lon="11.3801821"><ele>419.0</ele><time>2026-05-02T11:43:06.922Z</time></trkpt><trkpt lat="44.1156845" lon="11.3801872"><ele>420.5</ele><time>2026-05-02T11:43:07.922Z</time></trkpt><trkpt lat="44.1155628" lon="11.3801799"><ele>422.0</ele><time>2026-05-02T11:43:08.922Z</time></trkpt><trkpt lat="44.115442" lon="11.3801683"><ele>423.5</ele><time>2026-05-02T11:43:09.922Z</time></trkpt><trkpt lat="44.1153229" lon="11.3801646"><ele>425.0</ele><time>2026-05-02T11:43:10.922Z</time></trkpt><trkpt lat="44.1152121" lon="11.3801824"><ele>425.0</ele><time>2026-05-02T11:43:11.922Z</time></trkpt><trkpt lat="44.1151071" lon="11.3802301"><ele>425.0</ele><time>2026-05-02T11:43:12.922Z</time></trkpt><trkpt lat="44.1149992" lon="11.3803171"><ele>425.0</ele><time>2026-05-02T11:43:13.922Z</time></trkpt><trkpt lat="44.1148806" lon="11.3804122"><ele>425.0</ele><time>2026-05-02T11:43:14.923Z</time></trkpt><trkpt lat="44.1147603" lon="11.3805077"><ele>425.5</ele><time>2026-05-02T11:43:15.922Z</time></trkpt><trkpt lat="44.1146516" lon="11.3805985"><ele>426.0</ele><time>2026-05-02T11:43:16.922Z</time></trkpt><trkpt lat="44.1145513" lon="11.3806873"><ele>426.5</ele><time>2026-05-02T11:43:17.922Z</time></trkpt><trkpt lat="44.1144554" lon="11.3807591"><ele>427.0</ele><time>2026-05-02T11:43:18.922Z</time></trkpt><trkpt lat="44.1143551" lon="11.3808159"><ele>427.0</ele><time>2026-05-02T11:43:19.922Z</time></trkpt><trkpt lat="44.114253" lon="11.3808569"><ele>427.0</ele><time>2026-05-02T11:43:20.922Z</time></trkpt><trkpt lat="44.1141413" lon="11.380872"><ele>427.0</ele><time>2026-05-02T11:43:21.922Z</time></trkpt><trkpt lat="44.114025" lon="11.380863"><ele>427.0</ele><time>2026-05-02T11:43:22.922Z</time></trkpt><trkpt lat="44.1138969" lon="11.3808286"><ele>425.6666666666667</ele><time>2026-05-02T11:43:23.922Z</time></trkpt><trkpt lat="44.1137503" lon="11.3807434"><ele>424.33333333333337</ele><time>2026-05-02T11:43:24.922Z</time></trkpt><trkpt lat="44.1135866" lon="11.3806385"><ele>423.0</ele><time>2026-05-02T11:43:25.922Z</time></trkpt><trkpt lat="44.1134114" lon="11.380525"><ele>424.66666666666663</ele><time>2026-05-02T11:43:26.922Z</time></trkpt><trkpt lat="44.1132203" lon="11.3804127"><ele>426.3333333333333</ele><time>2026-05-02T11:43:27.922Z</time></trkpt><trkpt lat="44.113018" lon="11.3802928"><ele>428.0</ele><time>2026-05-02T11:43:28.923Z</time></trkpt><trkpt lat="44.1128131" lon="11.3801773"><ele>428.0</ele><time>2026-05-02T11:43:29.922Z</time></trkpt><trkpt lat="44.1126192" lon="11.3800645"><ele>428.0</ele><time>2026-05-02T11:43:30.922Z</time></trkpt><trkpt lat="44.1124257" lon="11.3799592"><ele>428.0</ele><time>2026-05-02T11:43:31.922Z</time></trkpt><trkpt lat="44.1122404" lon="11.3798539"><ele>427.3333333333333</ele><time>2026-05-02T11:43:32.922Z</time></trkpt><trkpt lat="44.1120667" lon="11.3797637"><ele>426.66666666666663</ele><time>2026-05-02T11:43:33.922Z</time></trkpt><trkpt lat="44.1119004" lon="11.3796891"><ele>426.0</ele><time>2026-05-02T11:43:34.922Z</time></trkpt><trkpt lat="44.1117455" lon="11.3796228"><ele>428.66666666666663</ele><time>2026-05-02T11:43:35.922Z</time></trkpt><trkpt lat="44.1115976" lon="11.3795842"><ele>431.3333333333333</ele><time>2026-05-02T11:43:36.922Z</time></trkpt><trkpt lat="44.1114374" lon="11.3795877"><ele>434.0</ele><time>2026-05-02T11:43:37.922Z</time></trkpt><trkpt lat="44.1112636" lon="11.3796328"><ele>433.3333333333333</ele><time>2026-05-02T11:43:38.922Z</time></trkpt><trkpt lat="44.1110661" lon="11.379697"><ele>432.66666666666663</ele><time>2026-05-02T11:43:39.922Z</time></trkpt><trkpt lat="44.1108703" lon="11.379763"><ele>432.0</ele><time>2026-05-02T11:43:40.922Z</time></trkpt><trkpt lat="44.1106823" lon="11.3798281"><ele>432.0</ele><time>2026-05-02T11:43:41.922Z</time></trkpt><trkpt lat="44.1105059" lon="11.3798981"><ele>432.0</ele><time>2026-05-02T11:43:42.922Z</time></trkpt><trkpt lat="44.1103306" lon="11.379961"><ele>432.0</ele><time>2026-05-02T11:43:43.922Z</time></trkpt><trkpt lat="44.1101624" lon="11.3800272"><ele>432.0</ele><time>2026-05-02T11:43:44.922Z</time></trkpt><trkpt lat="44.1099875" lon="11.380085"><ele>432.0</ele><time>2026-05-02T11:43:45.922Z</time></trkpt><trkpt lat="44.109808" lon="11.3801028"><ele>432.0</ele><time>2026-05-02T11:43:46.922Z</time></trkpt><trkpt lat="44.1096311" lon="11.3800722"><ele>431.0</ele><time>2026-05-02T11:43:47.921Z</time></trkpt><trkpt lat="44.1094392" lon="11.3799917"><ele>430.0</ele><time>2026-05-02T11:43:48.921Z</time></trkpt><trkpt lat="44.1092431" lon="11.3798822"><ele>429.0</ele><time>2026-05-02T11:43:49.921Z</time></trkpt><trkpt lat="44.1090463" lon="11.3797736"><ele>431.0</ele><time>2026-05-02T11:43:50.921Z</time></trkpt><trkpt lat="44.108837" lon="11.3796622"><ele>433.0</ele><time>2026-05-02T11:43:51.921Z</time></trkpt><trkpt lat="44.1086298" lon="11.3795564"><ele>435.0</ele><time>2026-05-02T11:43:52.921Z</time></trkpt><trkpt lat="44.1084222" lon="11.3794593"><ele>433.33333333333337</ele><time>2026-05-02T11:43:53.921Z</time></trkpt><trkpt lat="44.1082148" lon="11.3793652"><ele>431.6666666666667</ele><time>2026-05-02T11:43:54.921Z</time></trkpt><trkpt lat="44.1080079" lon="11.3792683"><ele>430.0</ele><time>2026-05-02T11:43:55.921Z</time></trkpt><trkpt lat="44.1078061" lon="11.3791801"><ele>430.0</ele><time>2026-05-02T11:43:56.921Z</time></trkpt><trkpt lat="44.1076051" lon="11.3790895"><ele>430.0</ele><time>2026-05-02T11:43:57.921Z</time></trkpt><trkpt lat="44.1074115" lon="11.378993"><ele>430.0</ele><time>2026-05-02T11:43:58.921Z</time></trkpt><trkpt lat="44.1072199" lon="11.3789"><ele>432.0</ele><time>2026-05-02T11:43:59.921Z</time></trkpt><trkpt lat="44.1070192" lon="11.378817"><ele>434.0</ele><time>2026-05-02T11:44:00.921Z</time></trkpt><trkpt lat="44.1068242" lon="11.3787325"><ele>436.0</ele><time>2026-05-02T11:44:01.921Z</time></trkpt><trkpt lat="44.1066285" lon="11.3786578"><ele>435.6666666666667</ele><time>2026-05-02T11:44:02.921Z</time></trkpt><trkpt lat="44.106431" lon="11.378599"><ele>435.33333333333337</ele><time>2026-05-02T11:44:03.921Z</time></trkpt><trkpt lat="44.1062185" lon="11.3785509"><ele>435.0</ele><time>2026-05-02T11:44:04.921Z</time></trkpt><trkpt lat="44.1060061" lon="11.3785067"><ele>435.0</ele><time>2026-05-02T11:44:05.921Z</time></trkpt><trkpt lat="44.1057817" lon="11.3784667"><ele>435.0</ele><time>2026-05-02T11:44:06.921Z</time></trkpt><trkpt lat="44.105552" lon="11.3784319"><ele>436.5</ele><time>2026-05-02T11:44:07.921Z</time></trkpt><trkpt lat="44.105305" lon="11.3784002"><ele>438.0</ele><time>2026-05-02T11:44:08.921Z</time></trkpt><trkpt lat="44.1050423" lon="11.3783673"><ele>438.5</ele><time>2026-05-02T11:44:09.921Z</time></trkpt><trkpt lat="44.1047735" lon="11.3783299"><ele>439.0</ele><time>2026-05-02T11:44:10.921Z</time></trkpt><trkpt lat="44.104525" lon="11.3782902"><ele>439.0</ele><time>2026-05-02T11:44:11.921Z</time></trkpt><trkpt lat="44.1042962" lon="11.3782522"><ele>439.0</ele><time>2026-05-02T11:44:12.921Z</time></trkpt><trkpt lat="44.1040904" lon="11.3782152"><ele>439.0</ele><time>2026-05-02T11:44:13.921Z</time></trkpt><trkpt lat="44.1038998" lon="11.3781785"><ele>439.0</ele><time>2026-05-02T11:44:14.921Z</time></trkpt><trkpt lat="44.1037214" lon="11.3781441"><ele>439.0</ele><time>2026-05-02T11:44:15.921Z</time></trkpt><trkpt lat="44.1035456" lon="11.3781082"><ele>439.0</ele><time>2026-05-02T11:44:16.921Z</time></trkpt><trkpt lat="44.1033683" lon="11.3780838"><ele>439.33333333333337</ele><time>2026-05-02T11:44:17.921Z</time></trkpt><trkpt lat="44.1032054" lon="11.3780614"><ele>439.66666666666663</ele><time>2026-05-02T11:44:18.921Z</time></trkpt><trkpt lat="44.1030333" lon="11.378039"><ele>440.0</ele><time>2026-05-02T11:44:19.921Z</time></trkpt><trkpt lat="44.1028504" lon="11.3780258"><ele>440.0</ele><time>2026-05-02T11:44:20.921Z</time></trkpt><trkpt lat="44.1026632" lon="11.378035"><ele>440.0</ele><time>2026-05-02T11:44:21.921Z</time></trkpt><trkpt lat="44.1024787" lon="11.3780658"><ele>440.0</ele><time>2026-05-02T11:44:22.921Z</time></trkpt><trkpt lat="44.1022948" lon="11.3781219"><ele>440.3333333333333</ele><time>2026-05-02T11:44:23.921Z</time></trkpt><trkpt lat="44.1021099" lon="11.378202"><ele>440.66666666666663</ele><time>2026-05-02T11:44:24.921Z</time></trkpt><trkpt lat="44.1019284" lon="11.3783101"><ele>441.0</ele><time>2026-05-02T11:44:25.921Z</time></trkpt><trkpt lat="44.1017408" lon="11.3784348"><ele>442.66666666666663</ele><time>2026-05-02T11:44:26.921Z</time></trkpt><trkpt lat="44.1015541" lon="11.3785636"><ele>444.3333333333333</ele><time>2026-05-02T11:44:27.921Z</time></trkpt><trkpt lat="44.1013822" lon="11.37869"><ele>446.0</ele><time>2026-05-02T11:44:28.921Z</time></trkpt><trkpt lat="44.101213" lon="11.3788235"><ele>445.0</ele><time>2026-05-02T11:44:29.921Z</time></trkpt><trkpt lat="44.1010424" lon="11.378939"><ele>444.0</ele><time>2026-05-02T11:44:30.921Z</time></trkpt><trkpt lat="44.1008657" lon="11.3790575"><ele>443.0</ele><time>2026-05-02T11:44:31.921Z</time></trkpt><trkpt lat="44.1006906" lon="11.3791784"><ele>445.3333333333333</ele><time>2026-05-02T11:44:32.921Z</time></trkpt><trkpt lat="44.1005141" lon="11.3792986"><ele>447.66666666666663</ele><time>2026-05-02T11:44:33.922Z</time></trkpt><trkpt lat="44.1003325" lon="11.3794174"><ele>450.0</ele><time>2026-05-02T11:44:34.921Z</time></trkpt><trkpt lat="44.1001457" lon="11.3795406"><ele>450.0</ele><time>2026-05-02T11:44:35.921Z</time></trkpt><trkpt lat="44.0999675" lon="11.3796679"><ele>450.0</ele><time>2026-05-02T11:44:36.921Z</time></trkpt><trkpt lat="44.0997881" lon="11.3797992"><ele>450.0</ele><time>2026-05-02T11:44:37.921Z</time></trkpt><trkpt lat="44.0996108" lon="11.3799241"><ele>449.0</ele><time>2026-05-02T11:44:38.921Z</time></trkpt><trkpt lat="44.0994347" lon="11.3800488"><ele>448.0</ele><time>2026-05-02T11:44:39.921Z</time></trkpt><trkpt lat="44.0992545" lon="11.3801706"><ele>447.0</ele><time>2026-05-02T11:44:40.921Z</time></trkpt><trkpt lat="44.0990767" lon="11.3802866"><ele>447.66666666666663</ele><time>2026-05-02T11:44:41.921Z</time></trkpt><trkpt lat="44.098893" lon="11.3804084"><ele>448.3333333333333</ele><time>2026-05-02T11:44:42.921Z</time></trkpt><trkpt lat="44.0987063" lon="11.3805173"><ele>449.0</ele><time>2026-05-02T11:44:43.921Z</time></trkpt><trkpt lat="44.0985178" lon="11.3806215"><ele>449.0</ele><time>2026-05-02T11:44:44.921Z</time></trkpt><trkpt lat="44.0983257" lon="11.3807255"><ele>449.0</ele><time>2026-05-02T11:44:45.921Z</time></trkpt><trkpt lat="44.0981388" lon="11.3808171"><ele>449.0</ele><time>2026-05-02T11:44:46.921Z</time></trkpt><trkpt lat="44.0979485" lon="11.38088"><ele>451.66666666666663</ele><time>2026-05-02T11:44:47.921Z</time></trkpt><trkpt lat="44.0977554" lon="11.3809022"><ele>454.33333333333337</ele><time>2026-05-02T11:44:48.921Z</time></trkpt><trkpt lat="44.0975632" lon="11.3808753"><ele>457.0</ele><time>2026-05-02T11:44:49.921Z</time></trkpt><trkpt lat="44.097363" lon="11.3808297"><ele>460.33333333333337</ele><time>2026-05-02T11:44:50.921Z</time></trkpt><trkpt lat="44.0971632" lon="11.3807869"><ele>463.66666666666663</ele><time>2026-05-02T11:44:51.921Z</time></trkpt><trkpt lat="44.0969844" lon="11.3807917"><ele>467.0</ele><time>2026-05-02T11:44:52.921Z</time></trkpt><trkpt lat="44.096808" lon="11.3808508"><ele>467.0</ele><time>2026-05-02T11:44:53.921Z</time></trkpt><trkpt lat="44.0966488" lon="11.3809579"><ele>467.0</ele><time>2026-05-02T11:44:54.921Z</time></trkpt><trkpt lat="44.0964763" lon="11.3810959"><ele>467.0</ele><time>2026-05-02T11:44:55.921Z</time></trkpt><trkpt lat="44.0963028" lon="11.3812398"><ele>469.66666666666663</ele><time>2026-05-02T11:44:56.921Z</time></trkpt><trkpt lat="44.0961245" lon="11.3813697"><ele>472.33333333333337</ele><time>2026-05-02T11:44:57.921Z</time></trkpt><trkpt lat="44.0959515" lon="11.3815203"><ele>475.0</ele><time>2026-05-02T11:44:58.921Z</time></trkpt><trkpt lat="44.0958077" lon="11.3816801"><ele>476.33333333333337</ele><time>2026-05-02T11:44:59.921Z</time></trkpt><trkpt lat="44.0957024" lon="11.3818622"><ele>477.66666666666663</ele><time>2026-05-02T11:45:00.921Z</time></trkpt><trkpt lat="44.0956373" lon="11.3820633"><ele>479.0</ele><time>2026-05-02T11:45:01.921Z</time></trkpt><trkpt lat="44.0955783" lon="11.3822695"><ele>479.0</ele><time>2026-05-02T11:45:02.921Z</time></trkpt><trkpt lat="44.0955098" lon="11.382438"><ele>479.0</ele><time>2026-05-02T11:45:03.921Z</time></trkpt><trkpt lat="44.0954182" lon="11.3825319"><ele>479.0</ele><time>2026-05-02T11:45:04.922Z</time></trkpt><trkpt lat="44.0952918" lon="11.3825534"><ele>479.0</ele><time>2026-05-02T11:45:05.921Z</time></trkpt><trkpt lat="44.0951631" lon="11.3825203"><ele>479.0</ele><time>2026-05-02T11:45:06.921Z</time></trkpt><trkpt lat="44.0950237" lon="11.38246"><ele>479.0</ele><time>2026-05-02T11:45:07.921Z</time></trkpt><trkpt lat="44.0948814" lon="11.3823876"><ele>479.0</ele><time>2026-05-02T11:45:08.921Z</time></trkpt><trkpt lat="44.0947407" lon="11.3823113"><ele>479.0</ele><time>2026-05-02T11:45:09.921Z</time></trkpt><trkpt lat="44.094603" lon="11.3822181"><ele>483.75</ele><time>2026-05-02T11:45:10.921Z</time></trkpt><trkpt lat="44.0944797" lon="11.3821102"><ele>488.5</ele><time>2026-05-02T11:45:11.921Z</time></trkpt><trkpt lat="44.0943679" lon="11.3820085"><ele>493.25</ele><time>2026-05-02T11:45:12.921Z</time></trkpt><trkpt lat="44.0942483" lon="11.3819458"><ele>498.0</ele><time>2026-05-02T11:45:13.921Z</time></trkpt><trkpt lat="44.0941329" lon="11.3819502"><ele>499.5</ele><time>2026-05-02T11:45:14.921Z</time></trkpt><trkpt lat="44.0940268" lon="11.38204"><ele>501.0</ele><time>2026-05-02T11:45:15.921Z</time></trkpt><trkpt lat="44.0939313" lon="11.3821918"><ele>502.5</ele><time>2026-05-02T11:45:16.921Z</time></trkpt><trkpt lat="44.0938511" lon="11.3823906"><ele>504.0</ele><time>2026-05-02T11:45:17.921Z</time></trkpt><trkpt lat="44.0937805" lon="11.3825993"><ele>504.0</ele><time>2026-05-02T11:45:18.921Z</time></trkpt><trkpt lat="44.0936998" lon="11.382796"><ele>504.0</ele><time>2026-05-02T11:45:19.921Z</time></trkpt><trkpt lat="44.093603" lon="11.3829655"><ele>504.0</ele><time>2026-05-02T11:45:20.921Z</time></trkpt><trkpt lat="44.0934842" lon="11.3831121"><ele>502.0</ele><time>2026-05-02T11:45:21.921Z</time></trkpt><trkpt lat="44.0933456" lon="11.3832322"><ele>500.0</ele><time>2026-05-02T11:45:22.921Z</time></trkpt><trkpt lat="44.0932058" lon="11.3833304"><ele>498.0</ele><time>2026-05-02T11:45:23.921Z</time></trkpt><trkpt lat="44.0930675" lon="11.3833874"><ele>498.0</ele><time>2026-05-02T11:45:24.921Z</time></trkpt><trkpt lat="44.092938" lon="11.3833745"><ele>498.0</ele><time>2026-05-02T11:45:25.921Z</time></trkpt><trkpt lat="44.0928232" lon="11.3832993"><ele>498.0</ele><time>2026-05-02T11:45:26.921Z</time></trkpt><trkpt lat="44.092744" lon="11.3831515"><ele>498.0</ele><time>2026-05-02T11:45:27.921Z</time></trkpt><trkpt lat="44.092663" lon="11.3829924"><ele>499.25</ele><time>2026-05-02T11:45:28.921Z</time></trkpt><trkpt lat="44.0925654" lon="11.3828527"><ele>500.5</ele><time>2026-05-02T11:45:29.921Z</time></trkpt><trkpt lat="44.0924551" lon="11.3827868"><ele>501.75</ele><time>2026-05-02T11:45:30.921Z</time></trkpt><trkpt lat="44.0923394" lon="11.382781"><ele>503.0</ele><time>2026-05-02T11:45:31.921Z</time></trkpt><trkpt lat="44.0922242" lon="11.3827707"><ele>503.0</ele><time>2026-05-02T11:45:32.921Z</time></trkpt><trkpt lat="44.0921331" lon="11.3827134"><ele>503.0</ele><time>2026-05-02T11:45:33.921Z</time></trkpt><trkpt lat="44.0920624" lon="11.3826004"><ele>503.0</ele><time>2026-05-02T11:45:34.921Z</time></trkpt><trkpt lat="44.0920429" lon="11.3824402"><ele>503.0</ele><time>2026-05-02T11:45:35.921Z</time></trkpt><trkpt lat="44.0920472" lon="11.3822564"><ele>505.0</ele><time>2026-05-02T11:45:36.921Z</time></trkpt><trkpt lat="44.0920376" lon="11.3820864"><ele>507.0</ele><time>2026-05-02T11:45:37.921Z</time></trkpt><trkpt lat="44.091991" lon="11.3819191"><ele>509.0</ele><time>2026-05-02T11:45:38.921Z</time></trkpt><trkpt lat="44.0919007" lon="11.3817826"><ele>511.0</ele><time>2026-05-02T11:45:39.921Z</time></trkpt><trkpt lat="44.0917718" lon="11.3816854"><ele>511.0</ele><time>2026-05-02T11:45:40.921Z</time></trkpt><trkpt lat="44.0916217" lon="11.3816221"><ele>511.0</ele><time>2026-05-02T11:45:41.921Z</time></trkpt><trkpt lat="44.0914692" lon="11.3815821"><ele>511.0</ele><time>2026-05-02T11:45:42.921Z</time></trkpt><trkpt lat="44.091324" lon="11.3815629"><ele>509.33333333333337</ele><time>2026-05-02T11:45:43.921Z</time></trkpt><trkpt lat="44.0911795" lon="11.3815245"><ele>507.66666666666663</ele><time>2026-05-02T11:45:44.921Z</time></trkpt><trkpt lat="44.0910435" lon="11.3814294"><ele>506.0</ele><time>2026-05-02T11:45:45.921Z</time></trkpt><trkpt lat="44.0909151" lon="11.3812602"><ele>507.3333333333333</ele><time>2026-05-02T11:45:46.921Z</time></trkpt><trkpt lat="44.0907793" lon="11.3810453"><ele>508.66666666666663</ele><time>2026-05-02T11:45:47.921Z</time></trkpt><trkpt lat="44.0906438" lon="11.3808062"><ele>510.0</ele><time>2026-05-02T11:45:48.921Z</time></trkpt><trkpt lat="44.0905153" lon="11.3805766"><ele>513.3333333333334</ele><time>2026-05-02T11:45:49.921Z</time></trkpt><trkpt lat="44.0904028" lon="11.3803619"><ele>516.6666666666667</ele><time>2026-05-02T11:45:50.921Z</time></trkpt><trkpt lat="44.0903233" lon="11.3801536"><ele>520.0</ele><time>2026-05-02T11:45:51.921Z</time></trkpt><trkpt lat="44.0902577" lon="11.3799394"><ele>520.0</ele><time>2026-05-02T11:45:52.921Z</time></trkpt><trkpt lat="44.0902004" lon="11.3797459"><ele>520.0</ele><time>2026-05-02T11:45:53.921Z</time></trkpt><trkpt lat="44.0901188" lon="11.379601"><ele>520.0</ele><time>2026-05-02T11:45:54.921Z</time></trkpt><trkpt lat="44.0900022" lon="11.379511"><ele>520.0</ele><time>2026-05-02T11:45:55.921Z</time></trkpt><trkpt lat="44.0898611" lon="11.3794473"><ele>523.0</ele><time>2026-05-02T11:45:56.921Z</time></trkpt><trkpt lat="44.0897049" lon="11.3793909"><ele>526.0</ele><time>2026-05-02T11:45:57.921Z</time></trkpt><trkpt lat="44.0895712" lon="11.3793057"><ele>529.0</ele><time>2026-05-02T11:45:58.921Z</time></trkpt><trkpt lat="44.089461" lon="11.3791681"><ele>529.0</ele><time>2026-05-02T11:45:59.921Z</time></trkpt><trkpt lat="44.0893639" lon="11.3790041"><ele>529.0</ele><time>2026-05-02T11:46:00.921Z</time></trkpt><trkpt lat="44.0892695" lon="11.3788361"><ele>529.0</ele><time>2026-05-02T11:46:01.921Z</time></trkpt><trkpt lat="44.0891715" lon="11.3786799"><ele>532.25</ele><time>2026-05-02T11:46:02.921Z</time></trkpt><trkpt lat="44.0890654" lon="11.378582"><ele>535.5</ele><time>2026-05-02T11:46:03.921Z</time></trkpt><trkpt lat="44.0889591" lon="11.37856"><ele>538.75</ele><time>2026-05-02T11:46:04.921Z</time></trkpt><trkpt lat="44.0888323" lon="11.37861"><ele>542.0</ele><time>2026-05-02T11:46:05.921Z</time></trkpt><trkpt lat="44.0886921" lon="11.3786879"><ele>542.0</ele><time>2026-05-02T11:46:06.921Z</time></trkpt><trkpt lat="44.0885366" lon="11.3787666"><ele>542.0</ele><time>2026-05-02T11:46:07.921Z</time></trkpt><trkpt lat="44.0883683" lon="11.3788381"><ele>542.0</ele><time>2026-05-02T11:46:08.921Z</time></trkpt><trkpt lat="44.088188" lon="11.3789081"><ele>540.3333333333333</ele><time>2026-05-02T11:46:09.921Z</time></trkpt><trkpt lat="44.0880123" lon="11.3789448"><ele>538.6666666666666</ele><time>2026-05-02T11:46:10.921Z</time></trkpt><trkpt lat="44.0878379" lon="11.3789334"><ele>537.0</ele><time>2026-05-02T11:46:11.921Z</time></trkpt><trkpt lat="44.0876621" lon="11.3788576"><ele>539.0</ele><time>2026-05-02T11:46:12.921Z</time></trkpt><trkpt lat="44.0874795" lon="11.3787384"><ele>541.0</ele><time>2026-05-02T11:46:13.921Z</time></trkpt><trkpt lat="44.0872969" lon="11.3786126"><ele>543.0</ele><time>2026-05-02T11:46:14.921Z</time></trkpt><trkpt lat="44.0871252" lon="11.3784883"><ele>545.0</ele><time>2026-05-02T11:46:15.921Z</time></trkpt><trkpt lat="44.0869547" lon="11.3783902"><ele>547.0</ele><time>2026-05-02T11:46:16.921Z</time></trkpt><trkpt lat="44.0867922" lon="11.3783186"><ele>549.0</ele><time>2026-05-02T11:46:17.921Z</time></trkpt><trkpt lat="44.0866391" lon="11.378274"><ele>550.3333333333334</ele><time>2026-05-02T11:46:18.921Z</time></trkpt><trkpt lat="44.0864926" lon="11.3782603"><ele>551.6666666666667</ele><time>2026-05-02T11:46:19.921Z</time></trkpt><trkpt lat="44.0863428" lon="11.3782961"><ele>553.0</ele><time>2026-05-02T11:46:20.921Z</time></trkpt><trkpt lat="44.0861856" lon="11.378354"><ele>553.0</ele><time>2026-05-02T11:46:21.921Z</time></trkpt><trkpt lat="44.0860167" lon="11.3784304"><ele>553.0</ele><time>2026-05-02T11:46:22.921Z</time></trkpt><trkpt lat="44.0858453" lon="11.378503"><ele>553.0</ele><time>2026-05-02T11:46:23.921Z</time></trkpt><trkpt lat="44.0856843" lon="11.3785659"><ele>555.5</ele><time>2026-05-02T11:46:24.921Z</time></trkpt><trkpt lat="44.0855216" lon="11.3786299"><ele>558.0</ele><time>2026-05-02T11:46:25.921Z</time></trkpt><trkpt lat="44.0853809" lon="11.378695"><ele>560.5</ele><time>2026-05-02T11:46:26.921Z</time></trkpt><trkpt lat="44.0852586" lon="11.3787534"><ele>563.0</ele><time>2026-05-02T11:46:27.921Z</time></trkpt><trkpt lat="44.0851595" lon="11.3788011"><ele>563.0</ele><time>2026-05-02T11:46:28.921Z</time></trkpt><trkpt lat="44.0850829" lon="11.3788275"><ele>563.0</ele><time>2026-05-02T11:46:29.921Z</time></trkpt><trkpt lat="44.0850196" lon="11.3788116"><ele>563.0</ele><time>2026-05-02T11:46:30.921Z</time></trkpt><trkpt lat="44.0849723" lon="11.3787516"><ele>563.0</ele><time>2026-05-02T11:46:31.921Z</time></trkpt><trkpt lat="44.0849368" lon="11.3786692"><ele>563.0</ele><time>2026-05-02T11:46:32.921Z</time></trkpt><trkpt lat="44.0849132" lon="11.3785692"><ele>563.0</ele><time>2026-05-02T11:46:33.921Z</time></trkpt><trkpt lat="44.084899" lon="11.3784538"><ele>563.0</ele><time>2026-05-02T11:46:34.921Z</time></trkpt><trkpt lat="44.0849118" lon="11.3783188"><ele>563.0</ele><time>2026-05-02T11:46:35.921Z</time></trkpt><trkpt lat="44.0849578" lon="11.3781691"><ele>563.0</ele><time>2026-05-02T11:46:36.921Z</time></trkpt><trkpt lat="44.0850163" lon="11.3780131"><ele>563.0</ele><time>2026-05-02T11:46:37.921Z</time></trkpt><trkpt lat="44.0850721" lon="11.3778469"><ele>563.0</ele><time>2026-05-02T11:46:38.921Z</time></trkpt><trkpt lat="44.0851165" lon="11.3776642"><ele>564.75</ele><time>2026-05-02T11:46:39.921Z</time></trkpt><trkpt lat="44.0851651" lon="11.3774819"><ele>566.5</ele><time>2026-05-02T11:46:40.921Z</time></trkpt><trkpt lat="44.0852077" lon="11.3772923"><ele>568.25</ele><time>2026-05-02T11:46:41.921Z</time></trkpt><trkpt lat="44.0852463" lon="11.3771264"><ele>570.0</ele><time>2026-05-02T11:46:42.921Z</time></trkpt><trkpt lat="44.0852736" lon="11.3769694"><ele>570.75</ele><time>2026-05-02T11:46:43.921Z</time></trkpt><trkpt lat="44.0852754" lon="11.3768209"><ele>571.5</ele><time>2026-05-02T11:46:44.921Z</time></trkpt><trkpt lat="44.0852507" lon="11.3766701"><ele>572.25</ele><time>2026-05-02T11:46:45.921Z</time></trkpt><trkpt lat="44.085196" lon="11.3765063"><ele>573.0</ele><time>2026-05-02T11:46:46.921Z</time></trkpt><trkpt lat="44.0851343" lon="11.3763488"><ele>574.0</ele><time>2026-05-02T11:46:47.921Z</time></trkpt><trkpt lat="44.0850743" lon="11.3762053"><ele>575.0</ele><time>2026-05-02T11:46:48.921Z</time></trkpt><trkpt lat="44.0850322" lon="11.3760815"><ele>576.0</ele><time>2026-05-02T11:46:49.921Z</time></trkpt><trkpt lat="44.0850014" lon="11.3759724"><ele>577.0</ele><time>2026-05-02T11:46:50.921Z</time></trkpt><trkpt lat="44.0849708" lon="11.3758543"><ele>578.0</ele><time>2026-05-02T11:46:51.921Z</time></trkpt><trkpt lat="44.0849466" lon="11.3757395"><ele>578.0</ele><time>2026-05-02T11:46:52.921Z</time></trkpt><trkpt lat="44.0849383" lon="11.3756288"><ele>578.0</ele><time>2026-05-02T11:46:53.921Z</time></trkpt><trkpt lat="44.0849488" lon="11.3755204"><ele>578.0</ele><time>2026-05-02T11:46:54.921Z</time></trkpt><trkpt lat="44.0849654" lon="11.3754191"><ele>578.0</ele><time>2026-05-02T11:46:55.921Z</time></trkpt><trkpt lat="44.0849879" lon="11.3753298"><ele>578.0</ele><time>2026-05-02T11:46:56.921Z</time></trkpt><trkpt lat="44.0850327" lon="11.3752084"><ele>578.0</ele><time>2026-05-02T11:46:58.921Z</time></trkpt><trkpt lat="44.085093" lon="11.3751349"><ele>580.1999999999999</ele><time>2026-05-02T11:48:00.921Z</time></trkpt><trkpt lat="44.0851158" lon="11.3750521"><ele>582.4</ele><time>2026-05-02T11:48:01.921Z</time></trkpt><trkpt lat="44.0851535" lon="11.3749532"><ele>584.5999999999999</ele><time>2026-05-02T11:48:02.921Z</time></trkpt><trkpt lat="44.0852184" lon="11.3748349"><ele>586.8</ele><time>2026-05-02T11:48:03.921Z</time></trkpt><trkpt lat="44.0852969" lon="11.3747381"><ele>589.0</ele><time>2026-05-02T11:48:04.921Z</time></trkpt><trkpt lat="44.085408" lon="11.3746796"><ele>593.75</ele><time>2026-05-02T11:48:05.921Z</time></trkpt><trkpt lat="44.0855392" lon="11.3746476"><ele>598.5</ele><time>2026-05-02T11:48:06.921Z</time></trkpt><trkpt lat="44.0856847" lon="11.3746544"><ele>603.25</ele><time>2026-05-02T11:48:07.921Z</time></trkpt><trkpt lat="44.0858274" lon="11.3746766"><ele>608.0</ele><time>2026-05-02T11:48:08.921Z</time></trkpt><trkpt lat="44.0859466" lon="11.3746832"><ele>608.0</ele><time>2026-05-02T11:48:09.921Z</time></trkpt><trkpt lat="44.0860512" lon="11.3746497"><ele>608.0</ele><time>2026-05-02T11:48:10.921Z</time></trkpt><trkpt lat="44.0861509" lon="11.3745886"><ele>608.0</ele><time>2026-05-02T11:48:11.921Z</time></trkpt><trkpt lat="44.0862489" lon="11.3745097"><ele>608.0</ele><time>2026-05-02T11:48:12.921Z</time></trkpt><trkpt lat="44.0863559" lon="11.3744264"><ele>608.0</ele><time>2026-05-02T11:48:13.921Z</time></trkpt><trkpt lat="44.0864633" lon="11.3743528"><ele>608.0</ele><time>2026-05-02T11:48:14.921Z</time></trkpt><trkpt lat="44.0865831" lon="11.3742835"><ele>608.0</ele><time>2026-05-02T11:48:15.921Z</time></trkpt><trkpt lat="44.0867117" lon="11.3742255"><ele>608.0</ele><time>2026-05-02T11:48:16.921Z</time></trkpt><trkpt lat="44.0868369" lon="11.3741646"><ele>607.5</ele><time>2026-05-02T11:48:17.921Z</time></trkpt><trkpt lat="44.0869663" lon="11.3740926"><ele>607.0</ele><time>2026-05-02T11:48:18.921Z</time></trkpt><trkpt lat="44.0870807" lon="11.3740031"><ele>606.5</ele><time>2026-05-02T11:48:19.921Z</time></trkpt><trkpt lat="44.0871884" lon="11.3739236"><ele>606.0</ele><time>2026-05-02T11:48:20.921Z</time></trkpt><trkpt lat="44.0872938" lon="11.3738333"><ele>610.0</ele><time>2026-05-02T11:48:21.921Z</time></trkpt><trkpt lat="44.0874074" lon="11.373742"><ele>614.0</ele><time>2026-05-02T11:48:22.921Z</time></trkpt><trkpt lat="44.0875141" lon="11.3736606"><ele>618.0</ele><time>2026-05-02T11:48:23.921Z</time></trkpt><trkpt lat="44.087623" lon="11.3736133"><ele>622.0</ele><time>2026-05-02T11:48:24.921Z</time></trkpt><trkpt lat="44.0877477" lon="11.3736044"><ele>622.0</ele><time>2026-05-02T11:48:25.921Z</time></trkpt><trkpt lat="44.087882" lon="11.3736246"><ele>622.0</ele><time>2026-05-02T11:48:26.921Z</time></trkpt><trkpt lat="44.0880252" lon="11.3736303"><ele>622.0</ele><time>2026-05-02T11:48:27.921Z</time></trkpt><trkpt lat="44.0881703" lon="11.3736143"><ele>622.0</ele><time>2026-05-02T11:48:28.921Z</time></trkpt><trkpt lat="44.0883109" lon="11.3735854"><ele>620.25</ele><time>2026-05-02T11:48:29.921Z</time></trkpt><trkpt lat="44.0884329" lon="11.3735474"><ele>618.5</ele><time>2026-05-02T11:48:30.921Z</time></trkpt><trkpt lat="44.0885368" lon="11.373488"><ele>616.75</ele><time>2026-05-02T11:48:31.921Z</time></trkpt><trkpt lat="44.0886235" lon="11.3734049"><ele>615.0</ele><time>2026-05-02T11:48:32.921Z</time></trkpt><trkpt lat="44.0887053" lon="11.3732909"><ele>615.0</ele><time>2026-05-02T11:48:33.921Z</time></trkpt><trkpt lat="44.088794" lon="11.3731736"><ele>615.0</ele><time>2026-05-02T11:48:34.921Z</time></trkpt><trkpt lat="44.0888893" lon="11.3730677"><ele>615.0</ele><time>2026-05-02T11:48:35.921Z</time></trkpt><trkpt lat="44.088988" lon="11.3729817"><ele>615.0</ele><time>2026-05-02T11:48:36.921Z</time></trkpt><trkpt lat="44.089089" lon="11.3729424"><ele>617.8</ele><time>2026-05-02T11:48:37.921Z</time></trkpt><trkpt lat="44.0891926" lon="11.3729312"><ele>620.6</ele><time>2026-05-02T11:48:38.921Z</time></trkpt><trkpt lat="44.0893035" lon="11.3729279"><ele>623.4</ele><time>2026-05-02T11:48:39.921Z</time></trkpt><trkpt lat="44.0894077" lon="11.3729212"><ele>626.2</ele><time>2026-05-02T11:48:40.921Z</time></trkpt><trkpt lat="44.0894857" lon="11.3728753"><ele>629.0</ele><time>2026-05-02T11:48:41.921Z</time></trkpt><trkpt lat="44.0895308" lon="11.3728033"><ele>629.0</ele><time>2026-05-02T11:48:42.921Z</time></trkpt><trkpt lat="44.0895502" lon="11.3727153"><ele>629.0</ele><time>2026-05-02T11:48:43.921Z</time></trkpt><trkpt lat="44.0895261" lon="11.3726039"><ele>629.0</ele><time>2026-05-02T11:48:44.921Z</time></trkpt><trkpt lat="44.0894701" lon="11.3724877"><ele>629.0</ele><time>2026-05-02T11:48:45.921Z</time></trkpt><trkpt lat="44.0893859" lon="11.3723809"><ele>629.0</ele><time>2026-05-02T11:48:46.921Z</time></trkpt><trkpt lat="44.089294" lon="11.3722824"><ele>632.5</ele><time>2026-05-02T11:48:47.921Z</time></trkpt><trkpt lat="44.0891944" lon="11.3721853"><ele>636.0</ele><time>2026-05-02T11:48:48.921Z</time></trkpt><trkpt lat="44.0890943" lon="11.3721133"><ele>639.5</ele><time>2026-05-02T11:48:49.921Z</time></trkpt><trkpt lat="44.0889775" lon="11.3720879"><ele>643.0</ele><time>2026-05-02T11:48:50.921Z</time></trkpt><trkpt lat="44.0888598" lon="11.3721037"><ele>644.4</ele><time>2026-05-02T11:48:51.921Z</time></trkpt><trkpt lat="44.0887473" lon="11.3721324"><ele>645.8</ele><time>2026-05-02T11:48:52.921Z</time></trkpt><trkpt lat="44.0886398" lon="11.3721377"><ele>647.2</ele><time>2026-05-02T11:48:53.921Z</time></trkpt><trkpt lat="44.0885367" lon="11.3721177"><ele>648.6</ele><time>2026-05-02T11:48:54.921Z</time></trkpt><trkpt lat="44.0884374" lon="11.3720672"><ele>650.0</ele><time>2026-05-02T11:48:55.921Z</time></trkpt><trkpt lat="44.088327" lon="11.3720052"><ele>651.5</ele><time>2026-05-02T11:48:56.921Z</time></trkpt><trkpt lat="44.0882104" lon="11.371962"><ele>653.0</ele><time>2026-05-02T11:48:57.921Z</time></trkpt><trkpt lat="44.0880914" lon="11.3719433"><ele>654.5</ele><time>2026-05-02T11:48:58.921Z</time></trkpt><trkpt lat="44.0879727" lon="11.3719624"><ele>656.0</ele><time>2026-05-02T11:48:59.921Z</time></trkpt><trkpt lat="44.0878505" lon="11.3720089"><ele>656.0</ele><time>2026-05-02T11:49:00.92Z</time></trkpt><trkpt lat="44.0877586" lon="11.3720528"><ele>656.0</ele><time>2026-05-02T11:49:01.92Z</time></trkpt><trkpt lat="44.0876641" lon="11.3720985"><ele>656.0</ele><time>2026-05-02T11:49:02.92Z</time></trkpt><trkpt lat="44.087576" lon="11.372108"><ele>656.0</ele><time>2026-05-02T11:49:03.92Z</time></trkpt><trkpt lat="44.0875011" lon="11.3720795"><ele>656.0</ele><time>2026-05-02T11:49:04.92Z</time></trkpt><trkpt lat="44.0874351" lon="11.3720234"><ele>656.0</ele><time>2026-05-02T11:49:05.92Z</time></trkpt><trkpt lat="44.0873735" lon="11.3719321"><ele>655.8</ele><time>2026-05-02T11:49:06.92Z</time></trkpt><trkpt lat="44.0872991" lon="11.3718208"><ele>655.5999999999999</ele><time>2026-05-02T11:49:07.92Z</time></trkpt><trkpt lat="44.0872284" lon="11.3717087"><ele>655.4</ele><time>2026-05-02T11:49:08.92Z</time></trkpt><trkpt lat="44.0871767" lon="11.3716157"><ele>655.2</ele><time>2026-05-02T11:49:09.92Z</time></trkpt><trkpt lat="44.0871652" lon="11.3714657"><ele>655.0</ele><time>2026-05-02T11:49:11.92Z</time></trkpt><trkpt lat="44.087216" lon="11.3713301"><ele>655.0</ele><time>2026-05-02T11:49:13.92Z</time></trkpt><trkpt lat="44.0872866" lon="11.3712667"><ele>655.0</ele><time>2026-05-02T11:49:15.92Z</time></trkpt><trkpt lat="44.0872522" lon="11.3711369"><ele>655.0</ele><time>2026-05-02T11:49:18.92Z</time></trkpt><trkpt lat="44.0871919" lon="11.3710233"><ele>655.0</ele><time>2026-05-02T11:49:20.92Z</time></trkpt><trkpt lat="44.0871208" lon="11.3708873"><ele>655.0</ele><time>2026-05-02T11:49:22.92Z</time></trkpt><trkpt lat="44.0870675" lon="11.3708292"><ele>655.0</ele><time>2026-05-02T11:49:23.92Z</time></trkpt><trkpt lat="44.0870115" lon="11.3707846"><ele>655.0</ele><time>2026-05-02T11:49:24.92Z</time></trkpt><trkpt lat="44.0869512" lon="11.3707489"><ele>655.0</ele><time>2026-05-02T11:49:25.92Z</time></trkpt><trkpt lat="44.0868781" lon="11.3707205"><ele>655.0</ele><time>2026-05-02T11:49:26.92Z</time></trkpt><trkpt lat="44.0867852" lon="11.3706963"><ele>655.0</ele><time>2026-05-02T11:49:27.92Z</time></trkpt><trkpt lat="44.0866939" lon="11.3706724"><ele>655.0</ele><time>2026-05-02T11:49:28.92Z</time></trkpt><trkpt lat="44.0866088" lon="11.3706732"><ele>656.2</ele><time>2026-05-02T11:49:29.92Z</time></trkpt><trkpt lat="44.0865268" lon="11.3706856"><ele>657.4</ele><time>2026-05-02T11:49:30.92Z</time></trkpt><trkpt lat="44.0864324" lon="11.3707079"><ele>658.5999999999999</ele><time>2026-05-02T11:49:31.92Z</time></trkpt><trkpt lat="44.086337" lon="11.3707359"><ele>659.8</ele><time>2026-05-02T11:49:32.92Z</time></trkpt><trkpt lat="44.0862476" lon="11.3707776"><ele>661.0</ele><time>2026-05-02T11:49:33.921Z</time></trkpt><trkpt lat="44.0861491" lon="11.3708071"><ele>661.0</ele><time>2026-05-02T11:49:34.92Z</time></trkpt><trkpt lat="44.0860643" lon="11.37083"><ele>661.0</ele><time>2026-05-02T11:49:35.92Z</time></trkpt><trkpt lat="44.0859784" lon="11.3708092"><ele>661.0</ele><time>2026-05-02T11:49:36.92Z</time></trkpt><trkpt lat="44.0858936" lon="11.3707914"><ele>661.0</ele><time>2026-05-02T11:49:37.92Z</time></trkpt><trkpt lat="44.0858038" lon="11.3707553"><ele>661.0</ele><time>2026-05-02T11:49:38.92Z</time></trkpt><trkpt lat="44.0857115" lon="11.3707348"><ele>661.0</ele><time>2026-05-02T11:49:39.92Z</time></trkpt><trkpt lat="44.0856231" lon="11.3707185"><ele>665.0</ele><time>2026-05-02T11:49:40.92Z</time></trkpt><trkpt lat="44.0855288" lon="11.3707036"><ele>669.0</ele><time>2026-05-02T11:49:41.92Z</time></trkpt><trkpt lat="44.0854439" lon="11.3707088"><ele>673.0</ele><time>2026-05-02T11:49:42.92Z</time></trkpt><trkpt lat="44.0853614" lon="11.3707444"><ele>677.0</ele><time>2026-05-02T11:49:43.92Z</time></trkpt><trkpt lat="44.0852821" lon="11.3707815"><ele>681.0</ele><time>2026-05-02T11:49:44.92Z</time></trkpt><trkpt lat="44.0852124" lon="11.3708129"><ele>685.0</ele><time>2026-05-02T11:49:45.92Z</time></trkpt><trkpt lat="44.0851354" lon="11.3708608"><ele>685.0</ele><time>2026-05-02T11:49:46.92Z</time></trkpt><trkpt lat="44.0850576" lon="11.3709371"><ele>685.0</ele><time>2026-05-02T11:49:47.92Z</time></trkpt><trkpt lat="44.0849621" lon="11.3710375"><ele>685.0</ele><time>2026-05-02T11:49:48.92Z</time></trkpt><trkpt lat="44.0848702" lon="11.3711783"><ele>685.0</ele><time>2026-05-02T11:49:49.92Z</time></trkpt><trkpt lat="44.0847932" lon="11.3713269"><ele>680.25</ele><time>2026-05-02T11:49:50.92Z</time></trkpt><trkpt lat="44.0847404" lon="11.3714837"><ele>675.5</ele><time>2026-05-02T11:49:51.92Z</time></trkpt><trkpt lat="44.0846969" lon="11.3716493"><ele>670.75</ele><time>2026-05-02T11:49:52.92Z</time></trkpt><trkpt lat="44.0846617" lon="11.3717978"><ele>666.0</ele><time>2026-05-02T11:49:53.92Z</time></trkpt><trkpt lat="44.0846154" lon="11.3719173"><ele>666.0</ele><time>2026-05-02T11:49:54.92Z</time></trkpt><trkpt lat="44.0845643" lon="11.3720195"><ele>666.0</ele><time>2026-05-02T11:49:55.92Z</time></trkpt><trkpt lat="44.0845404" lon="11.37211"><ele>666.0</ele><time>2026-05-02T11:49:56.92Z</time></trkpt><trkpt lat="44.0845069" lon="11.3721911"><ele>666.0</ele><time>2026-05-02T11:49:57.92Z</time></trkpt><trkpt lat="44.0844199" lon="11.3722939"><ele>666.0</ele><time>2026-05-02T11:49:59.92Z</time></trkpt><trkpt lat="44.0843544" lon="11.3722845"><ele>666.0</ele><time>2026-05-02T11:50:01.92Z</time></trkpt><trkpt lat="44.084273" lon="11.3722562"><ele>666.0</ele><time>2026-05-02T11:50:03.92Z</time></trkpt><trkpt lat="44.0841865" lon="11.3722298"><ele>666.0</ele><time>2026-05-02T11:50:05.92Z</time></trkpt><trkpt lat="44.0840847" lon="11.3721872"><ele>666.0</ele><time>2026-05-02T11:50:07.921Z</time></trkpt><trkpt lat="44.0839661" lon="11.372169"><ele>666.0</ele><time>2026-05-02T11:50:09.92Z</time></trkpt><trkpt lat="44.0839026" lon="11.3721718"><ele>666.0</ele><time>2026-05-02T11:50:10.92Z</time></trkpt><trkpt lat="44.0837772" lon="11.3721682"><ele>666.0</ele><time>2026-05-02T11:50:12.92Z</time></trkpt><trkpt lat="44.0836753" lon="11.3721565"><ele>666.0</ele><time>2026-05-02T11:50:14.92Z</time></trkpt><trkpt lat="44.0835882" lon="11.3722274"><ele>666.0</ele><time>2026-05-02T11:50:16.92Z</time></trkpt><trkpt lat="44.0835325" lon="11.3723694"><ele>666.0</ele><time>2026-05-02T11:50:18.92Z</time></trkpt><trkpt lat="44.0835708" lon="11.3724404"><ele>666.0</ele><time>2026-05-02T11:50:19.92Z</time></trkpt><trkpt lat="44.0836201" lon="11.3725097"><ele>665.1666666666666</ele><time>2026-05-02T11:50:20.92Z</time></trkpt><trkpt lat="44.0836786" lon="11.3725782"><ele>664.3333333333334</ele><time>2026-05-02T11:50:21.92Z</time></trkpt><trkpt lat="44.0837438" lon="11.3726512"><ele>663.5</ele><time>2026-05-02T11:50:22.92Z</time></trkpt><trkpt lat="44.0838046" lon="11.3727175"><ele>662.6666666666667</ele><time>2026-05-02T11:50:23.92Z</time></trkpt><trkpt lat="44.0838578" lon="11.3727892"><ele>661.8333333333334</ele><time>2026-05-02T11:50:24.92Z</time></trkpt><trkpt lat="44.0839093" lon="11.3728671"><ele>661.0</ele><time>2026-05-02T11:50:25.92Z</time></trkpt><trkpt lat="44.083982" lon="11.372983"><ele>661.0</ele><time>2026-05-02T11:50:27.92Z</time></trkpt><trkpt lat="44.0840443" lon="11.3730032"><ele>661.0</ele><time>2026-05-02T11:50:30.92Z</time></trkpt><trkpt lat="44.0840843" lon="11.3731158"><ele>661.0</ele><time>2026-05-02T11:50:39.92Z</time></trkpt><trkpt lat="44.0840485" lon="11.3732236"><ele>661.0</ele><time>2026-05-02T11:50:41.92Z</time></trkpt><trkpt lat="44.084012" lon="11.3733572"><ele>661.0</ele><time>2026-05-02T11:50:43.92Z</time></trkpt><trkpt lat="44.0839447" lon="11.3734942"><ele>661.5</ele><time>2026-05-02T11:50:45.92Z</time></trkpt><trkpt lat="44.0838793" lon="11.3735714"><ele>662.0</ele><time>2026-05-02T11:50:46.92Z</time></trkpt><trkpt lat="44.0838157" lon="11.3736397"><ele>662.5</ele><time>2026-05-02T11:50:47.92Z</time></trkpt><trkpt lat="44.0837446" lon="11.3736912"><ele>663.0</ele><time>2026-05-02T11:50:48.92Z</time></trkpt><trkpt lat="44.0836786" lon="11.3737106"><ele>663.5</ele><time>2026-05-02T11:50:49.92Z</time></trkpt><trkpt lat="44.0836067" lon="11.373713"><ele>664.0</ele><time>2026-05-02T11:50:50.92Z</time></trkpt><trkpt lat="44.0835263" lon="11.373698"><ele>664.0</ele><time>2026-05-02T11:50:51.92Z</time></trkpt><trkpt lat="44.0834442" lon="11.3736844"><ele>664.0</ele><time>2026-05-02T11:50:52.92Z</time></trkpt><trkpt lat="44.0833674" lon="11.3736756"><ele>664.0</ele><time>2026-05-02T11:50:53.92Z</time></trkpt><trkpt lat="44.0832973" lon="11.3736755"><ele>664.0</ele><time>2026-05-02T11:50:54.92Z</time></trkpt><trkpt lat="44.0832095" lon="11.3736675"><ele>664.0</ele><time>2026-05-02T11:50:55.92Z</time></trkpt><trkpt lat="44.0831274" lon="11.3736411"><ele>664.0</ele><time>2026-05-02T11:50:56.92Z</time></trkpt><trkpt lat="44.0830677" lon="11.3735888"><ele>664.5</ele><time>2026-05-02T11:50:57.92Z</time></trkpt><trkpt lat="44.0830102" lon="11.3735079"><ele>665.0</ele><time>2026-05-02T11:50:58.92Z</time></trkpt><trkpt lat="44.0829614" lon="11.3734293"><ele>665.5</ele><time>2026-05-02T11:50:59.92Z</time></trkpt><trkpt lat="44.082909" lon="11.3733695"><ele>666.0</ele><time>2026-05-02T11:51:00.92Z</time></trkpt><trkpt lat="44.0828539" lon="11.3733156"><ele>666.5</ele><time>2026-05-02T11:51:01.92Z</time></trkpt><trkpt lat="44.082807" lon="11.3732559"><ele>667.0</ele><time>2026-05-02T11:51:02.92Z</time></trkpt><trkpt lat="44.0827238" lon="11.3731654"><ele>667.0</ele><time>2026-05-02T11:51:04.92Z</time></trkpt><trkpt lat="44.082622" lon="11.3731097"><ele>667.0</ele><time>2026-05-02T11:51:06.92Z</time></trkpt><trkpt lat="44.0825117" lon="11.3730669"><ele>667.0</ele><time>2026-05-02T11:51:08.92Z</time></trkpt><trkpt lat="44.0824434" lon="11.3730665"><ele>667.0</ele><time>2026-05-02T11:51:09.92Z</time></trkpt><trkpt lat="44.0823667" lon="11.3730727"><ele>667.0</ele><time>2026-05-02T11:51:10.92Z</time></trkpt><trkpt lat="44.0822846" lon="11.3730814"><ele>669.5</ele><time>2026-05-02T11:51:11.92Z</time></trkpt><trkpt lat="44.0822073" lon="11.3730788"><ele>672.0</ele><time>2026-05-02T11:51:12.92Z</time></trkpt><trkpt lat="44.0821425" lon="11.3730798"><ele>674.5</ele><time>2026-05-02T11:51:13.92Z</time></trkpt><trkpt lat="44.0820786" lon="11.3730988"><ele>677.0</ele><time>2026-05-02T11:51:14.92Z</time></trkpt><trkpt lat="44.0819664" lon="11.3731688"><ele>679.5</ele><time>2026-05-02T11:51:16.92Z</time></trkpt><trkpt lat="44.0818975" lon="11.3731923"><ele>682.0</ele><time>2026-05-02T11:51:17.92Z</time></trkpt><trkpt lat="44.0818282" lon="11.3732138"><ele>682.0</ele><time>2026-05-02T11:51:18.92Z</time></trkpt><trkpt lat="44.0817655" lon="11.3732476"><ele>682.0</ele><time>2026-05-02T11:51:19.92Z</time></trkpt><trkpt lat="44.0817028" lon="11.3732886"><ele>682.0</ele><time>2026-05-02T11:51:20.92Z</time></trkpt><trkpt lat="44.0816444" lon="11.3733243"><ele>682.0</ele><time>2026-05-02T11:51:21.92Z</time></trkpt><trkpt lat="44.0815889" lon="11.3733665"><ele>682.0</ele><time>2026-05-02T11:51:22.92Z</time></trkpt><trkpt lat="44.0815142" lon="11.3734218"><ele>682.0</ele><time>2026-05-02T11:51:23.92Z</time></trkpt><trkpt lat="44.081445" lon="11.3734764"><ele>682.0</ele><time>2026-05-02T11:51:24.92Z</time></trkpt><trkpt lat="44.0813795" lon="11.3735079"><ele>684.6</ele><time>2026-05-02T11:51:25.92Z</time></trkpt><trkpt lat="44.0812844" lon="11.3735379"><ele>687.2</ele><time>2026-05-02T11:51:27.92Z</time></trkpt><trkpt lat="44.0811899" lon="11.3735553"><ele>689.8</ele><time>2026-05-02T11:51:29.92Z</time></trkpt><trkpt lat="44.0810871" lon="11.3735203"><ele>692.4</ele><time>2026-05-02T11:51:31.92Z</time></trkpt><trkpt lat="44.0810164" lon="11.3734922"><ele>695.0</ele><time>2026-05-02T11:51:32.92Z</time></trkpt><trkpt lat="44.080918" lon="11.3734497"><ele>695.0</ele><time>2026-05-02T11:51:34.92Z</time></trkpt><trkpt lat="44.080837" lon="11.3734765"><ele>695.0</ele><time>2026-05-02T11:51:36.92Z</time></trkpt><trkpt lat="44.0807519" lon="11.3735729"><ele>695.0</ele><time>2026-05-02T11:51:38.92Z</time></trkpt><trkpt lat="44.0806653" lon="11.3737013"><ele>695.0</ele><time>2026-05-02T11:51:40.92Z</time></trkpt><trkpt lat="44.0806044" lon="11.373778"><ele>695.0</ele><time>2026-05-02T11:51:41.92Z</time></trkpt><trkpt lat="44.080542" lon="11.3738559"><ele>694.1666666666666</ele><time>2026-05-02T11:51:42.92Z</time></trkpt><trkpt lat="44.0804726" lon="11.3739131"><ele>693.3333333333333</ele><time>2026-05-02T11:51:43.92Z</time></trkpt><trkpt lat="44.080405" lon="11.3739468"><ele>692.5</ele><time>2026-05-02T11:51:44.92Z</time></trkpt><trkpt lat="44.0802979" lon="11.3739772"><ele>691.6666666666666</ele><time>2026-05-02T11:51:46.92Z</time></trkpt><trkpt lat="44.0801841" lon="11.3739697"><ele>690.8333333333334</ele><time>2026-05-02T11:51:48.92Z</time></trkpt><trkpt lat="44.0801207" lon="11.3739685"><ele>690.0</ele><time>2026-05-02T11:51:49.92Z</time></trkpt><trkpt lat="44.0800015" lon="11.3739762"><ele>691.2</ele><time>2026-05-02T11:51:51.92Z</time></trkpt><trkpt lat="44.0799106" lon="11.3739919"><ele>692.4</ele><time>2026-05-02T11:51:53.92Z</time></trkpt><trkpt lat="44.0798178" lon="11.3739711"><ele>693.5999999999999</ele><time>2026-05-02T11:51:55.92Z</time></trkpt><trkpt lat="44.0797287" lon="11.3739409"><ele>694.8</ele><time>2026-05-02T11:51:57.92Z</time></trkpt><trkpt lat="44.0796301" lon="11.3739223"><ele>696.0</ele><time>2026-05-02T11:51:59.92Z</time></trkpt><trkpt lat="44.0795411" lon="11.3739036"><ele>696.0</ele><time>2026-05-02T11:52:01.92Z</time></trkpt><trkpt lat="44.0794648" lon="11.3738587"><ele>696.0</ele><time>2026-05-02T11:52:03.92Z</time></trkpt><trkpt lat="44.079401" lon="11.3738244"><ele>696.0</ele><time>2026-05-02T11:52:05.92Z</time></trkpt><trkpt lat="44.0793359" lon="11.3738455"><ele>696.0</ele><time>2026-05-02T11:52:08.92Z</time></trkpt><trkpt lat="44.0792734" lon="11.3738883"><ele>696.0</ele><time>2026-05-02T11:52:10.92Z</time></trkpt><trkpt lat="44.0791979" lon="11.3739527"><ele>696.0</ele><time>2026-05-02T11:52:12.92Z</time></trkpt><trkpt lat="44.0791129" lon="11.3739927"><ele>697.8333333333334</ele><time>2026-05-02T11:52:14.92Z</time></trkpt><trkpt lat="44.0790218" lon="11.3740438"><ele>699.6666666666666</ele><time>2026-05-02T11:52:16.92Z</time></trkpt><trkpt lat="44.0789341" lon="11.3740708"><ele>701.5</ele><time>2026-05-02T11:52:18.92Z</time></trkpt><trkpt lat="44.078849" lon="11.3740723"><ele>703.3333333333333</ele><time>2026-05-02T11:52:20.92Z</time></trkpt><trkpt lat="44.078753" lon="11.3740421"><ele>705.1666666666666</ele><time>2026-05-02T11:52:22.92Z</time></trkpt><trkpt lat="44.0786938" lon="11.3740113"><ele>707.0</ele><time>2026-05-02T11:52:23.92Z</time></trkpt><trkpt lat="44.0786307" lon="11.3739745"><ele>707.0</ele><time>2026-05-02T11:52:24.92Z</time></trkpt><trkpt lat="44.078571" lon="11.3739319"><ele>707.0</ele><time>2026-05-02T11:52:25.92Z</time></trkpt><trkpt lat="44.0784837" lon="11.3738542"><ele>707.0</ele><time>2026-05-02T11:52:27.92Z</time></trkpt><trkpt lat="44.0784185" lon="11.3738309"><ele>707.0</ele><time>2026-05-02T11:52:30.92Z</time></trkpt><trkpt lat="44.0784014" lon="11.3739282"><ele>707.0</ele><time>2026-05-02T11:52:40.92Z</time></trkpt><trkpt lat="44.0784177" lon="11.3740455"><ele>707.0</ele><time>2026-05-02T11:52:43.92Z</time></trkpt><trkpt lat="44.0784418" lon="11.3741489"><ele>707.0</ele><time>2026-05-02T11:52:45.92Z</time></trkpt><trkpt lat="44.0784703" lon="11.3742756"><ele>707.0</ele><time>2026-05-02T11:52:47.92Z</time></trkpt><trkpt lat="44.0784674" lon="11.3743884"><ele>707.0</ele><time>2026-05-02T11:52:49.92Z</time></trkpt><trkpt lat="44.0784024" lon="11.3744733"><ele>707.0</ele><time>2026-05-02T11:52:52.92Z</time></trkpt><trkpt lat="44.078329" lon="11.3745091"><ele>707.0</ele><time>2026-05-02T11:52:54.92Z</time></trkpt><trkpt lat="44.0782674" lon="11.3745662"><ele>707.0</ele><time>2026-05-02T11:52:56.92Z</time></trkpt><trkpt lat="44.0782298" lon="11.374666"><ele>711.8</ele><time>2026-05-02T11:52:58.92Z</time></trkpt><trkpt lat="44.0782185" lon="11.3748091"><ele>716.6</ele><time>2026-05-02T11:53:00.92Z</time></trkpt><trkpt lat="44.0782063" lon="11.3749562"><ele>721.4</ele><time>2026-05-02T11:53:02.92Z</time></trkpt><trkpt lat="44.078159" lon="11.375109"><ele>726.1999999999999</ele><time>2026-05-02T11:53:04.92Z</time></trkpt><trkpt lat="44.0780828" lon="11.3751863"><ele>731.0</ele><time>2026-05-02T11:53:06.92Z</time></trkpt><trkpt lat="44.0779828" lon="11.3751769"><ele>731.0</ele><time>2026-05-02T11:53:08.92Z</time></trkpt><trkpt lat="44.0778963" lon="11.3751434"><ele>731.0</ele><time>2026-05-02T11:53:10.92Z</time></trkpt><trkpt lat="44.0778094" lon="11.3750578"><ele>731.0</ele><time>2026-05-02T11:53:12.92Z</time></trkpt><trkpt lat="44.0777245" lon="11.3749526"><ele>731.0</ele><time>2026-05-02T11:53:14.92Z</time></trkpt><trkpt lat="44.0776357" lon="11.3748484"><ele>731.0</ele><time>2026-05-02T11:53:16.92Z</time></trkpt><trkpt lat="44.0775546" lon="11.3747332"><ele>731.5</ele><time>2026-05-02T11:53:18.92Z</time></trkpt><trkpt lat="44.0774877" lon="11.3746094"><ele>732.0</ele><time>2026-05-02T11:53:20.92Z</time></trkpt><trkpt lat="44.0774463" lon="11.3744995"><ele>732.5</ele><time>2026-05-02T11:53:22.92Z</time></trkpt><trkpt lat="44.0774138" lon="11.3743919"><ele>733.0</ele><time>2026-05-02T11:53:24.92Z</time></trkpt><trkpt lat="44.0773631" lon="11.3743319"><ele>733.5</ele><time>2026-05-02T11:53:26.92Z</time></trkpt><trkpt lat="44.0772724" lon="11.3743455"><ele>734.0</ele><time>2026-05-02T11:53:29.92Z</time></trkpt><trkpt lat="44.0772181" lon="11.3744172"><ele>736.8333333333333</ele><time>2026-05-02T11:53:31.92Z</time></trkpt><trkpt lat="44.0771586" lon="11.374525"><ele>739.6666666666666</ele><time>2026-05-02T11:53:33.92Z</time></trkpt><trkpt lat="44.0771414" lon="11.3746835"><ele>742.5</ele><time>2026-05-02T11:53:35.92Z</time></trkpt><trkpt lat="44.0771342" lon="11.3747716"><ele>745.3333333333334</ele><time>2026-05-02T11:53:36.92Z</time></trkpt><trkpt lat="44.0771164" lon="11.3748663"><ele>748.1666666666667</ele><time>2026-05-02T11:53:37.92Z</time></trkpt><trkpt lat="44.0770963" lon="11.3749594"><ele>751.0</ele><time>2026-05-02T11:53:38.92Z</time></trkpt><trkpt lat="44.0770639" lon="11.3751189"><ele>751.0</ele><time>2026-05-02T11:53:40.92Z</time></trkpt><trkpt lat="44.0770519" lon="11.3752757"><ele>751.0</ele><time>2026-05-02T11:53:42.92Z</time></trkpt><trkpt lat="44.0770119" lon="11.3754331"><ele>751.0</ele><time>2026-05-02T11:53:44.92Z</time></trkpt><trkpt lat="44.0769613" lon="11.3755495"><ele>751.0</ele><time>2026-05-02T11:53:46.92Z</time></trkpt><trkpt lat="44.0769601" lon="11.3756786"><ele>751.0</ele><time>2026-05-02T11:53:48.92Z</time></trkpt><trkpt lat="44.0769664" lon="11.3757708"><ele>748.8</ele><time>2026-05-02T11:53:49.92Z</time></trkpt><trkpt lat="44.0769809" lon="11.3758655"><ele>746.5999999999999</ele><time>2026-05-02T11:53:50.92Z</time></trkpt><trkpt lat="44.0769756" lon="11.3760197"><ele>744.4</ele><time>2026-05-02T11:53:52.92Z</time></trkpt><trkpt lat="44.0769366" lon="11.3761453"><ele>742.2</ele><time>2026-05-02T11:53:54.92Z</time></trkpt><trkpt lat="44.0768925" lon="11.3762361"><ele>740.0</ele><time>2026-05-02T11:53:56.919Z</time></trkpt><trkpt lat="44.0768267" lon="11.3763267"><ele>739.6</ele><time>2026-05-02T11:53:58.919Z</time></trkpt><trkpt lat="44.0767666" lon="11.3764331"><ele>739.2</ele><time>2026-05-02T11:54:00.919Z</time></trkpt><trkpt lat="44.0767345" lon="11.3765438"><ele>738.8</ele><time>2026-05-02T11:54:02.919Z</time></trkpt><trkpt lat="44.0767016" lon="11.3766768"><ele>738.4</ele><time>2026-05-02T11:54:04.92Z</time></trkpt><trkpt lat="44.0766594" lon="11.3768332"><ele>738.0</ele><time>2026-05-02T11:54:06.919Z</time></trkpt><trkpt lat="44.0766257" lon="11.3769865"><ele>740.3333333333334</ele><time>2026-05-02T11:54:08.919Z</time></trkpt><trkpt lat="44.0765978" lon="11.3771134"><ele>742.6666666666666</ele><time>2026-05-02T11:54:10.919Z</time></trkpt><trkpt lat="44.0765965" lon="11.3772424"><ele>745.0</ele><time>2026-05-02T11:54:12.919Z</time></trkpt><trkpt lat="44.0765886" lon="11.3773977"><ele>747.3333333333333</ele><time>2026-05-02T11:54:14.919Z</time></trkpt><trkpt lat="44.0765703" lon="11.3775022"><ele>749.6666666666666</ele><time>2026-05-02T11:54:16.919Z</time></trkpt><trkpt lat="44.0765311" lon="11.3775751"><ele>752.0</ele><time>2026-05-02T11:54:18.919Z</time></trkpt><trkpt lat="44.0764833" lon="11.3776496"><ele>752.0</ele><time>2026-05-02T11:54:20.919Z</time></trkpt><trkpt lat="44.0764115" lon="11.3777555"><ele>752.0</ele><time>2026-05-02T11:54:22.919Z</time></trkpt><trkpt lat="44.0763523" lon="11.3778513"><ele>752.0</ele><time>2026-05-02T11:54:24.919Z</time></trkpt><trkpt lat="44.0763125" lon="11.3779616"><ele>752.0</ele><time>2026-05-02T11:54:26.919Z</time></trkpt><trkpt lat="44.0762597" lon="11.3780773"><ele>752.0</ele><time>2026-05-02T11:54:28.919Z</time></trkpt><trkpt lat="44.076212" lon="11.3781745"><ele>750.0</ele><time>2026-05-02T11:54:30.919Z</time></trkpt><trkpt lat="44.0761705" lon="11.378265"><ele>748.0</ele><time>2026-05-02T11:54:33.919Z</time></trkpt><trkpt lat="44.0761475" lon="11.3784047"><ele>746.0</ele><time>2026-05-02T11:54:36.919Z</time></trkpt><trkpt lat="44.0761393" lon="11.3785558"><ele>744.0</ele><time>2026-05-02T11:54:38.919Z</time></trkpt><trkpt lat="44.0760762" lon="11.3787024"><ele>742.0</ele><time>2026-05-02T11:54:40.919Z</time></trkpt><trkpt lat="44.0760162" lon="11.3788448"><ele>742.0</ele><time>2026-05-02T11:54:42.919Z</time></trkpt><trkpt lat="44.076001" lon="11.3789324"><ele>742.0</ele><time>2026-05-02T11:54:43.92Z</time></trkpt><trkpt lat="44.075997" lon="11.3790388"><ele>742.0</ele><time>2026-05-02T11:54:44.919Z</time></trkpt><trkpt lat="44.075992" lon="11.379137"><ele>742.0</ele><time>2026-05-02T11:54:45.919Z</time></trkpt><trkpt lat="44.0759834" lon="11.3792855"><ele>742.0</ele><time>2026-05-02T11:54:47.919Z</time></trkpt><trkpt lat="44.0759501" lon="11.3793985"><ele>742.0</ele><time>2026-05-02T11:54:49.919Z</time></trkpt><trkpt lat="44.0759202" lon="11.3795501"><ele>741.2</ele><time>2026-05-02T11:54:51.919Z</time></trkpt><trkpt lat="44.0759034" lon="11.3797089"><ele>740.4000000000001</ele><time>2026-05-02T11:54:53.919Z</time></trkpt><trkpt lat="44.0759091" lon="11.3798209"><ele>739.5999999999999</ele><time>2026-05-02T11:54:56.919Z</time></trkpt><trkpt lat="44.0759524" lon="11.3799259"><ele>738.8</ele><time>2026-05-02T11:54:58.919Z</time></trkpt><trkpt lat="44.0760193" lon="11.3800643"><ele>738.0</ele><time>2026-05-02T11:55:00.919Z</time></trkpt><trkpt lat="44.0760831" lon="11.3801829"><ele>738.0</ele><time>2026-05-02T11:55:02.919Z</time></trkpt><trkpt lat="44.0761447" lon="11.3803044"><ele>738.0</ele><time>2026-05-02T11:55:04.919Z</time></trkpt><trkpt lat="44.0761789" lon="11.3804219"><ele>738.0</ele><time>2026-05-02T11:55:06.919Z</time></trkpt><trkpt lat="44.0761317" lon="11.3805394"><ele>738.0</ele><time>2026-05-02T11:55:08.919Z</time></trkpt><trkpt lat="44.0760737" lon="11.380663"><ele>738.0</ele><time>2026-05-02T11:55:10.919Z</time></trkpt><trkpt lat="44.0760825" lon="11.3807952"><ele>735.8333333333334</ele><time>2026-05-02T11:55:12.919Z</time></trkpt><trkpt lat="44.0761159" lon="11.3809091"><ele>733.6666666666666</ele><time>2026-05-02T11:55:14.919Z</time></trkpt><trkpt lat="44.0761513" lon="11.3810133"><ele>731.5</ele><time>2026-05-02T11:55:16.919Z</time></trkpt><trkpt lat="44.0761812" lon="11.3811329"><ele>729.3333333333333</ele><time>2026-05-02T11:55:18.919Z</time></trkpt><trkpt lat="44.0761649" lon="11.3812204"><ele>727.1666666666666</ele><time>2026-05-02T11:55:20.919Z</time></trkpt><trkpt lat="44.0760821" lon="11.3812225"><ele>725.0</ele><time>2026-05-02T11:55:22.919Z</time></trkpt><trkpt lat="44.0760159" lon="11.3812033"><ele>725.0</ele><time>2026-05-02T11:55:23.919Z</time></trkpt><trkpt lat="44.0759351" lon="11.3811746"><ele>725.0</ele><time>2026-05-02T11:55:24.919Z</time></trkpt><trkpt lat="44.0758358" lon="11.3811382"><ele>725.0</ele><time>2026-05-02T11:55:25.919Z</time></trkpt><trkpt lat="44.0757409" lon="11.3811082"><ele>725.0</ele><time>2026-05-02T11:55:26.919Z</time></trkpt><trkpt lat="44.0756537" lon="11.3810941"><ele>725.0</ele><time>2026-05-02T11:55:27.919Z</time></trkpt><trkpt lat="44.0755706" lon="11.381089"><ele>724.4285714285714</ele><time>2026-05-02T11:55:28.919Z</time></trkpt><trkpt lat="44.0755024" lon="11.3810786"><ele>723.8571428571429</ele><time>2026-05-02T11:55:29.919Z</time></trkpt><trkpt lat="44.0754374" lon="11.3810672"><ele>723.2857142857142</ele><time>2026-05-02T11:55:30.919Z</time></trkpt><trkpt lat="44.0753732" lon="11.3810652"><ele>722.7142857142858</ele><time>2026-05-02T11:55:31.919Z</time></trkpt><trkpt lat="44.0753051" lon="11.3810789"><ele>722.1428571428571</ele><time>2026-05-02T11:55:32.919Z</time></trkpt><trkpt lat="44.0752334" lon="11.3811259"><ele>721.5714285714286</ele><time>2026-05-02T11:55:33.919Z</time></trkpt><trkpt lat="44.0751604" lon="11.3811805"><ele>721.0</ele><time>2026-05-02T11:55:34.919Z</time></trkpt><trkpt lat="44.0750984" lon="11.3812301"><ele>721.0</ele><time>2026-05-02T11:55:35.919Z</time></trkpt><trkpt lat="44.0749957" lon="11.3813105"><ele>721.0</ele><time>2026-05-02T11:55:37.92Z</time></trkpt><trkpt lat="44.0749141" lon="11.3814439"><ele>721.0</ele><time>2026-05-02T11:55:39.919Z</time></trkpt><trkpt lat="44.0748849" lon="11.3815481"><ele>721.0</ele><time>2026-05-02T11:55:40.919Z</time></trkpt><trkpt lat="44.0748673" lon="11.3816797"><ele>721.0</ele><time>2026-05-02T11:55:41.919Z</time></trkpt><trkpt lat="44.0748537" lon="11.3818235"><ele>723.0</ele><time>2026-05-02T11:55:42.919Z</time></trkpt><trkpt lat="44.0748347" lon="11.381976"><ele>725.0</ele><time>2026-05-02T11:55:43.919Z</time></trkpt><trkpt lat="44.0748099" lon="11.3821256"><ele>727.0</ele><time>2026-05-02T11:55:44.919Z</time></trkpt><trkpt lat="44.0747777" lon="11.382261"><ele>729.0</ele><time>2026-05-02T11:55:45.919Z</time></trkpt><trkpt lat="44.0747452" lon="11.3823699"><ele>731.0</ele><time>2026-05-02T11:55:46.919Z</time></trkpt><trkpt lat="44.0747098" lon="11.3824815"><ele>731.0</ele><time>2026-05-02T11:55:47.919Z</time></trkpt><trkpt lat="44.0746733" lon="11.382608"><ele>731.0</ele><time>2026-05-02T11:55:48.919Z</time></trkpt><trkpt lat="44.0746299" lon="11.3827286"><ele>731.0</ele><time>2026-05-02T11:55:49.919Z</time></trkpt><trkpt lat="44.0745999" lon="11.3828378"><ele>731.0</ele><time>2026-05-02T11:55:50.919Z</time></trkpt><trkpt lat="44.0745735" lon="11.382947"><ele>731.0</ele><time>2026-05-02T11:55:51.919Z</time></trkpt><trkpt lat="44.0745209" lon="11.3830153"><ele>731.0</ele><time>2026-05-02T11:55:52.919Z</time></trkpt><trkpt lat="44.0744121" lon="11.3830756"><ele>730.0</ele><time>2026-05-02T11:55:54.919Z</time></trkpt><trkpt lat="44.0743317" lon="11.3831002"><ele>729.0</ele><time>2026-05-02T11:55:55.919Z</time></trkpt><trkpt lat="44.0742612" lon="11.3831385"><ele>728.0</ele><time>2026-05-02T11:55:56.919Z</time></trkpt><trkpt lat="44.0741964" lon="11.383184"><ele>727.0</ele><time>2026-05-02T11:55:57.919Z</time></trkpt><trkpt lat="44.074135" lon="11.3833117"><ele>726.0</ele><time>2026-05-02T11:55:59.919Z</time></trkpt><trkpt lat="44.0741263" lon="11.383406"><ele>725.0</ele><time>2026-05-02T11:56:00.919Z</time></trkpt><trkpt lat="44.0740967" lon="11.383498"><ele>727.2</ele><time>2026-05-02T11:56:01.919Z</time></trkpt><trkpt lat="44.0740495" lon="11.3835728"><ele>729.4</ele><time>2026-05-02T11:56:02.919Z</time></trkpt><trkpt lat="44.0739802" lon="11.3836436"><ele>731.5999999999999</ele><time>2026-05-02T11:56:03.919Z</time></trkpt><trkpt lat="44.0738937" lon="11.3837244"><ele>733.8</ele><time>2026-05-02T11:56:04.919Z</time></trkpt><trkpt lat="44.0737975" lon="11.3838121"><ele>736.0</ele><time>2026-05-02T11:56:05.919Z</time></trkpt><trkpt lat="44.0737088" lon="11.3839106"><ele>736.0</ele><time>2026-05-02T11:56:06.919Z</time></trkpt><trkpt lat="44.0736264" lon="11.3840139"><ele>736.0</ele><time>2026-05-02T11:56:07.919Z</time></trkpt><trkpt lat="44.0735404" lon="11.3841134"><ele>736.0</ele><time>2026-05-02T11:56:08.919Z</time></trkpt><trkpt lat="44.0734533" lon="11.3842042"><ele>736.0</ele><time>2026-05-02T11:56:09.919Z</time></trkpt><trkpt lat="44.0733511" lon="11.3842951"><ele>736.5</ele><time>2026-05-02T11:56:10.919Z</time></trkpt><trkpt lat="44.0732497" lon="11.3843977"><ele>737.0</ele><time>2026-05-02T11:56:11.919Z</time></trkpt><trkpt lat="44.0731593" lon="11.3845334"><ele>737.5</ele><time>2026-05-02T11:56:12.919Z</time></trkpt><trkpt lat="44.0730802" lon="11.3846698"><ele>738.0</ele><time>2026-05-02T11:56:13.919Z</time></trkpt><trkpt lat="44.0730024" lon="11.3847788"><ele>738.0</ele><time>2026-05-02T11:56:14.919Z</time></trkpt><trkpt lat="44.0729221" lon="11.3849269"><ele>738.0</ele><time>2026-05-02T11:56:15.919Z</time></trkpt><trkpt lat="44.0728348" lon="11.3850701"><ele>738.0</ele><time>2026-05-02T11:56:16.919Z</time></trkpt><trkpt lat="44.0727623" lon="11.38519"><ele>738.0</ele><time>2026-05-02T11:56:17.919Z</time></trkpt><trkpt lat="44.072688" lon="11.3853018"><ele>738.0</ele><time>2026-05-02T11:56:18.919Z</time></trkpt><trkpt lat="44.0726222" lon="11.3854025"><ele>738.0</ele><time>2026-05-02T11:56:19.919Z</time></trkpt><trkpt lat="44.0725604" lon="11.385493"><ele>738.0</ele><time>2026-05-02T11:56:20.92Z</time></trkpt><trkpt lat="44.0724926" lon="11.3855607"><ele>738.0</ele><time>2026-05-02T11:56:21.919Z</time></trkpt><trkpt lat="44.0724251" lon="11.3855876"><ele>738.0</ele><time>2026-05-02T11:56:22.919Z</time></trkpt><trkpt lat="44.0723382" lon="11.3856378"><ele>738.0</ele><time>2026-05-02T11:56:24.919Z</time></trkpt><trkpt lat="44.0722727" lon="11.3856827"><ele>735.5</ele><time>2026-05-02T11:56:26.919Z</time></trkpt><trkpt lat="44.0722186" lon="11.3857957"><ele>733.0</ele><time>2026-05-02T11:56:28.919Z</time></trkpt><trkpt lat="44.0721948" lon="11.3858929"><ele>730.5</ele><time>2026-05-02T11:56:30.919Z</time></trkpt><trkpt lat="44.0721382" lon="11.3859367"><ele>728.0</ele><time>2026-05-02T11:56:32.919Z</time></trkpt><trkpt lat="44.0720717" lon="11.3859426"><ele>725.5</ele><time>2026-05-02T11:56:35.919Z</time></trkpt><trkpt lat="44.0720036" lon="11.3859716"><ele>723.0</ele><time>2026-05-02T11:57:16.919Z</time></trkpt><trkpt lat="44.071914" lon="11.3860765"><ele>723.0</ele><time>2026-05-02T11:57:18.919Z</time></trkpt><trkpt lat="44.0718613" lon="11.3861427"><ele>723.0</ele><time>2026-05-02T11:57:19.919Z</time></trkpt><trkpt lat="44.0718016" lon="11.3862179"><ele>723.0</ele><time>2026-05-02T11:57:20.919Z</time></trkpt><trkpt lat="44.0717376" lon="11.3862969"><ele>723.0</ele><time>2026-05-02T11:57:21.919Z</time></trkpt><trkpt lat="44.0716693" lon="11.386369"><ele>723.0</ele><time>2026-05-02T11:57:22.919Z</time></trkpt><trkpt lat="44.0715937" lon="11.3864228"><ele>723.0</ele><time>2026-05-02T11:57:23.919Z</time></trkpt><trkpt lat="44.0715127" lon="11.3864504"><ele>719.5</ele><time>2026-05-02T11:57:24.919Z</time></trkpt><trkpt lat="44.0714197" lon="11.3864182"><ele>716.0</ele><time>2026-05-02T11:57:25.919Z</time></trkpt><trkpt lat="44.0713219" lon="11.3863487"><ele>712.5</ele><time>2026-05-02T11:57:26.919Z</time></trkpt><trkpt lat="44.0712076" lon="11.3862603"><ele>709.0</ele><time>2026-05-02T11:57:27.919Z</time></trkpt><trkpt lat="44.0710965" lon="11.3861562"><ele>709.0</ele><time>2026-05-02T11:57:28.919Z</time></trkpt><trkpt lat="44.070996" lon="11.3860303"><ele>709.0</ele><time>2026-05-02T11:57:29.919Z</time></trkpt><trkpt lat="44.0708954" lon="11.385907"><ele>709.0</ele><time>2026-05-02T11:57:30.919Z</time></trkpt><trkpt lat="44.0707975" lon="11.3857786"><ele>709.0</ele><time>2026-05-02T11:57:31.919Z</time></trkpt><trkpt lat="44.0707049" lon="11.3856536"><ele>704.5</ele><time>2026-05-02T11:57:32.919Z</time></trkpt><trkpt lat="44.0706189" lon="11.3855172"><ele>700.0</ele><time>2026-05-02T11:57:33.919Z</time></trkpt><trkpt lat="44.0705484" lon="11.3853714"><ele>695.5</ele><time>2026-05-02T11:57:34.919Z</time></trkpt><trkpt lat="44.0704785" lon="11.3852064"><ele>691.0</ele><time>2026-05-02T11:57:35.919Z</time></trkpt><trkpt lat="44.0704185" lon="11.3850329"><ele>691.0</ele><time>2026-05-02T11:57:36.919Z</time></trkpt><trkpt lat="44.0703651" lon="11.3848508"><ele>691.0</ele><time>2026-05-02T11:57:37.919Z</time></trkpt><trkpt lat="44.0703128" lon="11.3846715"><ele>691.0</ele><time>2026-05-02T11:57:38.919Z</time></trkpt><trkpt lat="44.0702595" lon="11.384502"><ele>691.0</ele><time>2026-05-02T11:57:39.919Z</time></trkpt><trkpt lat="44.0701997" lon="11.3843396"><ele>692.25</ele><time>2026-05-02T11:57:40.919Z</time></trkpt><trkpt lat="44.0701562" lon="11.3841774"><ele>693.5</ele><time>2026-05-02T11:57:41.919Z</time></trkpt><trkpt lat="44.0701229" lon="11.3840155"><ele>694.75</ele><time>2026-05-02T11:57:42.919Z</time></trkpt><trkpt lat="44.0700776" lon="11.3838457"><ele>696.0</ele><time>2026-05-02T11:57:43.919Z</time></trkpt><trkpt lat="44.0700146" lon="11.3836829"><ele>695.5</ele><time>2026-05-02T11:57:44.919Z</time></trkpt><trkpt lat="44.0699172" lon="11.3835416"><ele>695.0</ele><time>2026-05-02T11:57:45.919Z</time></trkpt><trkpt lat="44.0697967" lon="11.3834405"><ele>694.5</ele><time>2026-05-02T11:57:46.919Z</time></trkpt><trkpt lat="44.0696419" lon="11.3833894"><ele>694.0</ele><time>2026-05-02T11:57:47.919Z</time></trkpt><trkpt lat="44.0694824" lon="11.3833307"><ele>694.0</ele><time>2026-05-02T11:57:48.919Z</time></trkpt><trkpt lat="44.0693383" lon="11.383247"><ele>694.0</ele><time>2026-05-02T11:57:49.919Z</time></trkpt><trkpt lat="44.0692022" lon="11.383161"><ele>694.0</ele><time>2026-05-02T11:57:50.919Z</time></trkpt><trkpt lat="44.0691035" lon="11.38309"><ele>694.0</ele><time>2026-05-02T11:57:51.919Z</time></trkpt><trkpt lat="44.0689942" lon="11.3830722"><ele>693.6</ele><time>2026-05-02T11:57:52.919Z</time></trkpt><trkpt lat="44.0688788" lon="11.3831098"><ele>693.2</ele><time>2026-05-02T11:57:53.919Z</time></trkpt><trkpt lat="44.0687937" lon="11.3831748"><ele>692.8000000000001</ele><time>2026-05-02T11:57:54.919Z</time></trkpt><trkpt lat="44.0687262" lon="11.3832822"><ele>692.4000000000001</ele><time>2026-05-02T11:57:55.919Z</time></trkpt><trkpt lat="44.0686748" lon="11.3834334"><ele>692.0</ele><time>2026-05-02T11:57:56.919Z</time></trkpt><trkpt lat="44.0686414" lon="11.3836246"><ele>692.0</ele><time>2026-05-02T11:57:57.919Z</time></trkpt><trkpt lat="44.0686272" lon="11.3838427"><ele>692.0</ele><time>2026-05-02T11:57:58.919Z</time></trkpt><trkpt lat="44.0686148" lon="11.3840839"><ele>692.0</ele><time>2026-05-02T11:57:59.919Z</time></trkpt><trkpt lat="44.0685992" lon="11.3843299"><ele>692.0</ele><time>2026-05-02T11:58:00.919Z</time></trkpt><trkpt lat="44.0685763" lon="11.3845687"><ele>692.0</ele><time>2026-05-02T11:58:01.919Z</time></trkpt><trkpt lat="44.0685536" lon="11.3847824"><ele>692.0</ele><time>2026-05-02T11:58:02.919Z</time></trkpt><trkpt lat="44.0685151" lon="11.3849951"><ele>691.0</ele><time>2026-05-02T11:58:03.919Z</time></trkpt><trkpt lat="44.0684763" lon="11.3852006"><ele>690.0</ele><time>2026-05-02T11:58:04.919Z</time></trkpt><trkpt lat="44.0684186" lon="11.3854055"><ele>689.0</ele><time>2026-05-02T11:58:05.919Z</time></trkpt><trkpt lat="44.0683615" lon="11.3855965"><ele>688.25</ele><time>2026-05-02T11:58:06.919Z</time></trkpt><trkpt lat="44.0683166" lon="11.3857735"><ele>687.5</ele><time>2026-05-02T11:58:07.919Z</time></trkpt><trkpt lat="44.0682768" lon="11.3859412"><ele>686.75</ele><time>2026-05-02T11:58:08.919Z</time></trkpt><trkpt lat="44.0682415" lon="11.3861103"><ele>686.0</ele><time>2026-05-02T11:58:09.919Z</time></trkpt><trkpt lat="44.0682067" lon="11.3862932"><ele>690.0</ele><time>2026-05-02T11:58:10.919Z</time></trkpt><trkpt lat="44.0681654" lon="11.3864751"><ele>694.0</ele><time>2026-05-02T11:58:11.919Z</time></trkpt><trkpt lat="44.0681055" lon="11.3866398"><ele>698.0</ele><time>2026-05-02T11:58:12.919Z</time></trkpt><trkpt lat="44.0680172" lon="11.3867645"><ele>702.0</ele><time>2026-05-02T11:58:13.919Z</time></trkpt><trkpt lat="44.0678992" lon="11.3868392"><ele>702.0</ele><time>2026-05-02T11:58:14.919Z</time></trkpt><trkpt lat="44.0677752" lon="11.3868798"><ele>702.0</ele><time>2026-05-02T11:58:15.919Z</time></trkpt><trkpt lat="44.0676557" lon="11.3869165"><ele>702.0</ele><time>2026-05-02T11:58:16.919Z</time></trkpt><trkpt lat="44.0675548" lon="11.3869593"><ele>702.0</ele><time>2026-05-02T11:58:17.919Z</time></trkpt><trkpt lat="44.0674617" lon="11.3870152"><ele>705.0</ele><time>2026-05-02T11:58:18.919Z</time></trkpt><trkpt lat="44.0673816" lon="11.3870871"><ele>708.0</ele><time>2026-05-02T11:58:19.919Z</time></trkpt><trkpt lat="44.0673281" lon="11.3871993"><ele>711.0</ele><time>2026-05-02T11:58:20.919Z</time></trkpt><trkpt lat="44.0672999" lon="11.3873428"><ele>714.0</ele><time>2026-05-02T11:58:21.919Z</time></trkpt><trkpt lat="44.0672868" lon="11.387511"><ele>717.0</ele><time>2026-05-02T11:58:22.919Z</time></trkpt><trkpt lat="44.0672657" lon="11.3876999"><ele>717.0</ele><time>2026-05-02T11:58:23.919Z</time></trkpt><trkpt lat="44.0672178" lon="11.3878924"><ele>717.0</ele><time>2026-05-02T11:58:24.919Z</time></trkpt><trkpt lat="44.0671632" lon="11.3880852"><ele>717.0</ele><time>2026-05-02T11:58:25.919Z</time></trkpt><trkpt lat="44.0671077" lon="11.3882733"><ele>717.0</ele><time>2026-05-02T11:58:26.919Z</time></trkpt><trkpt lat="44.0670418" lon="11.3884618"><ele>713.6666666666666</ele><time>2026-05-02T11:58:27.919Z</time></trkpt><trkpt lat="44.066966" lon="11.3886474"><ele>710.3333333333333</ele><time>2026-05-02T11:58:28.92Z</time></trkpt><trkpt lat="44.0668775" lon="11.3888168"><ele>707.0</ele><time>2026-05-02T11:58:29.919Z</time></trkpt><trkpt lat="44.0667809" lon="11.3889793"><ele>706.25</ele><time>2026-05-02T11:58:30.919Z</time></trkpt><trkpt lat="44.0666778" lon="11.3891259"><ele>705.5</ele><time>2026-05-02T11:58:31.919Z</time></trkpt><trkpt lat="44.0665772" lon="11.3892633"><ele>704.75</ele><time>2026-05-02T11:58:32.919Z</time></trkpt><trkpt lat="44.066467" lon="11.3893825"><ele>704.0</ele><time>2026-05-02T11:58:33.919Z</time></trkpt><trkpt lat="44.0663628" lon="11.3894803"><ele>707.0</ele><time>2026-05-02T11:58:34.919Z</time></trkpt><trkpt lat="44.0662537" lon="11.3895546"><ele>710.0</ele><time>2026-05-02T11:58:35.919Z</time></trkpt><trkpt lat="44.0661404" lon="11.3896051"><ele>713.0</ele><time>2026-05-02T11:58:36.919Z</time></trkpt><trkpt lat="44.0660263" lon="11.3896437"><ele>716.0</ele><time>2026-05-02T11:58:37.919Z</time></trkpt><trkpt lat="44.065922" lon="11.3897187"><ele>716.0</ele><time>2026-05-02T11:58:38.919Z</time></trkpt><trkpt lat="44.0658482" lon="11.3898358"><ele>716.0</ele><time>2026-05-02T11:58:39.919Z</time></trkpt><trkpt lat="44.0658015" lon="11.3899802"><ele>716.0</ele><time>2026-05-02T11:58:40.919Z</time></trkpt><trkpt lat="44.065769" lon="11.3901382"><ele>716.0</ele><time>2026-05-02T11:58:41.919Z</time></trkpt><trkpt lat="44.065724" lon="11.3902918"><ele>720.8</ele><time>2026-05-02T11:58:42.919Z</time></trkpt><trkpt lat="44.0656707" lon="11.3904226"><ele>725.5999999999999</ele><time>2026-05-02T11:58:43.919Z</time></trkpt><trkpt lat="44.0656022" lon="11.3905371"><ele>730.4</ele><time>2026-05-02T11:58:44.919Z</time></trkpt><trkpt lat="44.0655313" lon="11.3906519"><ele>735.2</ele><time>2026-05-02T11:58:45.919Z</time></trkpt><trkpt lat="44.0654524" lon="11.3907862"><ele>740.0</ele><time>2026-05-02T11:58:46.919Z</time></trkpt><trkpt lat="44.0653933" lon="11.3909641"><ele>741.0</ele><time>2026-05-02T11:58:47.919Z</time></trkpt><trkpt lat="44.0653618" lon="11.3911504"><ele>742.0</ele><time>2026-05-02T11:58:48.919Z</time></trkpt><trkpt lat="44.0653392" lon="11.3913366"><ele>743.0</ele><time>2026-05-02T11:58:49.919Z</time></trkpt><trkpt lat="44.0653218" lon="11.391522"><ele>744.0</ele><time>2026-05-02T11:58:50.919Z</time></trkpt><trkpt lat="44.065297" lon="11.391695"><ele>741.25</ele><time>2026-05-02T11:58:51.919Z</time></trkpt><trkpt lat="44.0652653" lon="11.391846"><ele>738.5</ele><time>2026-05-02T11:58:52.919Z</time></trkpt><trkpt lat="44.0652136" lon="11.3919853"><ele>735.75</ele><time>2026-05-02T11:58:53.919Z</time></trkpt><trkpt lat="44.0651393" lon="11.392116"><ele>733.0</ele><time>2026-05-02T11:58:54.919Z</time></trkpt><trkpt lat="44.0650435" lon="11.3922418"><ele>727.25</ele><time>2026-05-02T11:58:55.919Z</time></trkpt><trkpt lat="44.0649483" lon="11.3923818"><ele>721.5</ele><time>2026-05-02T11:58:56.919Z</time></trkpt><trkpt lat="44.0648449" lon="11.3925274"><ele>715.75</ele><time>2026-05-02T11:58:57.919Z</time></trkpt><trkpt lat="44.0647308" lon="11.3926562"><ele>710.0</ele><time>2026-05-02T11:58:58.919Z</time></trkpt><trkpt lat="44.064608" lon="11.3927507"><ele>710.0</ele><time>2026-05-02T11:58:59.919Z</time></trkpt><trkpt lat="44.0644888" lon="11.3928324"><ele>710.0</ele><time>2026-05-02T11:59:00.919Z</time></trkpt><trkpt lat="44.0643835" lon="11.3928703"><ele>710.0</ele><time>2026-05-02T11:59:01.919Z</time></trkpt><trkpt lat="44.0642824" lon="11.3928734"><ele>710.0</ele><time>2026-05-02T11:59:02.919Z</time></trkpt><trkpt lat="44.0642043" lon="11.3928179"><ele>710.0</ele><time>2026-05-02T11:59:03.919Z</time></trkpt><trkpt lat="44.0641419" lon="11.3926926"><ele>710.5</ele><time>2026-05-02T11:59:04.919Z</time></trkpt><trkpt lat="44.0640773" lon="11.39254"><ele>711.0</ele><time>2026-05-02T11:59:05.919Z</time></trkpt><trkpt lat="44.0639984" lon="11.3923725"><ele>711.5</ele><time>2026-05-02T11:59:06.919Z</time></trkpt><trkpt lat="44.0638966" lon="11.3922165"><ele>712.0</ele><time>2026-05-02T11:59:07.919Z</time></trkpt><trkpt lat="44.0637702" lon="11.3920655"><ele>712.0</ele><time>2026-05-02T11:59:08.919Z</time></trkpt><trkpt lat="44.0636385" lon="11.3919022"><ele>712.0</ele><time>2026-05-02T11:59:09.919Z</time></trkpt><trkpt lat="44.0635137" lon="11.3917289"><ele>712.0</ele><time>2026-05-02T11:59:10.918Z</time></trkpt><trkpt lat="44.0633957" lon="11.3915683"><ele>712.25</ele><time>2026-05-02T11:59:11.918Z</time></trkpt><trkpt lat="44.0632801" lon="11.3914255"><ele>712.5</ele><time>2026-05-02T11:59:12.918Z</time></trkpt><trkpt lat="44.063175" lon="11.3913166"><ele>712.75</ele><time>2026-05-02T11:59:13.918Z</time></trkpt><trkpt lat="44.0630718" lon="11.3913136"><ele>713.0</ele><time>2026-05-02T11:59:14.918Z</time></trkpt><trkpt lat="44.0629716" lon="11.3913697"><ele>715.0</ele><time>2026-05-02T11:59:15.918Z</time></trkpt><trkpt lat="44.0628875" lon="11.3914471"><ele>717.0</ele><time>2026-05-02T11:59:16.918Z</time></trkpt><trkpt lat="44.0628102" lon="11.3915246"><ele>719.0</ele><time>2026-05-02T11:59:17.918Z</time></trkpt><trkpt lat="44.0627762" lon="11.3916771"><ele>721.0</ele><time>2026-05-02T11:59:18.918Z</time></trkpt><trkpt lat="44.0627746" lon="11.391884"><ele>721.0</ele><time>2026-05-02T11:59:19.918Z</time></trkpt><trkpt lat="44.0627905" lon="11.3920899"><ele>721.0</ele><time>2026-05-02T11:59:20.918Z</time></trkpt><trkpt lat="44.0628872" lon="11.3923777"><ele>721.0</ele><time>2026-05-02T11:59:21.918Z</time></trkpt><trkpt lat="44.0629609" lon="11.3926558"><ele>729.6666666666667</ele><time>2026-05-02T11:59:22.918Z</time></trkpt><trkpt lat="44.062995" lon="11.3929247"><ele>738.3333333333334</ele><time>2026-05-02T11:59:23.918Z</time></trkpt><trkpt lat="44.0629945" lon="11.3931624"><ele>747.0</ele><time>2026-05-02T11:59:24.918Z</time></trkpt><trkpt lat="44.0629798" lon="11.3933939"><ele>748.3333333333334</ele><time>2026-05-02T11:59:25.918Z</time></trkpt><trkpt lat="44.0629576" lon="11.3936198"><ele>749.6666666666667</ele><time>2026-05-02T11:59:26.918Z</time></trkpt><trkpt lat="44.0629287" lon="11.3938405"><ele>751.0</ele><time>2026-05-02T11:59:27.918Z</time></trkpt><trkpt lat="44.0629186" lon="11.3940428"><ele>748.25</ele><time>2026-05-02T11:59:28.918Z</time></trkpt><trkpt lat="44.0629185" lon="11.394245"><ele>745.5</ele><time>2026-05-02T11:59:29.918Z</time></trkpt><trkpt lat="44.062921" lon="11.3944303"><ele>742.75</ele><time>2026-05-02T11:59:30.918Z</time></trkpt><trkpt lat="44.0629151" lon="11.3945983"><ele>740.0</ele><time>2026-05-02T11:59:31.918Z</time></trkpt><trkpt lat="44.0628902" lon="11.3947481"><ele>734.75</ele><time>2026-05-02T11:59:32.918Z</time></trkpt><trkpt lat="44.062841" lon="11.3948694"><ele>729.5</ele><time>2026-05-02T11:59:33.918Z</time></trkpt><trkpt lat="44.0627678" lon="11.394966"><ele>724.25</ele><time>2026-05-02T11:59:34.919Z</time></trkpt><trkpt lat="44.0626606" lon="11.395046"><ele>719.0</ele><time>2026-05-02T11:59:35.918Z</time></trkpt><trkpt lat="44.0625263" lon="11.3951139"><ele>730.0</ele><time>2026-05-02T11:59:36.918Z</time></trkpt><trkpt lat="44.0623689" lon="11.3951698"><ele>741.0</ele><time>2026-05-02T11:59:37.918Z</time></trkpt><trkpt lat="44.0622082" lon="11.3952202"><ele>752.0</ele><time>2026-05-02T11:59:38.918Z</time></trkpt><trkpt lat="44.0620459" lon="11.3952787"><ele>752.0</ele><time>2026-05-02T11:59:39.918Z</time></trkpt><trkpt lat="44.0619025" lon="11.3953794"><ele>752.0</ele><time>2026-05-02T11:59:40.918Z</time></trkpt><trkpt lat="44.0617788" lon="11.3955142"><ele>752.0</ele><time>2026-05-02T11:59:41.918Z</time></trkpt><trkpt lat="44.0616843" lon="11.3956711"><ele>745.5</ele><time>2026-05-02T11:59:42.918Z</time></trkpt><trkpt lat="44.0616397" lon="11.395821"><ele>739.0</ele><time>2026-05-02T11:59:43.918Z</time></trkpt><trkpt lat="44.0616665" lon="11.3959846"><ele>732.5</ele><time>2026-05-02T11:59:44.918Z</time></trkpt><trkpt lat="44.0617011" lon="11.3961339"><ele>726.0</ele><time>2026-05-02T11:59:45.918Z</time></trkpt><trkpt lat="44.0616747" lon="11.396276"><ele>728.25</ele><time>2026-05-02T11:59:46.918Z</time></trkpt><trkpt lat="44.0616517" lon="11.3964178"><ele>730.5</ele><time>2026-05-02T11:59:47.918Z</time></trkpt><trkpt lat="44.0615884" lon="11.3965412"><ele>732.75</ele><time>2026-05-02T11:59:48.918Z</time></trkpt><trkpt lat="44.0614895" lon="11.3966413"><ele>735.0</ele><time>2026-05-02T11:59:49.918Z</time></trkpt><trkpt lat="44.0613828" lon="11.3967546"><ele>735.0</ele><time>2026-05-02T11:59:50.918Z</time></trkpt><trkpt lat="44.0612679" lon="11.3968845"><ele>735.0</ele><time>2026-05-02T11:59:51.918Z</time></trkpt><trkpt lat="44.0611971" lon="11.397022"><ele>735.0</ele><time>2026-05-02T11:59:52.918Z</time></trkpt><trkpt lat="44.0611388" lon="11.3971512"><ele>735.0</ele><time>2026-05-02T11:59:53.918Z</time></trkpt><trkpt lat="44.0610639" lon="11.3972321"><ele>732.25</ele><time>2026-05-02T11:59:54.918Z</time></trkpt><trkpt lat="44.0609764" lon="11.3972576"><ele>729.5</ele><time>2026-05-02T11:59:55.918Z</time></trkpt><trkpt lat="44.0608714" lon="11.397207"><ele>726.75</ele><time>2026-05-02T11:59:56.918Z</time></trkpt><trkpt lat="44.0607494" lon="11.3971305"><ele>724.0</ele><time>2026-05-02T11:59:57.918Z</time></trkpt><trkpt lat="44.0606306" lon="11.3970796"><ele>728.5</ele><time>2026-05-02T11:59:58.918Z</time></trkpt><trkpt lat="44.0605081" lon="11.3970848"><ele>733.0</ele><time>2026-05-02T11:59:59.918Z</time></trkpt><trkpt lat="44.0604024" lon="11.3971377"><ele>737.5</ele><time>2026-05-02T12:00:00.918Z</time></trkpt><trkpt lat="44.0603033" lon="11.3972285"><ele>742.0</ele><time>2026-05-02T12:00:01.918Z</time></trkpt><trkpt lat="44.0602148" lon="11.3973453"><ele>742.0</ele><time>2026-05-02T12:00:02.918Z</time></trkpt><trkpt lat="44.0601389" lon="11.3974919"><ele>742.0</ele><time>2026-05-02T12:00:03.918Z</time></trkpt><trkpt lat="44.0600951" lon="11.3976611"><ele>742.0</ele><time>2026-05-02T12:00:04.918Z</time></trkpt><trkpt lat="44.0600689" lon="11.3978263"><ele>742.0</ele><time>2026-05-02T12:00:05.918Z</time></trkpt><trkpt lat="44.0600372" lon="11.397963"><ele>740.2</ele><time>2026-05-02T12:00:06.918Z</time></trkpt><trkpt lat="44.0599788" lon="11.3980541"><ele>738.4000000000001</ele><time>2026-05-02T12:00:07.918Z</time></trkpt><trkpt lat="44.0599046" lon="11.398112"><ele>736.5999999999999</ele><time>2026-05-02T12:00:08.918Z</time></trkpt><trkpt lat="44.0598166" lon="11.3981341"><ele>734.8</ele><time>2026-05-02T12:00:09.918Z</time></trkpt><trkpt lat="44.0596971" lon="11.3980697"><ele>733.0</ele><time>2026-05-02T12:00:10.918Z</time></trkpt><trkpt lat="44.0595732" lon="11.3979695"><ele>738.25</ele><time>2026-05-02T12:00:11.918Z</time></trkpt><trkpt lat="44.0594496" lon="11.3978665"><ele>743.5</ele><time>2026-05-02T12:00:12.918Z</time></trkpt><trkpt lat="44.0593264" lon="11.3977818"><ele>748.75</ele><time>2026-05-02T12:00:13.918Z</time></trkpt><trkpt lat="44.0592015" lon="11.397729"><ele>754.0</ele><time>2026-05-02T12:00:14.918Z</time></trkpt><trkpt lat="44.0590761" lon="11.3977197"><ele>754.0</ele><time>2026-05-02T12:00:15.918Z</time></trkpt><trkpt lat="44.0589589" lon="11.3977414"><ele>754.0</ele><time>2026-05-02T12:00:16.918Z</time></trkpt><trkpt lat="44.0588476" lon="11.3977817"><ele>754.0</ele><time>2026-05-02T12:00:17.918Z</time></trkpt><trkpt lat="44.0587437" lon="11.3978423"><ele>754.0</ele><time>2026-05-02T12:00:18.918Z</time></trkpt><trkpt lat="44.0586389" lon="11.3978849"><ele>754.0</ele><time>2026-05-02T12:00:19.918Z</time></trkpt><trkpt lat="44.0585198" lon="11.3978992"><ele>754.0</ele><time>2026-05-02T12:00:20.918Z</time></trkpt><trkpt lat="44.0583979" lon="11.3978841"><ele>754.0</ele><time>2026-05-02T12:00:21.918Z</time></trkpt><trkpt lat="44.0582777" lon="11.3978429"><ele>754.0</ele><time>2026-05-02T12:00:22.918Z</time></trkpt><trkpt lat="44.0581602" lon="11.3977774"><ele>749.75</ele><time>2026-05-02T12:00:23.918Z</time></trkpt><trkpt lat="44.0580475" lon="11.3977098"><ele>745.5</ele><time>2026-05-02T12:00:24.919Z</time></trkpt><trkpt lat="44.0579406" lon="11.3976226"><ele>741.25</ele><time>2026-05-02T12:00:25.918Z</time></trkpt><trkpt lat="44.0578522" lon="11.397523"><ele>737.0</ele><time>2026-05-02T12:00:26.918Z</time></trkpt><trkpt lat="44.0577844" lon="11.3973871"><ele>737.0</ele><time>2026-05-02T12:00:27.918Z</time></trkpt><trkpt lat="44.0577253" lon="11.3972418"><ele>737.0</ele><time>2026-05-02T12:00:28.918Z</time></trkpt><trkpt lat="44.0576978" lon="11.3970774"><ele>737.0</ele><time>2026-05-02T12:00:29.918Z</time></trkpt><trkpt lat="44.0576853" lon="11.3969028"><ele>737.0</ele><time>2026-05-02T12:00:30.918Z</time></trkpt><trkpt lat="44.0576899" lon="11.3967122"><ele>740.0</ele><time>2026-05-02T12:00:31.918Z</time></trkpt><trkpt lat="44.0576732" lon="11.3965297"><ele>743.0</ele><time>2026-05-02T12:00:32.918Z</time></trkpt><trkpt lat="44.0576303" lon="11.3963383"><ele>746.0</ele><time>2026-05-02T12:00:33.918Z</time></trkpt><trkpt lat="44.0575697" lon="11.3961489"><ele>749.0</ele><time>2026-05-02T12:00:34.918Z</time></trkpt><trkpt lat="44.0575056" lon="11.3959648"><ele>745.75</ele><time>2026-05-02T12:00:35.918Z</time></trkpt><trkpt lat="44.0574416" lon="11.3957842"><ele>742.5</ele><time>2026-05-02T12:00:36.918Z</time></trkpt><trkpt lat="44.0573858" lon="11.3955938"><ele>739.25</ele><time>2026-05-02T12:00:37.918Z</time></trkpt><trkpt lat="44.0573358" lon="11.3954154"><ele>736.0</ele><time>2026-05-02T12:00:38.918Z</time></trkpt><trkpt lat="44.0573016" lon="11.3952492"><ele>736.0</ele><time>2026-05-02T12:00:39.918Z</time></trkpt><trkpt lat="44.057302" lon="11.3951087"><ele>736.0</ele><time>2026-05-02T12:00:40.918Z</time></trkpt><trkpt lat="44.0573416" lon="11.3949893"><ele>736.0</ele><time>2026-05-02T12:00:41.918Z</time></trkpt><trkpt lat="44.057404" lon="11.3948944"><ele>736.0</ele><time>2026-05-02T12:00:42.919Z</time></trkpt><trkpt lat="44.0574828" lon="11.3948412"><ele>736.0</ele><time>2026-05-02T12:00:43.918Z</time></trkpt><trkpt lat="44.0575625" lon="11.3947936"><ele>740.6666666666667</ele><time>2026-05-02T12:00:44.918Z</time></trkpt><trkpt lat="44.057644" lon="11.3947328"><ele>745.3333333333334</ele><time>2026-05-02T12:00:45.918Z</time></trkpt><trkpt lat="44.0577019" lon="11.3946395"><ele>750.0</ele><time>2026-05-02T12:00:46.918Z</time></trkpt><trkpt lat="44.0577235" lon="11.3945258"><ele>754.6666666666666</ele><time>2026-05-02T12:00:47.918Z</time></trkpt><trkpt lat="44.0577128" lon="11.3944116"><ele>759.3333333333333</ele><time>2026-05-02T12:00:48.918Z</time></trkpt><trkpt lat="44.0576661" lon="11.3943012"><ele>764.0</ele><time>2026-05-02T12:00:49.918Z</time></trkpt><trkpt lat="44.0575767" lon="11.3941938"><ele>761.6666666666666</ele><time>2026-05-02T12:00:50.919Z</time></trkpt><trkpt lat="44.0574539" lon="11.3940855"><ele>759.3333333333334</ele><time>2026-05-02T12:00:51.918Z</time></trkpt><trkpt lat="44.0572738" lon="11.3939857"><ele>757.0</ele><time>2026-05-02T12:00:52.918Z</time></trkpt><trkpt lat="44.0571295" lon="11.3938983"><ele>762.5</ele><time>2026-05-02T12:00:53.918Z</time></trkpt><trkpt lat="44.0569991" lon="11.3938183"><ele>768.0</ele><time>2026-05-02T12:00:54.918Z</time></trkpt><trkpt lat="44.0568892" lon="11.3937423"><ele>773.5</ele><time>2026-05-02T12:00:55.918Z</time></trkpt><trkpt lat="44.0568099" lon="11.3936466"><ele>779.0</ele><time>2026-05-02T12:00:56.918Z</time></trkpt><trkpt lat="44.056777" lon="11.3935224"><ele>779.0</ele><time>2026-05-02T12:00:57.918Z</time></trkpt><trkpt lat="44.0567885" lon="11.3933836"><ele>779.0</ele><time>2026-05-02T12:00:58.918Z</time></trkpt><trkpt lat="44.0568084" lon="11.3932394"><ele>779.0</ele><time>2026-05-02T12:00:59.918Z</time></trkpt><trkpt lat="44.0568151" lon="11.3931078"><ele>779.0</ele><time>2026-05-02T12:01:00.918Z</time></trkpt><trkpt lat="44.0568078" lon="11.3929971"><ele>779.0</ele><time>2026-05-02T12:01:01.918Z</time></trkpt><trkpt lat="44.0567728" lon="11.3929135"><ele>781.2</ele><time>2026-05-02T12:01:02.918Z</time></trkpt><trkpt lat="44.0566605" lon="11.3928903"><ele>783.4000000000001</ele><time>2026-05-02T12:01:04.918Z</time></trkpt><trkpt lat="44.0565948" lon="11.3929266"><ele>785.6</ele><time>2026-05-02T12:01:05.918Z</time></trkpt><trkpt lat="44.0565115" lon="11.3929829"><ele>787.8</ele><time>2026-05-02T12:01:06.918Z</time></trkpt><trkpt lat="44.0564187" lon="11.3930267"><ele>790.0</ele><time>2026-05-02T12:01:07.918Z</time></trkpt><trkpt lat="44.0563281" lon="11.3930483"><ele>790.0</ele><time>2026-05-02T12:01:08.918Z</time></trkpt><trkpt lat="44.0562283" lon="11.3930579"><ele>790.0</ele><time>2026-05-02T12:01:09.918Z</time></trkpt><trkpt lat="44.0560975" lon="11.3930417"><ele>790.0</ele><time>2026-05-02T12:01:10.918Z</time></trkpt><trkpt lat="44.0559618" lon="11.3929624"><ele>790.0</ele><time>2026-05-02T12:01:11.918Z</time></trkpt><trkpt lat="44.0558404" lon="11.392823"><ele>783.6666666666666</ele><time>2026-05-02T12:01:12.918Z</time></trkpt><trkpt lat="44.0557382" lon="11.3926118"><ele>777.3333333333333</ele><time>2026-05-02T12:01:13.918Z</time></trkpt><trkpt lat="44.0556558" lon="11.3924076"><ele>771.0</ele><time>2026-05-02T12:01:14.918Z</time></trkpt><trkpt lat="44.0555845" lon="11.3922068"><ele>774.5</ele><time>2026-05-02T12:01:15.918Z</time></trkpt><trkpt lat="44.0555246" lon="11.3920139"><ele>778.0</ele><time>2026-05-02T12:01:16.918Z</time></trkpt><trkpt lat="44.0554715" lon="11.3918178"><ele>781.5</ele><time>2026-05-02T12:01:17.918Z</time></trkpt><trkpt lat="44.0554172" lon="11.3916375"><ele>785.0</ele><time>2026-05-02T12:01:18.918Z</time></trkpt><trkpt lat="44.0553654" lon="11.3914638"><ele>787.5</ele><time>2026-05-02T12:01:19.918Z</time></trkpt><trkpt lat="44.0553278" lon="11.3912886"><ele>790.0</ele><time>2026-05-02T12:01:20.918Z</time></trkpt><trkpt lat="44.0553089" lon="11.3910996"><ele>792.5</ele><time>2026-05-02T12:01:21.918Z</time></trkpt><trkpt lat="44.055311" lon="11.3908983"><ele>795.0</ele><time>2026-05-02T12:01:22.918Z</time></trkpt><trkpt lat="44.055314" lon="11.3906792"><ele>798.5</ele><time>2026-05-02T12:01:23.918Z</time></trkpt><trkpt lat="44.0553188" lon="11.3904688"><ele>802.0</ele><time>2026-05-02T12:01:24.918Z</time></trkpt><trkpt lat="44.0553258" lon="11.3902811"><ele>805.5</ele><time>2026-05-02T12:01:25.918Z</time></trkpt><trkpt lat="44.0553257" lon="11.3901138"><ele>809.0</ele><time>2026-05-02T12:01:26.918Z</time></trkpt><trkpt lat="44.0553084" lon="11.3900024"><ele>809.0</ele><time>2026-05-02T12:01:27.918Z</time></trkpt><trkpt lat="44.0552445" lon="11.3899286"><ele>809.0</ele><time>2026-05-02T12:01:28.918Z</time></trkpt><trkpt lat="44.0551621" lon="11.3899061"><ele>809.0</ele><time>2026-05-02T12:01:29.918Z</time></trkpt><trkpt lat="44.0550758" lon="11.3899541"><ele>809.0</ele><time>2026-05-02T12:01:30.918Z</time></trkpt><trkpt lat="44.0550168" lon="11.3901405"><ele>809.0</ele><time>2026-05-02T12:01:31.918Z</time></trkpt><trkpt lat="44.0549431" lon="11.3903381"><ele>806.75</ele><time>2026-05-02T12:01:32.918Z</time></trkpt><trkpt lat="44.0548655" lon="11.3904897"><ele>804.5</ele><time>2026-05-02T12:01:33.918Z</time></trkpt><trkpt lat="44.054768" lon="11.3905966"><ele>802.25</ele><time>2026-05-02T12:01:34.918Z</time></trkpt><trkpt lat="44.0546651" lon="11.3906546"><ele>800.0</ele><time>2026-05-02T12:01:35.918Z</time></trkpt><trkpt lat="44.0545491" lon="11.3906688"><ele>800.0</ele><time>2026-05-02T12:01:36.918Z</time></trkpt><trkpt lat="44.0544139" lon="11.3906564"><ele>800.0</ele><time>2026-05-02T12:01:37.918Z</time></trkpt><trkpt lat="44.0542778" lon="11.3906192"><ele>800.0</ele><time>2026-05-02T12:01:38.918Z</time></trkpt><trkpt lat="44.0541339" lon="11.3905532"><ele>800.0</ele><time>2026-05-02T12:01:39.918Z</time></trkpt><trkpt lat="44.0540057" lon="11.3904746"><ele>807.5</ele><time>2026-05-02T12:01:40.918Z</time></trkpt><trkpt lat="44.0538835" lon="11.3904109"><ele>815.0</ele><time>2026-05-02T12:01:41.918Z</time></trkpt><trkpt lat="44.0537581" lon="11.3903628"><ele>822.5</ele><time>2026-05-02T12:01:42.918Z</time></trkpt><trkpt lat="44.0536292" lon="11.3903335"><ele>830.0</ele><time>2026-05-02T12:01:43.918Z</time></trkpt><trkpt lat="44.0535017" lon="11.390324"><ele>830.0</ele><time>2026-05-02T12:01:44.918Z</time></trkpt><trkpt lat="44.0533648" lon="11.3903261"><ele>830.0</ele><time>2026-05-02T12:01:45.918Z</time></trkpt><trkpt lat="44.0532167" lon="11.3903621"><ele>830.0</ele><time>2026-05-02T12:01:46.918Z</time></trkpt><trkpt lat="44.0530611" lon="11.3904224"><ele>830.0</ele><time>2026-05-02T12:01:47.918Z</time></trkpt><trkpt lat="44.0529003" lon="11.3904799"><ele>826.6666666666667</ele><time>2026-05-02T12:01:48.918Z</time></trkpt><trkpt lat="44.0527404" lon="11.390507"><ele>823.3333333333333</ele><time>2026-05-02T12:01:49.918Z</time></trkpt><trkpt lat="44.0525812" lon="11.3905001"><ele>820.0</ele><time>2026-05-02T12:01:50.918Z</time></trkpt><trkpt lat="44.0524243" lon="11.3904572"><ele>819.5</ele><time>2026-05-02T12:01:51.918Z</time></trkpt><trkpt lat="44.0522836" lon="11.3903918"><ele>819.0</ele><time>2026-05-02T12:01:52.918Z</time></trkpt><trkpt lat="44.0521542" lon="11.3903167"><ele>818.5</ele><time>2026-05-02T12:01:53.918Z</time></trkpt><trkpt lat="44.0520347" lon="11.3902603"><ele>818.0</ele><time>2026-05-02T12:01:54.918Z</time></trkpt><trkpt lat="44.0519313" lon="11.3902126"><ele>818.0</ele><time>2026-05-02T12:01:55.918Z</time></trkpt><trkpt lat="44.0518335" lon="11.390165"><ele>818.0</ele><time>2026-05-02T12:01:56.918Z</time></trkpt><trkpt lat="44.0517317" lon="11.3901138"><ele>818.0</ele><time>2026-05-02T12:01:57.918Z</time></trkpt><trkpt lat="44.0516193" lon="11.3900786"><ele>818.0</ele><time>2026-05-02T12:01:58.918Z</time></trkpt><trkpt lat="44.0514926" lon="11.3900641"><ele>818.5</ele><time>2026-05-02T12:01:59.918Z</time></trkpt><trkpt lat="44.0513569" lon="11.3900746"><ele>819.0</ele><time>2026-05-02T12:02:00.918Z</time></trkpt><trkpt lat="44.0512237" lon="11.3900877"><ele>819.5</ele><time>2026-05-02T12:02:01.918Z</time></trkpt><trkpt lat="44.0511061" lon="11.3900748"><ele>820.0</ele><time>2026-05-02T12:02:02.918Z</time></trkpt><trkpt lat="44.0509946" lon="11.3900407"><ele>820.0</ele><time>2026-05-02T12:02:03.918Z</time></trkpt><trkpt lat="44.0508924" lon="11.3899859"><ele>820.0</ele><time>2026-05-02T12:02:04.918Z</time></trkpt><trkpt lat="44.0507957" lon="11.3899186"><ele>820.0</ele><time>2026-05-02T12:02:05.918Z</time></trkpt><trkpt lat="44.0506964" lon="11.3898517"><ele>820.0</ele><time>2026-05-02T12:02:06.918Z</time></trkpt><trkpt lat="44.0505937" lon="11.3897856"><ele>820.0</ele><time>2026-05-02T12:02:07.918Z</time></trkpt><trkpt lat="44.0504759" lon="11.3897211"><ele>827.0</ele><time>2026-05-02T12:02:08.918Z</time></trkpt><trkpt lat="44.0503568" lon="11.3896686"><ele>834.0</ele><time>2026-05-02T12:02:09.918Z</time></trkpt><trkpt lat="44.0502231" lon="11.3896302"><ele>841.0</ele><time>2026-05-02T12:02:10.918Z</time></trkpt><trkpt lat="44.0500926" lon="11.3896049"><ele>848.0</ele><time>2026-05-02T12:02:11.919Z</time></trkpt><trkpt lat="44.0499636" lon="11.3895877"><ele>847.0</ele><time>2026-05-02T12:02:12.918Z</time></trkpt><trkpt lat="44.0498365" lon="11.3895904"><ele>846.0</ele><time>2026-05-02T12:02:13.918Z</time></trkpt><trkpt lat="44.0497075" lon="11.389621"><ele>845.0</ele><time>2026-05-02T12:02:14.918Z</time></trkpt><trkpt lat="44.049585" lon="11.3896823"><ele>844.0</ele><time>2026-05-02T12:02:15.918Z</time></trkpt><trkpt lat="44.0494624" lon="11.3897679"><ele>844.0</ele><time>2026-05-02T12:02:16.918Z</time></trkpt><trkpt lat="44.0493509" lon="11.3898525"><ele>844.0</ele><time>2026-05-02T12:02:17.918Z</time></trkpt><trkpt lat="44.0492555" lon="11.3899288"><ele>844.0</ele><time>2026-05-02T12:02:18.918Z</time></trkpt><trkpt lat="44.0491778" lon="11.3900058"><ele>844.0</ele><time>2026-05-02T12:02:19.918Z</time></trkpt><trkpt lat="44.0491061" lon="11.3900966"><ele>844.0</ele><time>2026-05-02T12:02:20.918Z</time></trkpt><trkpt lat="44.0490477" lon="11.3902135"><ele>845.25</ele><time>2026-05-02T12:02:21.918Z</time></trkpt><trkpt lat="44.0490092" lon="11.3903588"><ele>846.5</ele><time>2026-05-02T12:02:22.918Z</time></trkpt><trkpt lat="44.0489777" lon="11.3905282"><ele>847.75</ele><time>2026-05-02T12:02:23.918Z</time></trkpt><trkpt lat="44.0489445" lon="11.3907047"><ele>849.0</ele><time>2026-05-02T12:02:24.918Z</time></trkpt><trkpt lat="44.0488906" lon="11.3908723"><ele>849.0</ele><time>2026-05-02T12:02:25.918Z</time></trkpt><trkpt lat="44.0488264" lon="11.3910192"><ele>849.0</ele><time>2026-05-02T12:02:26.918Z</time></trkpt><trkpt lat="44.0487529" lon="11.3911683"><ele>849.0</ele><time>2026-05-02T12:02:27.918Z</time></trkpt><trkpt lat="44.0486931" lon="11.3913074"><ele>849.0</ele><time>2026-05-02T12:02:28.918Z</time></trkpt><trkpt lat="44.0486454" lon="11.3914459"><ele>848.3333333333334</ele><time>2026-05-02T12:02:29.918Z</time></trkpt><trkpt lat="44.0486021" lon="11.3915757"><ele>847.6666666666667</ele><time>2026-05-02T12:02:30.918Z</time></trkpt><trkpt lat="44.048552" lon="11.3916787"><ele>847.0</ele><time>2026-05-02T12:02:31.918Z</time></trkpt><trkpt lat="44.0484989" lon="11.3917294"><ele>846.3333333333334</ele><time>2026-05-02T12:02:32.918Z</time></trkpt><trkpt lat="44.0484121" lon="11.3916672"><ele>845.6666666666667</ele><time>2026-05-02T12:02:34.918Z</time></trkpt><trkpt lat="44.0483976" lon="11.3915379"><ele>845.0</ele><time>2026-05-02T12:02:35.918Z</time></trkpt><trkpt lat="44.0483818" lon="11.3913661"><ele>846.0</ele><time>2026-05-02T12:02:36.918Z</time></trkpt><trkpt lat="44.0483538" lon="11.3911811"><ele>847.0</ele><time>2026-05-02T12:02:37.918Z</time></trkpt><trkpt lat="44.0483048" lon="11.3909812"><ele>848.0</ele><time>2026-05-02T12:02:38.918Z</time></trkpt><trkpt lat="44.0482419" lon="11.3907764"><ele>849.0</ele><time>2026-05-02T12:02:39.918Z</time></trkpt><trkpt lat="44.0481669" lon="11.3905776"><ele>853.5</ele><time>2026-05-02T12:02:40.918Z</time></trkpt><trkpt lat="44.0480844" lon="11.3904121"><ele>858.0</ele><time>2026-05-02T12:02:41.918Z</time></trkpt><trkpt lat="44.0479828" lon="11.3902865"><ele>862.5</ele><time>2026-05-02T12:02:42.918Z</time></trkpt><trkpt lat="44.0478669" lon="11.3902225"><ele>867.0</ele><time>2026-05-02T12:02:43.918Z</time></trkpt><trkpt lat="44.0477416" lon="11.390237"><ele>867.0</ele><time>2026-05-02T12:02:44.918Z</time></trkpt><trkpt lat="44.0476138" lon="11.3903134"><ele>867.0</ele><time>2026-05-02T12:02:45.918Z</time></trkpt><trkpt lat="44.0474872" lon="11.3904233"><ele>867.0</ele><time>2026-05-02T12:02:46.918Z</time></trkpt><trkpt lat="44.0473811" lon="11.390497"><ele>867.0</ele><time>2026-05-02T12:02:47.918Z</time></trkpt><trkpt lat="44.0473044" lon="11.3905064"><ele>864.8</ele><time>2026-05-02T12:02:48.918Z</time></trkpt><trkpt lat="44.0472449" lon="11.3904543"><ele>862.6</ele><time>2026-05-02T12:02:49.918Z</time></trkpt><trkpt lat="44.0472206" lon="11.3903369"><ele>860.3999999999999</ele><time>2026-05-02T12:02:50.918Z</time></trkpt><trkpt lat="44.047214" lon="11.3901665"><ele>858.1999999999999</ele><time>2026-05-02T12:02:51.918Z</time></trkpt><trkpt lat="44.0472147" lon="11.3899591"><ele>856.0</ele><time>2026-05-02T12:02:52.918Z</time></trkpt><trkpt lat="44.0472042" lon="11.3897546"><ele>860.6666666666666</ele><time>2026-05-02T12:02:53.918Z</time></trkpt><trkpt lat="44.0471862" lon="11.3895545"><ele>865.3333333333333</ele><time>2026-05-02T12:02:54.918Z</time></trkpt><trkpt lat="44.0471551" lon="11.3893459"><ele>870.0</ele><time>2026-05-02T12:02:55.918Z</time></trkpt><trkpt lat="44.0471119" lon="11.3891434"><ele>870.0</ele><time>2026-05-02T12:02:56.918Z</time></trkpt><trkpt lat="44.0470885" lon="11.3889705"><ele>870.0</ele><time>2026-05-02T12:02:57.918Z</time></trkpt><trkpt lat="44.0470861" lon="11.3888238"><ele>870.0</ele><time>2026-05-02T12:02:58.918Z</time></trkpt><trkpt lat="44.0471032" lon="11.3886809"><ele>870.0</ele><time>2026-05-02T12:02:59.918Z</time></trkpt><trkpt lat="44.0471233" lon="11.3885348"><ele>870.0</ele><time>2026-05-02T12:03:00.918Z</time></trkpt><trkpt lat="44.0471262" lon="11.3884029"><ele>871.8333333333334</ele><time>2026-05-02T12:03:01.918Z</time></trkpt><trkpt lat="44.0471026" lon="11.3882896"><ele>873.6666666666667</ele><time>2026-05-02T12:03:02.918Z</time></trkpt><trkpt lat="44.0470634" lon="11.3881843"><ele>875.5</ele><time>2026-05-02T12:03:03.918Z</time></trkpt><trkpt lat="44.0470204" lon="11.3880955"><ele>877.3333333333334</ele><time>2026-05-02T12:03:04.918Z</time></trkpt><trkpt lat="44.0469567" lon="11.3880253"><ele>879.1666666666667</ele><time>2026-05-02T12:03:05.918Z</time></trkpt><trkpt lat="44.0468745" lon="11.3879811"><ele>881.0</ele><time>2026-05-02T12:03:06.919Z</time></trkpt><trkpt lat="44.0467848" lon="11.3879243"><ele>881.1666666666667</ele><time>2026-05-02T12:03:07.918Z</time></trkpt><trkpt lat="44.0467057" lon="11.3878699"><ele>881.3333333333334</ele><time>2026-05-02T12:03:08.918Z</time></trkpt><trkpt lat="44.0466409" lon="11.3878275"><ele>881.5</ele><time>2026-05-02T12:03:09.918Z</time></trkpt><trkpt lat="44.0465491" lon="11.3877776"><ele>881.6666666666667</ele><time>2026-05-02T12:03:11.918Z</time></trkpt><trkpt lat="44.0464799" lon="11.3877649"><ele>881.8333333333334</ele><time>2026-05-02T12:03:15.918Z</time></trkpt><trkpt lat="44.0464095" lon="11.3877298"><ele>882.0</ele><time>2026-05-02T12:03:30.918Z</time></trkpt><trkpt lat="44.0462954" lon="11.3876388"><ele>880.8</ele><time>2026-05-02T12:03:32.918Z</time></trkpt><trkpt lat="44.0462231" lon="11.387581"><ele>879.6</ele><time>2026-05-02T12:03:33.918Z</time></trkpt><trkpt lat="44.046152" lon="11.3875245"><ele>878.3999999999999</ele><time>2026-05-02T12:03:34.918Z</time></trkpt><trkpt lat="44.0460597" lon="11.3874646"><ele>877.1999999999999</ele><time>2026-05-02T12:03:35.918Z</time></trkpt><trkpt lat="44.0459637" lon="11.3873957"><ele>876.0</ele><time>2026-05-02T12:03:36.918Z</time></trkpt><trkpt lat="44.0458655" lon="11.3873445"><ele>874.75</ele><time>2026-05-02T12:03:37.918Z</time></trkpt><trkpt lat="44.045757" lon="11.3873301"><ele>873.5</ele><time>2026-05-02T12:03:38.918Z</time></trkpt><trkpt lat="44.0456336" lon="11.3873422"><ele>872.25</ele><time>2026-05-02T12:03:39.918Z</time></trkpt><trkpt lat="44.0455246" lon="11.3873724"><ele>871.0</ele><time>2026-05-02T12:03:40.918Z</time></trkpt><trkpt lat="44.0454144" lon="11.3874089"><ele>871.0</ele><time>2026-05-02T12:03:41.918Z</time></trkpt><trkpt lat="44.045303" lon="11.3874554"><ele>870.9999999999999</ele><time>2026-05-02T12:03:42.918Z</time></trkpt><trkpt lat="44.045202" lon="11.3875076"><ele>870.9999999999999</ele><time>2026-05-02T12:03:43.918Z</time></trkpt><trkpt lat="44.0451035" lon="11.3875757"><ele>871.0</ele><time>2026-05-02T12:03:44.919Z</time></trkpt><trkpt lat="44.0450023" lon="11.3876379"><ele>871.0</ele><time>2026-05-02T12:03:45.918Z</time></trkpt><trkpt lat="44.0449033" lon="11.3877016"><ele>870.0</ele><time>2026-05-02T12:03:46.918Z</time></trkpt><trkpt lat="44.0448099" lon="11.3877659"><ele>868.9999999999999</ele><time>2026-05-02T12:03:47.918Z</time></trkpt><trkpt lat="44.0447242" lon="11.3878151"><ele>867.9999999999999</ele><time>2026-05-02T12:03:48.918Z</time></trkpt><trkpt lat="44.0446349" lon="11.3878346"><ele>867.0</ele><time>2026-05-02T12:03:49.918Z</time></trkpt><trkpt lat="44.0445557" lon="11.3878343"><ele>866.0</ele><time>2026-05-02T12:03:50.918Z</time></trkpt><trkpt lat="44.0444751" lon="11.3877933"><ele>866.0</ele><time>2026-05-02T12:03:51.918Z</time></trkpt><trkpt lat="44.0444622" lon="11.3876514"><ele>866.0</ele><time>2026-05-02T12:03:52.918Z</time></trkpt><trkpt lat="44.0444835" lon="11.3874591"><ele>866.0</ele><time>2026-05-02T12:03:53.918Z</time></trkpt><trkpt lat="44.0444991" lon="11.3872556"><ele>866.0</ele><time>2026-05-02T12:03:54.918Z</time></trkpt><trkpt lat="44.0444958" lon="11.3870499"><ele>862.0</ele><time>2026-05-02T12:03:55.918Z</time></trkpt><trkpt lat="44.0445096" lon="11.3868618"><ele>858.0</ele><time>2026-05-02T12:03:56.918Z</time></trkpt><trkpt lat="44.0445447" lon="11.3867011"><ele>854.0</ele><time>2026-05-02T12:03:57.918Z</time></trkpt><trkpt lat="44.0445952" lon="11.3865522"><ele>850.0</ele><time>2026-05-02T12:03:58.918Z</time></trkpt><trkpt lat="44.0446614" lon="11.3864446"><ele>850.0</ele><time>2026-05-02T12:03:59.918Z</time></trkpt><trkpt lat="44.0447442" lon="11.3863749"><ele>850.0</ele><time>2026-05-02T12:04:00.918Z</time></trkpt><trkpt lat="44.0448421" lon="11.386328"><ele>850.0</ele><time>2026-05-02T12:04:01.918Z</time></trkpt><trkpt lat="44.0449357" lon="11.3862736"><ele>850.0</ele><time>2026-05-02T12:04:02.918Z</time></trkpt><trkpt lat="44.0449997" lon="11.3861664"><ele>850.0</ele><time>2026-05-02T12:04:03.918Z</time></trkpt><trkpt lat="44.0450622" lon="11.3860399"><ele>849.2</ele><time>2026-05-02T12:04:04.918Z</time></trkpt><trkpt lat="44.0451289" lon="11.3859219"><ele>848.4</ele><time>2026-05-02T12:04:05.918Z</time></trkpt><trkpt lat="44.0452146" lon="11.385819"><ele>847.5999999999999</ele><time>2026-05-02T12:04:06.918Z</time></trkpt><trkpt lat="44.0453095" lon="11.3857505"><ele>846.8</ele><time>2026-05-02T12:04:07.918Z</time></trkpt><trkpt lat="44.0453902" lon="11.3856796"><ele>846.0</ele><time>2026-05-02T12:04:08.918Z</time></trkpt><trkpt lat="44.0454453" lon="11.3855937"><ele>843.6666666666666</ele><time>2026-05-02T12:04:09.918Z</time></trkpt><trkpt lat="44.0454424" lon="11.3854922"><ele>841.3333333333333</ele><time>2026-05-02T12:04:10.918Z</time></trkpt><trkpt lat="44.0454172" lon="11.3853978"><ele>839.0</ele><time>2026-05-02T12:04:11.918Z</time></trkpt><trkpt lat="44.0453059" lon="11.3853912"><ele>836.6666666666666</ele><time>2026-05-02T12:04:13.918Z</time></trkpt><trkpt lat="44.0452328" lon="11.3854144"><ele>834.3333333333333</ele><time>2026-05-02T12:04:14.918Z</time></trkpt><trkpt lat="44.0451421" lon="11.3854244"><ele>832.0</ele><time>2026-05-02T12:04:15.919Z</time></trkpt><trkpt lat="44.0450484" lon="11.3854103"><ele>829.0</ele><time>2026-05-02T12:04:16.918Z</time></trkpt><trkpt lat="44.0449536" lon="11.3853784"><ele>826.0</ele><time>2026-05-02T12:04:17.918Z</time></trkpt><trkpt lat="44.044871" lon="11.3853376"><ele>823.0</ele><time>2026-05-02T12:04:18.918Z</time></trkpt><trkpt lat="44.0447905" lon="11.3853312"><ele>820.0</ele><time>2026-05-02T12:04:19.918Z</time></trkpt><trkpt lat="44.0447062" lon="11.3853524"><ele>817.0</ele><time>2026-05-02T12:04:20.918Z</time></trkpt><trkpt lat="44.0446211" lon="11.3854315"><ele>821.0</ele><time>2026-05-02T12:04:21.918Z</time></trkpt><trkpt lat="44.0445332" lon="11.3855444"><ele>825.0</ele><time>2026-05-02T12:04:22.918Z</time></trkpt><trkpt lat="44.0444536" lon="11.3856636"><ele>829.0</ele><time>2026-05-02T12:04:23.918Z</time></trkpt><trkpt lat="44.0443702" lon="11.3857658"><ele>833.0</ele><time>2026-05-02T12:04:24.918Z</time></trkpt><trkpt lat="44.0442628" lon="11.3858402"><ele>833.0</ele><time>2026-05-02T12:04:25.917Z</time></trkpt><trkpt lat="44.0441426" lon="11.3858777"><ele>833.0</ele><time>2026-05-02T12:04:26.917Z</time></trkpt><trkpt lat="44.0440141" lon="11.385902"><ele>833.0</ele><time>2026-05-02T12:04:27.917Z</time></trkpt><trkpt lat="44.0438822" lon="11.3859362"><ele>833.0</ele><time>2026-05-02T12:04:28.917Z</time></trkpt><trkpt lat="44.0437611" lon="11.3859934"><ele>825.75</ele><time>2026-05-02T12:04:29.917Z</time></trkpt><trkpt lat="44.0436434" lon="11.3860697"><ele>818.5</ele><time>2026-05-02T12:04:30.917Z</time></trkpt><trkpt lat="44.0435253" lon="11.3861557"><ele>811.25</ele><time>2026-05-02T12:04:31.917Z</time></trkpt><trkpt lat="44.0434076" lon="11.3862445"><ele>804.0</ele><time>2026-05-02T12:04:32.917Z</time></trkpt><trkpt lat="44.0433029" lon="11.3863399"><ele>803.5</ele><time>2026-05-02T12:04:33.917Z</time></trkpt><trkpt lat="44.0432126" lon="11.3864405"><ele>803.0</ele><time>2026-05-02T12:04:34.917Z</time></trkpt><trkpt lat="44.0431344" lon="11.3865388"><ele>802.5</ele><time>2026-05-02T12:04:35.917Z</time></trkpt><trkpt lat="44.0430863" lon="11.3866234"><ele>802.0</ele><time>2026-05-02T12:04:36.917Z</time></trkpt><trkpt lat="44.0430187" lon="11.3866755"><ele>801.5</ele><time>2026-05-02T12:04:38.917Z</time></trkpt><trkpt lat="44.0429947" lon="11.3865868"><ele>801.0</ele><time>2026-05-02T12:04:40.917Z</time></trkpt><trkpt lat="44.0430525" lon="11.386472"><ele>801.0</ele><time>2026-05-02T12:04:42.917Z</time></trkpt><trkpt lat="44.0431131" lon="11.3863934"><ele>801.0</ele><time>2026-05-02T12:04:43.917Z</time></trkpt><trkpt lat="44.0431875" lon="11.3862957"><ele>801.0</ele><time>2026-05-02T12:04:44.917Z</time></trkpt><trkpt lat="44.0432769" lon="11.3861718"><ele>801.0</ele><time>2026-05-02T12:04:45.917Z</time></trkpt><trkpt lat="44.0433672" lon="11.3860327"><ele>801.0</ele><time>2026-05-02T12:04:46.917Z</time></trkpt><trkpt lat="44.0434587" lon="11.3858879"><ele>801.75</ele><time>2026-05-02T12:04:47.917Z</time></trkpt><trkpt lat="44.0435415" lon="11.3857438"><ele>802.5</ele><time>2026-05-02T12:04:48.917Z</time></trkpt><trkpt lat="44.0436088" lon="11.385598"><ele>803.25</ele><time>2026-05-02T12:04:49.917Z</time></trkpt><trkpt lat="44.0436686" lon="11.3854484"><ele>804.0</ele><time>2026-05-02T12:04:50.917Z</time></trkpt><trkpt lat="44.0437173" lon="11.3852934"><ele>799.75</ele><time>2026-05-02T12:04:51.917Z</time></trkpt><trkpt lat="44.0437635" lon="11.385138"><ele>795.5</ele><time>2026-05-02T12:04:52.917Z</time></trkpt><trkpt lat="44.0438106" lon="11.3849799"><ele>791.25</ele><time>2026-05-02T12:04:53.917Z</time></trkpt><trkpt lat="44.0438628" lon="11.3848171"><ele>787.0</ele><time>2026-05-02T12:04:54.917Z</time></trkpt><trkpt lat="44.043917" lon="11.3846623"><ele>789.4000000000001</ele><time>2026-05-02T12:04:55.917Z</time></trkpt><trkpt lat="44.0439802" lon="11.3845171"><ele>791.8000000000001</ele><time>2026-05-02T12:04:56.917Z</time></trkpt><trkpt lat="44.044054" lon="11.3843838"><ele>794.2</ele><time>2026-05-02T12:04:57.917Z</time></trkpt><trkpt lat="44.0441288" lon="11.3842687"><ele>796.6</ele><time>2026-05-02T12:04:58.917Z</time></trkpt><trkpt lat="44.0441967" lon="11.3841786"><ele>799.0</ele><time>2026-05-02T12:04:59.917Z</time></trkpt><trkpt lat="44.0442386" lon="11.3840857"><ele>798.9999999999999</ele><time>2026-05-02T12:05:00.917Z</time></trkpt><trkpt lat="44.0442795" lon="11.3840007"><ele>799.0</ele><time>2026-05-02T12:05:01.917Z</time></trkpt><trkpt lat="44.044292" lon="11.3838708"><ele>799.0</ele><time>2026-05-02T12:05:03.917Z</time></trkpt><trkpt lat="44.0441877" lon="11.3838174"><ele>799.0</ele><time>2026-05-02T12:05:05.917Z</time></trkpt><trkpt lat="44.0441225" lon="11.3838366"><ele>798.9999999999999</ele><time>2026-05-02T12:05:06.917Z</time></trkpt><trkpt lat="44.0440562" lon="11.3838948"><ele>799.0</ele><time>2026-05-02T12:05:07.917Z</time></trkpt><trkpt lat="44.0439732" lon="11.3839893"><ele>791.5</ele><time>2026-05-02T12:05:08.917Z</time></trkpt><trkpt lat="44.0438827" lon="11.3841179"><ele>784.0</ele><time>2026-05-02T12:05:09.917Z</time></trkpt><trkpt lat="44.0437953" lon="11.3842588"><ele>776.5</ele><time>2026-05-02T12:05:10.918Z</time></trkpt><trkpt lat="44.0437063" lon="11.384394"><ele>769.0</ele><time>2026-05-02T12:05:11.917Z</time></trkpt><trkpt lat="44.0436273" lon="11.3845224"><ele>769.0</ele><time>2026-05-02T12:05:12.917Z</time></trkpt><trkpt lat="44.0435604" lon="11.3846542"><ele>769.0</ele><time>2026-05-02T12:05:13.917Z</time></trkpt><trkpt lat="44.0434933" lon="11.3847801"><ele>769.0</ele><time>2026-05-02T12:05:14.917Z</time></trkpt><trkpt lat="44.0434335" lon="11.3849014"><ele>769.0</ele><time>2026-05-02T12:05:15.917Z</time></trkpt><trkpt lat="44.0433761" lon="11.3850072"><ele>769.0</ele><time>2026-05-02T12:05:16.917Z</time></trkpt><trkpt lat="44.0433265" lon="11.3851023"><ele>767.1666666666666</ele><time>2026-05-02T12:05:17.917Z</time></trkpt><trkpt lat="44.0432723" lon="11.3851795"><ele>765.3333333333333</ele><time>2026-05-02T12:05:18.917Z</time></trkpt><trkpt lat="44.043187" lon="11.3851379"><ele>763.5</ele><time>2026-05-02T12:05:20.917Z</time></trkpt><trkpt lat="44.04316" lon="11.3850516"><ele>761.6666666666666</ele><time>2026-05-02T12:05:21.917Z</time></trkpt><trkpt lat="44.043157" lon="11.3849534"><ele>759.8333333333333</ele><time>2026-05-02T12:05:22.917Z</time></trkpt><trkpt lat="44.0431832" lon="11.3848476"><ele>758.0</ele><time>2026-05-02T12:05:23.917Z</time></trkpt><trkpt lat="44.0432402" lon="11.3847333"><ele>760.75</ele><time>2026-05-02T12:05:24.917Z</time></trkpt><trkpt lat="44.0433131" lon="11.3846046"><ele>763.5</ele><time>2026-05-02T12:05:25.917Z</time></trkpt><trkpt lat="44.0433918" lon="11.384459"><ele>766.25</ele><time>2026-05-02T12:05:26.917Z</time></trkpt><trkpt lat="44.043467" lon="11.3843042"><ele>769.0</ele><time>2026-05-02T12:05:27.917Z</time></trkpt><trkpt lat="44.0435389" lon="11.3841603"><ele>769.0</ele><time>2026-05-02T12:05:28.917Z</time></trkpt><trkpt lat="44.0436017" lon="11.3840203"><ele>769.0</ele><time>2026-05-02T12:05:29.917Z</time></trkpt><trkpt lat="44.0436637" lon="11.383894"><ele>769.0</ele><time>2026-05-02T12:05:30.917Z</time></trkpt><trkpt lat="44.0437193" lon="11.3837726"><ele>769.0</ele><time>2026-05-02T12:05:31.917Z</time></trkpt><trkpt lat="44.0437894" lon="11.3836612"><ele>769.0</ele><time>2026-05-02T12:05:32.917Z</time></trkpt><trkpt lat="44.0438641" lon="11.3835515"><ele>766.2</ele><time>2026-05-02T12:05:33.917Z</time></trkpt><trkpt lat="44.0439407" lon="11.3834422"><ele>763.4000000000001</ele><time>2026-05-02T12:05:34.917Z</time></trkpt><trkpt lat="44.044002" lon="11.3833364"><ele>760.6</ele><time>2026-05-02T12:05:35.917Z</time></trkpt><trkpt lat="44.0440386" lon="11.38322"><ele>757.8</ele><time>2026-05-02T12:05:36.917Z</time></trkpt><trkpt lat="44.0440807" lon="11.3831068"><ele>755.0</ele><time>2026-05-02T12:05:37.917Z</time></trkpt><trkpt lat="44.0441201" lon="11.3829918"><ele>760.75</ele><time>2026-05-02T12:05:38.917Z</time></trkpt><trkpt lat="44.0441581" lon="11.382861"><ele>766.5</ele><time>2026-05-02T12:05:39.917Z</time></trkpt><trkpt lat="44.0441779" lon="11.3826999"><ele>772.25</ele><time>2026-05-02T12:05:40.917Z</time></trkpt><trkpt lat="44.0441974" lon="11.382528"><ele>778.0</ele><time>2026-05-02T12:05:41.917Z</time></trkpt><trkpt lat="44.044201" lon="11.3823519"><ele>778.0</ele><time>2026-05-02T12:05:42.917Z</time></trkpt><trkpt lat="44.0442038" lon="11.3821827"><ele>778.0</ele><time>2026-05-02T12:05:43.917Z</time></trkpt><trkpt lat="44.0442039" lon="11.3820068"><ele>778.0</ele><time>2026-05-02T12:05:44.917Z</time></trkpt><trkpt lat="44.0442047" lon="11.3818357"><ele>778.0</ele><time>2026-05-02T12:05:45.917Z</time></trkpt><trkpt lat="44.0441967" lon="11.3816591"><ele>777.75</ele><time>2026-05-02T12:05:46.917Z</time></trkpt><trkpt lat="44.0441981" lon="11.3814842"><ele>777.5</ele><time>2026-05-02T12:05:47.917Z</time></trkpt><trkpt lat="44.0442044" lon="11.3813132"><ele>777.25</ele><time>2026-05-02T12:05:48.917Z</time></trkpt><trkpt lat="44.0441932" lon="11.3811531"><ele>777.0</ele><time>2026-05-02T12:05:49.917Z</time></trkpt><trkpt lat="44.0441532" lon="11.3810106"><ele>771.0</ele><time>2026-05-02T12:05:50.917Z</time></trkpt><trkpt lat="44.0440681" lon="11.3808955"><ele>765.0</ele><time>2026-05-02T12:05:51.917Z</time></trkpt><trkpt lat="44.0439441" lon="11.3808035"><ele>759.0</ele><time>2026-05-02T12:05:52.917Z</time></trkpt><trkpt lat="44.0437888" lon="11.380762"><ele>753.0</ele><time>2026-05-02T12:05:53.917Z</time></trkpt><trkpt lat="44.0436383" lon="11.3807299"><ele>753.0</ele><time>2026-05-02T12:05:54.917Z</time></trkpt><trkpt lat="44.0435247" lon="11.3806763"><ele>753.0</ele><time>2026-05-02T12:05:55.917Z</time></trkpt><trkpt lat="44.0434385" lon="11.3805745"><ele>753.0</ele><time>2026-05-02T12:05:56.917Z</time></trkpt><trkpt lat="44.0433904" lon="11.3804304"><ele>753.0</ele><time>2026-05-02T12:05:57.917Z</time></trkpt><trkpt lat="44.04336" lon="11.3802562"><ele>754.75</ele><time>2026-05-02T12:05:58.918Z</time></trkpt><trkpt lat="44.0433537" lon="11.380061"><ele>756.5</ele><time>2026-05-02T12:05:59.917Z</time></trkpt><trkpt lat="44.0433507" lon="11.379877"><ele>758.25</ele><time>2026-05-02T12:06:00.917Z</time></trkpt><trkpt lat="44.043341" lon="11.3797035"><ele>760.0</ele><time>2026-05-02T12:06:01.917Z</time></trkpt><trkpt lat="44.043324" lon="11.3795513"><ele>761.3333333333334</ele><time>2026-05-02T12:06:02.917Z</time></trkpt><trkpt lat="44.0433055" lon="11.3794179"><ele>762.6666666666667</ele><time>2026-05-02T12:06:03.917Z</time></trkpt><trkpt lat="44.0432773" lon="11.3793044"><ele>764.0</ele><time>2026-05-02T12:06:04.917Z</time></trkpt><trkpt lat="44.0432425" lon="11.3792126"><ele>765.3333333333334</ele><time>2026-05-02T12:06:05.917Z</time></trkpt><trkpt lat="44.0431945" lon="11.3791317"><ele>766.6666666666666</ele><time>2026-05-02T12:06:06.917Z</time></trkpt><trkpt lat="44.0431246" lon="11.3790995"><ele>768.0</ele><time>2026-05-02T12:06:07.917Z</time></trkpt><trkpt lat="44.0430573" lon="11.3790988"><ele>769.5</ele><time>2026-05-02T12:06:08.917Z</time></trkpt><trkpt lat="44.042968" lon="11.3791323"><ele>771.0</ele><time>2026-05-02T12:06:09.917Z</time></trkpt><trkpt lat="44.0428644" lon="11.3791808"><ele>772.5</ele><time>2026-05-02T12:06:10.918Z</time></trkpt><trkpt lat="44.0427442" lon="11.3792163"><ele>774.0</ele><time>2026-05-02T12:06:11.917Z</time></trkpt><trkpt lat="44.0426113" lon="11.3792521"><ele>774.0</ele><time>2026-05-02T12:06:12.917Z</time></trkpt><trkpt lat="44.0424856" lon="11.3792896"><ele>774.0</ele><time>2026-05-02T12:06:13.917Z</time></trkpt><trkpt lat="44.0423618" lon="11.3793566"><ele>774.0</ele><time>2026-05-02T12:06:14.917Z</time></trkpt><trkpt lat="44.0422522" lon="11.3794469"><ele>774.0</ele><time>2026-05-02T12:06:15.917Z</time></trkpt><trkpt lat="44.0421559" lon="11.379575"><ele>769.5</ele><time>2026-05-02T12:06:16.917Z</time></trkpt><trkpt lat="44.0420781" lon="11.3797013"><ele>765.0</ele><time>2026-05-02T12:06:17.917Z</time></trkpt><trkpt lat="44.0420067" lon="11.3798524"><ele>760.5</ele><time>2026-05-02T12:06:18.917Z</time></trkpt><trkpt lat="44.0419388" lon="11.3799985"><ele>756.0</ele><time>2026-05-02T12:06:19.917Z</time></trkpt><trkpt lat="44.0418719" lon="11.3801294"><ele>756.0</ele><time>2026-05-02T12:06:20.917Z</time></trkpt><trkpt lat="44.0417999" lon="11.3802382"><ele>756.0</ele><time>2026-05-02T12:06:21.917Z</time></trkpt><trkpt lat="44.0417284" lon="11.380324"><ele>756.0</ele><time>2026-05-02T12:06:22.917Z</time></trkpt><trkpt lat="44.0416555" lon="11.3803715"><ele>756.0</ele><time>2026-05-02T12:06:23.917Z</time></trkpt><trkpt lat="44.0415885" lon="11.3803853"><ele>756.0</ele><time>2026-05-02T12:06:24.917Z</time></trkpt><trkpt lat="44.0415156" lon="11.380347"><ele>756.0</ele><time>2026-05-02T12:06:25.917Z</time></trkpt><trkpt lat="44.0414343" lon="11.3802411"><ele>748.25</ele><time>2026-05-02T12:06:26.917Z</time></trkpt><trkpt lat="44.0413378" lon="11.3800976"><ele>740.5</ele><time>2026-05-02T12:06:27.917Z</time></trkpt><trkpt lat="44.041247" lon="11.3799687"><ele>732.75</ele><time>2026-05-02T12:06:28.917Z</time></trkpt><trkpt lat="44.0411705" lon="11.37985"><ele>725.0</ele><time>2026-05-02T12:06:29.917Z</time></trkpt><trkpt lat="44.0411292" lon="11.3797235"><ele>726.2</ele><time>2026-05-02T12:06:30.917Z</time></trkpt><trkpt lat="44.0411156" lon="11.379602"><ele>727.4</ele><time>2026-05-02T12:06:31.917Z</time></trkpt><trkpt lat="44.0411304" lon="11.3794823"><ele>728.5999999999999</ele><time>2026-05-02T12:06:32.917Z</time></trkpt><trkpt lat="44.0411745" lon="11.3793742"><ele>729.8</ele><time>2026-05-02T12:06:33.917Z</time></trkpt><trkpt lat="44.0412343" lon="11.3792678"><ele>731.0</ele><time>2026-05-02T12:06:34.917Z</time></trkpt><trkpt lat="44.0413058" lon="11.3791514"><ele>731.0</ele><time>2026-05-02T12:06:35.917Z</time></trkpt><trkpt lat="44.0413582" lon="11.3790261"><ele>731.0</ele><time>2026-05-02T12:06:36.917Z</time></trkpt><trkpt lat="44.041394" lon="11.3789056"><ele>731.0</ele><time>2026-05-02T12:06:37.917Z</time></trkpt><trkpt lat="44.0413901" lon="11.3787818"><ele>731.0</ele><time>2026-05-02T12:06:38.917Z</time></trkpt><trkpt lat="44.041361" lon="11.3786662"><ele>731.0</ele><time>2026-05-02T12:06:39.917Z</time></trkpt><trkpt lat="44.0413061" lon="11.3785529"><ele>732.75</ele><time>2026-05-02T12:06:40.917Z</time></trkpt><trkpt lat="44.0412254" lon="11.3784567"><ele>734.5</ele><time>2026-05-02T12:06:41.917Z</time></trkpt><trkpt lat="44.0411259" lon="11.3783826"><ele>736.25</ele><time>2026-05-02T12:06:42.917Z</time></trkpt><trkpt lat="44.0410238" lon="11.3783138"><ele>738.0</ele><time>2026-05-02T12:06:43.917Z</time></trkpt><trkpt lat="44.0409114" lon="11.3782613"><ele>738.0</ele><time>2026-05-02T12:06:44.917Z</time></trkpt><trkpt lat="44.0408116" lon="11.3781939"><ele>738.0</ele><time>2026-05-02T12:06:45.917Z</time></trkpt><trkpt lat="44.0407412" lon="11.3781029"><ele>738.0</ele><time>2026-05-02T12:06:46.917Z</time></trkpt><trkpt lat="44.0406917" lon="11.3779883"><ele>738.0</ele><time>2026-05-02T12:06:47.917Z</time></trkpt><trkpt lat="44.0406697" lon="11.3778562"><ele>738.0</ele><time>2026-05-02T12:06:48.917Z</time></trkpt><trkpt lat="44.0406839" lon="11.3777205"><ele>736.4</ele><time>2026-05-02T12:06:49.917Z</time></trkpt><trkpt lat="44.0407527" lon="11.3775945"><ele>734.8</ele><time>2026-05-02T12:06:50.917Z</time></trkpt><trkpt lat="44.040834" lon="11.3774891"><ele>733.2</ele><time>2026-05-02T12:06:51.917Z</time></trkpt><trkpt lat="44.0409236" lon="11.3773966"><ele>731.6</ele><time>2026-05-02T12:06:52.918Z</time></trkpt><trkpt lat="44.041017" lon="11.377326"><ele>730.0</ele><time>2026-05-02T12:06:53.917Z</time></trkpt><trkpt lat="44.0411008" lon="11.3772646"><ele>730.0</ele><time>2026-05-02T12:06:54.917Z</time></trkpt><trkpt lat="44.0411758" lon="11.3771991"><ele>730.0</ele><time>2026-05-02T12:06:55.917Z</time></trkpt><trkpt lat="44.0412367" lon="11.3771213"><ele>730.0</ele><time>2026-05-02T12:06:56.917Z</time></trkpt><trkpt lat="44.0412784" lon="11.3770376"><ele>730.0</ele><time>2026-05-02T12:06:57.917Z</time></trkpt><trkpt lat="44.0412662" lon="11.3768839"><ele>730.0</ele><time>2026-05-02T12:06:59.917Z</time></trkpt><trkpt lat="44.0412345" lon="11.3768073"><ele>730.0</ele><time>2026-05-02T12:07:00.917Z</time></trkpt><trkpt lat="44.041183" lon="11.3767413"><ele>728.4</ele><time>2026-05-02T12:07:01.917Z</time></trkpt><trkpt lat="44.0411083" lon="11.3766838"><ele>726.8</ele><time>2026-05-02T12:07:02.917Z</time></trkpt><trkpt lat="44.0410168" lon="11.3766329"><ele>725.2</ele><time>2026-05-02T12:07:03.917Z</time></trkpt><trkpt lat="44.0409296" lon="11.3765742"><ele>723.6</ele><time>2026-05-02T12:07:04.917Z</time></trkpt><trkpt lat="44.0408606" lon="11.376497"><ele>722.0</ele><time>2026-05-02T12:07:05.917Z</time></trkpt><trkpt lat="44.0408072" lon="11.3763976"><ele>717.2</ele><time>2026-05-02T12:07:06.917Z</time></trkpt><trkpt lat="44.0407696" lon="11.3762811"><ele>712.4000000000001</ele><time>2026-05-02T12:07:07.917Z</time></trkpt><trkpt lat="44.0407649" lon="11.3761193"><ele>707.5999999999999</ele><time>2026-05-02T12:07:08.917Z</time></trkpt><trkpt lat="44.0407687" lon="11.375971"><ele>702.8</ele><time>2026-05-02T12:07:09.917Z</time></trkpt><trkpt lat="44.040777" lon="11.3758324"><ele>698.0</ele><time>2026-05-02T12:07:10.917Z</time></trkpt><trkpt lat="44.0407892" lon="11.3757143"><ele>698.0</ele><time>2026-05-02T12:07:11.917Z</time></trkpt><trkpt lat="44.0407934" lon="11.3756036"><ele>698.0</ele><time>2026-05-02T12:07:12.917Z</time></trkpt><trkpt lat="44.0407931" lon="11.3755108"><ele>698.0</ele><time>2026-05-02T12:07:13.917Z</time></trkpt><trkpt lat="44.0407614" lon="11.3753691"><ele>698.0</ele><time>2026-05-02T12:07:15.917Z</time></trkpt><trkpt lat="44.0407002" lon="11.3753297"><ele>698.0</ele><time>2026-05-02T12:07:16.917Z</time></trkpt><trkpt lat="44.0406259" lon="11.3753071"><ele>698.0</ele><time>2026-05-02T12:07:17.917Z</time></trkpt><trkpt lat="44.040555" lon="11.3753196"><ele>701.5999999999999</ele><time>2026-05-02T12:07:18.917Z</time></trkpt><trkpt lat="44.0404734" lon="11.3753448"><ele>705.1999999999999</ele><time>2026-05-02T12:07:19.917Z</time></trkpt><trkpt lat="44.0403847" lon="11.3753469"><ele>708.8</ele><time>2026-05-02T12:07:20.917Z</time></trkpt><trkpt lat="44.0402832" lon="11.3753218"><ele>712.4</ele><time>2026-05-02T12:07:21.917Z</time></trkpt><trkpt lat="44.0401683" lon="11.3753037"><ele>716.0</ele><time>2026-05-02T12:07:22.917Z</time></trkpt><trkpt lat="44.0400533" lon="11.3753061"><ele>712.5</ele><time>2026-05-02T12:07:23.917Z</time></trkpt><trkpt lat="44.0399297" lon="11.3753299"><ele>709.0</ele><time>2026-05-02T12:07:24.917Z</time></trkpt><trkpt lat="44.039803" lon="11.3753726"><ele>705.5</ele><time>2026-05-02T12:07:25.917Z</time></trkpt><trkpt lat="44.0396756" lon="11.3754085"><ele>702.0</ele><time>2026-05-02T12:07:26.917Z</time></trkpt><trkpt lat="44.0395589" lon="11.3754449"><ele>702.0</ele><time>2026-05-02T12:07:27.917Z</time></trkpt><trkpt lat="44.039446" lon="11.375448"><ele>702.0</ele><time>2026-05-02T12:07:28.917Z</time></trkpt><trkpt lat="44.0393403" lon="11.3754673"><ele>702.0</ele><time>2026-05-02T12:07:29.917Z</time></trkpt><trkpt lat="44.0392452" lon="11.3754882"><ele>702.0</ele><time>2026-05-02T12:07:30.917Z</time></trkpt><trkpt lat="44.0391561" lon="11.3755307"><ele>702.0</ele><time>2026-05-02T12:07:31.917Z</time></trkpt><trkpt lat="44.039066" lon="11.3755644"><ele>701.0</ele><time>2026-05-02T12:07:32.917Z</time></trkpt><trkpt lat="44.0389795" lon="11.375612"><ele>700.0</ele><time>2026-05-02T12:07:33.917Z</time></trkpt><trkpt lat="44.0388987" lon="11.3756696"><ele>699.0</ele><time>2026-05-02T12:07:34.917Z</time></trkpt><trkpt lat="44.0388158" lon="11.3757355"><ele>698.0</ele><time>2026-05-02T12:07:35.917Z</time></trkpt><trkpt lat="44.0387392" lon="11.3757993"><ele>697.0</ele><time>2026-05-02T12:07:36.917Z</time></trkpt><trkpt lat="44.0386638" lon="11.3758588"><ele>697.0</ele><time>2026-05-02T12:07:37.917Z</time></trkpt><trkpt lat="44.0385806" lon="11.375918"><ele>697.0</ele><time>2026-05-02T12:07:38.917Z</time></trkpt><trkpt lat="44.0385118" lon="11.3759889"><ele>697.0</ele><time>2026-05-02T12:07:39.917Z</time></trkpt><trkpt lat="44.0384454" lon="11.3760606"><ele>697.0</ele><time>2026-05-02T12:07:40.917Z</time></trkpt><trkpt lat="44.0383813" lon="11.3761316"><ele>697.0</ele><time>2026-05-02T12:07:41.917Z</time></trkpt><trkpt lat="44.0383202" lon="11.3762055"><ele>697.0</ele><time>2026-05-02T12:07:42.917Z</time></trkpt><trkpt lat="44.0382553" lon="11.376272"><ele>693.0</ele><time>2026-05-02T12:07:43.917Z</time></trkpt><trkpt lat="44.0381852" lon="11.3763256"><ele>689.0</ele><time>2026-05-02T12:07:44.917Z</time></trkpt><trkpt lat="44.0381077" lon="11.3763624"><ele>685.0</ele><time>2026-05-02T12:07:45.917Z</time></trkpt><trkpt lat="44.0380145" lon="11.3763568"><ele>681.0</ele><time>2026-05-02T12:07:46.917Z</time></trkpt><trkpt lat="44.0379142" lon="11.3762889"><ele>677.0</ele><time>2026-05-02T12:07:47.917Z</time></trkpt><trkpt lat="44.0378217" lon="11.3761651"><ele>677.0</ele><time>2026-05-02T12:07:48.917Z</time></trkpt><trkpt lat="44.0377188" lon="11.3759722"><ele>677.0</ele><time>2026-05-02T12:07:49.917Z</time></trkpt><trkpt lat="44.0376422" lon="11.3757654"><ele>677.0</ele><time>2026-05-02T12:07:50.917Z</time></trkpt><trkpt lat="44.0375755" lon="11.3755613"><ele>677.25</ele><time>2026-05-02T12:07:51.917Z</time></trkpt><trkpt lat="44.0375133" lon="11.3753661"><ele>677.5</ele><time>2026-05-02T12:07:52.917Z</time></trkpt><trkpt lat="44.0374551" lon="11.3751842"><ele>677.75</ele><time>2026-05-02T12:07:53.917Z</time></trkpt><trkpt lat="44.0373942" lon="11.3750121"><ele>678.0</ele><time>2026-05-02T12:07:54.917Z</time></trkpt><trkpt lat="44.0373285" lon="11.3748654"><ele>674.3333333333334</ele><time>2026-05-02T12:07:55.917Z</time></trkpt><trkpt lat="44.0372549" lon="11.3747491"><ele>670.6666666666666</ele><time>2026-05-02T12:07:56.917Z</time></trkpt><trkpt lat="44.0371835" lon="11.3746512"><ele>667.0</ele><time>2026-05-02T12:07:57.917Z</time></trkpt><trkpt lat="44.0371345" lon="11.3745682"><ele>663.3333333333333</ele><time>2026-05-02T12:07:58.917Z</time></trkpt><trkpt lat="44.0371166" lon="11.3744783"><ele>659.6666666666666</ele><time>2026-05-02T12:07:59.917Z</time></trkpt><trkpt lat="44.0371352" lon="11.3743938"><ele>656.0</ele><time>2026-05-02T12:08:00.917Z</time></trkpt><trkpt lat="44.0371837" lon="11.3743262"><ele>654.4</ele><time>2026-05-02T12:08:01.917Z</time></trkpt><trkpt lat="44.0372634" lon="11.3743023"><ele>652.8</ele><time>2026-05-02T12:08:02.918Z</time></trkpt><trkpt lat="44.0373925" lon="11.3743495"><ele>651.1999999999999</ele><time>2026-05-02T12:08:03.917Z</time></trkpt><trkpt lat="44.0375113" lon="11.374372"><ele>649.5999999999999</ele><time>2026-05-02T12:08:04.917Z</time></trkpt><trkpt lat="44.0376054" lon="11.3743566"><ele>648.0</ele><time>2026-05-02T12:08:05.917Z</time></trkpt><trkpt lat="44.0376782" lon="11.3742982"><ele>648.0</ele><time>2026-05-02T12:08:06.917Z</time></trkpt><trkpt lat="44.0377194" lon="11.374209"><ele>648.0</ele><time>2026-05-02T12:08:07.917Z</time></trkpt><trkpt lat="44.0376242" lon="11.3740781"><ele>648.0</ele><time>2026-05-02T12:08:09.918Z</time></trkpt><trkpt lat="44.0375011" lon="11.3740768"><ele>648.0</ele><time>2026-05-02T12:08:10.917Z</time></trkpt><trkpt lat="44.0373814" lon="11.3741064"><ele>648.0</ele><time>2026-05-02T12:08:11.917Z</time></trkpt><trkpt lat="44.0372626" lon="11.3741462"><ele>648.0</ele><time>2026-05-02T12:08:12.917Z</time></trkpt><trkpt lat="44.0371425" lon="11.3741992"><ele>648.0</ele><time>2026-05-02T12:08:13.917Z</time></trkpt><trkpt lat="44.0370291" lon="11.3742513"><ele>648.0</ele><time>2026-05-02T12:08:14.917Z</time></trkpt><trkpt lat="44.0369221" lon="11.3742977"><ele>648.0</ele><time>2026-05-02T12:08:15.917Z</time></trkpt><trkpt lat="44.0368177" lon="11.3743529"><ele>648.0</ele><time>2026-05-02T12:08:16.917Z</time></trkpt><trkpt lat="44.0367335" lon="11.3744232"><ele>648.0</ele><time>2026-05-02T12:08:17.917Z</time></trkpt><trkpt lat="44.0366661" lon="11.3745193"><ele>648.0</ele><time>2026-05-02T12:08:18.917Z</time></trkpt><trkpt lat="44.0366196" lon="11.3746489"><ele>648.0</ele><time>2026-05-02T12:08:19.917Z</time></trkpt><trkpt lat="44.0366069" lon="11.3747942"><ele>650.0</ele><time>2026-05-02T12:08:20.917Z</time></trkpt><trkpt lat="44.0366261" lon="11.374936"><ele>652.0</ele><time>2026-05-02T12:08:21.917Z</time></trkpt><trkpt lat="44.0366821" lon="11.3750795"><ele>654.0</ele><time>2026-05-02T12:08:22.917Z</time></trkpt><trkpt lat="44.0367559" lon="11.3752138"><ele>656.0</ele><time>2026-05-02T12:08:23.917Z</time></trkpt><trkpt lat="44.0368417" lon="11.3753165"><ele>656.0</ele><time>2026-05-02T12:08:24.918Z</time></trkpt><trkpt lat="44.0369282" lon="11.3753932"><ele>656.0</ele><time>2026-05-02T12:08:25.917Z</time></trkpt><trkpt lat="44.0370071" lon="11.3754756"><ele>656.0</ele><time>2026-05-02T12:08:26.917Z</time></trkpt><trkpt lat="44.037058" lon="11.375561"><ele>656.0</ele><time>2026-05-02T12:08:27.917Z</time></trkpt><trkpt lat="44.0370938" lon="11.375672"><ele>656.0</ele><time>2026-05-02T12:08:28.917Z</time></trkpt><trkpt lat="44.0370938" lon="11.3757973"><ele>653.4</ele><time>2026-05-02T12:08:29.917Z</time></trkpt><trkpt lat="44.0370681" lon="11.3759349"><ele>650.8</ele><time>2026-05-02T12:08:30.917Z</time></trkpt><trkpt lat="44.0370298" lon="11.3760793"><ele>648.1999999999999</ele><time>2026-05-02T12:08:31.917Z</time></trkpt><trkpt lat="44.0369924" lon="11.3762296"><ele>645.5999999999999</ele><time>2026-05-02T12:08:32.917Z</time></trkpt><trkpt lat="44.0369609" lon="11.3763808"><ele>643.0</ele><time>2026-05-02T12:08:33.917Z</time></trkpt><trkpt lat="44.0369305" lon="11.3765357"><ele>642.3333333333334</ele><time>2026-05-02T12:08:34.917Z</time></trkpt><trkpt lat="44.0369014" lon="11.3766781"><ele>641.6666666666667</ele><time>2026-05-02T12:08:35.917Z</time></trkpt><trkpt lat="44.0368675" lon="11.3767967"><ele>641.0</ele><time>2026-05-02T12:08:36.917Z</time></trkpt><trkpt lat="44.0368315" lon="11.3768821"><ele>640.3333333333334</ele><time>2026-05-02T12:08:37.917Z</time></trkpt><trkpt lat="44.0367454" lon="11.3768514"><ele>639.6666666666666</ele><time>2026-05-02T12:08:39.917Z</time></trkpt><trkpt lat="44.0367093" lon="11.376737"><ele>639.0</ele><time>2026-05-02T12:08:40.917Z</time></trkpt><trkpt lat="44.0366895" lon="11.3766052"><ele>639.0</ele><time>2026-05-02T12:08:41.917Z</time></trkpt><trkpt lat="44.0366969" lon="11.3764549"><ele>639.0</ele><time>2026-05-02T12:08:42.917Z</time></trkpt><trkpt lat="44.0367202" lon="11.3762987"><ele>639.0</ele><time>2026-05-02T12:08:43.917Z</time></trkpt><trkpt lat="44.036741" lon="11.3761414"><ele>639.0</ele><time>2026-05-02T12:08:44.917Z</time></trkpt><trkpt lat="44.0367626" lon="11.3759989"><ele>639.0</ele><time>2026-05-02T12:08:45.917Z</time></trkpt><trkpt lat="44.0367691" lon="11.3758692"><ele>639.8</ele><time>2026-05-02T12:08:46.917Z</time></trkpt><trkpt lat="44.0367723" lon="11.3757475"><ele>640.5999999999999</ele><time>2026-05-02T12:08:47.917Z</time></trkpt><trkpt lat="44.0367537" lon="11.3756268"><ele>641.4</ele><time>2026-05-02T12:08:48.917Z</time></trkpt><trkpt lat="44.0367082" lon="11.3755189"><ele>642.1999999999999</ele><time>2026-05-02T12:08:49.917Z</time></trkpt><trkpt lat="44.0366337" lon="11.3754488"><ele>643.0</ele><time>2026-05-02T12:08:50.917Z</time></trkpt><trkpt lat="44.0365388" lon="11.3754101"><ele>639.0</ele><time>2026-05-02T12:08:51.917Z</time></trkpt><trkpt lat="44.036443" lon="11.3753555"><ele>635.0</ele><time>2026-05-02T12:08:52.917Z</time></trkpt><trkpt lat="44.0363435" lon="11.3752946"><ele>631.0</ele><time>2026-05-02T12:08:53.917Z</time></trkpt><trkpt lat="44.0362444" lon="11.3752285"><ele>627.0</ele><time>2026-05-02T12:08:54.917Z</time></trkpt><trkpt lat="44.0361591" lon="11.375145"><ele>623.0</ele><time>2026-05-02T12:08:55.917Z</time></trkpt><trkpt lat="44.0360901" lon="11.375042"><ele>623.0</ele><time>2026-05-02T12:08:56.918Z</time></trkpt><trkpt lat="44.0360424" lon="11.3749072"><ele>623.0</ele><time>2026-05-02T12:08:57.917Z</time></trkpt><trkpt lat="44.0360186" lon="11.3747759"><ele>623.0</ele><time>2026-05-02T12:08:58.917Z</time></trkpt><trkpt lat="44.0360059" lon="11.3746384"><ele>623.0</ele><time>2026-05-02T12:08:59.917Z</time></trkpt><trkpt lat="44.0360051" lon="11.3745051"><ele>623.0</ele><time>2026-05-02T12:09:00.917Z</time></trkpt><trkpt lat="44.0359964" lon="11.3743676"><ele>623.5</ele><time>2026-05-02T12:09:01.917Z</time></trkpt><trkpt lat="44.035975" lon="11.3742438"><ele>624.0</ele><time>2026-05-02T12:09:02.917Z</time></trkpt><trkpt lat="44.0359518" lon="11.3741422"><ele>624.5</ele><time>2026-05-02T12:09:03.917Z</time></trkpt><trkpt lat="44.0359033" lon="11.3740692"><ele>625.0</ele><time>2026-05-02T12:09:04.917Z</time></trkpt><trkpt lat="44.0358379" lon="11.374027"><ele>625.5</ele><time>2026-05-02T12:09:05.917Z</time></trkpt><trkpt lat="44.0357627" lon="11.3740199"><ele>626.0</ele><time>2026-05-02T12:09:06.917Z</time></trkpt><trkpt lat="44.0356862" lon="11.3740406"><ele>627.8</ele><time>2026-05-02T12:09:07.916Z</time></trkpt><trkpt lat="44.0356092" lon="11.374085"><ele>629.6</ele><time>2026-05-02T12:09:08.916Z</time></trkpt><trkpt lat="44.0355457" lon="11.3742075"><ele>631.4</ele><time>2026-05-02T12:09:09.916Z</time></trkpt><trkpt lat="44.0354922" lon="11.3743518"><ele>633.2</ele><time>2026-05-02T12:09:10.916Z</time></trkpt><trkpt lat="44.0354366" lon="11.374503"><ele>635.0</ele><time>2026-05-02T12:09:11.916Z</time></trkpt><trkpt lat="44.0353749" lon="11.3746356"><ele>632.25</ele><time>2026-05-02T12:09:12.916Z</time></trkpt><trkpt lat="44.0353157" lon="11.3747643"><ele>629.5</ele><time>2026-05-02T12:09:13.916Z</time></trkpt><trkpt lat="44.0352443" lon="11.3748863"><ele>626.75</ele><time>2026-05-02T12:09:14.916Z</time></trkpt><trkpt lat="44.0351505" lon="11.374997"><ele>624.0</ele><time>2026-05-02T12:09:15.916Z</time></trkpt><trkpt lat="44.0350536" lon="11.3751027"><ele>623.5</ele><time>2026-05-02T12:09:16.916Z</time></trkpt><trkpt lat="44.0349562" lon="11.3752094"><ele>623.0</ele><time>2026-05-02T12:09:17.916Z</time></trkpt><trkpt lat="44.0348543" lon="11.3753075"><ele>622.5</ele><time>2026-05-02T12:09:18.916Z</time></trkpt><trkpt lat="44.0347431" lon="11.3754121"><ele>622.0</ele><time>2026-05-02T12:09:19.916Z</time></trkpt><trkpt lat="44.0346356" lon="11.3755124"><ele>619.75</ele><time>2026-05-02T12:09:20.916Z</time></trkpt><trkpt lat="44.0345317" lon="11.3756246"><ele>617.5</ele><time>2026-05-02T12:09:21.916Z</time></trkpt><trkpt lat="44.0344115" lon="11.3757231"><ele>615.25</ele><time>2026-05-02T12:09:22.916Z</time></trkpt><trkpt lat="44.0342882" lon="11.375805"><ele>613.0</ele><time>2026-05-02T12:09:23.916Z</time></trkpt><trkpt lat="44.0341668" lon="11.3758351"><ele>611.5</ele><time>2026-05-02T12:09:24.916Z</time></trkpt><trkpt lat="44.0340551" lon="11.3758272"><ele>610.0</ele><time>2026-05-02T12:09:25.916Z</time></trkpt><trkpt lat="44.0339298" lon="11.375797"><ele>608.5</ele><time>2026-05-02T12:09:26.916Z</time></trkpt><trkpt lat="44.0338228" lon="11.3757547"><ele>607.0</ele><time>2026-05-02T12:09:27.916Z</time></trkpt><trkpt lat="44.0337168" lon="11.3757142"><ele>607.0</ele><time>2026-05-02T12:09:28.916Z</time></trkpt><trkpt lat="44.0336228" lon="11.3756638"><ele>607.0</ele><time>2026-05-02T12:09:29.916Z</time></trkpt><trkpt lat="44.0335391" lon="11.3756443"><ele>607.0</ele><time>2026-05-02T12:09:30.916Z</time></trkpt><trkpt lat="44.0334645" lon="11.3756295"><ele>607.0</ele><time>2026-05-02T12:09:31.917Z</time></trkpt><trkpt lat="44.0333909" lon="11.3756472"><ele>607.0</ele><time>2026-05-02T12:09:32.916Z</time></trkpt><trkpt lat="44.0333132" lon="11.3756722"><ele>607.0</ele><time>2026-05-02T12:09:33.916Z</time></trkpt><trkpt lat="44.0332267" lon="11.3757253"><ele>607.8000000000001</ele><time>2026-05-02T12:09:34.916Z</time></trkpt><trkpt lat="44.0331438" lon="11.3757889"><ele>608.6</ele><time>2026-05-02T12:09:35.916Z</time></trkpt><trkpt lat="44.033066" lon="11.3758625"><ele>609.4000000000001</ele><time>2026-05-02T12:09:36.916Z</time></trkpt><trkpt lat="44.0329936" lon="11.3759714"><ele>610.2</ele><time>2026-05-02T12:09:37.916Z</time></trkpt><trkpt lat="44.032927" lon="11.3761003"><ele>611.0</ele><time>2026-05-02T12:09:38.916Z</time></trkpt><trkpt lat="44.0328797" lon="11.3762439"><ele>607.75</ele><time>2026-05-02T12:09:39.916Z</time></trkpt><trkpt lat="44.0328555" lon="11.3763929"><ele>604.5</ele><time>2026-05-02T12:09:40.916Z</time></trkpt><trkpt lat="44.0328257" lon="11.3765371"><ele>601.25</ele><time>2026-05-02T12:09:41.916Z</time></trkpt><trkpt lat="44.0327692" lon="11.3766734"><ele>598.0</ele><time>2026-05-02T12:09:42.916Z</time></trkpt><trkpt lat="44.0326679" lon="11.3767775"><ele>598.0</ele><time>2026-05-02T12:09:43.916Z</time></trkpt><trkpt lat="44.0325415" lon="11.3768363"><ele>598.0</ele><time>2026-05-02T12:09:44.916Z</time></trkpt><trkpt lat="44.0324147" lon="11.3768771"><ele>598.0</ele><time>2026-05-02T12:09:45.916Z</time></trkpt><trkpt lat="44.0322837" lon="11.3769049"><ele>598.0</ele><time>2026-05-02T12:09:46.916Z</time></trkpt><trkpt lat="44.0321565" lon="11.3769232"><ele>596.75</ele><time>2026-05-02T12:09:47.916Z</time></trkpt><trkpt lat="44.0320353" lon="11.3769377"><ele>595.5</ele><time>2026-05-02T12:09:48.916Z</time></trkpt><trkpt lat="44.0319225" lon="11.3769442"><ele>594.25</ele><time>2026-05-02T12:09:49.916Z</time></trkpt><trkpt lat="44.0318134" lon="11.3769315"><ele>593.0</ele><time>2026-05-02T12:09:50.916Z</time></trkpt><trkpt lat="44.0317" lon="11.3769105"><ele>593.25</ele><time>2026-05-02T12:09:51.916Z</time></trkpt><trkpt lat="44.0315854" lon="11.3768865"><ele>593.5</ele><time>2026-05-02T12:09:52.916Z</time></trkpt><trkpt lat="44.0314731" lon="11.3768669"><ele>593.75</ele><time>2026-05-02T12:09:53.916Z</time></trkpt><trkpt lat="44.0313637" lon="11.3768575"><ele>594.0</ele><time>2026-05-02T12:09:54.916Z</time></trkpt><trkpt lat="44.0312457" lon="11.3768663"><ele>594.0</ele><time>2026-05-02T12:09:55.916Z</time></trkpt><trkpt lat="44.0311283" lon="11.3768776"><ele>594.0</ele><time>2026-05-02T12:09:56.916Z</time></trkpt><trkpt lat="44.0310061" lon="11.3768788"><ele>594.0</ele><time>2026-05-02T12:09:57.916Z</time></trkpt><trkpt lat="44.0308959" lon="11.3768946"><ele>594.0</ele><time>2026-05-02T12:09:58.916Z</time></trkpt><trkpt lat="44.0308003" lon="11.3769448"><ele>594.0</ele><time>2026-05-02T12:09:59.916Z</time></trkpt><trkpt lat="44.0307282" lon="11.3770321"><ele>594.0</ele><time>2026-05-02T12:10:00.916Z</time></trkpt><trkpt lat="44.0306718" lon="11.3771681"><ele>594.0</ele><time>2026-05-02T12:10:01.916Z</time></trkpt><trkpt lat="44.030626" lon="11.3773161"><ele>594.0</ele><time>2026-05-02T12:10:02.916Z</time></trkpt><trkpt lat="44.0305975" lon="11.37746"><ele>594.0</ele><time>2026-05-02T12:10:03.916Z</time></trkpt><trkpt lat="44.030551" lon="11.3775886"><ele>591.8</ele><time>2026-05-02T12:10:04.916Z</time></trkpt><trkpt lat="44.0304878" lon="11.3776849"><ele>589.5999999999999</ele><time>2026-05-02T12:10:05.916Z</time></trkpt><trkpt lat="44.0304024" lon="11.3777482"><ele>587.4</ele><time>2026-05-02T12:10:06.916Z</time></trkpt><trkpt lat="44.0303194" lon="11.3778078"><ele>585.1999999999999</ele><time>2026-05-02T12:10:07.916Z</time></trkpt><trkpt lat="44.030246" lon="11.3778959"><ele>583.0</ele><time>2026-05-02T12:10:08.916Z</time></trkpt><trkpt lat="44.0301836" lon="11.3779914"><ele>581.0</ele><time>2026-05-02T12:10:09.916Z</time></trkpt><trkpt lat="44.0301265" lon="11.3781066"><ele>579.0</ele><time>2026-05-02T12:10:10.916Z</time></trkpt><trkpt lat="44.030067" lon="11.378222"><ele>577.0</ele><time>2026-05-02T12:10:11.916Z</time></trkpt><trkpt lat="44.0299948" lon="11.3783119"><ele>575.0</ele><time>2026-05-02T12:10:12.916Z</time></trkpt><trkpt lat="44.0299061" lon="11.37837"><ele>573.0</ele><time>2026-05-02T12:10:13.916Z</time></trkpt><trkpt lat="44.0298081" lon="11.3783813"><ele>570.5</ele><time>2026-05-02T12:10:14.916Z</time></trkpt><trkpt lat="44.0296992" lon="11.3783502"><ele>568.0</ele><time>2026-05-02T12:10:15.916Z</time></trkpt><trkpt lat="44.0295919" lon="11.3782905"><ele>565.5</ele><time>2026-05-02T12:10:16.916Z</time></trkpt><trkpt lat="44.029489" lon="11.3782165"><ele>563.0</ele><time>2026-05-02T12:10:17.916Z</time></trkpt><trkpt lat="44.0293987" lon="11.3781282"><ele>563.0</ele><time>2026-05-02T12:10:18.916Z</time></trkpt><trkpt lat="44.029316" lon="11.3780299"><ele>563.0</ele><time>2026-05-02T12:10:19.916Z</time></trkpt><trkpt lat="44.0292473" lon="11.377924"><ele>563.0</ele><time>2026-05-02T12:10:20.916Z</time></trkpt><trkpt lat="44.0291983" lon="11.3778027"><ele>563.0</ele><time>2026-05-02T12:10:21.916Z</time></trkpt><trkpt lat="44.0291859" lon="11.3776585"><ele>563.0</ele><time>2026-05-02T12:10:22.916Z</time></trkpt><trkpt lat="44.029192" lon="11.3775216"><ele>563.1999999999999</ele><time>2026-05-02T12:10:23.916Z</time></trkpt><trkpt lat="44.0292019" lon="11.3773844"><ele>563.4</ele><time>2026-05-02T12:10:24.916Z</time></trkpt><trkpt lat="44.0292029" lon="11.3772529"><ele>563.5999999999999</ele><time>2026-05-02T12:10:25.916Z</time></trkpt><trkpt lat="44.0291726" lon="11.3771277"><ele>563.8</ele><time>2026-05-02T12:10:26.916Z</time></trkpt><trkpt lat="44.029118" lon="11.3770267"><ele>564.0</ele><time>2026-05-02T12:10:27.916Z</time></trkpt><trkpt lat="44.0290491" lon="11.3769521"><ele>564.0</ele><time>2026-05-02T12:10:28.916Z</time></trkpt><trkpt lat="44.0289489" lon="11.3769034"><ele>564.0</ele><time>2026-05-02T12:10:29.916Z</time></trkpt><trkpt lat="44.028836" lon="11.3768648"><ele>564.0</ele><time>2026-05-02T12:10:30.916Z</time></trkpt><trkpt lat="44.0287188" lon="11.3768304"><ele>564.0</ele><time>2026-05-02T12:10:31.916Z</time></trkpt><trkpt lat="44.0285968" lon="11.3767798"><ele>564.0</ele><time>2026-05-02T12:10:32.916Z</time></trkpt><trkpt lat="44.0284777" lon="11.3767036"><ele>564.0</ele><time>2026-05-02T12:10:33.916Z</time></trkpt><trkpt lat="44.0283609" lon="11.3766172"><ele>564.0</ele><time>2026-05-02T12:10:34.916Z</time></trkpt><trkpt lat="44.0282491" lon="11.3765328"><ele>564.0</ele><time>2026-05-02T12:10:35.916Z</time></trkpt><trkpt lat="44.0281392" lon="11.3764384"><ele>562.6</ele><time>2026-05-02T12:10:36.916Z</time></trkpt><trkpt lat="44.028036" lon="11.3763479"><ele>561.2</ele><time>2026-05-02T12:10:37.916Z</time></trkpt><trkpt lat="44.027941" lon="11.376263"><ele>559.8000000000001</ele><time>2026-05-02T12:10:38.916Z</time></trkpt><trkpt lat="44.0278518" lon="11.376177"><ele>558.4</ele><time>2026-05-02T12:10:39.916Z</time></trkpt><trkpt lat="44.0277771" lon="11.3760759"><ele>557.0</ele><time>2026-05-02T12:10:40.916Z</time></trkpt><trkpt lat="44.027714" lon="11.3759582"><ele>557.0</ele><time>2026-05-02T12:10:41.916Z</time></trkpt><trkpt lat="44.0276631" lon="11.3758331"><ele>557.0</ele><time>2026-05-02T12:10:42.916Z</time></trkpt><trkpt lat="44.0276177" lon="11.3757049"><ele>557.0</ele><time>2026-05-02T12:10:43.916Z</time></trkpt><trkpt lat="44.0275564" lon="11.3755869"><ele>557.0</ele><time>2026-05-02T12:10:44.916Z</time></trkpt><trkpt lat="44.0274766" lon="11.3754867"><ele>557.0</ele><time>2026-05-02T12:10:45.916Z</time></trkpt><trkpt lat="44.0273708" lon="11.375395"><ele>553.75</ele><time>2026-05-02T12:10:46.916Z</time></trkpt><trkpt lat="44.0272406" lon="11.3753017"><ele>550.5</ele><time>2026-05-02T12:10:47.916Z</time></trkpt><trkpt lat="44.0271069" lon="11.3752152"><ele>547.25</ele><time>2026-05-02T12:10:48.916Z</time></trkpt><trkpt lat="44.0269723" lon="11.3751291"><ele>544.0</ele><time>2026-05-02T12:10:49.916Z</time></trkpt><trkpt lat="44.026845" lon="11.3750371"><ele>544.0</ele><time>2026-05-02T12:10:50.916Z</time></trkpt><trkpt lat="44.0267254" lon="11.374944"><ele>544.0</ele><time>2026-05-02T12:10:51.916Z</time></trkpt><trkpt lat="44.0266148" lon="11.3748452"><ele>544.0</ele><time>2026-05-02T12:10:52.916Z</time></trkpt><trkpt lat="44.0265079" lon="11.3747477"><ele>544.0</ele><time>2026-05-02T12:10:53.916Z</time></trkpt><trkpt lat="44.0264035" lon="11.3746558"><ele>540.0</ele><time>2026-05-02T12:10:54.916Z</time></trkpt><trkpt lat="44.0263069" lon="11.3745691"><ele>536.0</ele><time>2026-05-02T12:10:55.916Z</time></trkpt><trkpt lat="44.0262177" lon="11.3744711"><ele>532.0</ele><time>2026-05-02T12:10:56.916Z</time></trkpt><trkpt lat="44.026127" lon="11.3743789"><ele>528.0</ele><time>2026-05-02T12:10:57.917Z</time></trkpt><trkpt lat="44.0260469" lon="11.3742697"><ele>528.0</ele><time>2026-05-02T12:10:58.916Z</time></trkpt><trkpt lat="44.0259728" lon="11.3741603"><ele>528.0</ele><time>2026-05-02T12:10:59.916Z</time></trkpt><trkpt lat="44.0259249" lon="11.374033"><ele>528.0</ele><time>2026-05-02T12:11:00.916Z</time></trkpt><trkpt lat="44.0258957" lon="11.3739038"><ele>528.0</ele><time>2026-05-02T12:11:01.916Z</time></trkpt><trkpt lat="44.0258863" lon="11.3737745"><ele>528.0</ele><time>2026-05-02T12:11:02.916Z</time></trkpt><trkpt lat="44.0259012" lon="11.3736467"><ele>526.8</ele><time>2026-05-02T12:11:03.916Z</time></trkpt><trkpt lat="44.0259378" lon="11.3735169"><ele>525.5999999999999</ele><time>2026-05-02T12:11:04.916Z</time></trkpt><trkpt lat="44.0259956" lon="11.3733918"><ele>524.4000000000001</ele><time>2026-05-02T12:11:05.916Z</time></trkpt><trkpt lat="44.0260692" lon="11.3732671"><ele>523.2</ele><time>2026-05-02T12:11:06.916Z</time></trkpt><trkpt lat="44.0261458" lon="11.3731439"><ele>522.0</ele><time>2026-05-02T12:11:07.916Z</time></trkpt><trkpt lat="44.0262237" lon="11.3730258"><ele>520.8000000000001</ele><time>2026-05-02T12:11:08.916Z</time></trkpt><trkpt lat="44.0263114" lon="11.3729218"><ele>519.6</ele><time>2026-05-02T12:11:09.916Z</time></trkpt><trkpt lat="44.0264084" lon="11.3728385"><ele>518.4000000000001</ele><time>2026-05-02T12:11:10.916Z</time></trkpt><trkpt lat="44.0265189" lon="11.3727968"><ele>517.2</ele><time>2026-05-02T12:11:11.916Z</time></trkpt><trkpt lat="44.0266198" lon="11.3727669"><ele>516.0</ele><time>2026-05-02T12:11:12.916Z</time></trkpt><trkpt lat="44.0267125" lon="11.3727314"><ele>516.0</ele><time>2026-05-02T12:11:13.916Z</time></trkpt><trkpt lat="44.0267935" lon="11.3726533"><ele>516.0</ele><time>2026-05-02T12:11:14.916Z</time></trkpt><trkpt lat="44.0268593" lon="11.3725565"><ele>516.0</ele><time>2026-05-02T12:11:15.916Z</time></trkpt><trkpt lat="44.026913" lon="11.3724409"><ele>516.0</ele><time>2026-05-02T12:11:16.916Z</time></trkpt><trkpt lat="44.026973" lon="11.3723319"><ele>516.0</ele><time>2026-05-02T12:11:17.916Z</time></trkpt><trkpt lat="44.0270465" lon="11.3722514"><ele>516.0</ele><time>2026-05-02T12:11:18.916Z</time></trkpt><trkpt lat="44.0271363" lon="11.3721905"><ele>516.0</ele><time>2026-05-02T12:11:19.916Z</time></trkpt><trkpt lat="44.027229" lon="11.3721458"><ele>516.0</ele><time>2026-05-02T12:11:20.916Z</time></trkpt><trkpt lat="44.0273063" lon="11.3720822"><ele>516.0</ele><time>2026-05-02T12:11:21.916Z</time></trkpt><trkpt lat="44.0273683" lon="11.3719955"><ele>516.0</ele><time>2026-05-02T12:11:22.916Z</time></trkpt><trkpt lat="44.0274054" lon="11.371902"><ele>512.8333333333334</ele><time>2026-05-02T12:11:23.916Z</time></trkpt><trkpt lat="44.0274087" lon="11.3717922"><ele>509.66666666666663</ele><time>2026-05-02T12:11:24.916Z</time></trkpt><trkpt lat="44.0274119" lon="11.3716795"><ele>506.5</ele><time>2026-05-02T12:11:25.916Z</time></trkpt><trkpt lat="44.0274255" lon="11.371561"><ele>503.3333333333333</ele><time>2026-05-02T12:11:26.916Z</time></trkpt><trkpt lat="44.027459" lon="11.3714506"><ele>500.16666666666663</ele><time>2026-05-02T12:11:27.916Z</time></trkpt><trkpt lat="44.0275279" lon="11.3713452"><ele>497.0</ele><time>2026-05-02T12:11:28.916Z</time></trkpt><trkpt lat="44.0276318" lon="11.3712755"><ele>494.5</ele><time>2026-05-02T12:11:29.916Z</time></trkpt><trkpt lat="44.0277564" lon="11.3712009"><ele>492.0</ele><time>2026-05-02T12:11:30.916Z</time></trkpt><trkpt lat="44.0278634" lon="11.3711238"><ele>489.5</ele><time>2026-05-02T12:11:31.916Z</time></trkpt><trkpt lat="44.0279632" lon="11.371038"><ele>487.0</ele><time>2026-05-02T12:11:32.916Z</time></trkpt><trkpt lat="44.0280603" lon="11.3709564"><ele>487.0</ele><time>2026-05-02T12:11:33.916Z</time></trkpt><trkpt lat="44.0281629" lon="11.3708864"><ele>487.0</ele><time>2026-05-02T12:11:34.916Z</time></trkpt><trkpt lat="44.0282751" lon="11.3708256"><ele>487.0</ele><time>2026-05-02T12:11:35.916Z</time></trkpt><trkpt lat="44.0283875" lon="11.3707773"><ele>487.0</ele><time>2026-05-02T12:11:36.916Z</time></trkpt><trkpt lat="44.0284997" lon="11.3707575"><ele>489.6</ele><time>2026-05-02T12:11:37.916Z</time></trkpt><trkpt lat="44.0286178" lon="11.3707712"><ele>492.20000000000005</ele><time>2026-05-02T12:11:38.916Z</time></trkpt><trkpt lat="44.0287287" lon="11.3707879"><ele>494.8</ele><time>2026-05-02T12:11:39.916Z</time></trkpt><trkpt lat="44.0288252" lon="11.3707959"><ele>497.4</ele><time>2026-05-02T12:11:40.916Z</time></trkpt><trkpt lat="44.0289143" lon="11.3707887"><ele>500.0</ele><time>2026-05-02T12:11:41.916Z</time></trkpt><trkpt lat="44.0289834" lon="11.370753"><ele>499.99999999999994</ele><time>2026-05-02T12:11:42.916Z</time></trkpt><trkpt lat="44.0290028" lon="11.3706173"><ele>500.0</ele><time>2026-05-02T12:11:44.916Z</time></trkpt><trkpt lat="44.0289508" lon="11.3705442"><ele>500.0</ele><time>2026-05-02T12:11:45.916Z</time></trkpt><trkpt lat="44.0288854" lon="11.3704947"><ele>500.0</ele><time>2026-05-02T12:11:46.916Z</time></trkpt><trkpt lat="44.0288141" lon="11.3704592"><ele>499.99999999999994</ele><time>2026-05-02T12:11:47.916Z</time></trkpt><trkpt lat="44.0287381" lon="11.3704323"><ele>500.0</ele><time>2026-05-02T12:11:48.916Z</time></trkpt><trkpt lat="44.0286477" lon="11.3704278"><ele>494.8</ele><time>2026-05-02T12:11:49.916Z</time></trkpt><trkpt lat="44.028549" lon="11.3704348"><ele>489.6</ele><time>2026-05-02T12:11:50.916Z</time></trkpt><trkpt lat="44.0284494" lon="11.3704439"><ele>484.4</ele><time>2026-05-02T12:11:51.916Z</time></trkpt><trkpt lat="44.0283517" lon="11.3704526"><ele>479.2</ele><time>2026-05-02T12:11:52.916Z</time></trkpt><trkpt lat="44.0282525" lon="11.370462"><ele>474.0</ele><time>2026-05-02T12:11:53.916Z</time></trkpt><trkpt lat="44.0281398" lon="11.3704821"><ele>471.25</ele><time>2026-05-02T12:11:54.916Z</time></trkpt><trkpt lat="44.0280145" lon="11.3705213"><ele>468.5</ele><time>2026-05-02T12:11:55.916Z</time></trkpt><trkpt lat="44.0278772" lon="11.3705797"><ele>465.75</ele><time>2026-05-02T12:11:56.916Z</time></trkpt><trkpt lat="44.0277296" lon="11.3706334"><ele>463.0</ele><time>2026-05-02T12:11:57.916Z</time></trkpt><trkpt lat="44.027572" lon="11.3706736"><ele>466.75</ele><time>2026-05-02T12:11:58.916Z</time></trkpt><trkpt lat="44.0274168" lon="11.3706959"><ele>470.5</ele><time>2026-05-02T12:11:59.916Z</time></trkpt><trkpt lat="44.027268" lon="11.370711"><ele>474.25</ele><time>2026-05-02T12:12:00.916Z</time></trkpt><trkpt lat="44.0271284" lon="11.3707359"><ele>478.0</ele><time>2026-05-02T12:12:01.916Z</time></trkpt><trkpt lat="44.0270021" lon="11.3707643"><ele>478.0</ele><time>2026-05-02T12:12:02.916Z</time></trkpt><trkpt lat="44.0268703" lon="11.3707761"><ele>478.0</ele><time>2026-05-02T12:12:03.917Z</time></trkpt><trkpt lat="44.0267304" lon="11.3707734"><ele>478.0</ele><time>2026-05-02T12:12:04.916Z</time></trkpt><trkpt lat="44.0265967" lon="11.3707677"><ele>478.0</ele><time>2026-05-02T12:12:05.916Z</time></trkpt><trkpt lat="44.0264725" lon="11.3707358"><ele>476.75</ele><time>2026-05-02T12:12:06.916Z</time></trkpt><trkpt lat="44.0263685" lon="11.370669"><ele>475.5</ele><time>2026-05-02T12:12:07.916Z</time></trkpt><trkpt lat="44.0262719" lon="11.3705869"><ele>474.25</ele><time>2026-05-02T12:12:08.916Z</time></trkpt><trkpt lat="44.0261765" lon="11.3704935"><ele>473.0</ele><time>2026-05-02T12:12:09.916Z</time></trkpt><trkpt lat="44.0260759" lon="11.3703882"><ele>471.5</ele><time>2026-05-02T12:12:10.916Z</time></trkpt><trkpt lat="44.0259858" lon="11.3702981"><ele>470.0</ele><time>2026-05-02T12:12:11.916Z</time></trkpt><trkpt lat="44.0258739" lon="11.3702008"><ele>468.5</ele><time>2026-05-02T12:12:12.916Z</time></trkpt><trkpt lat="44.0257635" lon="11.3701062"><ele>467.0</ele><time>2026-05-02T12:12:13.916Z</time></trkpt><trkpt lat="44.0256485" lon="11.3700253"><ele>464.75</ele><time>2026-05-02T12:12:14.916Z</time></trkpt><trkpt lat="44.0255305" lon="11.3699599"><ele>462.5</ele><time>2026-05-02T12:12:15.916Z</time></trkpt><trkpt lat="44.0254096" lon="11.3699088"><ele>460.25</ele><time>2026-05-02T12:12:16.916Z</time></trkpt><trkpt lat="44.0252912" lon="11.3698517"><ele>458.0</ele><time>2026-05-02T12:12:17.916Z</time></trkpt><trkpt lat="44.025174" lon="11.3697891"><ele>458.0</ele><time>2026-05-02T12:12:18.916Z</time></trkpt><trkpt lat="44.0250538" lon="11.3697463"><ele>458.0</ele><time>2026-05-02T12:12:19.916Z</time></trkpt><trkpt lat="44.0249349" lon="11.3697176"><ele>458.0</ele><time>2026-05-02T12:12:20.916Z</time></trkpt><trkpt lat="44.0248191" lon="11.369682"><ele>458.0</ele><time>2026-05-02T12:12:21.916Z</time></trkpt><trkpt lat="44.0247019" lon="11.3696625"><ele>457.2</ele><time>2026-05-02T12:12:22.916Z</time></trkpt><trkpt lat="44.0245892" lon="11.3696326"><ele>456.4</ele><time>2026-05-02T12:12:23.916Z</time></trkpt><trkpt lat="44.0244792" lon="11.3696185"><ele>455.59999999999997</ele><time>2026-05-02T12:12:24.916Z</time></trkpt><trkpt lat="44.0243734" lon="11.3696074"><ele>454.79999999999995</ele><time>2026-05-02T12:12:25.916Z</time></trkpt><trkpt lat="44.0242739" lon="11.3696143"><ele>454.0</ele><time>2026-05-02T12:12:26.916Z</time></trkpt><trkpt lat="44.024184" lon="11.3696553"><ele>452.2</ele><time>2026-05-02T12:12:27.916Z</time></trkpt><trkpt lat="44.0240995" lon="11.3697235"><ele>450.4</ele><time>2026-05-02T12:12:28.916Z</time></trkpt><trkpt lat="44.0240227" lon="11.3698267"><ele>448.6</ele><time>2026-05-02T12:12:29.916Z</time></trkpt><trkpt lat="44.0239548" lon="11.3699397"><ele>446.8</ele><time>2026-05-02T12:12:30.916Z</time></trkpt><trkpt lat="44.0238833" lon="11.3700638"><ele>445.0</ele><time>2026-05-02T12:12:31.916Z</time></trkpt><trkpt lat="44.0238036" lon="11.370176"><ele>445.0</ele><time>2026-05-02T12:12:32.916Z</time></trkpt><trkpt lat="44.0237043" lon="11.3702788"><ele>445.0</ele><time>2026-05-02T12:12:33.916Z</time></trkpt><trkpt lat="44.0235787" lon="11.3703596"><ele>445.0</ele><time>2026-05-02T12:12:34.916Z</time></trkpt><trkpt lat="44.0234483" lon="11.3704264"><ele>445.0</ele><time>2026-05-02T12:12:35.916Z</time></trkpt><trkpt lat="44.0233134" lon="11.3704817"><ele>443.0</ele><time>2026-05-02T12:12:36.916Z</time></trkpt><trkpt lat="44.0231766" lon="11.37052"><ele>441.0</ele><time>2026-05-02T12:12:37.916Z</time></trkpt><trkpt lat="44.0230393" lon="11.3705585"><ele>439.0</ele><time>2026-05-02T12:12:38.916Z</time></trkpt><trkpt lat="44.0229142" lon="11.3705946"><ele>437.0</ele><time>2026-05-02T12:12:39.916Z</time></trkpt><trkpt lat="44.0228021" lon="11.3706174"><ele>435.20000000000005</ele><time>2026-05-02T12:12:40.916Z</time></trkpt><trkpt lat="44.0227056" lon="11.3706398"><ele>433.40000000000003</ele><time>2026-05-02T12:12:41.916Z</time></trkpt><trkpt lat="44.0226098" lon="11.3706462"><ele>431.59999999999997</ele><time>2026-05-02T12:12:42.916Z</time></trkpt><trkpt lat="44.0225207" lon="11.3706415"><ele>429.79999999999995</ele><time>2026-05-02T12:12:43.916Z</time></trkpt><trkpt lat="44.0224346" lon="11.3706158"><ele>428.0</ele><time>2026-05-02T12:12:44.917Z</time></trkpt><trkpt lat="44.0223515" lon="11.3705738"><ele>427.66666666666663</ele><time>2026-05-02T12:12:45.916Z</time></trkpt><trkpt lat="44.0222659" lon="11.3705155"><ele>427.3333333333333</ele><time>2026-05-02T12:12:46.916Z</time></trkpt><trkpt lat="44.0221738" lon="11.3704625"><ele>427.0</ele><time>2026-05-02T12:12:47.916Z</time></trkpt><trkpt lat="44.0220816" lon="11.3704298"><ele>426.66666666666663</ele><time>2026-05-02T12:12:48.916Z</time></trkpt><trkpt lat="44.0219957" lon="11.3704247"><ele>426.3333333333333</ele><time>2026-05-02T12:12:49.916Z</time></trkpt><trkpt lat="44.0219283" lon="11.3704403"><ele>426.0</ele><time>2026-05-02T12:12:50.916Z</time></trkpt><trkpt lat="44.0218307" lon="11.3704954"><ele>424.0</ele><time>2026-05-02T12:12:52.916Z</time></trkpt><trkpt lat="44.0217581" lon="11.370547"><ele>422.0</ele><time>2026-05-02T12:12:54.916Z</time></trkpt><trkpt lat="44.021699" lon="11.370582"><ele>420.0</ele><time>2026-05-02T12:12:56.916Z</time></trkpt><trkpt lat="44.0215725" lon="11.3706249"><ele>418.0</ele><time>2026-05-02T12:14:05.915Z</time></trkpt><trkpt lat="44.0214758" lon="11.3706338"><ele>416.0</ele><time>2026-05-02T12:14:06.915Z</time></trkpt><trkpt lat="44.0213638" lon="11.3706247"><ele>415.75</ele><time>2026-05-02T12:14:07.915Z</time></trkpt><trkpt lat="44.0212497" lon="11.3705941"><ele>415.5</ele><time>2026-05-02T12:14:08.915Z</time></trkpt><trkpt lat="44.0211422" lon="11.3705393"><ele>415.25</ele><time>2026-05-02T12:14:09.915Z</time></trkpt><trkpt lat="44.0210381" lon="11.370469"><ele>415.0</ele><time>2026-05-02T12:14:10.915Z</time></trkpt><trkpt lat="44.0209379" lon="11.3703814"><ele>415.0</ele><time>2026-05-02T12:14:11.915Z</time></trkpt><trkpt lat="44.0208533" lon="11.3702973"><ele>415.0</ele><time>2026-05-02T12:14:12.915Z</time></trkpt><trkpt lat="44.0207827" lon="11.3702027"><ele>415.0</ele><time>2026-05-02T12:14:13.915Z</time></trkpt><trkpt lat="44.0207202" lon="11.370103"><ele>415.0</ele><time>2026-05-02T12:14:14.915Z</time></trkpt><trkpt lat="44.0206498" lon="11.3700179"><ele>415.0</ele><time>2026-05-02T12:14:15.915Z</time></trkpt><trkpt lat="44.0205601" lon="11.3699619"><ele>411.5</ele><time>2026-05-02T12:14:16.915Z</time></trkpt><trkpt lat="44.0204561" lon="11.3699372"><ele>408.0</ele><time>2026-05-02T12:14:17.915Z</time></trkpt><trkpt lat="44.0203387" lon="11.3699494"><ele>404.5</ele><time>2026-05-02T12:14:18.915Z</time></trkpt><trkpt lat="44.0202095" lon="11.3699867"><ele>401.0</ele><time>2026-05-02T12:14:19.915Z</time></trkpt><trkpt lat="44.020069" lon="11.370026"><ele>398.5</ele><time>2026-05-02T12:14:20.915Z</time></trkpt><trkpt lat="44.0199214" lon="11.3700588"><ele>396.0</ele><time>2026-05-02T12:14:21.915Z</time></trkpt><trkpt lat="44.0197789" lon="11.3700808"><ele>393.5</ele><time>2026-05-02T12:14:22.915Z</time></trkpt><trkpt lat="44.0196383" lon="11.3701024"><ele>391.0</ele><time>2026-05-02T12:14:23.915Z</time></trkpt><trkpt lat="44.0195049" lon="11.3701437"><ele>391.0</ele><time>2026-05-02T12:14:24.915Z</time></trkpt><trkpt lat="44.0193956" lon="11.3702062"><ele>391.0</ele><time>2026-05-02T12:14:25.915Z</time></trkpt><trkpt lat="44.0192887" lon="11.3702874"><ele>391.0</ele><time>2026-05-02T12:14:26.915Z</time></trkpt><trkpt lat="44.0191777" lon="11.3703955"><ele>391.0</ele><time>2026-05-02T12:14:27.915Z</time></trkpt><trkpt lat="44.0190592" lon="11.370497"><ele>392.25</ele><time>2026-05-02T12:14:28.915Z</time></trkpt><trkpt lat="44.0189422" lon="11.3705847"><ele>393.5</ele><time>2026-05-02T12:14:29.915Z</time></trkpt><trkpt lat="44.0188228" lon="11.3706572"><ele>394.75</ele><time>2026-05-02T12:14:30.915Z</time></trkpt><trkpt lat="44.0187013" lon="11.3707275"><ele>396.0</ele><time>2026-05-02T12:14:31.915Z</time></trkpt><trkpt lat="44.0185853" lon="11.3708051"><ele>396.0</ele><time>2026-05-02T12:14:32.915Z</time></trkpt><trkpt lat="44.0184771" lon="11.3708828"><ele>396.0</ele><time>2026-05-02T12:14:33.915Z</time></trkpt><trkpt lat="44.0183678" lon="11.370948"><ele>396.0</ele><time>2026-05-02T12:14:34.915Z</time></trkpt><trkpt lat="44.0182575" lon="11.3709721"><ele>396.0</ele><time>2026-05-02T12:14:35.915Z</time></trkpt><trkpt lat="44.0181443" lon="11.3709438"><ele>393.0</ele><time>2026-05-02T12:14:36.915Z</time></trkpt><trkpt lat="44.0180267" lon="11.3708725"><ele>390.0</ele><time>2026-05-02T12:14:37.915Z</time></trkpt><trkpt lat="44.0179012" lon="11.3707576"><ele>387.0</ele><time>2026-05-02T12:14:38.915Z</time></trkpt><trkpt lat="44.0177764" lon="11.3706223"><ele>384.0</ele><time>2026-05-02T12:14:39.915Z</time></trkpt><trkpt lat="44.0176548" lon="11.370491"><ele>384.0</ele><time>2026-05-02T12:14:40.915Z</time></trkpt><trkpt lat="44.0175406" lon="11.3703724"><ele>384.0</ele><time>2026-05-02T12:14:41.915Z</time></trkpt><trkpt lat="44.0174304" lon="11.3702899"><ele>384.0</ele><time>2026-05-02T12:14:42.915Z</time></trkpt><trkpt lat="44.0173075" lon="11.3702471"><ele>384.0</ele><time>2026-05-02T12:14:43.915Z</time></trkpt><trkpt lat="44.0171811" lon="11.3702642"><ele>384.33333333333337</ele><time>2026-05-02T12:14:44.915Z</time></trkpt><trkpt lat="44.0170446" lon="11.3703158"><ele>384.6666666666667</ele><time>2026-05-02T12:14:45.915Z</time></trkpt><trkpt lat="44.0169027" lon="11.3704104"><ele>385.0</ele><time>2026-05-02T12:14:46.915Z</time></trkpt><trkpt lat="44.0167656" lon="11.3705154"><ele>386.0</ele><time>2026-05-02T12:14:47.915Z</time></trkpt><trkpt lat="44.0166365" lon="11.3706279"><ele>387.0</ele><time>2026-05-02T12:14:48.915Z</time></trkpt><trkpt lat="44.0165267" lon="11.370779"><ele>388.0</ele><time>2026-05-02T12:14:49.915Z</time></trkpt><trkpt lat="44.016422" lon="11.3709345"><ele>388.0</ele><time>2026-05-02T12:14:50.915Z</time></trkpt><trkpt lat="44.0163325" lon="11.3710809"><ele>388.0</ele><time>2026-05-02T12:14:51.915Z</time></trkpt><trkpt lat="44.0162522" lon="11.3712274"><ele>388.0</ele><time>2026-05-02T12:14:52.915Z</time></trkpt><trkpt lat="44.0161738" lon="11.3713331"><ele>388.0</ele><time>2026-05-02T12:14:53.915Z</time></trkpt><trkpt lat="44.0160881" lon="11.3713812"><ele>388.0</ele><time>2026-05-02T12:14:54.915Z</time></trkpt><trkpt lat="44.0159805" lon="11.3713435"><ele>388.0</ele><time>2026-05-02T12:14:55.915Z</time></trkpt><trkpt lat="44.0158505" lon="11.3712561"><ele>388.0</ele><time>2026-05-02T12:14:56.915Z</time></trkpt><trkpt lat="44.0157024" lon="11.3711531"><ele>388.0</ele><time>2026-05-02T12:14:57.915Z</time></trkpt><trkpt lat="44.0155658" lon="11.3711239"><ele>386.5</ele><time>2026-05-02T12:14:58.915Z</time></trkpt><trkpt lat="44.0154462" lon="11.3711518"><ele>385.0</ele><time>2026-05-02T12:14:59.915Z</time></trkpt><trkpt lat="44.0153175" lon="11.3711981"><ele>383.5</ele><time>2026-05-02T12:15:00.915Z</time></trkpt><trkpt lat="44.0151773" lon="11.3712444"><ele>382.0</ele><time>2026-05-02T12:15:01.915Z</time></trkpt><trkpt lat="44.0150237" lon="11.3712651"><ele>378.3333333333333</ele><time>2026-05-02T12:15:02.915Z</time></trkpt><trkpt lat="44.0148612" lon="11.3712566"><ele>374.6666666666667</ele><time>2026-05-02T12:15:03.915Z</time></trkpt><trkpt lat="44.0147014" lon="11.3712233"><ele>371.0</ele><time>2026-05-02T12:15:04.915Z</time></trkpt><trkpt lat="44.0145451" lon="11.3711628"><ele>371.0</ele><time>2026-05-02T12:15:05.915Z</time></trkpt><trkpt lat="44.0143925" lon="11.3710614"><ele>371.0</ele><time>2026-05-02T12:15:06.915Z</time></trkpt><trkpt lat="44.0142269" lon="11.3709435"><ele>371.0</ele><time>2026-05-02T12:15:07.915Z</time></trkpt><trkpt lat="44.0140759" lon="11.3708307"><ele>370.0</ele><time>2026-05-02T12:15:08.915Z</time></trkpt><trkpt lat="44.0139482" lon="11.3707253"><ele>369.0</ele><time>2026-05-02T12:15:09.915Z</time></trkpt><trkpt lat="44.0138259" lon="11.3706285"><ele>368.0</ele><time>2026-05-02T12:15:10.915Z</time></trkpt><trkpt lat="44.0137132" lon="11.3705297"><ele>367.0</ele><time>2026-05-02T12:15:11.915Z</time></trkpt><trkpt lat="44.0136225" lon="11.3704126"><ele>366.75</ele><time>2026-05-02T12:15:12.915Z</time></trkpt><trkpt lat="44.0135523" lon="11.3702693"><ele>366.5</ele><time>2026-05-02T12:15:13.915Z</time></trkpt><trkpt lat="44.0135001" lon="11.3701086"><ele>366.25</ele><time>2026-05-02T12:15:14.915Z</time></trkpt><trkpt lat="44.0134455" lon="11.369941"><ele>366.0</ele><time>2026-05-02T12:15:15.915Z</time></trkpt><trkpt lat="44.0133839" lon="11.3697485"><ele>362.0</ele><time>2026-05-02T12:15:16.915Z</time></trkpt><trkpt lat="44.0133098" lon="11.3695435"><ele>358.0</ele><time>2026-05-02T12:15:17.915Z</time></trkpt><trkpt lat="44.0132324" lon="11.3693389"><ele>354.0</ele><time>2026-05-02T12:15:18.915Z</time></trkpt><trkpt lat="44.0131356" lon="11.3691615"><ele>354.0</ele><time>2026-05-02T12:15:19.915Z</time></trkpt><trkpt lat="44.0130253" lon="11.3690133"><ele>354.0</ele><time>2026-05-02T12:15:20.915Z</time></trkpt><trkpt lat="44.0128958" lon="11.3688837"><ele>354.0</ele><time>2026-05-02T12:15:21.915Z</time></trkpt><trkpt lat="44.0127703" lon="11.3687481"><ele>353.75</ele><time>2026-05-02T12:15:22.915Z</time></trkpt><trkpt lat="44.0126484" lon="11.3686187"><ele>353.5</ele><time>2026-05-02T12:15:23.915Z</time></trkpt><trkpt lat="44.0125304" lon="11.3684955"><ele>353.25</ele><time>2026-05-02T12:15:24.915Z</time></trkpt><trkpt lat="44.0124156" lon="11.3683981"><ele>353.0</ele><time>2026-05-02T12:15:25.915Z</time></trkpt><trkpt lat="44.0122951" lon="11.3683228"><ele>353.0</ele><time>2026-05-02T12:15:26.915Z</time></trkpt><trkpt lat="44.0121815" lon="11.3682947"><ele>353.0</ele><time>2026-05-02T12:15:27.915Z</time></trkpt><trkpt lat="44.0120524" lon="11.3683038"><ele>353.0</ele><time>2026-05-02T12:15:28.915Z</time></trkpt><trkpt lat="44.0119128" lon="11.3683323"><ele>353.0</ele><time>2026-05-02T12:15:29.915Z</time></trkpt><trkpt lat="44.0117743" lon="11.3683602"><ele>351.5</ele><time>2026-05-02T12:15:30.915Z</time></trkpt><trkpt lat="44.0116227" lon="11.3683913"><ele>350.0</ele><time>2026-05-02T12:15:31.915Z</time></trkpt><trkpt lat="44.0114813" lon="11.3684228"><ele>348.5</ele><time>2026-05-02T12:15:32.915Z</time></trkpt><trkpt lat="44.0113403" lon="11.368445"><ele>347.0</ele><time>2026-05-02T12:15:33.915Z</time></trkpt><trkpt lat="44.011213" lon="11.3684638"><ele>347.0</ele><time>2026-05-02T12:15:34.915Z</time></trkpt><trkpt lat="44.011079" lon="11.3684503"><ele>347.0</ele><time>2026-05-02T12:15:35.915Z</time></trkpt><trkpt lat="44.0109401" lon="11.3684089"><ele>347.0</ele><time>2026-05-02T12:15:36.915Z</time></trkpt><trkpt lat="44.0108027" lon="11.3683486"><ele>347.0</ele><time>2026-05-02T12:15:37.915Z</time></trkpt><trkpt lat="44.0106584" lon="11.3682713"><ele>345.0</ele><time>2026-05-02T12:15:38.915Z</time></trkpt><trkpt lat="44.0105176" lon="11.3681887"><ele>343.0</ele><time>2026-05-02T12:15:39.915Z</time></trkpt><trkpt lat="44.0103818" lon="11.3681079"><ele>341.0</ele><time>2026-05-02T12:15:40.915Z</time></trkpt><trkpt lat="44.0102503" lon="11.3680246"><ele>339.0</ele><time>2026-05-02T12:15:41.915Z</time></trkpt><trkpt lat="44.0101229" lon="11.3679377"><ele>338.0</ele><time>2026-05-02T12:15:42.915Z</time></trkpt><trkpt lat="44.0099881" lon="11.3678648"><ele>337.0</ele><time>2026-05-02T12:15:43.915Z</time></trkpt><trkpt lat="44.0098582" lon="11.367799"><ele>336.0</ele><time>2026-05-02T12:15:44.915Z</time></trkpt><trkpt lat="44.0097153" lon="11.3677282"><ele>335.0</ele><time>2026-05-02T12:15:45.915Z</time></trkpt><trkpt lat="44.0095758" lon="11.3676681"><ele>335.0</ele><time>2026-05-02T12:15:46.915Z</time></trkpt><trkpt lat="44.0094425" lon="11.36759"><ele>335.0</ele><time>2026-05-02T12:15:47.916Z</time></trkpt><trkpt lat="44.0093051" lon="11.3675182"><ele>335.0</ele><time>2026-05-02T12:15:48.915Z</time></trkpt><trkpt lat="44.0091682" lon="11.3674465"><ele>335.0</ele><time>2026-05-02T12:15:49.915Z</time></trkpt><trkpt lat="44.0090389" lon="11.3673784"><ele>334.0</ele><time>2026-05-02T12:15:50.915Z</time></trkpt><trkpt lat="44.0089103" lon="11.3673152"><ele>333.0</ele><time>2026-05-02T12:15:51.915Z</time></trkpt><trkpt lat="44.0087849" lon="11.3672612"><ele>332.0</ele><time>2026-05-02T12:15:52.915Z</time></trkpt><trkpt lat="44.0086625" lon="11.367212"><ele>331.0</ele><time>2026-05-02T12:15:53.915Z</time></trkpt><trkpt lat="44.0085176" lon="11.3671764"><ele>331.0</ele><time>2026-05-02T12:15:54.915Z</time></trkpt><trkpt lat="44.0083504" lon="11.3671612"><ele>331.0</ele><time>2026-05-02T12:15:55.915Z</time></trkpt><trkpt lat="44.0081787" lon="11.3671544"><ele>331.0</ele><time>2026-05-02T12:15:56.915Z</time></trkpt><trkpt lat="44.0080054" lon="11.3671538"><ele>329.3333333333333</ele><time>2026-05-02T12:15:57.915Z</time></trkpt><trkpt lat="44.0078392" lon="11.3671449"><ele>327.6666666666667</ele><time>2026-05-02T12:15:58.915Z</time></trkpt><trkpt lat="44.0076832" lon="11.3671277"><ele>326.0</ele><time>2026-05-02T12:15:59.915Z</time></trkpt><trkpt lat="44.0075309" lon="11.3671024"><ele>326.0</ele><time>2026-05-02T12:16:00.915Z</time></trkpt><trkpt lat="44.0073935" lon="11.3670571"><ele>326.0</ele><time>2026-05-02T12:16:01.915Z</time></trkpt><trkpt lat="44.0072594" lon="11.3669769"><ele>326.0</ele><time>2026-05-02T12:16:02.915Z</time></trkpt><trkpt lat="44.0071265" lon="11.3668702"><ele>326.0</ele><time>2026-05-02T12:16:03.915Z</time></trkpt><trkpt lat="44.0069944" lon="11.3667486"><ele>326.0</ele><time>2026-05-02T12:16:04.915Z</time></trkpt><trkpt lat="44.0068664" lon="11.3666118"><ele>326.0</ele><time>2026-05-02T12:16:05.915Z</time></trkpt><trkpt lat="44.0067457" lon="11.3664743"><ele>326.0</ele><time>2026-05-02T12:16:06.915Z</time></trkpt><trkpt lat="44.0066137" lon="11.3663513"><ele>325.6666666666667</ele><time>2026-05-02T12:16:07.915Z</time></trkpt><trkpt lat="44.0064723" lon="11.3662361"><ele>325.3333333333333</ele><time>2026-05-02T12:16:08.915Z</time></trkpt><trkpt lat="44.0063347" lon="11.3661322"><ele>325.0</ele><time>2026-05-02T12:16:09.915Z</time></trkpt><trkpt lat="44.0062101" lon="11.3660234"><ele>325.0</ele><time>2026-05-02T12:16:10.915Z</time></trkpt><trkpt lat="44.0060803" lon="11.3659165"><ele>325.0</ele><time>2026-05-02T12:16:11.915Z</time></trkpt><trkpt lat="44.0059462" lon="11.3658126"><ele>325.0</ele><time>2026-05-02T12:16:12.915Z</time></trkpt><trkpt lat="44.0058051" lon="11.3657127"><ele>324.66666666666663</ele><time>2026-05-02T12:16:13.915Z</time></trkpt><trkpt lat="44.005654" lon="11.3656192"><ele>324.3333333333333</ele><time>2026-05-02T12:16:14.915Z</time></trkpt><trkpt lat="44.0054975" lon="11.3655385"><ele>324.0</ele><time>2026-05-02T12:16:15.915Z</time></trkpt><trkpt lat="44.0053594" lon="11.365452"><ele>324.0</ele><time>2026-05-02T12:16:16.915Z</time></trkpt><trkpt lat="44.0052189" lon="11.3653817"><ele>324.0</ele><time>2026-05-02T12:16:17.915Z</time></trkpt><trkpt lat="44.0050884" lon="11.3653139"><ele>324.0</ele><time>2026-05-02T12:16:18.915Z</time></trkpt><trkpt lat="44.0049566" lon="11.3652377"><ele>324.0</ele><time>2026-05-02T12:16:19.915Z</time></trkpt><trkpt lat="44.0048303" lon="11.3651684"><ele>323.75</ele><time>2026-05-02T12:16:20.915Z</time></trkpt><trkpt lat="44.0047028" lon="11.3650924"><ele>323.5</ele><time>2026-05-02T12:16:21.915Z</time></trkpt><trkpt lat="44.0045665" lon="11.3650205"><ele>323.25</ele><time>2026-05-02T12:16:22.916Z</time></trkpt><trkpt lat="44.0044257" lon="11.3649426"><ele>323.0</ele><time>2026-05-02T12:16:23.915Z</time></trkpt><trkpt lat="44.0042841" lon="11.3648691"><ele>322.0</ele><time>2026-05-02T12:16:24.915Z</time></trkpt><trkpt lat="44.0041521" lon="11.3647917"><ele>321.0</ele><time>2026-05-02T12:16:25.915Z</time></trkpt><trkpt lat="44.0040413" lon="11.364707"><ele>320.0</ele><time>2026-05-02T12:16:26.915Z</time></trkpt><trkpt lat="44.0039742" lon="11.3646024"><ele>319.0</ele><time>2026-05-02T12:16:27.915Z</time></trkpt><trkpt lat="44.0039185" lon="11.36449"><ele>318.75</ele><time>2026-05-02T12:16:28.915Z</time></trkpt><trkpt lat="44.0038625" lon="11.3643668"><ele>318.5</ele><time>2026-05-02T12:16:29.915Z</time></trkpt><trkpt lat="44.0038059" lon="11.3642326"><ele>318.25</ele><time>2026-05-02T12:16:30.915Z</time></trkpt><trkpt lat="44.0037411" lon="11.3640556"><ele>318.0</ele><time>2026-05-02T12:16:31.915Z</time></trkpt><trkpt lat="44.003677" lon="11.3638674"><ele>318.0</ele><time>2026-05-02T12:16:32.915Z</time></trkpt><trkpt lat="44.0036115" lon="11.3636872"><ele>318.0</ele><time>2026-05-02T12:16:33.915Z</time></trkpt><trkpt lat="44.0035473" lon="11.3635201"><ele>318.0</ele><time>2026-05-02T12:16:34.915Z</time></trkpt><trkpt lat="44.0034866" lon="11.3633604"><ele>318.0</ele><time>2026-05-02T12:16:35.915Z</time></trkpt><trkpt lat="44.0034219" lon="11.3631919"><ele>317.5</ele><time>2026-05-02T12:16:36.915Z</time></trkpt><trkpt lat="44.0033586" lon="11.3630307"><ele>317.0</ele><time>2026-05-02T12:16:37.915Z</time></trkpt><trkpt lat="44.0032928" lon="11.3628662"><ele>316.5</ele><time>2026-05-02T12:16:38.915Z</time></trkpt><trkpt lat="44.0032229" lon="11.3626924"><ele>316.0</ele><time>2026-05-02T12:16:39.915Z</time></trkpt><trkpt lat="44.0031537" lon="11.3625141"><ele>315.3333333333333</ele><time>2026-05-02T12:16:40.915Z</time></trkpt><trkpt lat="44.0030792" lon="11.3623317"><ele>314.6666666666667</ele><time>2026-05-02T12:16:41.915Z</time></trkpt><trkpt lat="44.0029877" lon="11.3621668"><ele>314.0</ele><time>2026-05-02T12:16:42.915Z</time></trkpt><trkpt lat="44.0028765" lon="11.3620133"><ele>313.0</ele><time>2026-05-02T12:16:43.915Z</time></trkpt><trkpt lat="44.0027612" lon="11.361869"><ele>312.0</ele><time>2026-05-02T12:16:44.915Z</time></trkpt><trkpt lat="44.0026435" lon="11.3617309"><ele>311.0</ele><time>2026-05-02T12:16:45.915Z</time></trkpt><trkpt lat="44.0025292" lon="11.3615962"><ele>311.0</ele><time>2026-05-02T12:16:46.915Z</time></trkpt><trkpt lat="44.0024214" lon="11.3614719"><ele>311.0</ele><time>2026-05-02T12:16:47.915Z</time></trkpt><trkpt lat="44.0023166" lon="11.3613523"><ele>311.0</ele><time>2026-05-02T12:16:48.915Z</time></trkpt><trkpt lat="44.0022166" lon="11.3612446"><ele>311.0</ele><time>2026-05-02T12:16:49.915Z</time></trkpt><trkpt lat="44.0021281" lon="11.3611468"><ele>311.2</ele><time>2026-05-02T12:16:50.915Z</time></trkpt><trkpt lat="44.002046" lon="11.3610538"><ele>311.40000000000003</ele><time>2026-05-02T12:16:51.915Z</time></trkpt><trkpt lat="44.0019683" lon="11.3609592"><ele>311.6</ele><time>2026-05-02T12:16:52.915Z</time></trkpt><trkpt lat="44.001888" lon="11.3608663"><ele>311.8</ele><time>2026-05-02T12:16:53.915Z</time></trkpt><trkpt lat="44.0018081" lon="11.3607742"><ele>312.0</ele><time>2026-05-02T12:16:54.915Z</time></trkpt><trkpt lat="44.0017286" lon="11.3606847"><ele>311.4</ele><time>2026-05-02T12:16:55.915Z</time></trkpt><trkpt lat="44.0016499" lon="11.3605996"><ele>310.79999999999995</ele><time>2026-05-02T12:16:56.915Z</time></trkpt><trkpt lat="44.0015649" lon="11.3605057"><ele>310.2</ele><time>2026-05-02T12:16:57.915Z</time></trkpt><trkpt lat="44.0014782" lon="11.3604019"><ele>309.59999999999997</ele><time>2026-05-02T12:16:58.915Z</time></trkpt><trkpt lat="44.001387" lon="11.3602968"><ele>309.0</ele><time>2026-05-02T12:16:59.915Z</time></trkpt><trkpt lat="44.0012801" lon="11.360184"><ele>309.0</ele><time>2026-05-02T12:17:00.915Z</time></trkpt><trkpt lat="44.0011663" lon="11.3600602"><ele>309.0</ele><time>2026-05-02T12:17:01.915Z</time></trkpt><trkpt lat="44.0010567" lon="11.3599293"><ele>309.0</ele><time>2026-05-02T12:17:02.915Z</time></trkpt><trkpt lat="44.0009536" lon="11.3598092"><ele>309.0</ele><time>2026-05-02T12:17:03.915Z</time></trkpt><trkpt lat="44.0008561" lon="11.3596826"><ele>308.25</ele><time>2026-05-02T12:17:04.915Z</time></trkpt><trkpt lat="44.0007541" lon="11.3595629"><ele>307.5</ele><time>2026-05-02T12:17:05.915Z</time></trkpt><trkpt lat="44.0006547" lon="11.359448"><ele>306.75</ele><time>2026-05-02T12:17:06.915Z</time></trkpt><trkpt lat="44.0005586" lon="11.35934"><ele>306.0</ele><time>2026-05-02T12:17:07.914Z</time></trkpt><trkpt lat="44.0004601" lon="11.3592315"><ele>306.0</ele><time>2026-05-02T12:17:08.914Z</time></trkpt><trkpt lat="44.0003711" lon="11.3591192"><ele>306.0</ele><time>2026-05-02T12:17:09.914Z</time></trkpt><trkpt lat="44.0002846" lon="11.3590202"><ele>306.0</ele><time>2026-05-02T12:17:10.914Z</time></trkpt><trkpt lat="44.0001973" lon="11.3589183"><ele>306.0</ele><time>2026-05-02T12:17:11.914Z</time></trkpt><trkpt lat="44.0001109" lon="11.3588152"><ele>305.75</ele><time>2026-05-02T12:17:12.914Z</time></trkpt><trkpt lat="44.0000293" lon="11.3587117"><ele>305.5</ele><time>2026-05-02T12:17:13.914Z</time></trkpt><trkpt lat="43.9999454" lon="11.3586106"><ele>305.25</ele><time>2026-05-02T12:17:14.914Z</time></trkpt><trkpt lat="43.9998569" lon="11.3585017"><ele>305.0</ele><time>2026-05-02T12:17:15.914Z</time></trkpt><trkpt lat="43.9997685" lon="11.3583931"><ele>305.0</ele><time>2026-05-02T12:17:16.914Z</time></trkpt><trkpt lat="43.9996739" lon="11.3582794"><ele>305.0</ele><time>2026-05-02T12:17:17.914Z</time></trkpt><trkpt lat="43.99957" lon="11.3581628"><ele>305.0</ele><time>2026-05-02T12:17:18.914Z</time></trkpt><trkpt lat="43.9994672" lon="11.3580528"><ele>305.0</ele><time>2026-05-02T12:17:19.914Z</time></trkpt><trkpt lat="43.9993684" lon="11.3579386"><ele>304.5</ele><time>2026-05-02T12:17:20.914Z</time></trkpt><trkpt lat="43.9992695" lon="11.3578298"><ele>304.0</ele><time>2026-05-02T12:17:21.914Z</time></trkpt><trkpt lat="43.999172" lon="11.3577177"><ele>303.5</ele><time>2026-05-02T12:17:22.914Z</time></trkpt><trkpt lat="43.9990735" lon="11.3576024"><ele>303.0</ele><time>2026-05-02T12:17:23.914Z</time></trkpt><trkpt lat="43.9989707" lon="11.3574841"><ele>303.0</ele><time>2026-05-02T12:17:24.915Z</time></trkpt><trkpt lat="43.9988725" lon="11.3573647"><ele>303.0</ele><time>2026-05-02T12:17:25.914Z</time></trkpt><trkpt lat="43.9987728" lon="11.3572473"><ele>303.0</ele><time>2026-05-02T12:17:26.914Z</time></trkpt><trkpt lat="43.9986763" lon="11.3571319"><ele>303.0</ele><time>2026-05-02T12:17:27.914Z</time></trkpt><trkpt lat="43.9985719" lon="11.3570095"><ele>302.5</ele><time>2026-05-02T12:17:28.914Z</time></trkpt><trkpt lat="43.9984719" lon="11.3568921"><ele>302.0</ele><time>2026-05-02T12:17:29.914Z</time></trkpt><trkpt lat="43.9983733" lon="11.3567822"><ele>301.5</ele><time>2026-05-02T12:17:30.914Z</time></trkpt><trkpt lat="43.9982805" lon="11.3566705"><ele>301.0</ele><time>2026-05-02T12:17:31.914Z</time></trkpt><trkpt lat="43.9981963" lon="11.3565696"><ele>301.0</ele><time>2026-05-02T12:17:32.914Z</time></trkpt><trkpt lat="43.9981134" lon="11.3564684"><ele>301.0</ele><time>2026-05-02T12:17:33.914Z</time></trkpt><trkpt lat="43.9980364" lon="11.3563783"><ele>301.0</ele><time>2026-05-02T12:17:34.914Z</time></trkpt><trkpt lat="43.9979714" lon="11.3562989"><ele>301.0</ele><time>2026-05-02T12:17:35.914Z</time></trkpt><trkpt lat="43.9979131" lon="11.3562319"><ele>301.0</ele><time>2026-05-02T12:17:36.914Z</time></trkpt><trkpt lat="43.9978452" lon="11.3561345"><ele>301.0</ele><time>2026-05-02T12:17:38.914Z</time></trkpt><trkpt lat="43.9977696" lon="11.356108"><ele>301.0</ele><time>2026-05-02T12:17:42.914Z</time></trkpt><trkpt lat="43.9976605" lon="11.3562181"><ele>301.0</ele><time>2026-05-02T12:17:44.914Z</time></trkpt><trkpt lat="43.997584" lon="11.3563225"><ele>301.0</ele><time>2026-05-02T12:17:45.914Z</time></trkpt><trkpt lat="43.9975189" lon="11.3564443"><ele>301.0</ele><time>2026-05-02T12:17:46.914Z</time></trkpt><trkpt lat="43.9974536" lon="11.3565858"><ele>301.2</ele><time>2026-05-02T12:17:47.914Z</time></trkpt><trkpt lat="43.9974019" lon="11.3567339"><ele>301.40000000000003</ele><time>2026-05-02T12:17:48.914Z</time></trkpt><trkpt lat="43.9973592" lon="11.3568624"><ele>301.6</ele><time>2026-05-02T12:17:49.914Z</time></trkpt><trkpt lat="43.9973213" lon="11.3569735"><ele>301.8</ele><time>2026-05-02T12:17:50.914Z</time></trkpt><trkpt lat="43.9972899" lon="11.3570723"><ele>302.0</ele><time>2026-05-02T12:17:51.914Z</time></trkpt><trkpt lat="43.9972581" lon="11.3571697"><ele>301.6666666666667</ele><time>2026-05-02T12:17:52.914Z</time></trkpt><trkpt lat="43.9972164" lon="11.3573205"><ele>301.33333333333337</ele><time>2026-05-02T12:17:54.914Z</time></trkpt><trkpt lat="43.9971489" lon="11.3573992"><ele>301.0</ele><time>2026-05-02T12:17:56.914Z</time></trkpt><trkpt lat="43.997054" lon="11.3573959"><ele>300.6666666666667</ele><time>2026-05-02T12:17:58.914Z</time></trkpt><trkpt lat="43.9969971" lon="11.3573582"><ele>300.3333333333333</ele><time>2026-05-02T12:17:59.914Z</time></trkpt><trkpt lat="43.9969236" lon="11.3573056"><ele>300.0</ele><time>2026-05-02T12:18:00.914Z</time></trkpt><trkpt lat="43.9968302" lon="11.357241"><ele>300.5</ele><time>2026-05-02T12:18:01.914Z</time></trkpt><trkpt lat="43.9967167" lon="11.3571622"><ele>301.0</ele><time>2026-05-02T12:18:02.914Z</time></trkpt><trkpt lat="43.9965931" lon="11.3570692"><ele>301.5</ele><time>2026-05-02T12:18:03.914Z</time></trkpt><trkpt lat="43.9964695" lon="11.3569773"><ele>302.0</ele><time>2026-05-02T12:18:04.914Z</time></trkpt><trkpt lat="43.9963488" lon="11.356884"><ele>302.0</ele><time>2026-05-02T12:18:05.914Z</time></trkpt><trkpt lat="43.9962308" lon="11.356781"><ele>302.0</ele><time>2026-05-02T12:18:06.914Z</time></trkpt><trkpt lat="43.9961125" lon="11.356675"><ele>302.0</ele><time>2026-05-02T12:18:07.914Z</time></trkpt><trkpt lat="43.9959924" lon="11.3565645"><ele>302.0</ele><time>2026-05-02T12:18:08.914Z</time></trkpt><trkpt lat="43.9958719" lon="11.3564564"><ele>300.25</ele><time>2026-05-02T12:18:09.914Z</time></trkpt><trkpt lat="43.9957614" lon="11.3563534"><ele>298.5</ele><time>2026-05-02T12:18:10.914Z</time></trkpt><trkpt lat="43.9956484" lon="11.3562925"><ele>296.75</ele><time>2026-05-02T12:18:11.914Z</time></trkpt><trkpt lat="43.9955442" lon="11.3562401"><ele>295.0</ele><time>2026-05-02T12:18:12.914Z</time></trkpt><trkpt lat="43.9954433" lon="11.3561904"><ele>295.0</ele><time>2026-05-02T12:18:13.914Z</time></trkpt><trkpt lat="43.9953444" lon="11.3561383"><ele>295.0</ele><time>2026-05-02T12:18:14.914Z</time></trkpt><trkpt lat="43.9952509" lon="11.3560888"><ele>295.0</ele><time>2026-05-02T12:18:15.914Z</time></trkpt><trkpt lat="43.9951648" lon="11.356046"><ele>295.0</ele><time>2026-05-02T12:18:16.914Z</time></trkpt><trkpt lat="43.9950845" lon="11.3560046"><ele>295.0</ele><time>2026-05-02T12:18:17.914Z</time></trkpt><trkpt lat="43.9950057" lon="11.355966"><ele>294.66666666666663</ele><time>2026-05-02T12:18:18.914Z</time></trkpt><trkpt lat="43.9949308" lon="11.3559332"><ele>294.3333333333333</ele><time>2026-05-02T12:18:19.914Z</time></trkpt><trkpt lat="43.9948579" lon="11.3558973"><ele>294.0</ele><time>2026-05-02T12:18:20.914Z</time></trkpt><trkpt lat="43.9947775" lon="11.3558565"><ele>293.6666666666667</ele><time>2026-05-02T12:18:21.914Z</time></trkpt><trkpt lat="43.9946918" lon="11.3558084"><ele>293.33333333333337</ele><time>2026-05-02T12:18:22.914Z</time></trkpt><trkpt lat="43.9946058" lon="11.3557592"><ele>293.0</ele><time>2026-05-02T12:18:23.914Z</time></trkpt><trkpt lat="43.9945266" lon="11.3557126"><ele>292.99999999999994</ele><time>2026-05-02T12:18:24.914Z</time></trkpt><trkpt lat="43.9944518" lon="11.3556665"><ele>293.0</ele><time>2026-05-02T12:18:25.914Z</time></trkpt><trkpt lat="43.9943831" lon="11.3556297"><ele>293.0</ele><time>2026-05-02T12:18:26.914Z</time></trkpt><trkpt lat="43.9943229" lon="11.3555976"><ele>293.0</ele><time>2026-05-02T12:18:27.914Z</time></trkpt><trkpt lat="43.9942622" lon="11.355559"><ele>293.0</ele><time>2026-05-02T12:18:28.914Z</time></trkpt><trkpt lat="43.9941973" lon="11.3555306"><ele>292.99999999999994</ele><time>2026-05-02T12:18:29.914Z</time></trkpt><trkpt lat="43.994135" lon="11.3555022"><ele>293.0</ele><time>2026-05-02T12:18:30.914Z</time></trkpt><trkpt lat="43.9940641" lon="11.355465"><ele>292.4</ele><time>2026-05-02T12:18:31.914Z</time></trkpt><trkpt lat="43.9939866" lon="11.3554342"><ele>291.8</ele><time>2026-05-02T12:18:32.915Z</time></trkpt><trkpt lat="43.9939007" lon="11.3553919"><ele>291.2</ele><time>2026-05-02T12:18:33.914Z</time></trkpt><trkpt lat="43.9938059" lon="11.355337"><ele>290.6</ele><time>2026-05-02T12:18:34.914Z</time></trkpt><trkpt lat="43.993709" lon="11.3552902"><ele>290.0</ele><time>2026-05-02T12:18:35.914Z</time></trkpt><trkpt lat="43.9936157" lon="11.3552409"><ele>290.0</ele><time>2026-05-02T12:18:36.914Z</time></trkpt><trkpt lat="43.9935334" lon="11.3551836"><ele>290.0</ele><time>2026-05-02T12:18:37.914Z</time></trkpt><trkpt lat="43.993443" lon="11.3551256"><ele>290.0</ele><time>2026-05-02T12:18:38.914Z</time></trkpt><trkpt lat="43.9933518" lon="11.3550736"><ele>290.0</ele><time>2026-05-02T12:18:39.914Z</time></trkpt><trkpt lat="43.9932606" lon="11.3550248"><ele>290.0</ele><time>2026-05-02T12:18:40.914Z</time></trkpt><trkpt lat="43.9931718" lon="11.3549768"><ele>289.5</ele><time>2026-05-02T12:18:41.914Z</time></trkpt><trkpt lat="43.9930847" lon="11.3549245"><ele>289.0</ele><time>2026-05-02T12:18:42.914Z</time></trkpt><trkpt lat="43.9929954" lon="11.3548651"><ele>288.5</ele><time>2026-05-02T12:18:43.914Z</time></trkpt><trkpt lat="43.9929169" lon="11.3548056"><ele>288.0</ele><time>2026-05-02T12:18:44.914Z</time></trkpt><trkpt lat="43.9928468" lon="11.3547523"><ele>287.5</ele><time>2026-05-02T12:18:45.914Z</time></trkpt><trkpt lat="43.9927857" lon="11.3547012"><ele>287.0</ele><time>2026-05-02T12:18:46.914Z</time></trkpt><trkpt lat="43.9927008" lon="11.3546241"><ele>287.0</ele><time>2026-05-02T12:18:48.914Z</time></trkpt><trkpt lat="43.9926732" lon="11.3545418"><ele>287.0</ele><time>2026-05-02T12:18:50.914Z</time></trkpt><trkpt lat="43.9926223" lon="11.3544686"><ele>287.0</ele><time>2026-05-02T12:18:54.914Z</time></trkpt><trkpt lat="43.992547" lon="11.3544305"><ele>287.0</ele><time>2026-05-02T12:18:57.913Z</time></trkpt><trkpt lat="43.992481" lon="11.3544123"><ele>287.0</ele><time>2026-05-02T12:19:02.914Z</time></trkpt><trkpt lat="43.9923995" lon="11.354407"><ele>287.0</ele><time>2026-05-02T12:22:50.913Z</time></trkpt><trkpt lat="43.9923271" lon="11.3543762"><ele>287.0</ele><time>2026-05-02T12:22:53.913Z</time></trkpt><trkpt lat="43.9922569" lon="11.3543563"><ele>286.2</ele><time>2026-05-02T12:22:55.913Z</time></trkpt><trkpt lat="43.9921552" lon="11.3542946"><ele>285.4</ele><time>2026-05-02T12:22:57.913Z</time></trkpt><trkpt lat="43.9920899" lon="11.354247"><ele>284.6</ele><time>2026-05-02T12:22:58.913Z</time></trkpt><trkpt lat="43.992017" lon="11.3541983"><ele>283.8</ele><time>2026-05-02T12:22:59.913Z</time></trkpt><trkpt lat="43.9919325" lon="11.3541476"><ele>283.0</ele><time>2026-05-02T12:23:00.913Z</time></trkpt><trkpt lat="43.9918303" lon="11.3540825"><ele>283.0</ele><time>2026-05-02T12:23:01.913Z</time></trkpt><trkpt lat="43.9917271" lon="11.3540112"><ele>283.0</ele><time>2026-05-02T12:23:02.913Z</time></trkpt><trkpt lat="43.9916169" lon="11.3539363"><ele>283.0</ele><time>2026-05-02T12:23:03.913Z</time></trkpt><trkpt lat="43.9915006" lon="11.3538624"><ele>283.0</ele><time>2026-05-02T12:23:04.913Z</time></trkpt><trkpt lat="43.9913777" lon="11.3537847"><ele>282.4</ele><time>2026-05-02T12:23:05.913Z</time></trkpt><trkpt lat="43.9912639" lon="11.3537077"><ele>281.8</ele><time>2026-05-02T12:23:06.913Z</time></trkpt><trkpt lat="43.9911582" lon="11.3536455"><ele>281.2</ele><time>2026-05-02T12:23:07.913Z</time></trkpt><trkpt lat="43.9910651" lon="11.353586"><ele>280.6</ele><time>2026-05-02T12:23:08.913Z</time></trkpt><trkpt lat="43.9909802" lon="11.3535321"><ele>280.0</ele><time>2026-05-02T12:23:09.913Z</time></trkpt><trkpt lat="43.9909002" lon="11.353468"><ele>279.5</ele><time>2026-05-02T12:23:10.913Z</time></trkpt><trkpt lat="43.9908084" lon="11.3533977"><ele>279.0</ele><time>2026-05-02T12:23:11.913Z</time></trkpt><trkpt lat="43.9907058" lon="11.3533245"><ele>278.5</ele><time>2026-05-02T12:23:12.913Z</time></trkpt><trkpt lat="43.9906" lon="11.3532504"><ele>278.0</ele><time>2026-05-02T12:23:13.913Z</time></trkpt><trkpt lat="43.9904928" lon="11.3531728"><ele>278.0</ele><time>2026-05-02T12:23:14.913Z</time></trkpt><trkpt lat="43.9903936" lon="11.3530911"><ele>278.0</ele><time>2026-05-02T12:23:15.913Z</time></trkpt><trkpt lat="43.9903014" lon="11.3530094"><ele>278.0</ele><time>2026-05-02T12:23:16.913Z</time></trkpt><trkpt lat="43.9902121" lon="11.3529323"><ele>278.0</ele><time>2026-05-02T12:23:17.913Z</time></trkpt><trkpt lat="43.9901171" lon="11.3528451"><ele>278.0</ele><time>2026-05-02T12:23:18.913Z</time></trkpt><trkpt lat="43.9900442" lon="11.3527427"><ele>277.2</ele><time>2026-05-02T12:23:19.913Z</time></trkpt><trkpt lat="43.9899822" lon="11.3526353"><ele>276.4</ele><time>2026-05-02T12:23:20.913Z</time></trkpt><trkpt lat="43.9899296" lon="11.352522"><ele>275.59999999999997</ele><time>2026-05-02T12:23:21.913Z</time></trkpt><trkpt lat="43.9898812" lon="11.3523935"><ele>274.8</ele><time>2026-05-02T12:23:22.913Z</time></trkpt><trkpt lat="43.9898452" lon="11.3522541"><ele>274.0</ele><time>2026-05-02T12:23:23.913Z</time></trkpt><trkpt lat="43.989814" lon="11.3520884"><ele>273.75</ele><time>2026-05-02T12:23:24.914Z</time></trkpt><trkpt lat="43.9897997" lon="11.3519222"><ele>273.5</ele><time>2026-05-02T12:23:25.913Z</time></trkpt><trkpt lat="43.9897938" lon="11.3517572"><ele>273.25</ele><time>2026-05-02T12:23:26.913Z</time></trkpt><trkpt lat="43.9897961" lon="11.3516082"><ele>273.0</ele><time>2026-05-02T12:23:27.913Z</time></trkpt><trkpt lat="43.989796" lon="11.351464"><ele>273.1666666666667</ele><time>2026-05-02T12:23:28.913Z</time></trkpt><trkpt lat="43.9898132" lon="11.3513427"><ele>273.3333333333333</ele><time>2026-05-02T12:23:29.913Z</time></trkpt><trkpt lat="43.9898294" lon="11.3512209"><ele>273.5</ele><time>2026-05-02T12:23:30.913Z</time></trkpt><trkpt lat="43.989844" lon="11.3511085"><ele>273.66666666666663</ele><time>2026-05-02T12:23:31.913Z</time></trkpt><trkpt lat="43.9898677" lon="11.3510031"><ele>273.8333333333333</ele><time>2026-05-02T12:23:32.913Z</time></trkpt><trkpt lat="43.9898852" lon="11.3509038"><ele>274.0</ele><time>2026-05-02T12:23:33.913Z</time></trkpt><trkpt lat="43.9898787" lon="11.3508036"><ele>274.0</ele><time>2026-05-02T12:23:34.913Z</time></trkpt><trkpt lat="43.9898398" lon="11.3507218"><ele>274.0</ele><time>2026-05-02T12:23:35.913Z</time></trkpt><trkpt lat="43.9897752" lon="11.350648"><ele>274.0</ele><time>2026-05-02T12:23:36.913Z</time></trkpt><trkpt lat="43.9896934" lon="11.3505791"><ele>274.0</ele><time>2026-05-02T12:23:37.913Z</time></trkpt><trkpt lat="43.9896056" lon="11.3504995"><ele>274.0</ele><time>2026-05-02T12:23:38.913Z</time></trkpt><trkpt lat="43.9895048" lon="11.3504173"><ele>273.75</ele><time>2026-05-02T12:23:39.913Z</time></trkpt><trkpt lat="43.989395" lon="11.3503277"><ele>273.5</ele><time>2026-05-02T12:23:40.913Z</time></trkpt><trkpt lat="43.9892819" lon="11.3502355"><ele>273.25</ele><time>2026-05-02T12:23:41.913Z</time></trkpt><trkpt lat="43.9891737" lon="11.3501464"><ele>273.0</ele><time>2026-05-02T12:23:42.913Z</time></trkpt><trkpt lat="43.9890676" lon="11.3500626"><ele>273.0</ele><time>2026-05-02T12:23:43.913Z</time></trkpt><trkpt lat="43.9889701" lon="11.3499784"><ele>273.0</ele><time>2026-05-02T12:23:44.913Z</time></trkpt><trkpt lat="43.9888723" lon="11.3498924"><ele>273.0</ele><time>2026-05-02T12:23:45.913Z</time></trkpt><trkpt lat="43.9887792" lon="11.3498118"><ele>273.0</ele><time>2026-05-02T12:23:46.913Z</time></trkpt><trkpt lat="43.988682" lon="11.3497249"><ele>272.0</ele><time>2026-05-02T12:23:47.913Z</time></trkpt><trkpt lat="43.9885764" lon="11.349628"><ele>271.0</ele><time>2026-05-02T12:23:48.913Z</time></trkpt><trkpt lat="43.9884611" lon="11.3495242"><ele>270.0</ele><time>2026-05-02T12:23:49.913Z</time></trkpt><trkpt lat="43.9883346" lon="11.3494119"><ele>269.0</ele><time>2026-05-02T12:23:50.913Z</time></trkpt><trkpt lat="43.9882158" lon="11.3492992"><ele>268.75</ele><time>2026-05-02T12:23:51.913Z</time></trkpt><trkpt lat="43.9880948" lon="11.3491944"><ele>268.5</ele><time>2026-05-02T12:23:52.913Z</time></trkpt><trkpt lat="43.9879807" lon="11.3490936"><ele>268.25</ele><time>2026-05-02T12:23:53.913Z</time></trkpt><trkpt lat="43.9878756" lon="11.3489977"><ele>268.0</ele><time>2026-05-02T12:23:54.913Z</time></trkpt><trkpt lat="43.9877611" lon="11.348898"><ele>266.25</ele><time>2026-05-02T12:23:55.913Z</time></trkpt><trkpt lat="43.9876433" lon="11.3487888"><ele>264.5</ele><time>2026-05-02T12:23:56.913Z</time></trkpt><trkpt lat="43.9875269" lon="11.3486791"><ele>262.75</ele><time>2026-05-02T12:23:57.913Z</time></trkpt><trkpt lat="43.9874039" lon="11.3485671"><ele>261.0</ele><time>2026-05-02T12:23:58.913Z</time></trkpt><trkpt lat="43.9872842" lon="11.3484581"><ele>261.0</ele><time>2026-05-02T12:23:59.913Z</time></trkpt><trkpt lat="43.9871689" lon="11.3483343"><ele>261.0</ele><time>2026-05-02T12:24:00.913Z</time></trkpt><trkpt lat="43.9870511" lon="11.348203"><ele>261.0</ele><time>2026-05-02T12:24:01.913Z</time></trkpt><trkpt lat="43.9869427" lon="11.348067"><ele>261.0</ele><time>2026-05-02T12:24:02.913Z</time></trkpt><trkpt lat="43.9868291" lon="11.347913"><ele>260.0</ele><time>2026-05-02T12:24:03.913Z</time></trkpt><trkpt lat="43.9867233" lon="11.3477403"><ele>259.0</ele><time>2026-05-02T12:24:04.914Z</time></trkpt><trkpt lat="43.9866236" lon="11.347554"><ele>258.0</ele><time>2026-05-02T12:24:05.913Z</time></trkpt><trkpt lat="43.9865304" lon="11.3473565"><ele>255.33333333333331</ele><time>2026-05-02T12:24:06.913Z</time></trkpt><trkpt lat="43.9864445" lon="11.347132"><ele>252.66666666666666</ele><time>2026-05-02T12:24:07.913Z</time></trkpt><trkpt lat="43.9863504" lon="11.3468949"><ele>250.0</ele><time>2026-05-02T12:24:08.913Z</time></trkpt><trkpt lat="43.9862566" lon="11.3466643"><ele>250.0</ele><time>2026-05-02T12:24:09.913Z</time></trkpt><trkpt lat="43.986169" lon="11.3464436"><ele>250.0</ele><time>2026-05-02T12:24:10.913Z</time></trkpt><trkpt lat="43.9860935" lon="11.3462323"><ele>250.0</ele><time>2026-05-02T12:24:11.913Z</time></trkpt><trkpt lat="43.9860175" lon="11.3460345"><ele>248.25</ele><time>2026-05-02T12:24:12.913Z</time></trkpt><trkpt lat="43.9859524" lon="11.3458477"><ele>246.5</ele><time>2026-05-02T12:24:13.913Z</time></trkpt><trkpt lat="43.9858865" lon="11.3456655"><ele>244.75</ele><time>2026-05-02T12:24:14.913Z</time></trkpt><trkpt lat="43.9858194" lon="11.3454834"><ele>243.0</ele><time>2026-05-02T12:24:15.913Z</time></trkpt><trkpt lat="43.9857593" lon="11.3453092"><ele>243.0</ele><time>2026-05-02T12:24:16.913Z</time></trkpt><trkpt lat="43.9857036" lon="11.3451418"><ele>243.0</ele><time>2026-05-02T12:24:17.912Z</time></trkpt><trkpt lat="43.9856439" lon="11.3449784"><ele>243.0</ele><time>2026-05-02T12:24:18.912Z</time></trkpt><trkpt lat="43.9855779" lon="11.3448141"><ele>243.0</ele><time>2026-05-02T12:24:19.912Z</time></trkpt><trkpt lat="43.9855108" lon="11.3446614"><ele>240.66666666666669</ele><time>2026-05-02T12:24:20.912Z</time></trkpt><trkpt lat="43.9854369" lon="11.344483"><ele>238.33333333333334</ele><time>2026-05-02T12:24:21.912Z</time></trkpt><trkpt lat="43.9853601" lon="11.3442936"><ele>236.0</ele><time>2026-05-02T12:24:22.912Z</time></trkpt><trkpt lat="43.9852851" lon="11.3440895"><ele>236.0</ele><time>2026-05-02T12:24:23.912Z</time></trkpt><trkpt lat="43.9852059" lon="11.3438837"><ele>236.0</ele><time>2026-05-02T12:24:24.912Z</time></trkpt><trkpt lat="43.9851259" lon="11.3436773"><ele>236.0</ele><time>2026-05-02T12:24:25.912Z</time></trkpt><trkpt lat="43.985047" lon="11.3434807"><ele>234.0</ele><time>2026-05-02T12:24:26.912Z</time></trkpt><trkpt lat="43.9849767" lon="11.3432908"><ele>232.0</ele><time>2026-05-02T12:24:27.912Z</time></trkpt><trkpt lat="43.984913" lon="11.3430974"><ele>230.0</ele><time>2026-05-02T12:24:28.912Z</time></trkpt><trkpt lat="43.9848759" lon="11.3428934"><ele>229.0</ele><time>2026-05-02T12:24:29.912Z</time></trkpt><trkpt lat="43.9848798" lon="11.3426712"><ele>228.0</ele><time>2026-05-02T12:24:30.912Z</time></trkpt><trkpt lat="43.9849138" lon="11.3424218"><ele>227.0</ele><time>2026-05-02T12:24:31.912Z</time></trkpt><trkpt lat="43.9849604" lon="11.3421411"><ele>227.0</ele><time>2026-05-02T12:24:32.912Z</time></trkpt><trkpt lat="43.9850122" lon="11.3418484"><ele>227.0</ele><time>2026-05-02T12:24:33.912Z</time></trkpt><trkpt lat="43.9850662" lon="11.3415627"><ele>227.0</ele><time>2026-05-02T12:24:34.912Z</time></trkpt><trkpt lat="43.9851195" lon="11.3412798"><ele>227.33333333333334</ele><time>2026-05-02T12:24:35.912Z</time></trkpt><trkpt lat="43.9851695" lon="11.341049"><ele>227.66666666666669</ele><time>2026-05-02T12:24:36.912Z</time></trkpt><trkpt lat="43.9852144" lon="11.3408328"><ele>228.0</ele><time>2026-05-02T12:24:37.912Z</time></trkpt><trkpt lat="43.985254" lon="11.3406315"><ele>228.8</ele><time>2026-05-02T12:24:38.912Z</time></trkpt><trkpt lat="43.985289" lon="11.3404423"><ele>229.60000000000002</ele><time>2026-05-02T12:24:39.912Z</time></trkpt><trkpt lat="43.9853158" lon="11.3402836"><ele>230.39999999999998</ele><time>2026-05-02T12:24:40.912Z</time></trkpt><trkpt lat="43.9853467" lon="11.3401426"><ele>231.2</ele><time>2026-05-02T12:24:41.912Z</time></trkpt><trkpt lat="43.9853889" lon="11.3400404"><ele>232.0</ele><time>2026-05-02T12:24:42.912Z</time></trkpt><trkpt lat="43.985438" lon="11.3399525"><ele>231.99999999999997</ele><time>2026-05-02T12:24:43.912Z</time></trkpt><trkpt lat="43.9854828" lon="11.3398533"><ele>232.0</ele><time>2026-05-02T12:24:44.912Z</time></trkpt><trkpt lat="43.9855122" lon="11.3397418"><ele>232.0</ele><time>2026-05-02T12:24:45.912Z</time></trkpt><trkpt lat="43.9854941" lon="11.3396315"><ele>232.0</ele><time>2026-05-02T12:24:46.912Z</time></trkpt><trkpt lat="43.9854466" lon="11.3395636"><ele>231.99999999999997</ele><time>2026-05-02T12:24:47.912Z</time></trkpt><trkpt lat="43.985364" lon="11.3395408"><ele>232.0</ele><time>2026-05-02T12:24:48.912Z</time></trkpt><trkpt lat="43.9852697" lon="11.3395457"><ele>233.0</ele><time>2026-05-02T12:24:49.912Z</time></trkpt><trkpt lat="43.9851689" lon="11.3395499"><ele>234.0</ele><time>2026-05-02T12:24:50.912Z</time></trkpt><trkpt lat="43.9850584" lon="11.3395182"><ele>235.0</ele><time>2026-05-02T12:24:51.912Z</time></trkpt><trkpt lat="43.9849501" lon="11.3394502"><ele>236.0</ele><time>2026-05-02T12:24:52.912Z</time></trkpt><trkpt lat="43.9848406" lon="11.3393648"><ele>237.0</ele><time>2026-05-02T12:24:53.912Z</time></trkpt><trkpt lat="43.9847217" lon="11.3392882"><ele>238.0</ele><time>2026-05-02T12:24:54.912Z</time></trkpt><trkpt lat="43.9845917" lon="11.339231"><ele>239.0</ele><time>2026-05-02T12:24:55.912Z</time></trkpt><trkpt lat="43.9844524" lon="11.3391934"><ele>240.0</ele><time>2026-05-02T12:24:56.912Z</time></trkpt><trkpt lat="43.9843118" lon="11.339174"><ele>239.75</ele><time>2026-05-02T12:24:57.912Z</time></trkpt><trkpt lat="43.9841743" lon="11.3391612"><ele>239.5</ele><time>2026-05-02T12:24:58.913Z</time></trkpt><trkpt lat="43.9840338" lon="11.3391538"><ele>239.25</ele><time>2026-05-02T12:24:59.912Z</time></trkpt><trkpt lat="43.9838992" lon="11.3391484"><ele>239.0</ele><time>2026-05-02T12:25:00.912Z</time></trkpt><trkpt lat="43.9837786" lon="11.3391427"><ele>239.0</ele><time>2026-05-02T12:25:01.912Z</time></trkpt><trkpt lat="43.9836623" lon="11.3391335"><ele>239.0</ele><time>2026-05-02T12:25:02.912Z</time></trkpt><trkpt lat="43.9835462" lon="11.3391267"><ele>239.0</ele><time>2026-05-02T12:25:03.912Z</time></trkpt><trkpt lat="43.9834295" lon="11.3391227"><ele>239.0</ele><time>2026-05-02T12:25:04.912Z</time></trkpt><trkpt lat="43.9833262" lon="11.3391361"><ele>239.0</ele><time>2026-05-02T12:25:05.912Z</time></trkpt><trkpt lat="43.9832262" lon="11.3391714"><ele>239.0</ele><time>2026-05-02T12:25:06.912Z</time></trkpt><trkpt lat="43.9831169" lon="11.3392133"><ele>239.0</ele><time>2026-05-02T12:25:07.912Z</time></trkpt><trkpt lat="43.9830031" lon="11.3392559"><ele>239.0</ele><time>2026-05-02T12:25:08.912Z</time></trkpt><trkpt lat="43.9828884" lon="11.3393041"><ele>239.0</ele><time>2026-05-02T12:25:09.912Z</time></trkpt><trkpt lat="43.9827814" lon="11.3393525"><ele>238.99999999999997</ele><time>2026-05-02T12:25:10.912Z</time></trkpt><trkpt lat="43.9826765" lon="11.3393947"><ele>238.99999999999997</ele><time>2026-05-02T12:25:11.912Z</time></trkpt><trkpt lat="43.9825705" lon="11.3394342"><ele>239.0</ele><time>2026-05-02T12:25:12.912Z</time></trkpt><trkpt lat="43.9824643" lon="11.3394829"><ele>239.0</ele><time>2026-05-02T12:25:13.912Z</time></trkpt><trkpt lat="43.9823461" lon="11.3395231"><ele>239.25</ele><time>2026-05-02T12:25:14.912Z</time></trkpt><trkpt lat="43.9822237" lon="11.3395465"><ele>239.5</ele><time>2026-05-02T12:25:15.912Z</time></trkpt><trkpt lat="43.982099" lon="11.3395365"><ele>239.75</ele><time>2026-05-02T12:25:16.912Z</time></trkpt><trkpt lat="43.9819763" lon="11.339497"><ele>240.0</ele><time>2026-05-02T12:25:17.912Z</time></trkpt><trkpt lat="43.9818525" lon="11.3394275"><ele>240.0</ele><time>2026-05-02T12:25:18.912Z</time></trkpt><trkpt lat="43.9817326" lon="11.3393302"><ele>240.0</ele><time>2026-05-02T12:25:19.912Z</time></trkpt><trkpt lat="43.9816189" lon="11.3392286"><ele>240.0</ele><time>2026-05-02T12:25:20.912Z</time></trkpt><trkpt lat="43.9815162" lon="11.3391355"><ele>240.0</ele><time>2026-05-02T12:25:21.912Z</time></trkpt><trkpt lat="43.9814228" lon="11.3390505"><ele>239.4</ele><time>2026-05-02T12:25:22.912Z</time></trkpt><trkpt lat="43.9813317" lon="11.3389727"><ele>238.8</ele><time>2026-05-02T12:25:23.912Z</time></trkpt><trkpt lat="43.9812534" lon="11.3389012"><ele>238.2</ele><time>2026-05-02T12:25:24.912Z</time></trkpt><trkpt lat="43.9811715" lon="11.3388337"><ele>237.6</ele><time>2026-05-02T12:25:25.912Z</time></trkpt><trkpt lat="43.9810838" lon="11.3387546"><ele>237.0</ele><time>2026-05-02T12:25:26.912Z</time></trkpt><trkpt lat="43.9809984" lon="11.3386769"><ele>237.0</ele><time>2026-05-02T12:25:27.912Z</time></trkpt><trkpt lat="43.9809054" lon="11.3385908"><ele>237.0</ele><time>2026-05-02T12:25:28.912Z</time></trkpt><trkpt lat="43.9808086" lon="11.3384969"><ele>237.0</ele><time>2026-05-02T12:25:29.912Z</time></trkpt><trkpt lat="43.9807083" lon="11.3383947"><ele>237.0</ele><time>2026-05-02T12:25:30.912Z</time></trkpt><trkpt lat="43.9806088" lon="11.3382932"><ele>236.75</ele><time>2026-05-02T12:25:31.912Z</time></trkpt><trkpt lat="43.9805112" lon="11.3381912"><ele>236.5</ele><time>2026-05-02T12:25:32.912Z</time></trkpt><trkpt lat="43.9804141" lon="11.3380935"><ele>236.25</ele><time>2026-05-02T12:25:33.912Z</time></trkpt><trkpt lat="43.9803137" lon="11.3380007"><ele>236.0</ele><time>2026-05-02T12:25:34.912Z</time></trkpt><trkpt lat="43.9802123" lon="11.3379146"><ele>236.0</ele><time>2026-05-02T12:25:35.912Z</time></trkpt><trkpt lat="43.9801056" lon="11.3378323"><ele>236.0</ele><time>2026-05-02T12:25:36.912Z</time></trkpt><trkpt lat="43.9800025" lon="11.3377633"><ele>236.0</ele><time>2026-05-02T12:25:37.913Z</time></trkpt><trkpt lat="43.9798978" lon="11.3377015"><ele>236.0</ele><time>2026-05-02T12:25:38.912Z</time></trkpt><trkpt lat="43.9797936" lon="11.3376458"><ele>235.25</ele><time>2026-05-02T12:25:39.912Z</time></trkpt><trkpt lat="43.9796892" lon="11.3375848"><ele>234.5</ele><time>2026-05-02T12:25:40.912Z</time></trkpt><trkpt lat="43.9795785" lon="11.3375208"><ele>233.75</ele><time>2026-05-02T12:25:41.912Z</time></trkpt><trkpt lat="43.9794571" lon="11.3374631"><ele>233.0</ele><time>2026-05-02T12:25:42.912Z</time></trkpt><trkpt lat="43.9793177" lon="11.3374018"><ele>232.66666666666669</ele><time>2026-05-02T12:25:43.912Z</time></trkpt><trkpt lat="43.9791747" lon="11.3373343"><ele>232.33333333333331</ele><time>2026-05-02T12:25:44.912Z</time></trkpt><trkpt lat="43.9790263" lon="11.3372612"><ele>232.0</ele><time>2026-05-02T12:25:45.912Z</time></trkpt><trkpt lat="43.9788794" lon="11.3371736"><ele>232.0</ele><time>2026-05-02T12:25:46.912Z</time></trkpt><trkpt lat="43.9787322" lon="11.3370823"><ele>232.0</ele><time>2026-05-02T12:25:47.912Z</time></trkpt><trkpt lat="43.978577" lon="11.3369861"><ele>232.0</ele><time>2026-05-02T12:25:48.912Z</time></trkpt><trkpt lat="43.9784373" lon="11.336893"><ele>231.75</ele><time>2026-05-02T12:25:49.912Z</time></trkpt><trkpt lat="43.9783105" lon="11.3368108"><ele>231.5</ele><time>2026-05-02T12:25:50.912Z</time></trkpt><trkpt lat="43.9781845" lon="11.3367404"><ele>231.25</ele><time>2026-05-02T12:25:51.912Z</time></trkpt><trkpt lat="43.9780635" lon="11.3366629"><ele>231.0</ele><time>2026-05-02T12:25:52.912Z</time></trkpt><trkpt lat="43.9779374" lon="11.3365863"><ele>231.0</ele><time>2026-05-02T12:25:53.912Z</time></trkpt><trkpt lat="43.9778109" lon="11.3365077"><ele>231.0</ele><time>2026-05-02T12:25:54.912Z</time></trkpt><trkpt lat="43.9776802" lon="11.3364246"><ele>231.0</ele><time>2026-05-02T12:25:55.912Z</time></trkpt><trkpt lat="43.9775519" lon="11.336353"><ele>231.0</ele><time>2026-05-02T12:25:56.912Z</time></trkpt><trkpt lat="43.9774199" lon="11.3362741"><ele>231.0</ele><time>2026-05-02T12:25:57.912Z</time></trkpt><trkpt lat="43.9772868" lon="11.3362008"><ele>231.0</ele><time>2026-05-02T12:25:58.912Z</time></trkpt><trkpt lat="43.9771522" lon="11.336125"><ele>231.0</ele><time>2026-05-02T12:25:59.912Z</time></trkpt><trkpt lat="43.9770146" lon="11.3360464"><ele>231.0</ele><time>2026-05-02T12:26:00.912Z</time></trkpt><trkpt lat="43.9768773" lon="11.3359675"><ele>231.0</ele><time>2026-05-02T12:26:01.912Z</time></trkpt><trkpt lat="43.9767326" lon="11.3358815"><ele>231.0</ele><time>2026-05-02T12:26:02.912Z</time></trkpt><trkpt lat="43.9765778" lon="11.3357937"><ele>231.0</ele><time>2026-05-02T12:26:03.912Z</time></trkpt><trkpt lat="43.9764347" lon="11.3357101"><ele>231.0</ele><time>2026-05-02T12:26:04.912Z</time></trkpt><trkpt lat="43.9763018" lon="11.3356281"><ele>231.0</ele><time>2026-05-02T12:26:05.912Z</time></trkpt><trkpt lat="43.9761803" lon="11.3355451"><ele>231.0</ele><time>2026-05-02T12:26:06.912Z</time></trkpt><trkpt lat="43.9760604" lon="11.3354664"><ele>231.0</ele><time>2026-05-02T12:26:07.912Z</time></trkpt><trkpt lat="43.9759385" lon="11.3353821"><ele>230.25</ele><time>2026-05-02T12:26:08.912Z</time></trkpt><trkpt lat="43.9758112" lon="11.3353006"><ele>229.5</ele><time>2026-05-02T12:26:09.912Z</time></trkpt><trkpt lat="43.9756749" lon="11.3352201"><ele>228.75</ele><time>2026-05-02T12:26:10.912Z</time></trkpt><trkpt lat="43.9755398" lon="11.3351283"><ele>228.0</ele><time>2026-05-02T12:26:11.912Z</time></trkpt><trkpt lat="43.9753945" lon="11.3350462"><ele>228.0</ele><time>2026-05-02T12:26:12.912Z</time></trkpt><trkpt lat="43.9752445" lon="11.3349549"><ele>228.0</ele><time>2026-05-02T12:26:13.912Z</time></trkpt><trkpt lat="43.9750896" lon="11.3348517"><ele>228.0</ele><time>2026-05-02T12:26:14.912Z</time></trkpt><trkpt lat="43.9749172" lon="11.3347576"><ele>227.33333333333331</ele><time>2026-05-02T12:26:15.912Z</time></trkpt><trkpt lat="43.9747453" lon="11.3346666"><ele>226.66666666666666</ele><time>2026-05-02T12:26:16.912Z</time></trkpt><trkpt lat="43.9745797" lon="11.3345768"><ele>226.0</ele><time>2026-05-02T12:26:17.912Z</time></trkpt><trkpt lat="43.9744223" lon="11.3344974"><ele>226.0</ele><time>2026-05-02T12:26:18.912Z</time></trkpt><trkpt lat="43.9742797" lon="11.334403"><ele>226.0</ele><time>2026-05-02T12:26:19.912Z</time></trkpt><trkpt lat="43.9741331" lon="11.3343235"><ele>226.0</ele><time>2026-05-02T12:26:20.912Z</time></trkpt><trkpt lat="43.9739801" lon="11.3342469"><ele>225.66666666666666</ele><time>2026-05-02T12:26:21.912Z</time></trkpt><trkpt lat="43.9738265" lon="11.3341705"><ele>225.33333333333331</ele><time>2026-05-02T12:26:22.912Z</time></trkpt><trkpt lat="43.973668" lon="11.3340936"><ele>225.0</ele><time>2026-05-02T12:26:23.912Z</time></trkpt><trkpt lat="43.9735116" lon="11.3340131"><ele>224.66666666666669</ele><time>2026-05-02T12:26:24.912Z</time></trkpt><trkpt lat="43.9733532" lon="11.3339399"><ele>224.33333333333334</ele><time>2026-05-02T12:26:25.912Z</time></trkpt><trkpt lat="43.9731949" lon="11.333875"><ele>224.0</ele><time>2026-05-02T12:26:26.912Z</time></trkpt><trkpt lat="43.9730342" lon="11.3338016"><ele>224.0</ele><time>2026-05-02T12:26:27.912Z</time></trkpt><trkpt lat="43.972884" lon="11.3337166"><ele>224.0</ele><time>2026-05-02T12:26:28.912Z</time></trkpt><trkpt lat="43.9727308" lon="11.3336335"><ele>224.0</ele><time>2026-05-02T12:26:29.912Z</time></trkpt><trkpt lat="43.9725721" lon="11.3335587"><ele>222.66666666666669</ele><time>2026-05-02T12:26:30.912Z</time></trkpt><trkpt lat="43.9724232" lon="11.3334848"><ele>221.33333333333331</ele><time>2026-05-02T12:26:31.912Z</time></trkpt><trkpt lat="43.9722791" lon="11.3334103"><ele>220.0</ele><time>2026-05-02T12:26:32.912Z</time></trkpt><trkpt lat="43.972133" lon="11.3333346"><ele>220.0</ele><time>2026-05-02T12:26:33.912Z</time></trkpt><trkpt lat="43.9719851" lon="11.3332621"><ele>220.0</ele><time>2026-05-02T12:26:34.912Z</time></trkpt><trkpt lat="43.9718376" lon="11.333183"><ele>220.0</ele><time>2026-05-02T12:26:35.912Z</time></trkpt><trkpt lat="43.9716941" lon="11.3331009"><ele>219.66666666666666</ele><time>2026-05-02T12:26:36.912Z</time></trkpt><trkpt lat="43.9715445" lon="11.3330312"><ele>219.33333333333331</ele><time>2026-05-02T12:26:37.912Z</time></trkpt><trkpt lat="43.9713969" lon="11.3329709"><ele>219.0</ele><time>2026-05-02T12:26:38.912Z</time></trkpt><trkpt lat="43.9712491" lon="11.332908"><ele>219.0</ele><time>2026-05-02T12:26:39.912Z</time></trkpt><trkpt lat="43.9711052" lon="11.3328387"><ele>219.0</ele><time>2026-05-02T12:26:40.912Z</time></trkpt><trkpt lat="43.9709649" lon="11.3327674"><ele>219.0</ele><time>2026-05-02T12:26:41.912Z</time></trkpt><trkpt lat="43.9708239" lon="11.3327071"><ele>219.0</ele><time>2026-05-02T12:26:42.912Z</time></trkpt><trkpt lat="43.9706901" lon="11.3326443"><ele>218.75</ele><time>2026-05-02T12:26:43.912Z</time></trkpt><trkpt lat="43.9705653" lon="11.3325897"><ele>218.5</ele><time>2026-05-02T12:26:44.912Z</time></trkpt><trkpt lat="43.9704487" lon="11.3325294"><ele>218.25</ele><time>2026-05-02T12:26:45.912Z</time></trkpt><trkpt lat="43.9703406" lon="11.3324626"><ele>218.0</ele><time>2026-05-02T12:26:46.912Z</time></trkpt><trkpt lat="43.9702342" lon="11.3323758"><ele>218.0</ele><time>2026-05-02T12:26:47.912Z</time></trkpt><trkpt lat="43.9701296" lon="11.3322784"><ele>218.0</ele><time>2026-05-02T12:26:48.912Z</time></trkpt><trkpt lat="43.9700493" lon="11.3321624"><ele>218.0</ele><time>2026-05-02T12:26:49.912Z</time></trkpt><trkpt lat="43.969984" lon="11.3320336"><ele>218.0</ele><time>2026-05-02T12:26:50.912Z</time></trkpt><trkpt lat="43.9699397" lon="11.3318841"><ele>218.0</ele><time>2026-05-02T12:26:51.912Z</time></trkpt><trkpt lat="43.9699215" lon="11.331716"><ele>218.0</ele><time>2026-05-02T12:26:52.912Z</time></trkpt><trkpt lat="43.9699311" lon="11.331543"><ele>218.0</ele><time>2026-05-02T12:26:53.912Z</time></trkpt><trkpt lat="43.96997" lon="11.3313535"><ele>218.0</ele><time>2026-05-02T12:26:54.912Z</time></trkpt><trkpt lat="43.9700279" lon="11.3311428"><ele>218.0</ele><time>2026-05-02T12:26:55.912Z</time></trkpt><trkpt lat="43.9700954" lon="11.3309164"><ele>218.0</ele><time>2026-05-02T12:26:56.912Z</time></trkpt><trkpt lat="43.9701676" lon="11.330685"><ele>218.0</ele><time>2026-05-02T12:26:57.912Z</time></trkpt><trkpt lat="43.9702327" lon="11.330451"><ele>217.0</ele><time>2026-05-02T12:26:58.912Z</time></trkpt><trkpt lat="43.9702839" lon="11.3302266"><ele>216.0</ele><time>2026-05-02T12:26:59.912Z</time></trkpt><trkpt lat="43.9703317" lon="11.3300004"><ele>215.0</ele><time>2026-05-02T12:27:00.912Z</time></trkpt><trkpt lat="43.9703674" lon="11.3297889"><ele>213.66666666666669</ele><time>2026-05-02T12:27:01.912Z</time></trkpt><trkpt lat="43.9704007" lon="11.329576"><ele>212.33333333333331</ele><time>2026-05-02T12:27:02.912Z</time></trkpt><trkpt lat="43.9704234" lon="11.329337"><ele>211.0</ele><time>2026-05-02T12:27:03.912Z</time></trkpt><trkpt lat="43.9704368" lon="11.3290901"><ele>209.66666666666666</ele><time>2026-05-02T12:27:04.912Z</time></trkpt><trkpt lat="43.9704447" lon="11.3288499"><ele>208.33333333333331</ele><time>2026-05-02T12:27:05.912Z</time></trkpt><trkpt lat="43.9704445" lon="11.3286042"><ele>207.0</ele><time>2026-05-02T12:27:06.912Z</time></trkpt><trkpt lat="43.9704426" lon="11.3283644"><ele>207.0</ele><time>2026-05-02T12:27:07.912Z</time></trkpt><trkpt lat="43.9704514" lon="11.3281208"><ele>207.0</ele><time>2026-05-02T12:27:08.912Z</time></trkpt><trkpt lat="43.9704598" lon="11.3278837"><ele>207.0</ele><time>2026-05-02T12:27:09.912Z</time></trkpt><trkpt lat="43.9704609" lon="11.3276508"><ele>207.0</ele><time>2026-05-02T12:27:10.912Z</time></trkpt><trkpt lat="43.9704551" lon="11.3274155"><ele>207.0</ele><time>2026-05-02T12:27:11.912Z</time></trkpt><trkpt lat="43.9704512" lon="11.3271857"><ele>207.0</ele><time>2026-05-02T12:27:12.912Z</time></trkpt><trkpt lat="43.9704514" lon="11.326956"><ele>207.0</ele><time>2026-05-02T12:27:13.912Z</time></trkpt><trkpt lat="43.9704612" lon="11.3267253"><ele>207.0</ele><time>2026-05-02T12:27:14.912Z</time></trkpt><trkpt lat="43.9704761" lon="11.3264838"><ele>207.0</ele><time>2026-05-02T12:27:15.912Z</time></trkpt><trkpt lat="43.9704857" lon="11.3262248"><ele>205.66666666666669</ele><time>2026-05-02T12:27:16.912Z</time></trkpt><trkpt lat="43.9704904" lon="11.325958"><ele>204.33333333333334</ele><time>2026-05-02T12:27:17.912Z</time></trkpt><trkpt lat="43.9704948" lon="11.3256977"><ele>203.0</ele><time>2026-05-02T12:27:18.912Z</time></trkpt><trkpt lat="43.9704944" lon="11.3254377"><ele>203.0</ele><time>2026-05-02T12:27:19.912Z</time></trkpt><trkpt lat="43.9704922" lon="11.3251903"><ele>203.0</ele><time>2026-05-02T12:27:20.912Z</time></trkpt><trkpt lat="43.9704994" lon="11.3249505"><ele>203.0</ele><time>2026-05-02T12:27:21.912Z</time></trkpt><trkpt lat="43.9705013" lon="11.3247136"><ele>203.0</ele><time>2026-05-02T12:27:22.912Z</time></trkpt><trkpt lat="43.9704966" lon="11.3244782"><ele>203.0</ele><time>2026-05-02T12:27:23.912Z</time></trkpt><trkpt lat="43.9704941" lon="11.3242275"><ele>203.0</ele><time>2026-05-02T12:27:24.912Z</time></trkpt><trkpt lat="43.9704896" lon="11.323961"><ele>203.33333333333334</ele><time>2026-05-02T12:27:25.912Z</time></trkpt><trkpt lat="43.9704855" lon="11.3237173"><ele>203.66666666666669</ele><time>2026-05-02T12:27:26.912Z</time></trkpt><trkpt lat="43.970478" lon="11.323492"><ele>204.0</ele><time>2026-05-02T12:27:27.912Z</time></trkpt><trkpt lat="43.9704703" lon="11.3232562"><ele>204.0</ele><time>2026-05-02T12:27:28.912Z</time></trkpt><trkpt lat="43.9704657" lon="11.3230142"><ele>204.0</ele><time>2026-05-02T12:27:29.912Z</time></trkpt><trkpt lat="43.970455" lon="11.3227775"><ele>204.0</ele><time>2026-05-02T12:27:30.912Z</time></trkpt><trkpt lat="43.9704322" lon="11.3225422"><ele>204.0</ele><time>2026-05-02T12:27:31.912Z</time></trkpt><trkpt lat="43.9703993" lon="11.32231"><ele>204.0</ele><time>2026-05-02T12:27:32.912Z</time></trkpt><trkpt lat="43.9703516" lon="11.3220719"><ele>204.0</ele><time>2026-05-02T12:27:33.912Z</time></trkpt><trkpt lat="43.9702961" lon="11.3218348"><ele>204.0</ele><time>2026-05-02T12:27:34.912Z</time></trkpt><trkpt lat="43.9702278" lon="11.3216008"><ele>204.0</ele><time>2026-05-02T12:27:35.912Z</time></trkpt><trkpt lat="43.970154" lon="11.3213867"><ele>204.0</ele><time>2026-05-02T12:27:36.912Z</time></trkpt><trkpt lat="43.9700794" lon="11.3211761"><ele>203.66666666666669</ele><time>2026-05-02T12:27:37.912Z</time></trkpt><trkpt lat="43.9700013" lon="11.3209731"><ele>203.33333333333334</ele><time>2026-05-02T12:27:38.912Z</time></trkpt><trkpt lat="43.9699264" lon="11.3207915"><ele>203.0</ele><time>2026-05-02T12:27:39.912Z</time></trkpt><trkpt lat="43.9698601" lon="11.320616"><ele>203.75</ele><time>2026-05-02T12:27:40.912Z</time></trkpt><trkpt lat="43.9698101" lon="11.3204588"><ele>204.5</ele><time>2026-05-02T12:27:41.911Z</time></trkpt><trkpt lat="43.9697552" lon="11.3203008"><ele>205.25</ele><time>2026-05-02T12:27:42.911Z</time></trkpt><trkpt lat="43.969702" lon="11.3201459"><ele>206.0</ele><time>2026-05-02T12:27:43.911Z</time></trkpt><trkpt lat="43.9696478" lon="11.3199988"><ele>206.0</ele><time>2026-05-02T12:27:44.911Z</time></trkpt><trkpt lat="43.9695919" lon="11.3198456"><ele>206.0</ele><time>2026-05-02T12:27:45.911Z</time></trkpt><trkpt lat="43.9695381" lon="11.3196892"><ele>206.0</ele><time>2026-05-02T12:27:46.911Z</time></trkpt><trkpt lat="43.9694836" lon="11.3195343"><ele>206.0</ele><time>2026-05-02T12:27:47.911Z</time></trkpt><trkpt lat="43.9694278" lon="11.3193838"><ele>206.0</ele><time>2026-05-02T12:27:48.911Z</time></trkpt><trkpt lat="43.9693667" lon="11.3192425"><ele>206.0</ele><time>2026-05-02T12:27:49.911Z</time></trkpt><trkpt lat="43.9693102" lon="11.3191093"><ele>206.0</ele><time>2026-05-02T12:27:50.911Z</time></trkpt><trkpt lat="43.9692617" lon="11.318977"><ele>206.0</ele><time>2026-05-02T12:27:51.911Z</time></trkpt><trkpt lat="43.9692353" lon="11.3188485"><ele>206.0</ele><time>2026-05-02T12:27:52.911Z</time></trkpt><trkpt lat="43.9692269" lon="11.3187183"><ele>206.60000000000002</ele><time>2026-05-02T12:27:53.911Z</time></trkpt><trkpt lat="43.9692391" lon="11.3185899"><ele>207.2</ele><time>2026-05-02T12:27:54.911Z</time></trkpt><trkpt lat="43.9692691" lon="11.3184566"><ele>207.8</ele><time>2026-05-02T12:27:55.911Z</time></trkpt><trkpt lat="43.9693134" lon="11.3183032"><ele>208.39999999999998</ele><time>2026-05-02T12:27:56.912Z</time></trkpt><trkpt lat="43.9693869" lon="11.318152"><ele>209.0</ele><time>2026-05-02T12:27:57.911Z</time></trkpt><trkpt lat="43.9694707" lon="11.3180013"><ele>209.39999999999998</ele><time>2026-05-02T12:27:58.911Z</time></trkpt><trkpt lat="43.9695593" lon="11.3178908"><ele>209.8</ele><time>2026-05-02T12:27:59.911Z</time></trkpt><trkpt lat="43.9696339" lon="11.3177777"><ele>210.2</ele><time>2026-05-02T12:28:00.911Z</time></trkpt><trkpt lat="43.9696972" lon="11.3176806"><ele>210.60000000000002</ele><time>2026-05-02T12:28:01.911Z</time></trkpt><trkpt lat="43.9697562" lon="11.3176021"><ele>211.0</ele><time>2026-05-02T12:28:02.911Z</time></trkpt><trkpt lat="43.9698131" lon="11.3175318"><ele>210.99999999999997</ele><time>2026-05-02T12:28:03.911Z</time></trkpt><trkpt lat="43.9698748" lon="11.3174717"><ele>211.0</ele><time>2026-05-02T12:28:04.911Z</time></trkpt><trkpt lat="43.9699406" lon="11.3174351"><ele>211.0</ele><time>2026-05-02T12:28:05.911Z</time></trkpt><trkpt lat="43.9700087" lon="11.3173848"><ele>211.0</ele><time>2026-05-02T12:28:06.911Z</time></trkpt><trkpt lat="43.9700752" lon="11.3173219"><ele>210.99999999999997</ele><time>2026-05-02T12:28:07.911Z</time></trkpt><trkpt lat="43.9701402" lon="11.3172606"><ele>211.0</ele><time>2026-05-02T12:28:08.911Z</time></trkpt><trkpt lat="43.970212" lon="11.3171976"><ele>211.0</ele><time>2026-05-02T12:28:09.911Z</time></trkpt><trkpt lat="43.9702936" lon="11.3171316"><ele>211.0</ele><time>2026-05-02T12:28:10.911Z</time></trkpt><trkpt lat="43.9703856" lon="11.3170626"><ele>211.0</ele><time>2026-05-02T12:28:11.911Z</time></trkpt><trkpt lat="43.9704865" lon="11.3169884"><ele>211.0</ele><time>2026-05-02T12:28:12.911Z</time></trkpt><trkpt lat="43.9705878" lon="11.3169216"><ele>211.0</ele><time>2026-05-02T12:28:13.911Z</time></trkpt><trkpt lat="43.9706835" lon="11.3168496"><ele>211.0</ele><time>2026-05-02T12:28:14.911Z</time></trkpt><trkpt lat="43.9707761" lon="11.3167843"><ele>211.0</ele><time>2026-05-02T12:28:15.911Z</time></trkpt><trkpt lat="43.9708716" lon="11.3167247"><ele>211.0</ele><time>2026-05-02T12:28:16.911Z</time></trkpt><trkpt lat="43.9709745" lon="11.3166563"><ele>211.0</ele><time>2026-05-02T12:28:17.912Z</time></trkpt><trkpt lat="43.9710784" lon="11.316591"><ele>211.0</ele><time>2026-05-02T12:28:18.911Z</time></trkpt><trkpt lat="43.9711781" lon="11.3165251"><ele>211.60000000000002</ele><time>2026-05-02T12:28:19.911Z</time></trkpt><trkpt lat="43.9712753" lon="11.3164668"><ele>212.2</ele><time>2026-05-02T12:28:20.911Z</time></trkpt><trkpt lat="43.9713708" lon="11.3164219"><ele>212.79999999999998</ele><time>2026-05-02T12:28:21.911Z</time></trkpt><trkpt lat="43.9714776" lon="11.3163994"><ele>213.39999999999998</ele><time>2026-05-02T12:28:22.911Z</time></trkpt><trkpt lat="43.9715879" lon="11.3163878"><ele>214.0</ele><time>2026-05-02T12:28:23.911Z</time></trkpt><trkpt lat="43.9716968" lon="11.3163742"><ele>214.5</ele><time>2026-05-02T12:28:24.911Z</time></trkpt><trkpt lat="43.9718186" lon="11.3163473"><ele>215.0</ele><time>2026-05-02T12:28:25.911Z</time></trkpt><trkpt lat="43.9719453" lon="11.3162954"><ele>215.5</ele><time>2026-05-02T12:28:26.911Z</time></trkpt><trkpt lat="43.972073" lon="11.3162362"><ele>216.0</ele><time>2026-05-02T12:28:27.911Z</time></trkpt><trkpt lat="43.972203" lon="11.3161778"><ele>216.0</ele><time>2026-05-02T12:28:28.911Z</time></trkpt><trkpt lat="43.9723471" lon="11.3161227"><ele>216.0</ele><time>2026-05-02T12:28:29.911Z</time></trkpt><trkpt lat="43.9724931" lon="11.3160695"><ele>216.0</ele><time>2026-05-02T12:28:30.911Z</time></trkpt><trkpt lat="43.9726454" lon="11.3160185"><ele>216.66666666666669</ele><time>2026-05-02T12:28:31.911Z</time></trkpt><trkpt lat="43.9727968" lon="11.3159783"><ele>217.33333333333334</ele><time>2026-05-02T12:28:32.911Z</time></trkpt><trkpt lat="43.9729493" lon="11.3159496"><ele>218.0</ele><time>2026-05-02T12:28:33.911Z</time></trkpt><trkpt lat="43.9730993" lon="11.3159203"><ele>218.0</ele><time>2026-05-02T12:28:34.911Z</time></trkpt><trkpt lat="43.9732559" lon="11.3158934"><ele>218.0</ele><time>2026-05-02T12:28:35.911Z</time></trkpt><trkpt lat="43.973407" lon="11.3158618"><ele>218.0</ele><time>2026-05-02T12:28:36.911Z</time></trkpt><trkpt lat="43.9735573" lon="11.3158154"><ele>218.66666666666669</ele><time>2026-05-02T12:28:37.911Z</time></trkpt><trkpt lat="43.9736985" lon="11.3157495"><ele>219.33333333333331</ele><time>2026-05-02T12:28:38.911Z</time></trkpt><trkpt lat="43.9738517" lon="11.3156701"><ele>220.0</ele><time>2026-05-02T12:28:39.911Z</time></trkpt><trkpt lat="43.9740047" lon="11.3155695"><ele>221.0</ele><time>2026-05-02T12:28:40.911Z</time></trkpt><trkpt lat="43.9741567" lon="11.3154526"><ele>222.0</ele><time>2026-05-02T12:28:41.911Z</time></trkpt><trkpt lat="43.9743097" lon="11.3153307"><ele>223.0</ele><time>2026-05-02T12:28:42.911Z</time></trkpt><trkpt lat="43.9744614" lon="11.3152025"><ele>226.33333333333331</ele><time>2026-05-02T12:28:43.911Z</time></trkpt><trkpt lat="43.9746074" lon="11.3150802"><ele>229.66666666666669</ele><time>2026-05-02T12:28:44.911Z</time></trkpt><trkpt lat="43.9747392" lon="11.3149692"><ele>233.0</ele><time>2026-05-02T12:28:45.911Z</time></trkpt><trkpt lat="43.9748555" lon="11.3148657"><ele>233.0</ele><time>2026-05-02T12:28:46.911Z</time></trkpt><trkpt lat="43.9749697" lon="11.3147719"><ele>233.0</ele><time>2026-05-02T12:28:47.911Z</time></trkpt><trkpt lat="43.9750708" lon="11.3146858"><ele>233.0</ele><time>2026-05-02T12:28:48.911Z</time></trkpt><trkpt lat="43.9751572" lon="11.3146122"><ele>233.0</ele><time>2026-05-02T12:28:49.911Z</time></trkpt><trkpt lat="43.9752299" lon="11.3145483"><ele>233.0</ele><time>2026-05-02T12:28:50.911Z</time></trkpt><trkpt lat="43.975291" lon="11.3144986"><ele>234.16666666666669</ele><time>2026-05-02T12:28:51.911Z</time></trkpt><trkpt lat="43.9753459" lon="11.3144363"><ele>235.33333333333334</ele><time>2026-05-02T12:28:52.911Z</time></trkpt><trkpt lat="43.9753965" lon="11.3143729"><ele>236.5</ele><time>2026-05-02T12:28:53.911Z</time></trkpt><trkpt lat="43.9754532" lon="11.3143149"><ele>237.66666666666669</ele><time>2026-05-02T12:28:54.911Z</time></trkpt><trkpt lat="43.9755161" lon="11.3142496"><ele>238.83333333333334</ele><time>2026-05-02T12:28:55.911Z</time></trkpt><trkpt lat="43.9755923" lon="11.3141705"><ele>240.0</ele><time>2026-05-02T12:28:56.911Z</time></trkpt><trkpt lat="43.9756765" lon="11.314075"><ele>240.0</ele><time>2026-05-02T12:28:57.911Z</time></trkpt><trkpt lat="43.9757729" lon="11.3139698"><ele>240.0</ele><time>2026-05-02T12:28:58.911Z</time></trkpt><trkpt lat="43.975878" lon="11.313845"><ele>240.0</ele><time>2026-05-02T12:28:59.911Z</time></trkpt><trkpt lat="43.9759835" lon="11.3137295"><ele>240.0</ele><time>2026-05-02T12:29:00.911Z</time></trkpt><trkpt lat="43.9760956" lon="11.3136247"><ele>239.75</ele><time>2026-05-02T12:29:01.911Z</time></trkpt><trkpt lat="43.976218" lon="11.3135326"><ele>239.5</ele><time>2026-05-02T12:29:02.911Z</time></trkpt><trkpt lat="43.9763384" lon="11.3134385"><ele>239.25</ele><time>2026-05-02T12:29:03.911Z</time></trkpt><trkpt lat="43.9764552" lon="11.3133364"><ele>239.0</ele><time>2026-05-02T12:29:04.911Z</time></trkpt><trkpt lat="43.9765705" lon="11.3132324"><ele>239.0</ele><time>2026-05-02T12:29:05.911Z</time></trkpt><trkpt lat="43.9766837" lon="11.3131343"><ele>239.0</ele><time>2026-05-02T12:29:06.911Z</time></trkpt><trkpt lat="43.9768015" lon="11.3130449"><ele>239.0</ele><time>2026-05-02T12:29:07.911Z</time></trkpt><trkpt lat="43.9769183" lon="11.3129579"><ele>239.0</ele><time>2026-05-02T12:29:08.911Z</time></trkpt><trkpt lat="43.9770351" lon="11.3128682"><ele>238.75</ele><time>2026-05-02T12:29:09.911Z</time></trkpt><trkpt lat="43.9771475" lon="11.3127912"><ele>238.5</ele><time>2026-05-02T12:29:10.911Z</time></trkpt><trkpt lat="43.97727" lon="11.3127158"><ele>238.25</ele><time>2026-05-02T12:29:11.911Z</time></trkpt><trkpt lat="43.9773954" lon="11.3126532"><ele>238.0</ele><time>2026-05-02T12:29:12.911Z</time></trkpt><trkpt lat="43.9775295" lon="11.3125987"><ele>238.66666666666666</ele><time>2026-05-02T12:29:13.911Z</time></trkpt><trkpt lat="43.9776737" lon="11.3125596"><ele>239.33333333333331</ele><time>2026-05-02T12:29:14.911Z</time></trkpt><trkpt lat="43.9778178" lon="11.3125094"><ele>240.0</ele><time>2026-05-02T12:29:15.911Z</time></trkpt><trkpt lat="43.9779701" lon="11.3124472"><ele>240.0</ele><time>2026-05-02T12:29:16.911Z</time></trkpt><trkpt lat="43.978133" lon="11.3123809"><ele>240.0</ele><time>2026-05-02T12:29:17.911Z</time></trkpt><trkpt lat="43.9783007" lon="11.3123089"><ele>240.0</ele><time>2026-05-02T12:29:18.911Z</time></trkpt><trkpt lat="43.9784666" lon="11.3122371"><ele>242.66666666666669</ele><time>2026-05-02T12:29:19.911Z</time></trkpt><trkpt lat="43.9786176" lon="11.3121687"><ele>245.33333333333334</ele><time>2026-05-02T12:29:20.911Z</time></trkpt><trkpt lat="43.9787592" lon="11.3121109"><ele>248.0</ele><time>2026-05-02T12:29:21.911Z</time></trkpt><trkpt lat="43.9789062" lon="11.3120559"><ele>248.0</ele><time>2026-05-02T12:29:22.911Z</time></trkpt><trkpt lat="43.9790479" lon="11.3119988"><ele>248.0</ele><time>2026-05-02T12:29:23.911Z</time></trkpt><trkpt lat="43.9791894" lon="11.3119483"><ele>248.0</ele><time>2026-05-02T12:29:24.911Z</time></trkpt><trkpt lat="43.9793286" lon="11.3118967"><ele>248.0</ele><time>2026-05-02T12:29:25.911Z</time></trkpt><trkpt lat="43.9794618" lon="11.3118466"><ele>247.5</ele><time>2026-05-02T12:29:26.911Z</time></trkpt><trkpt lat="43.9795914" lon="11.3117877"><ele>247.0</ele><time>2026-05-02T12:29:27.911Z</time></trkpt><trkpt lat="43.9797126" lon="11.3117275"><ele>246.5</ele><time>2026-05-02T12:29:28.911Z</time></trkpt><trkpt lat="43.9798235" lon="11.3116707"><ele>246.0</ele><time>2026-05-02T12:29:29.911Z</time></trkpt><trkpt lat="43.9799296" lon="11.3116206"><ele>246.5</ele><time>2026-05-02T12:29:30.911Z</time></trkpt><trkpt lat="43.9800364" lon="11.3115847"><ele>247.0</ele><time>2026-05-02T12:29:31.911Z</time></trkpt><trkpt lat="43.9801475" lon="11.3115798"><ele>247.5</ele><time>2026-05-02T12:29:32.911Z</time></trkpt><trkpt lat="43.9802629" lon="11.3115983"><ele>248.0</ele><time>2026-05-02T12:29:33.911Z</time></trkpt><trkpt lat="43.9803785" lon="11.3116419"><ele>248.0</ele><time>2026-05-02T12:29:34.912Z</time></trkpt><trkpt lat="43.9804949" lon="11.3116909"><ele>248.0</ele><time>2026-05-02T12:29:35.911Z</time></trkpt><trkpt lat="43.9806116" lon="11.3117313"><ele>248.0</ele><time>2026-05-02T12:29:36.911Z</time></trkpt><trkpt lat="43.9807285" lon="11.3117459"><ele>248.0</ele><time>2026-05-02T12:29:37.911Z</time></trkpt><trkpt lat="43.9808424" lon="11.311724"><ele>248.0</ele><time>2026-05-02T12:29:38.911Z</time></trkpt><trkpt lat="43.9809687" lon="11.3116878"><ele>248.0</ele><time>2026-05-02T12:29:39.911Z</time></trkpt><trkpt lat="43.9811019" lon="11.3116627"><ele>248.0</ele><time>2026-05-02T12:29:40.911Z</time></trkpt><trkpt lat="43.9812418" lon="11.3116563"><ele>248.0</ele><time>2026-05-02T12:29:41.911Z</time></trkpt><trkpt lat="43.9813848" lon="11.3116474"><ele>248.0</ele><time>2026-05-02T12:29:42.911Z</time></trkpt><trkpt lat="43.9815091" lon="11.3116137"><ele>248.0</ele><time>2026-05-02T12:29:43.911Z</time></trkpt><trkpt lat="43.9816426" lon="11.3115833"><ele>248.0</ele><time>2026-05-02T12:29:44.911Z</time></trkpt><trkpt lat="43.9817833" lon="11.3115439"><ele>248.0</ele><time>2026-05-02T12:29:45.911Z</time></trkpt><trkpt lat="43.9819194" lon="11.3114992"><ele>248.25</ele><time>2026-05-02T12:29:46.911Z</time></trkpt><trkpt lat="43.9820516" lon="11.3114586"><ele>248.5</ele><time>2026-05-02T12:29:47.911Z</time></trkpt><trkpt lat="43.9821808" lon="11.3114156"><ele>248.75</ele><time>2026-05-02T12:29:48.911Z</time></trkpt><trkpt lat="43.9823056" lon="11.3113877"><ele>249.0</ele><time>2026-05-02T12:29:49.911Z</time></trkpt><trkpt lat="43.9824373" lon="11.311365"><ele>247.5</ele><time>2026-05-02T12:29:50.911Z</time></trkpt><trkpt lat="43.9825687" lon="11.3113394"><ele>246.0</ele><time>2026-05-02T12:29:51.911Z</time></trkpt><trkpt lat="43.9827022" lon="11.3113113"><ele>244.5</ele><time>2026-05-02T12:29:52.911Z</time></trkpt><trkpt lat="43.9828356" lon="11.311283"><ele>243.0</ele><time>2026-05-02T12:29:53.911Z</time></trkpt><trkpt lat="43.9829671" lon="11.3112548"><ele>243.0</ele><time>2026-05-02T12:29:54.911Z</time></trkpt><trkpt lat="43.9830932" lon="11.311209"><ele>243.0</ele><time>2026-05-02T12:29:55.911Z</time></trkpt><trkpt lat="43.9832223" lon="11.31114"><ele>243.0</ele><time>2026-05-02T12:29:56.911Z</time></trkpt><trkpt lat="43.9833452" lon="11.3110613"><ele>243.0</ele><time>2026-05-02T12:29:57.911Z</time></trkpt><trkpt lat="43.9834654" lon="11.3109804"><ele>243.75</ele><time>2026-05-02T12:29:58.911Z</time></trkpt><trkpt lat="43.9835868" lon="11.3109058"><ele>244.5</ele><time>2026-05-02T12:29:59.911Z</time></trkpt><trkpt lat="43.9837225" lon="11.3108475"><ele>245.25</ele><time>2026-05-02T12:30:00.911Z</time></trkpt><trkpt lat="43.9838591" lon="11.3108221"><ele>246.0</ele><time>2026-05-02T12:30:01.911Z</time></trkpt><trkpt lat="43.9840097" lon="11.3108149"><ele>246.0</ele><time>2026-05-02T12:30:02.911Z</time></trkpt><trkpt lat="43.9841586" lon="11.3108179"><ele>246.0</ele><time>2026-05-02T12:30:03.911Z</time></trkpt><trkpt lat="43.9842951" lon="11.3108128"><ele>246.0</ele><time>2026-05-02T12:30:04.911Z</time></trkpt><trkpt lat="43.9844205" lon="11.310795"><ele>246.0</ele><time>2026-05-02T12:30:05.911Z</time></trkpt><trkpt lat="43.9845437" lon="11.3107659"><ele>245.66666666666669</ele><time>2026-05-02T12:30:06.911Z</time></trkpt><trkpt lat="43.9846772" lon="11.3107215"><ele>245.33333333333334</ele><time>2026-05-02T12:30:07.911Z</time></trkpt><trkpt lat="43.984815" lon="11.3106589"><ele>245.0</ele><time>2026-05-02T12:30:08.911Z</time></trkpt><trkpt lat="43.9849781" lon="11.3105785"><ele>245.66666666666669</ele><time>2026-05-02T12:30:09.912Z</time></trkpt><trkpt lat="43.9851439" lon="11.3105043"><ele>246.33333333333331</ele><time>2026-05-02T12:30:10.911Z</time></trkpt><trkpt lat="43.9853021" lon="11.3104338"><ele>247.0</ele><time>2026-05-02T12:30:11.911Z</time></trkpt><trkpt lat="43.9854486" lon="11.3103759"><ele>247.0</ele><time>2026-05-02T12:30:12.911Z</time></trkpt><trkpt lat="43.9855796" lon="11.3103146"><ele>247.0</ele><time>2026-05-02T12:30:13.911Z</time></trkpt><trkpt lat="43.9857083" lon="11.3102539"><ele>247.0</ele><time>2026-05-02T12:30:14.911Z</time></trkpt><trkpt lat="43.9858263" lon="11.3101886"><ele>247.0</ele><time>2026-05-02T12:30:15.911Z</time></trkpt><trkpt lat="43.9859257" lon="11.3101252"><ele>247.6</ele><time>2026-05-02T12:30:16.911Z</time></trkpt><trkpt lat="43.9860223" lon="11.3100611"><ele>248.2</ele><time>2026-05-02T12:30:17.911Z</time></trkpt><trkpt lat="43.9861091" lon="11.3099967"><ele>248.8</ele><time>2026-05-02T12:30:18.911Z</time></trkpt><trkpt lat="43.9861998" lon="11.3099383"><ele>249.4</ele><time>2026-05-02T12:30:19.911Z</time></trkpt><trkpt lat="43.9862884" lon="11.3098913"><ele>250.0</ele><time>2026-05-02T12:30:20.91Z</time></trkpt><trkpt lat="43.9863808" lon="11.3098611"><ele>249.99999999999997</ele><time>2026-05-02T12:30:21.911Z</time></trkpt><trkpt lat="43.9864674" lon="11.3098479"><ele>250.0</ele><time>2026-05-02T12:30:22.911Z</time></trkpt><trkpt lat="43.9865474" lon="11.309838"><ele>250.0</ele><time>2026-05-02T12:30:23.911Z</time></trkpt><trkpt lat="43.9866174" lon="11.3098368"><ele>250.0</ele><time>2026-05-02T12:30:24.911Z</time></trkpt><trkpt lat="43.9867285" lon="11.3098185"><ele>249.99999999999997</ele><time>2026-05-02T12:30:26.911Z</time></trkpt><trkpt lat="43.9867847" lon="11.3097079"><ele>250.0</ele><time>2026-05-02T12:30:28.911Z</time></trkpt><trkpt lat="43.9867271" lon="11.3095362"><ele>249.4</ele><time>2026-05-02T12:30:30.911Z</time></trkpt><trkpt lat="43.9866772" lon="11.3094334"><ele>248.8</ele><time>2026-05-02T12:30:31.911Z</time></trkpt><trkpt lat="43.9866246" lon="11.3093181"><ele>248.2</ele><time>2026-05-02T12:30:32.911Z</time></trkpt><trkpt lat="43.9865713" lon="11.3091944"><ele>247.6</ele><time>2026-05-02T12:30:33.911Z</time></trkpt><trkpt lat="43.986512" lon="11.309064"><ele>247.0</ele><time>2026-05-02T12:30:34.911Z</time></trkpt><trkpt lat="43.986461" lon="11.3089225"><ele>249.0</ele><time>2026-05-02T12:30:35.911Z</time></trkpt><trkpt lat="43.986425" lon="11.3087686"><ele>251.0</ele><time>2026-05-02T12:30:36.911Z</time></trkpt><trkpt lat="43.9864048" lon="11.3085988"><ele>253.0</ele><time>2026-05-02T12:30:37.911Z</time></trkpt><trkpt lat="43.9863971" lon="11.3084136"><ele>255.0</ele><time>2026-05-02T12:30:38.911Z</time></trkpt><trkpt lat="43.9863834" lon="11.3082298"><ele>255.0</ele><time>2026-05-02T12:30:39.911Z</time></trkpt><trkpt lat="43.9863644" lon="11.308085"><ele>255.0</ele><time>2026-05-02T12:30:40.911Z</time></trkpt><trkpt lat="43.9863423" lon="11.3079656"><ele>255.0</ele><time>2026-05-02T12:30:41.911Z</time></trkpt><trkpt lat="43.9863183" lon="11.3078512"><ele>255.0</ele><time>2026-05-02T12:30:42.911Z</time></trkpt><trkpt lat="43.9862935" lon="11.3077246"><ele>255.0</ele><time>2026-05-02T12:30:43.911Z</time></trkpt><trkpt lat="43.9862823" lon="11.3075937"><ele>257.25</ele><time>2026-05-02T12:30:44.911Z</time></trkpt><trkpt lat="43.9862905" lon="11.307454"><ele>259.5</ele><time>2026-05-02T12:30:45.911Z</time></trkpt><trkpt lat="43.986316" lon="11.307305"><ele>261.75</ele><time>2026-05-02T12:30:46.911Z</time></trkpt><trkpt lat="43.9863463" lon="11.3071379"><ele>264.0</ele><time>2026-05-02T12:30:47.911Z</time></trkpt><trkpt lat="43.9863848" lon="11.3069703"><ele>264.25</ele><time>2026-05-02T12:30:48.911Z</time></trkpt><trkpt lat="43.9864222" lon="11.3068013"><ele>264.5</ele><time>2026-05-02T12:30:49.911Z</time></trkpt><trkpt lat="43.9864659" lon="11.3066296"><ele>264.75</ele><time>2026-05-02T12:30:50.911Z</time></trkpt><trkpt lat="43.9864971" lon="11.3064559"><ele>265.0</ele><time>2026-05-02T12:30:51.911Z</time></trkpt><trkpt lat="43.9865168" lon="11.3062848"><ele>265.5</ele><time>2026-05-02T12:30:52.911Z</time></trkpt><trkpt lat="43.9865307" lon="11.3061196"><ele>266.0</ele><time>2026-05-02T12:30:53.911Z</time></trkpt><trkpt lat="43.9865466" lon="11.3059553"><ele>266.5</ele><time>2026-05-02T12:30:54.911Z</time></trkpt><trkpt lat="43.9865574" lon="11.3057958"><ele>267.0</ele><time>2026-05-02T12:30:55.911Z</time></trkpt><trkpt lat="43.9865693" lon="11.3056411"><ele>268.5</ele><time>2026-05-02T12:30:56.911Z</time></trkpt><trkpt lat="43.9865816" lon="11.3054897"><ele>270.0</ele><time>2026-05-02T12:30:57.911Z</time></trkpt><trkpt lat="43.9865879" lon="11.3053345"><ele>271.5</ele><time>2026-05-02T12:30:58.911Z</time></trkpt><trkpt lat="43.9865805" lon="11.305166"><ele>273.0</ele><time>2026-05-02T12:30:59.911Z</time></trkpt><trkpt lat="43.9865792" lon="11.3049978"><ele>273.0</ele><time>2026-05-02T12:31:00.911Z</time></trkpt><trkpt lat="43.9865798" lon="11.3048266"><ele>273.0</ele><time>2026-05-02T12:31:01.911Z</time></trkpt><trkpt lat="43.9865783" lon="11.3046544"><ele>273.0</ele><time>2026-05-02T12:31:02.911Z</time></trkpt><trkpt lat="43.9865773" lon="11.3044911"><ele>273.0</ele><time>2026-05-02T12:31:03.911Z</time></trkpt><trkpt lat="43.9865693" lon="11.3043427"><ele>273.5</ele><time>2026-05-02T12:31:04.911Z</time></trkpt><trkpt lat="43.9865561" lon="11.304201"><ele>274.0</ele><time>2026-05-02T12:31:05.911Z</time></trkpt><trkpt lat="43.9865435" lon="11.3040851"><ele>274.5</ele><time>2026-05-02T12:31:06.911Z</time></trkpt><trkpt lat="43.9865238" lon="11.3039764"><ele>275.0</ele><time>2026-05-02T12:31:07.911Z</time></trkpt><trkpt lat="43.9865001" lon="11.3038659"><ele>275.5</ele><time>2026-05-02T12:31:08.91Z</time></trkpt><trkpt lat="43.9864813" lon="11.3037494"><ele>276.0</ele><time>2026-05-02T12:31:09.91Z</time></trkpt><trkpt lat="43.9864694" lon="11.3036348"><ele>276.0</ele><time>2026-05-02T12:31:10.91Z</time></trkpt><trkpt lat="43.9864587" lon="11.3035199"><ele>276.0</ele><time>2026-05-02T12:31:11.91Z</time></trkpt><trkpt lat="43.9864485" lon="11.3033996"><ele>276.0</ele><time>2026-05-02T12:31:12.91Z</time></trkpt><trkpt lat="43.9864421" lon="11.3032694"><ele>276.0</ele><time>2026-05-02T12:31:13.91Z</time></trkpt><trkpt lat="43.986437" lon="11.3031384"><ele>276.0</ele><time>2026-05-02T12:31:14.91Z</time></trkpt><trkpt lat="43.9864324" lon="11.3030091"><ele>276.0</ele><time>2026-05-02T12:31:15.91Z</time></trkpt><trkpt lat="43.9864265" lon="11.3028709"><ele>276.0</ele><time>2026-05-02T12:31:16.91Z</time></trkpt><trkpt lat="43.9864199" lon="11.3027227"><ele>276.0</ele><time>2026-05-02T12:31:17.91Z</time></trkpt><trkpt lat="43.9864132" lon="11.302577"><ele>276.0</ele><time>2026-05-02T12:31:18.91Z</time></trkpt><trkpt lat="43.9864078" lon="11.3024286"><ele>276.0</ele><time>2026-05-02T12:31:19.91Z</time></trkpt><trkpt lat="43.9864" lon="11.3022654"><ele>275.25</ele><time>2026-05-02T12:31:20.911Z</time></trkpt><trkpt lat="43.9863828" lon="11.3020989"><ele>274.5</ele><time>2026-05-02T12:31:21.91Z</time></trkpt><trkpt lat="43.9863679" lon="11.3019312"><ele>273.75</ele><time>2026-05-02T12:31:22.91Z</time></trkpt><trkpt lat="43.9863565" lon="11.3017649"><ele>273.0</ele><time>2026-05-02T12:31:23.91Z</time></trkpt><trkpt lat="43.9863463" lon="11.3015897"><ele>272.5</ele><time>2026-05-02T12:31:24.91Z</time></trkpt><trkpt lat="43.9863364" lon="11.3014118"><ele>272.0</ele><time>2026-05-02T12:31:25.91Z</time></trkpt><trkpt lat="43.9863198" lon="11.3012431"><ele>271.5</ele><time>2026-05-02T12:31:26.91Z</time></trkpt><trkpt lat="43.98631" lon="11.3010857"><ele>271.0</ele><time>2026-05-02T12:31:27.91Z</time></trkpt><trkpt lat="43.9863" lon="11.3009332"><ele>271.0</ele><time>2026-05-02T12:31:28.91Z</time></trkpt><trkpt lat="43.986287" lon="11.3007786"><ele>271.0</ele><time>2026-05-02T12:31:29.91Z</time></trkpt><trkpt lat="43.9862844" lon="11.3006314"><ele>271.0</ele><time>2026-05-02T12:31:30.91Z</time></trkpt><trkpt lat="43.9862902" lon="11.3004682"><ele>271.0</ele><time>2026-05-02T12:31:31.91Z</time></trkpt><trkpt lat="43.986299" lon="11.3003168"><ele>271.0</ele><time>2026-05-02T12:31:32.91Z</time></trkpt><trkpt lat="43.9863099" lon="11.3001678"><ele>269.25</ele><time>2026-05-02T12:31:33.91Z</time></trkpt><trkpt lat="43.986314" lon="11.3000043"><ele>267.5</ele><time>2026-05-02T12:31:34.91Z</time></trkpt><trkpt lat="43.986317" lon="11.2998227"><ele>265.75</ele><time>2026-05-02T12:31:35.91Z</time></trkpt><trkpt lat="43.9863254" lon="11.2996285"><ele>264.0</ele><time>2026-05-02T12:31:36.91Z</time></trkpt><trkpt lat="43.986335" lon="11.2994232"><ele>261.6666666666667</ele><time>2026-05-02T12:31:37.91Z</time></trkpt><trkpt lat="43.9863376" lon="11.2992147"><ele>259.33333333333337</ele><time>2026-05-02T12:31:38.91Z</time></trkpt><trkpt lat="43.9863332" lon="11.2989892"><ele>257.0</ele><time>2026-05-02T12:31:39.91Z</time></trkpt><trkpt lat="43.9863373" lon="11.2987591"><ele>257.75</ele><time>2026-05-02T12:31:40.91Z</time></trkpt><trkpt lat="43.9863405" lon="11.2985369"><ele>258.5</ele><time>2026-05-02T12:31:41.91Z</time></trkpt><trkpt lat="43.9863539" lon="11.2983305"><ele>259.25</ele><time>2026-05-02T12:31:42.91Z</time></trkpt><trkpt lat="43.9863648" lon="11.2981475"><ele>260.0</ele><time>2026-05-02T12:31:43.91Z</time></trkpt><trkpt lat="43.986355" lon="11.2979753"><ele>260.0</ele><time>2026-05-02T12:31:44.91Z</time></trkpt><trkpt lat="43.9863297" lon="11.2978103"><ele>260.0</ele><time>2026-05-02T12:31:45.91Z</time></trkpt><trkpt lat="43.9862934" lon="11.2976454"><ele>260.0</ele><time>2026-05-02T12:31:46.91Z</time></trkpt><trkpt lat="43.9862529" lon="11.2974735"><ele>260.0</ele><time>2026-05-02T12:31:47.91Z</time></trkpt><trkpt lat="43.9862143" lon="11.2972871"><ele>261.25</ele><time>2026-05-02T12:31:48.91Z</time></trkpt><trkpt lat="43.9861813" lon="11.2971007"><ele>262.5</ele><time>2026-05-02T12:31:49.91Z</time></trkpt><trkpt lat="43.9861553" lon="11.2969175"><ele>263.75</ele><time>2026-05-02T12:31:50.91Z</time></trkpt><trkpt lat="43.9861443" lon="11.2967602"><ele>265.0</ele><time>2026-05-02T12:31:51.91Z</time></trkpt><trkpt lat="43.9861453" lon="11.296632"><ele>265.0</ele><time>2026-05-02T12:31:52.91Z</time></trkpt><trkpt lat="43.9861528" lon="11.2965018"><ele>265.0</ele><time>2026-05-02T12:31:53.91Z</time></trkpt><trkpt lat="43.9861861" lon="11.2963897"><ele>265.0</ele><time>2026-05-02T12:31:54.91Z</time></trkpt><trkpt lat="43.9862136" lon="11.2962732"><ele>265.0</ele><time>2026-05-02T12:31:55.911Z</time></trkpt><trkpt lat="43.9862493" lon="11.2961573"><ele>265.0</ele><time>2026-05-02T12:31:56.91Z</time></trkpt><trkpt lat="43.9862925" lon="11.2960174"><ele>265.25</ele><time>2026-05-02T12:31:57.91Z</time></trkpt><trkpt lat="43.9863282" lon="11.2958712"><ele>265.5</ele><time>2026-05-02T12:31:58.91Z</time></trkpt><trkpt lat="43.9863622" lon="11.295728"><ele>265.75</ele><time>2026-05-02T12:31:59.91Z</time></trkpt><trkpt lat="43.9863844" lon="11.2955634"><ele>266.0</ele><time>2026-05-02T12:32:00.91Z</time></trkpt><trkpt lat="43.986411" lon="11.2954133"><ele>266.0</ele><time>2026-05-02T12:32:01.91Z</time></trkpt><trkpt lat="43.9864367" lon="11.2952672"><ele>266.0</ele><time>2026-05-02T12:32:02.91Z</time></trkpt><trkpt lat="43.9864606" lon="11.2951293"><ele>266.0</ele><time>2026-05-02T12:32:03.91Z</time></trkpt><trkpt lat="43.9864857" lon="11.2949953"><ele>266.0</ele><time>2026-05-02T12:32:04.91Z</time></trkpt><trkpt lat="43.9865071" lon="11.2948763"><ele>266.0</ele><time>2026-05-02T12:32:05.91Z</time></trkpt><trkpt lat="43.9865242" lon="11.2947706"><ele>265.6</ele><time>2026-05-02T12:32:06.91Z</time></trkpt><trkpt lat="43.9865609" lon="11.2946373"><ele>265.20000000000005</ele><time>2026-05-02T12:32:08.91Z</time></trkpt><trkpt lat="43.986563" lon="11.2945212"><ele>264.79999999999995</ele><time>2026-05-02T12:32:10.91Z</time></trkpt><trkpt lat="43.986551" lon="11.2943389"><ele>264.4</ele><time>2026-05-02T12:32:12.91Z</time></trkpt><trkpt lat="43.9865397" lon="11.294224"><ele>264.0</ele><time>2026-05-02T12:32:13.91Z</time></trkpt><trkpt lat="43.9865248" lon="11.2940991"><ele>264.0</ele><time>2026-05-02T12:32:14.91Z</time></trkpt><trkpt lat="43.9865025" lon="11.2939628"><ele>264.0</ele><time>2026-05-02T12:32:15.91Z</time></trkpt><trkpt lat="43.9864767" lon="11.2938141"><ele>264.0</ele><time>2026-05-02T12:32:16.91Z</time></trkpt><trkpt lat="43.9864389" lon="11.2936625"><ele>264.0</ele><time>2026-05-02T12:32:17.91Z</time></trkpt><trkpt lat="43.9864053" lon="11.2935153"><ele>264.0</ele><time>2026-05-02T12:32:18.91Z</time></trkpt><trkpt lat="43.9863751" lon="11.2933599"><ele>263.25</ele><time>2026-05-02T12:32:19.91Z</time></trkpt><trkpt lat="43.9863511" lon="11.2931977"><ele>262.5</ele><time>2026-05-02T12:32:20.91Z</time></trkpt><trkpt lat="43.9863333" lon="11.2930225"><ele>261.75</ele><time>2026-05-02T12:32:21.91Z</time></trkpt><trkpt lat="43.9863209" lon="11.292834"><ele>261.0</ele><time>2026-05-02T12:32:22.91Z</time></trkpt><trkpt lat="43.9863086" lon="11.2926334"><ele>260.25</ele><time>2026-05-02T12:32:23.91Z</time></trkpt><trkpt lat="43.9862928" lon="11.292437"><ele>259.5</ele><time>2026-05-02T12:32:24.91Z</time></trkpt><trkpt lat="43.9862822" lon="11.292271"><ele>258.75</ele><time>2026-05-02T12:32:25.91Z</time></trkpt><trkpt lat="43.9862714" lon="11.2921172"><ele>258.0</ele><time>2026-05-02T12:32:26.91Z</time></trkpt><trkpt lat="43.986258" lon="11.2919616"><ele>257.5</ele><time>2026-05-02T12:32:27.91Z</time></trkpt><trkpt lat="43.98625" lon="11.2917936"><ele>257.0</ele><time>2026-05-02T12:32:28.91Z</time></trkpt><trkpt lat="43.9862457" lon="11.2916192"><ele>256.5</ele><time>2026-05-02T12:32:29.91Z</time></trkpt><trkpt lat="43.9862431" lon="11.2914408"><ele>256.0</ele><time>2026-05-02T12:32:30.91Z</time></trkpt><trkpt lat="43.9862333" lon="11.2912502"><ele>256.0</ele><time>2026-05-02T12:32:31.91Z</time></trkpt><trkpt lat="43.9862277" lon="11.2910666"><ele>256.0</ele><time>2026-05-02T12:32:32.91Z</time></trkpt><trkpt lat="43.9862119" lon="11.2908925"><ele>256.0</ele><time>2026-05-02T12:32:33.911Z</time></trkpt><trkpt lat="43.986197" lon="11.2907141"><ele>256.0</ele><time>2026-05-02T12:32:34.91Z</time></trkpt><trkpt lat="43.986176" lon="11.2905135"><ele>255.66666666666666</ele><time>2026-05-02T12:32:35.91Z</time></trkpt><trkpt lat="43.9861572" lon="11.2902962"><ele>255.33333333333331</ele><time>2026-05-02T12:32:36.91Z</time></trkpt><trkpt lat="43.9861374" lon="11.290076"><ele>255.0</ele><time>2026-05-02T12:32:37.91Z</time></trkpt><trkpt lat="43.9861247" lon="11.2898765"><ele>255.25</ele><time>2026-05-02T12:32:38.91Z</time></trkpt><trkpt lat="43.9861133" lon="11.2896963"><ele>255.5</ele><time>2026-05-02T12:32:39.91Z</time></trkpt><trkpt lat="43.9861043" lon="11.2895329"><ele>255.75</ele><time>2026-05-02T12:32:40.91Z</time></trkpt><trkpt lat="43.9860964" lon="11.2893761"><ele>256.0</ele><time>2026-05-02T12:32:41.91Z</time></trkpt><trkpt lat="43.9860904" lon="11.2892203"><ele>256.0</ele><time>2026-05-02T12:32:42.91Z</time></trkpt><trkpt lat="43.9860938" lon="11.2890777"><ele>256.0</ele><time>2026-05-02T12:32:43.91Z</time></trkpt><trkpt lat="43.9860964" lon="11.2889382"><ele>256.0</ele><time>2026-05-02T12:32:44.91Z</time></trkpt><trkpt lat="43.9860997" lon="11.2888059"><ele>256.0</ele><time>2026-05-02T12:32:45.91Z</time></trkpt><trkpt lat="43.9860968" lon="11.2886853"><ele>256.0</ele><time>2026-05-02T12:32:46.91Z</time></trkpt><trkpt lat="43.9860921" lon="11.2885889"><ele>256.0</ele><time>2026-05-02T12:32:47.91Z</time></trkpt><trkpt lat="43.9860862" lon="11.2884575"><ele>256.0</ele><time>2026-05-02T12:32:49.91Z</time></trkpt><trkpt lat="43.9860692" lon="11.2883405"><ele>256.0</ele><time>2026-05-02T12:37:51.909Z</time></trkpt><trkpt lat="43.9860829" lon="11.2882043"><ele>256.0</ele><time>2026-05-02T12:37:53.909Z</time></trkpt><trkpt lat="43.9860782" lon="11.2880496"><ele>256.0</ele><time>2026-05-02T12:37:55.909Z</time></trkpt><trkpt lat="43.9860727" lon="11.2879143"><ele>255.8</ele><time>2026-05-02T12:37:57.909Z</time></trkpt><trkpt lat="43.9860805" lon="11.2878207"><ele>255.60000000000002</ele><time>2026-05-02T12:37:59.909Z</time></trkpt><trkpt lat="43.9860735" lon="11.2877243"><ele>255.4</ele><time>2026-05-02T12:38:09.909Z</time></trkpt><trkpt lat="43.9860073" lon="11.2876415"><ele>255.2</ele><time>2026-05-02T12:38:11.909Z</time></trkpt><trkpt lat="43.9858684" lon="11.2875932"><ele>255.0</ele><time>2026-05-02T12:38:13.909Z</time></trkpt><trkpt lat="43.9857742" lon="11.2875698"><ele>255.0</ele><time>2026-05-02T12:38:14.909Z</time></trkpt><trkpt lat="43.9856717" lon="11.287545"><ele>255.0</ele><time>2026-05-02T12:38:15.909Z</time></trkpt><trkpt lat="43.9855464" lon="11.287524"><ele>255.0</ele><time>2026-05-02T12:38:16.909Z</time></trkpt><trkpt lat="43.985421" lon="11.287498"><ele>255.0</ele><time>2026-05-02T12:38:17.909Z</time></trkpt><trkpt lat="43.985283" lon="11.2874716"><ele>255.0</ele><time>2026-05-02T12:38:18.909Z</time></trkpt><trkpt lat="43.985118" lon="11.2874541"><ele>255.0</ele><time>2026-05-02T12:38:19.909Z</time></trkpt><trkpt lat="43.9849391" lon="11.2874509"><ele>255.0</ele><time>2026-05-02T12:38:20.909Z</time></trkpt><trkpt lat="43.9847405" lon="11.2874607"><ele>255.33333333333331</ele><time>2026-05-02T12:38:21.909Z</time></trkpt><trkpt lat="43.9845275" lon="11.2874715"><ele>255.66666666666666</ele><time>2026-05-02T12:38:22.909Z</time></trkpt><trkpt lat="43.984305" lon="11.2874811"><ele>256.0</ele><time>2026-05-02T12:38:23.909Z</time></trkpt><trkpt lat="43.984085" lon="11.2874846"><ele>256.0</ele><time>2026-05-02T12:38:24.909Z</time></trkpt><trkpt lat="43.9838735" lon="11.2874957"><ele>256.0</ele><time>2026-05-02T12:38:25.909Z</time></trkpt><trkpt lat="43.9836822" lon="11.28751"><ele>256.0</ele><time>2026-05-02T12:38:26.909Z</time></trkpt><trkpt lat="43.9835019" lon="11.2875253"><ele>255.0</ele><time>2026-05-02T12:38:27.909Z</time></trkpt><trkpt lat="43.9833378" lon="11.2875483"><ele>254.0</ele><time>2026-05-02T12:38:28.908Z</time></trkpt><trkpt lat="43.9831875" lon="11.2875886"><ele>253.0</ele><time>2026-05-02T12:38:29.908Z</time></trkpt><trkpt lat="43.9830508" lon="11.2876478"><ele>253.0</ele><time>2026-05-02T12:38:30.908Z</time></trkpt><trkpt lat="43.9829173" lon="11.2877434"><ele>253.0</ele><time>2026-05-02T12:38:31.908Z</time></trkpt><trkpt lat="43.9827847" lon="11.2878678"><ele>253.0</ele><time>2026-05-02T12:38:32.908Z</time></trkpt><trkpt lat="43.9826667" lon="11.2880021"><ele>253.0</ele><time>2026-05-02T12:38:33.908Z</time></trkpt><trkpt lat="43.9825545" lon="11.2881531"><ele>253.0</ele><time>2026-05-02T12:38:34.908Z</time></trkpt><trkpt lat="43.9824365" lon="11.2882982"><ele>253.0</ele><time>2026-05-02T12:38:35.908Z</time></trkpt><trkpt lat="43.9823088" lon="11.2884345"><ele>253.0</ele><time>2026-05-02T12:38:36.908Z</time></trkpt><trkpt lat="43.9821757" lon="11.2885791"><ele>253.0</ele><time>2026-05-02T12:38:37.908Z</time></trkpt><trkpt lat="43.9820443" lon="11.2887131"><ele>253.0</ele><time>2026-05-02T12:38:38.908Z</time></trkpt><trkpt lat="43.981899" lon="11.2888369"><ele>253.0</ele><time>2026-05-02T12:38:39.908Z</time></trkpt><trkpt lat="43.9817366" lon="11.2889222"><ele>253.0</ele><time>2026-05-02T12:38:40.908Z</time></trkpt><trkpt lat="43.9815699" lon="11.2889553"><ele>253.0</ele><time>2026-05-02T12:38:41.908Z</time></trkpt><trkpt lat="43.9814096" lon="11.2889352"><ele>253.0</ele><time>2026-05-02T12:38:42.908Z</time></trkpt><trkpt lat="43.9812567" lon="11.2888754"><ele>253.0</ele><time>2026-05-02T12:38:43.908Z</time></trkpt><trkpt lat="43.9811127" lon="11.2887776"><ele>253.0</ele><time>2026-05-02T12:38:44.908Z</time></trkpt><trkpt lat="43.9809803" lon="11.2886644"><ele>253.0</ele><time>2026-05-02T12:38:45.908Z</time></trkpt><trkpt lat="43.9808633" lon="11.2885328"><ele>253.0</ele><time>2026-05-02T12:38:46.908Z</time></trkpt><trkpt lat="43.9807889" lon="11.2883911"><ele>253.0</ele><time>2026-05-02T12:38:47.908Z</time></trkpt><trkpt lat="43.9807472" lon="11.2882557"><ele>253.0</ele><time>2026-05-02T12:38:48.908Z</time></trkpt><trkpt lat="43.9807407" lon="11.2881237"><ele>252.0</ele><time>2026-05-02T12:38:49.908Z</time></trkpt><trkpt lat="43.9807583" lon="11.287986"><ele>251.0</ele><time>2026-05-02T12:38:50.908Z</time></trkpt><trkpt lat="43.9808072" lon="11.2878505"><ele>250.0</ele><time>2026-05-02T12:38:51.908Z</time></trkpt><trkpt lat="43.9808934" lon="11.2877188"><ele>249.0</ele><time>2026-05-02T12:38:52.908Z</time></trkpt><trkpt lat="43.9810045" lon="11.2875986"><ele>249.0</ele><time>2026-05-02T12:38:53.908Z</time></trkpt><trkpt lat="43.9811329" lon="11.2874695"><ele>249.0</ele><time>2026-05-02T12:38:54.908Z</time></trkpt><trkpt lat="43.9812729" lon="11.2873189"><ele>249.0</ele><time>2026-05-02T12:38:55.908Z</time></trkpt><trkpt lat="43.9814182" lon="11.2871497"><ele>248.66666666666669</ele><time>2026-05-02T12:38:56.908Z</time></trkpt><trkpt lat="43.9815724" lon="11.2869628"><ele>248.33333333333334</ele><time>2026-05-02T12:38:57.908Z</time></trkpt><trkpt lat="43.9817157" lon="11.2867554"><ele>248.0</ele><time>2026-05-02T12:38:58.908Z</time></trkpt><trkpt lat="43.9818572" lon="11.2865227"><ele>249.0</ele><time>2026-05-02T12:38:59.908Z</time></trkpt><trkpt lat="43.9819866" lon="11.2862709"><ele>250.0</ele><time>2026-05-02T12:39:00.908Z</time></trkpt><trkpt lat="43.9821079" lon="11.2860163"><ele>251.0</ele><time>2026-05-02T12:39:01.908Z</time></trkpt><trkpt lat="43.9822115" lon="11.2857619"><ele>252.33333333333334</ele><time>2026-05-02T12:39:02.908Z</time></trkpt><trkpt lat="43.9822999" lon="11.285502"><ele>253.66666666666669</ele><time>2026-05-02T12:39:03.908Z</time></trkpt><trkpt lat="43.9823767" lon="11.2852541"><ele>255.0</ele><time>2026-05-02T12:39:04.908Z</time></trkpt><trkpt lat="43.9824491" lon="11.2850131"><ele>255.0</ele><time>2026-05-02T12:39:05.908Z</time></trkpt><trkpt lat="43.9825145" lon="11.2847737"><ele>255.0</ele><time>2026-05-02T12:39:06.908Z</time></trkpt><trkpt lat="43.9825575" lon="11.2845476"><ele>255.0</ele><time>2026-05-02T12:39:07.908Z</time></trkpt><trkpt lat="43.9825973" lon="11.2843113"><ele>260.0</ele><time>2026-05-02T12:39:08.908Z</time></trkpt><trkpt lat="43.982626" lon="11.2840899"><ele>265.0</ele><time>2026-05-02T12:39:09.908Z</time></trkpt><trkpt lat="43.9826459" lon="11.283861"><ele>270.0</ele><time>2026-05-02T12:39:10.908Z</time></trkpt><trkpt lat="43.9826658" lon="11.2836276"><ele>270.6666666666667</ele><time>2026-05-02T12:39:11.908Z</time></trkpt><trkpt lat="43.982688" lon="11.2833959"><ele>271.33333333333337</ele><time>2026-05-02T12:39:12.908Z</time></trkpt><trkpt lat="43.9827094" lon="11.2831627"><ele>272.0</ele><time>2026-05-02T12:39:13.908Z</time></trkpt><trkpt lat="43.9827216" lon="11.282915"><ele>272.33333333333337</ele><time>2026-05-02T12:39:14.908Z</time></trkpt><trkpt lat="43.9827274" lon="11.282653"><ele>272.6666666666667</ele><time>2026-05-02T12:39:15.908Z</time></trkpt><trkpt lat="43.9827409" lon="11.2824028"><ele>273.0</ele><time>2026-05-02T12:39:16.908Z</time></trkpt><trkpt lat="43.9827491" lon="11.2821516"><ele>274.0</ele><time>2026-05-02T12:39:17.908Z</time></trkpt><trkpt lat="43.9827503" lon="11.2819028"><ele>275.0</ele><time>2026-05-02T12:39:18.908Z</time></trkpt><trkpt lat="43.9827528" lon="11.2816566"><ele>276.0</ele><time>2026-05-02T12:39:19.908Z</time></trkpt><trkpt lat="43.9827443" lon="11.2814129"><ele>276.0</ele><time>2026-05-02T12:39:20.908Z</time></trkpt><trkpt lat="43.982743" lon="11.2811678"><ele>276.0</ele><time>2026-05-02T12:39:21.908Z</time></trkpt><trkpt lat="43.9827419" lon="11.2809318"><ele>276.0</ele><time>2026-05-02T12:39:22.908Z</time></trkpt><trkpt lat="43.9827436" lon="11.280697"><ele>268.3333333333333</ele><time>2026-05-02T12:39:23.908Z</time></trkpt><trkpt lat="43.982765" lon="11.2804611"><ele>260.66666666666663</ele><time>2026-05-02T12:39:24.908Z</time></trkpt><trkpt lat="43.9827926" lon="11.2802281"><ele>253.0</ele><time>2026-05-02T12:39:25.908Z</time></trkpt><trkpt lat="43.982832" lon="11.2799979"><ele>250.0</ele><time>2026-05-02T12:39:26.908Z</time></trkpt><trkpt lat="43.9828917" lon="11.2797619"><ele>247.0</ele><time>2026-05-02T12:39:27.908Z</time></trkpt><trkpt lat="43.9829548" lon="11.2795173"><ele>244.0</ele><time>2026-05-02T12:39:28.908Z</time></trkpt><trkpt lat="43.9830156" lon="11.2792642"><ele>244.0</ele><time>2026-05-02T12:39:29.908Z</time></trkpt><trkpt lat="43.9830641" lon="11.2790055"><ele>244.0</ele><time>2026-05-02T12:39:30.908Z</time></trkpt><trkpt lat="43.9831183" lon="11.2787361"><ele>244.0</ele><time>2026-05-02T12:39:31.908Z</time></trkpt><trkpt lat="43.983167" lon="11.2784596"><ele>243.0</ele><time>2026-05-02T12:39:32.908Z</time></trkpt><trkpt lat="43.983223" lon="11.2781725"><ele>242.0</ele><time>2026-05-02T12:39:33.908Z</time></trkpt><trkpt lat="43.983283" lon="11.2779028"><ele>241.0</ele><time>2026-05-02T12:39:34.908Z</time></trkpt><trkpt lat="43.9833459" lon="11.2776382"><ele>241.0</ele><time>2026-05-02T12:39:35.908Z</time></trkpt><trkpt lat="43.9833998" lon="11.2773874"><ele>241.0</ele><time>2026-05-02T12:39:36.908Z</time></trkpt><trkpt lat="43.9834474" lon="11.2771455"><ele>241.0</ele><time>2026-05-02T12:39:37.908Z</time></trkpt><trkpt lat="43.9835127" lon="11.276915"><ele>244.0</ele><time>2026-05-02T12:39:38.908Z</time></trkpt><trkpt lat="43.9835615" lon="11.2766891"><ele>247.0</ele><time>2026-05-02T12:39:39.908Z</time></trkpt><trkpt lat="43.9836012" lon="11.2764691"><ele>250.0</ele><time>2026-05-02T12:39:40.908Z</time></trkpt><trkpt lat="43.9836404" lon="11.276262"><ele>255.5</ele><time>2026-05-02T12:39:41.908Z</time></trkpt><trkpt lat="43.983686" lon="11.2760685"><ele>261.0</ele><time>2026-05-02T12:39:42.908Z</time></trkpt><trkpt lat="43.9837227" lon="11.275885"><ele>266.5</ele><time>2026-05-02T12:39:43.908Z</time></trkpt><trkpt lat="43.9837635" lon="11.2757022"><ele>272.0</ele><time>2026-05-02T12:39:44.908Z</time></trkpt><trkpt lat="43.9838084" lon="11.2755269"><ele>272.5</ele><time>2026-05-02T12:39:45.908Z</time></trkpt><trkpt lat="43.9838561" lon="11.2753638"><ele>273.0</ele><time>2026-05-02T12:39:46.908Z</time></trkpt><trkpt lat="43.9839146" lon="11.2751919"><ele>273.5</ele><time>2026-05-02T12:39:47.908Z</time></trkpt><trkpt lat="43.9839753" lon="11.2750305"><ele>274.0</ele><time>2026-05-02T12:39:48.908Z</time></trkpt><trkpt lat="43.9840392" lon="11.2748744"><ele>273.5</ele><time>2026-05-02T12:39:49.908Z</time></trkpt><trkpt lat="43.9841088" lon="11.2747327"><ele>273.0</ele><time>2026-05-02T12:39:50.908Z</time></trkpt><trkpt lat="43.9841888" lon="11.2746002"><ele>272.5</ele><time>2026-05-02T12:39:51.908Z</time></trkpt><trkpt lat="43.9842771" lon="11.2744776"><ele>272.0</ele><time>2026-05-02T12:39:52.908Z</time></trkpt><trkpt lat="43.9843674" lon="11.274367"><ele>274.75</ele><time>2026-05-02T12:39:53.908Z</time></trkpt><trkpt lat="43.9844647" lon="11.2742595"><ele>277.5</ele><time>2026-05-02T12:39:54.908Z</time></trkpt><trkpt lat="43.9845644" lon="11.274158"><ele>280.25</ele><time>2026-05-02T12:39:55.908Z</time></trkpt><trkpt lat="43.9846705" lon="11.2740653"><ele>283.0</ele><time>2026-05-02T12:39:56.908Z</time></trkpt><trkpt lat="43.9847805" lon="11.2739767"><ele>283.0</ele><time>2026-05-02T12:39:57.908Z</time></trkpt><trkpt lat="43.9848985" lon="11.2738934"><ele>283.0</ele><time>2026-05-02T12:39:58.908Z</time></trkpt><trkpt lat="43.9850161" lon="11.2738153"><ele>283.0</ele><time>2026-05-02T12:39:59.909Z</time></trkpt><trkpt lat="43.9851367" lon="11.2737436"><ele>283.0</ele><time>2026-05-02T12:40:00.908Z</time></trkpt><trkpt lat="43.9852566" lon="11.2736866"><ele>283.0</ele><time>2026-05-02T12:40:01.908Z</time></trkpt><trkpt lat="43.9853702" lon="11.2736347"><ele>283.0</ele><time>2026-05-02T12:40:02.909Z</time></trkpt><trkpt lat="43.9854825" lon="11.2736056"><ele>283.0</ele><time>2026-05-02T12:40:03.908Z</time></trkpt><trkpt lat="43.9855979" lon="11.2735826"><ele>283.0</ele><time>2026-05-02T12:40:04.908Z</time></trkpt><trkpt lat="43.9857038" lon="11.2735561"><ele>283.0</ele><time>2026-05-02T12:40:05.908Z</time></trkpt><trkpt lat="43.9857949" lon="11.2735078"><ele>283.0</ele><time>2026-05-02T12:40:06.908Z</time></trkpt><trkpt lat="43.985867" lon="11.2734051"><ele>283.0</ele><time>2026-05-02T12:40:07.908Z</time></trkpt><trkpt lat="43.9859158" lon="11.2732849"><ele>283.0</ele><time>2026-05-02T12:40:08.908Z</time></trkpt><trkpt lat="43.9859428" lon="11.2731559"><ele>283.0</ele><time>2026-05-02T12:40:09.908Z</time></trkpt><trkpt lat="43.9859702" lon="11.2730353"><ele>282.4</ele><time>2026-05-02T12:40:10.908Z</time></trkpt><trkpt lat="43.9860169" lon="11.2729243"><ele>281.8</ele><time>2026-05-02T12:40:11.908Z</time></trkpt><trkpt lat="43.9860822" lon="11.2728366"><ele>281.2</ele><time>2026-05-02T12:40:12.908Z</time></trkpt><trkpt lat="43.9861745" lon="11.2727663"><ele>280.6</ele><time>2026-05-02T12:40:13.908Z</time></trkpt><trkpt lat="43.9862816" lon="11.2727092"><ele>280.0</ele><time>2026-05-02T12:40:14.908Z</time></trkpt><trkpt lat="43.9863913" lon="11.2726517"><ele>280.0</ele><time>2026-05-02T12:40:15.908Z</time></trkpt><trkpt lat="43.986508" lon="11.2725816"><ele>280.0</ele><time>2026-05-02T12:40:16.908Z</time></trkpt><trkpt lat="43.9866183" lon="11.2725073"><ele>280.0</ele><time>2026-05-02T12:40:17.908Z</time></trkpt><trkpt lat="43.9867236" lon="11.272429"><ele>280.0</ele><time>2026-05-02T12:40:18.908Z</time></trkpt><trkpt lat="43.9868281" lon="11.2723473"><ele>279.0</ele><time>2026-05-02T12:40:19.908Z</time></trkpt><trkpt lat="43.9869433" lon="11.2722606"><ele>278.0</ele><time>2026-05-02T12:40:20.908Z</time></trkpt><trkpt lat="43.9870675" lon="11.2721552"><ele>277.0</ele><time>2026-05-02T12:40:21.908Z</time></trkpt><trkpt lat="43.9871937" lon="11.2720296"><ele>276.0</ele><time>2026-05-02T12:40:22.908Z</time></trkpt><trkpt lat="43.987313" lon="11.2718927"><ele>276.0</ele><time>2026-05-02T12:40:23.908Z</time></trkpt><trkpt lat="43.9874273" lon="11.2717394"><ele>276.0</ele><time>2026-05-02T12:40:24.908Z</time></trkpt><trkpt lat="43.9875366" lon="11.2715822"><ele>276.0</ele><time>2026-05-02T12:40:25.908Z</time></trkpt><trkpt lat="43.9876434" lon="11.2714186"><ele>274.3333333333333</ele><time>2026-05-02T12:40:26.908Z</time></trkpt><trkpt lat="43.9877518" lon="11.2712455"><ele>272.66666666666663</ele><time>2026-05-02T12:40:27.908Z</time></trkpt><trkpt lat="43.9878587" lon="11.271065"><ele>271.0</ele><time>2026-05-02T12:40:28.908Z</time></trkpt><trkpt lat="43.9879601" lon="11.2708762"><ele>271.0</ele><time>2026-05-02T12:40:29.908Z</time></trkpt><trkpt lat="43.9880534" lon="11.2706776"><ele>271.0</ele><time>2026-05-02T12:40:30.908Z</time></trkpt><trkpt lat="43.9881384" lon="11.2704686"><ele>271.0</ele><time>2026-05-02T12:40:31.908Z</time></trkpt><trkpt lat="43.988226" lon="11.2702533"><ele>270.66666666666663</ele><time>2026-05-02T12:40:32.908Z</time></trkpt><trkpt lat="43.9883039" lon="11.2700251"><ele>270.3333333333333</ele><time>2026-05-02T12:40:33.908Z</time></trkpt><trkpt lat="43.9883778" lon="11.269801"><ele>270.0</ele><time>2026-05-02T12:40:34.908Z</time></trkpt><trkpt lat="43.988446" lon="11.2695652"><ele>271.3333333333333</ele><time>2026-05-02T12:40:35.908Z</time></trkpt><trkpt lat="43.9885017" lon="11.2693394"><ele>272.66666666666663</ele><time>2026-05-02T12:40:36.908Z</time></trkpt><trkpt lat="43.9885559" lon="11.2691171"><ele>274.0</ele><time>2026-05-02T12:40:37.908Z</time></trkpt><trkpt lat="43.988605" lon="11.2689014"><ele>276.3333333333333</ele><time>2026-05-02T12:40:38.908Z</time></trkpt><trkpt lat="43.9886476" lon="11.2686822"><ele>278.6666666666667</ele><time>2026-05-02T12:40:39.908Z</time></trkpt><trkpt lat="43.9886859" lon="11.268455"><ele>281.0</ele><time>2026-05-02T12:40:40.908Z</time></trkpt><trkpt lat="43.9887102" lon="11.2682146"><ele>282.0</ele><time>2026-05-02T12:40:41.908Z</time></trkpt><trkpt lat="43.988728" lon="11.2679669"><ele>283.0</ele><time>2026-05-02T12:40:42.908Z</time></trkpt><trkpt lat="43.9887386" lon="11.2677245"><ele>284.0</ele><time>2026-05-02T12:40:43.908Z</time></trkpt><trkpt lat="43.9887465" lon="11.2674885"><ele>283.6666666666667</ele><time>2026-05-02T12:40:44.908Z</time></trkpt><trkpt lat="43.9887573" lon="11.2672642"><ele>283.3333333333333</ele><time>2026-05-02T12:40:45.908Z</time></trkpt><trkpt lat="43.9887637" lon="11.2670558"><ele>283.0</ele><time>2026-05-02T12:40:46.908Z</time></trkpt><trkpt lat="43.9887652" lon="11.2668535"><ele>283.0</ele><time>2026-05-02T12:40:47.908Z</time></trkpt><trkpt lat="43.9887559" lon="11.2666548"><ele>283.0</ele><time>2026-05-02T12:40:48.908Z</time></trkpt><trkpt lat="43.988746" lon="11.2664517"><ele>283.0</ele><time>2026-05-02T12:40:49.908Z</time></trkpt><trkpt lat="43.9887452" lon="11.2662503"><ele>283.0</ele><time>2026-05-02T12:40:50.908Z</time></trkpt><trkpt lat="43.9887476" lon="11.2660572"><ele>282.5</ele><time>2026-05-02T12:40:51.908Z</time></trkpt><trkpt lat="43.9887432" lon="11.265879"><ele>282.0</ele><time>2026-05-02T12:40:52.908Z</time></trkpt><trkpt lat="43.9887382" lon="11.265702"><ele>281.5</ele><time>2026-05-02T12:40:53.908Z</time></trkpt><trkpt lat="43.9887344" lon="11.2655257"><ele>281.0</ele><time>2026-05-02T12:40:54.908Z</time></trkpt><trkpt lat="43.988733" lon="11.2653412"><ele>279.25</ele><time>2026-05-02T12:40:55.908Z</time></trkpt><trkpt lat="43.9887287" lon="11.2651547"><ele>277.5</ele><time>2026-05-02T12:40:56.908Z</time></trkpt><trkpt lat="43.9887225" lon="11.2649606"><ele>275.75</ele><time>2026-05-02T12:40:57.908Z</time></trkpt><trkpt lat="43.9887166" lon="11.2647546"><ele>274.0</ele><time>2026-05-02T12:40:58.908Z</time></trkpt><trkpt lat="43.9887108" lon="11.2645342"><ele>270.66666666666663</ele><time>2026-05-02T12:40:59.908Z</time></trkpt><trkpt lat="43.9886963" lon="11.2643084"><ele>267.3333333333333</ele><time>2026-05-02T12:41:00.908Z</time></trkpt><trkpt lat="43.9886775" lon="11.264066"><ele>264.0</ele><time>2026-05-02T12:41:01.908Z</time></trkpt><trkpt lat="43.9886575" lon="11.2638224"><ele>258.3333333333333</ele><time>2026-05-02T12:41:02.908Z</time></trkpt><trkpt lat="43.9886366" lon="11.2635912"><ele>252.66666666666666</ele><time>2026-05-02T12:41:03.908Z</time></trkpt><trkpt lat="43.9886159" lon="11.2633815"><ele>247.0</ele><time>2026-05-02T12:41:04.908Z</time></trkpt><trkpt lat="43.9885882" lon="11.2631798"><ele>246.33333333333331</ele><time>2026-05-02T12:41:05.908Z</time></trkpt><trkpt lat="43.9885604" lon="11.2629631"><ele>245.66666666666669</ele><time>2026-05-02T12:41:06.908Z</time></trkpt><trkpt lat="43.988526" lon="11.2627279"><ele>245.0</ele><time>2026-05-02T12:41:07.908Z</time></trkpt><trkpt lat="43.9884784" lon="11.2624842"><ele>246.33333333333334</ele><time>2026-05-02T12:41:08.908Z</time></trkpt><trkpt lat="43.9884258" lon="11.2622306"><ele>247.66666666666669</ele><time>2026-05-02T12:41:09.908Z</time></trkpt><trkpt lat="43.9883646" lon="11.2619528"><ele>249.0</ele><time>2026-05-02T12:41:10.908Z</time></trkpt><trkpt lat="43.988296" lon="11.2616603"><ele>254.0</ele><time>2026-05-02T12:41:11.908Z</time></trkpt><trkpt lat="43.9882348" lon="11.2613636"><ele>259.0</ele><time>2026-05-02T12:41:12.908Z</time></trkpt><trkpt lat="43.988176" lon="11.2610926"><ele>264.0</ele><time>2026-05-02T12:41:13.908Z</time></trkpt><trkpt lat="43.9881215" lon="11.260843"><ele>265.0</ele><time>2026-05-02T12:41:14.908Z</time></trkpt><trkpt lat="43.9880684" lon="11.2606019"><ele>266.0</ele><time>2026-05-02T12:41:15.908Z</time></trkpt><trkpt lat="43.9880178" lon="11.2603627"><ele>267.0</ele><time>2026-05-02T12:41:16.908Z</time></trkpt><trkpt lat="43.9879629" lon="11.2601357"><ele>267.0</ele><time>2026-05-02T12:41:17.908Z</time></trkpt><trkpt lat="43.9879046" lon="11.259915"><ele>267.0</ele><time>2026-05-02T12:41:18.908Z</time></trkpt><trkpt lat="43.987843" lon="11.2597081"><ele>267.0</ele><time>2026-05-02T12:41:19.908Z</time></trkpt><trkpt lat="43.9877899" lon="11.2594976"><ele>270.3333333333333</ele><time>2026-05-02T12:41:20.908Z</time></trkpt><trkpt lat="43.9877299" lon="11.2592821"><ele>273.66666666666663</ele><time>2026-05-02T12:41:21.908Z</time></trkpt><trkpt lat="43.9876789" lon="11.2590743"><ele>277.0</ele><time>2026-05-02T12:41:22.908Z</time></trkpt><trkpt lat="43.9876332" lon="11.2588759"><ele>279.5</ele><time>2026-05-02T12:41:23.908Z</time></trkpt><trkpt lat="43.9875975" lon="11.2586801"><ele>282.0</ele><time>2026-05-02T12:41:24.908Z</time></trkpt><trkpt lat="43.9875773" lon="11.2584873"><ele>284.5</ele><time>2026-05-02T12:41:25.908Z</time></trkpt><trkpt lat="43.9875578" lon="11.2582949"><ele>287.0</ele><time>2026-05-02T12:41:26.908Z</time></trkpt><trkpt lat="43.9875434" lon="11.2581022"><ele>288.75</ele><time>2026-05-02T12:41:27.908Z</time></trkpt><trkpt lat="43.9875311" lon="11.2579065"><ele>290.5</ele><time>2026-05-02T12:41:28.908Z</time></trkpt><trkpt lat="43.9875273" lon="11.2577116"><ele>292.25</ele><time>2026-05-02T12:41:29.909Z</time></trkpt><trkpt lat="43.9875284" lon="11.2575025"><ele>294.0</ele><time>2026-05-02T12:41:30.908Z</time></trkpt><trkpt lat="43.9875386" lon="11.2572892"><ele>294.3333333333333</ele><time>2026-05-02T12:41:31.908Z</time></trkpt><trkpt lat="43.9875616" lon="11.2570748"><ele>294.66666666666663</ele><time>2026-05-02T12:41:32.908Z</time></trkpt><trkpt lat="43.9876019" lon="11.2568666"><ele>295.0</ele><time>2026-05-02T12:41:33.908Z</time></trkpt><trkpt lat="43.9876521" lon="11.2566519"><ele>293.66666666666663</ele><time>2026-05-02T12:41:34.908Z</time></trkpt><trkpt lat="43.9877068" lon="11.2564422"><ele>292.3333333333333</ele><time>2026-05-02T12:41:35.908Z</time></trkpt><trkpt lat="43.9877663" lon="11.2562396"><ele>291.0</ele><time>2026-05-02T12:41:36.908Z</time></trkpt><trkpt lat="43.9878295" lon="11.2560482"><ele>291.0</ele><time>2026-05-02T12:41:37.908Z</time></trkpt><trkpt lat="43.9878977" lon="11.2558515"><ele>291.0</ele><time>2026-05-02T12:41:38.908Z</time></trkpt><trkpt lat="43.9879766" lon="11.2556617"><ele>291.0</ele><time>2026-05-02T12:41:39.908Z</time></trkpt><trkpt lat="43.9880679" lon="11.2554801"><ele>291.3333333333333</ele><time>2026-05-02T12:41:40.908Z</time></trkpt><trkpt lat="43.9881663" lon="11.2553033"><ele>291.66666666666663</ele><time>2026-05-02T12:41:41.908Z</time></trkpt><trkpt lat="43.9882737" lon="11.2551414"><ele>292.0</ele><time>2026-05-02T12:41:42.908Z</time></trkpt><trkpt lat="43.9883752" lon="11.2549824"><ele>292.0</ele><time>2026-05-02T12:41:43.908Z</time></trkpt><trkpt lat="43.988482" lon="11.2548308"><ele>292.0</ele><time>2026-05-02T12:41:44.908Z</time></trkpt><trkpt lat="43.988598" lon="11.2546917"><ele>292.0</ele><time>2026-05-02T12:41:45.908Z</time></trkpt><trkpt lat="43.9887154" lon="11.2545459"><ele>290.3333333333333</ele><time>2026-05-02T12:41:46.909Z</time></trkpt><trkpt lat="43.988836" lon="11.2543998"><ele>288.6666666666667</ele><time>2026-05-02T12:41:47.908Z</time></trkpt><trkpt lat="43.9889527" lon="11.2542534"><ele>287.0</ele><time>2026-05-02T12:41:48.908Z</time></trkpt><trkpt lat="43.9890753" lon="11.2541014"><ele>287.33333333333337</ele><time>2026-05-02T12:41:49.908Z</time></trkpt><trkpt lat="43.9892045" lon="11.2539514"><ele>287.6666666666667</ele><time>2026-05-02T12:41:50.908Z</time></trkpt><trkpt lat="43.989328" lon="11.2538078"><ele>288.0</ele><time>2026-05-02T12:41:51.908Z</time></trkpt><trkpt lat="43.9894564" lon="11.2536605"><ele>288.0</ele><time>2026-05-02T12:41:52.908Z</time></trkpt><trkpt lat="43.98958" lon="11.2535124"><ele>288.0</ele><time>2026-05-02T12:41:53.908Z</time></trkpt><trkpt lat="43.9896985" lon="11.253365"><ele>288.0</ele><time>2026-05-02T12:41:54.908Z</time></trkpt><trkpt lat="43.9898222" lon="11.253225"><ele>288.3333333333333</ele><time>2026-05-02T12:41:55.908Z</time></trkpt><trkpt lat="43.9899452" lon="11.2530848"><ele>288.66666666666663</ele><time>2026-05-02T12:41:56.908Z</time></trkpt><trkpt lat="43.9900635" lon="11.2529485"><ele>289.0</ele><time>2026-05-02T12:41:57.908Z</time></trkpt><trkpt lat="43.9901888" lon="11.2528134"><ele>289.0</ele><time>2026-05-02T12:41:58.908Z</time></trkpt><trkpt lat="43.9903134" lon="11.2526713"><ele>289.0</ele><time>2026-05-02T12:41:59.908Z</time></trkpt><trkpt lat="43.9904431" lon="11.2525296"><ele>289.0</ele><time>2026-05-02T12:42:00.908Z</time></trkpt><trkpt lat="43.9905698" lon="11.2523803"><ele>288.3333333333333</ele><time>2026-05-02T12:42:01.908Z</time></trkpt><trkpt lat="43.9906935" lon="11.2522207"><ele>287.6666666666667</ele><time>2026-05-02T12:42:02.908Z</time></trkpt><trkpt lat="43.990809" lon="11.2520702"><ele>287.0</ele><time>2026-05-02T12:42:03.907Z</time></trkpt><trkpt lat="43.9909269" lon="11.2519209"><ele>287.0</ele><time>2026-05-02T12:42:04.907Z</time></trkpt><trkpt lat="43.9910466" lon="11.2517911"><ele>287.0</ele><time>2026-05-02T12:42:05.907Z</time></trkpt><trkpt lat="43.9911699" lon="11.251641"><ele>287.0</ele><time>2026-05-02T12:42:06.907Z</time></trkpt><trkpt lat="43.9912992" lon="11.2514847"><ele>285.33333333333337</ele><time>2026-05-02T12:42:07.907Z</time></trkpt><trkpt lat="43.9914282" lon="11.2513333"><ele>283.6666666666667</ele><time>2026-05-02T12:42:08.907Z</time></trkpt><trkpt lat="43.9915659" lon="11.2511856"><ele>282.0</ele><time>2026-05-02T12:42:09.907Z</time></trkpt><trkpt lat="43.9916958" lon="11.2510368"><ele>282.0</ele><time>2026-05-02T12:42:10.907Z</time></trkpt><trkpt lat="43.991817" lon="11.2508897"><ele>282.0</ele><time>2026-05-02T12:42:11.908Z</time></trkpt><trkpt lat="43.9919318" lon="11.2507444"><ele>282.0</ele><time>2026-05-02T12:42:12.907Z</time></trkpt><trkpt lat="43.9920374" lon="11.2505939"><ele>280.0</ele><time>2026-05-02T12:42:13.907Z</time></trkpt><trkpt lat="43.9921349" lon="11.2504409"><ele>278.0</ele><time>2026-05-02T12:42:14.907Z</time></trkpt><trkpt lat="43.9922274" lon="11.2502826"><ele>276.0</ele><time>2026-05-02T12:42:15.907Z</time></trkpt><trkpt lat="43.9923118" lon="11.2501294"><ele>274.0</ele><time>2026-05-02T12:42:16.907Z</time></trkpt><trkpt lat="43.9923837" lon="11.2499562"><ele>274.66666666666663</ele><time>2026-05-02T12:42:17.907Z</time></trkpt><trkpt lat="43.9924483" lon="11.2497681"><ele>275.3333333333333</ele><time>2026-05-02T12:42:18.907Z</time></trkpt><trkpt lat="43.9925124" lon="11.2495626"><ele>276.0</ele><time>2026-05-02T12:42:19.907Z</time></trkpt><trkpt lat="43.9925713" lon="11.2493531"><ele>276.0</ele><time>2026-05-02T12:42:20.907Z</time></trkpt><trkpt lat="43.9926166" lon="11.2491342"><ele>276.0</ele><time>2026-05-02T12:42:21.907Z</time></trkpt><trkpt lat="43.9926667" lon="11.2489147"><ele>276.0</ele><time>2026-05-02T12:42:22.907Z</time></trkpt><trkpt lat="43.9927068" lon="11.2486957"><ele>274.3333333333333</ele><time>2026-05-02T12:42:23.907Z</time></trkpt><trkpt lat="43.9927257" lon="11.2484706"><ele>272.66666666666663</ele><time>2026-05-02T12:42:24.907Z</time></trkpt><trkpt lat="43.9927357" lon="11.2482405"><ele>271.0</ele><time>2026-05-02T12:42:25.907Z</time></trkpt><trkpt lat="43.9927328" lon="11.2480066"><ele>269.66666666666663</ele><time>2026-05-02T12:42:26.907Z</time></trkpt><trkpt lat="43.9927282" lon="11.2477771"><ele>268.3333333333333</ele><time>2026-05-02T12:42:27.907Z</time></trkpt><trkpt lat="43.9927121" lon="11.2475588"><ele>267.0</ele><time>2026-05-02T12:42:28.907Z</time></trkpt><trkpt lat="43.9926908" lon="11.2473562"><ele>265.0</ele><time>2026-05-02T12:42:29.907Z</time></trkpt><trkpt lat="43.9926632" lon="11.2471541"><ele>263.0</ele><time>2026-05-02T12:42:30.907Z</time></trkpt><trkpt lat="43.9926234" lon="11.2469486"><ele>261.0</ele><time>2026-05-02T12:42:31.907Z</time></trkpt><trkpt lat="43.9925706" lon="11.2467469"><ele>260.3333333333333</ele><time>2026-05-02T12:42:32.907Z</time></trkpt><trkpt lat="43.9925034" lon="11.2465453"><ele>259.66666666666663</ele><time>2026-05-02T12:42:33.907Z</time></trkpt><trkpt lat="43.9924289" lon="11.246334"><ele>259.0</ele><time>2026-05-02T12:42:34.907Z</time></trkpt><trkpt lat="43.992356" lon="11.2461312"><ele>258.3333333333333</ele><time>2026-05-02T12:42:35.907Z</time></trkpt><trkpt lat="43.9922766" lon="11.2459266"><ele>257.6666666666667</ele><time>2026-05-02T12:42:36.907Z</time></trkpt><trkpt lat="43.9921901" lon="11.2457258"><ele>257.0</ele><time>2026-05-02T12:42:37.907Z</time></trkpt><trkpt lat="43.9921044" lon="11.2455423"><ele>256.0</ele><time>2026-05-02T12:42:38.907Z</time></trkpt><trkpt lat="43.9920186" lon="11.2453584"><ele>255.0</ele><time>2026-05-02T12:42:39.907Z</time></trkpt><trkpt lat="43.9919384" lon="11.2451629"><ele>254.0</ele><time>2026-05-02T12:42:40.907Z</time></trkpt><trkpt lat="43.9918562" lon="11.2449678"><ele>253.0</ele><time>2026-05-02T12:42:41.907Z</time></trkpt><trkpt lat="43.9917756" lon="11.2447706"><ele>252.0</ele><time>2026-05-02T12:42:42.907Z</time></trkpt><trkpt lat="43.9916885" lon="11.2445763"><ele>251.0</ele><time>2026-05-02T12:42:43.907Z</time></trkpt><trkpt lat="43.9915817" lon="11.2443727"><ele>251.0</ele><time>2026-05-02T12:42:44.907Z</time></trkpt><trkpt lat="43.9914708" lon="11.2441403"><ele>251.0</ele><time>2026-05-02T12:42:45.907Z</time></trkpt><trkpt lat="43.9913544" lon="11.2438861"><ele>251.0</ele><time>2026-05-02T12:42:46.907Z</time></trkpt><trkpt lat="43.991252" lon="11.2436427"><ele>250.33333333333334</ele><time>2026-05-02T12:42:47.907Z</time></trkpt><trkpt lat="43.9911572" lon="11.2434191"><ele>249.66666666666669</ele><time>2026-05-02T12:42:48.907Z</time></trkpt><trkpt lat="43.9910707" lon="11.2432003"><ele>249.0</ele><time>2026-05-02T12:42:49.907Z</time></trkpt><trkpt lat="43.9909881" lon="11.2429981"><ele>251.33333333333331</ele><time>2026-05-02T12:42:50.907Z</time></trkpt><trkpt lat="43.9909084" lon="11.2428063"><ele>253.66666666666666</ele><time>2026-05-02T12:42:51.907Z</time></trkpt><trkpt lat="43.9908277" lon="11.2426101"><ele>256.0</ele><time>2026-05-02T12:42:52.907Z</time></trkpt><trkpt lat="43.9907428" lon="11.242407"><ele>256.3333333333333</ele><time>2026-05-02T12:42:53.907Z</time></trkpt><trkpt lat="43.9906478" lon="11.2421882"><ele>256.6666666666667</ele><time>2026-05-02T12:42:54.907Z</time></trkpt><trkpt lat="43.9905393" lon="11.2419405"><ele>257.0</ele><time>2026-05-02T12:42:55.907Z</time></trkpt><trkpt lat="43.9904366" lon="11.2416925"><ele>257.0</ele><time>2026-05-02T12:42:56.907Z</time></trkpt><trkpt lat="43.9903379" lon="11.2414688"><ele>257.0</ele><time>2026-05-02T12:42:57.907Z</time></trkpt><trkpt lat="43.9902285" lon="11.2412253"><ele>257.0</ele><time>2026-05-02T12:42:58.907Z</time></trkpt><trkpt lat="43.9901177" lon="11.2409631"><ele>256.5</ele><time>2026-05-02T12:42:59.907Z</time></trkpt><trkpt lat="43.9900006" lon="11.2406822"><ele>256.0</ele><time>2026-05-02T12:43:00.907Z</time></trkpt><trkpt lat="43.9898945" lon="11.2404075"><ele>256.66666666666663</ele><time>2026-05-02T12:43:01.907Z</time></trkpt><trkpt lat="43.9897944" lon="11.2401546"><ele>257.3333333333333</ele><time>2026-05-02T12:43:02.907Z</time></trkpt><trkpt lat="43.9897034" lon="11.2399222"><ele>258.0</ele><time>2026-05-02T12:43:03.907Z</time></trkpt><trkpt lat="43.9896019" lon="11.2397025"><ele>258.3333333333333</ele><time>2026-05-02T12:43:04.907Z</time></trkpt><trkpt lat="43.9894981" lon="11.2394771"><ele>258.66666666666663</ele><time>2026-05-02T12:43:05.907Z</time></trkpt><trkpt lat="43.989389" lon="11.2392312"><ele>259.0</ele><time>2026-05-02T12:43:06.907Z</time></trkpt><trkpt lat="43.9892663" lon="11.2389462"><ele>258.0</ele><time>2026-05-02T12:43:07.907Z</time></trkpt><trkpt lat="43.9891507" lon="11.2386407"><ele>257.0</ele><time>2026-05-02T12:43:08.907Z</time></trkpt><trkpt lat="43.9890674" lon="11.2383231"><ele>257.5</ele><time>2026-05-02T12:43:09.907Z</time></trkpt><trkpt lat="43.9890036" lon="11.2380085"><ele>258.0</ele><time>2026-05-02T12:43:10.907Z</time></trkpt><trkpt lat="43.9889588" lon="11.2377167"><ele>258.0</ele><time>2026-05-02T12:43:11.907Z</time></trkpt><trkpt lat="43.9889378" lon="11.2374373"><ele>258.0</ele><time>2026-05-02T12:43:12.907Z</time></trkpt><trkpt lat="43.9889416" lon="11.2371573"><ele>258.0</ele><time>2026-05-02T12:43:13.907Z</time></trkpt><trkpt lat="43.9889625" lon="11.2368783"><ele>258.3333333333333</ele><time>2026-05-02T12:43:14.907Z</time></trkpt><trkpt lat="43.9889961" lon="11.2366112"><ele>258.66666666666663</ele><time>2026-05-02T12:43:15.907Z</time></trkpt><trkpt lat="43.9890221" lon="11.2363515"><ele>259.0</ele><time>2026-05-02T12:43:16.907Z</time></trkpt><trkpt lat="43.9890685" lon="11.236101"><ele>259.66666666666663</ele><time>2026-05-02T12:43:17.907Z</time></trkpt><trkpt lat="43.9891212" lon="11.2358529"><ele>260.3333333333333</ele><time>2026-05-02T12:43:18.907Z</time></trkpt><trkpt lat="43.9891862" lon="11.2355971"><ele>261.0</ele><time>2026-05-02T12:43:19.907Z</time></trkpt><trkpt lat="43.9892601" lon="11.2353574"><ele>261.0</ele><time>2026-05-02T12:43:20.907Z</time></trkpt><trkpt lat="43.9893455" lon="11.23512"><ele>261.0</ele><time>2026-05-02T12:43:21.907Z</time></trkpt><trkpt lat="43.9894389" lon="11.2348871"><ele>261.0</ele><time>2026-05-02T12:43:22.907Z</time></trkpt><trkpt lat="43.989522" lon="11.2346623"><ele>260.6666666666667</ele><time>2026-05-02T12:43:23.907Z</time></trkpt><trkpt lat="43.9896092" lon="11.2344599"><ele>260.33333333333337</ele><time>2026-05-02T12:43:24.907Z</time></trkpt><trkpt lat="43.9896741" lon="11.2342762"><ele>260.0</ele><time>2026-05-02T12:43:25.907Z</time></trkpt><trkpt lat="43.989738" lon="11.2340848"><ele>259.6666666666667</ele><time>2026-05-02T12:43:26.907Z</time></trkpt><trkpt lat="43.9898129" lon="11.2338978"><ele>259.3333333333333</ele><time>2026-05-02T12:43:27.907Z</time></trkpt><trkpt lat="43.9898965" lon="11.2337048"><ele>259.0</ele><time>2026-05-02T12:43:28.907Z</time></trkpt><trkpt lat="43.9899736" lon="11.2335124"><ele>259.66666666666663</ele><time>2026-05-02T12:43:29.907Z</time></trkpt><trkpt lat="43.9900536" lon="11.2333097"><ele>260.3333333333333</ele><time>2026-05-02T12:43:30.907Z</time></trkpt><trkpt lat="43.9901324" lon="11.2331116"><ele>261.0</ele><time>2026-05-02T12:43:31.907Z</time></trkpt><trkpt lat="43.9902151" lon="11.2329145"><ele>261.0</ele><time>2026-05-02T12:43:32.907Z</time></trkpt><trkpt lat="43.9902968" lon="11.2326986"><ele>261.0</ele><time>2026-05-02T12:43:33.907Z</time></trkpt><trkpt lat="43.9903771" lon="11.2324819"><ele>261.0</ele><time>2026-05-02T12:43:34.907Z</time></trkpt><trkpt lat="43.9904399" lon="11.2322682"><ele>260.6666666666667</ele><time>2026-05-02T12:43:35.907Z</time></trkpt><trkpt lat="43.9904913" lon="11.2320479"><ele>260.33333333333337</ele><time>2026-05-02T12:43:36.907Z</time></trkpt><trkpt lat="43.9905365" lon="11.2318169"><ele>260.0</ele><time>2026-05-02T12:43:37.907Z</time></trkpt><trkpt lat="43.990576" lon="11.2315738"><ele>260.6666666666667</ele><time>2026-05-02T12:43:38.907Z</time></trkpt><trkpt lat="43.9906023" lon="11.2313432"><ele>261.3333333333333</ele><time>2026-05-02T12:43:39.907Z</time></trkpt><trkpt lat="43.99062" lon="11.2311167"><ele>262.0</ele><time>2026-05-02T12:43:40.907Z</time></trkpt><trkpt lat="43.9906214" lon="11.2308899"><ele>262.0</ele><time>2026-05-02T12:43:41.907Z</time></trkpt><trkpt lat="43.9906113" lon="11.2306604"><ele>262.0</ele><time>2026-05-02T12:43:42.907Z</time></trkpt><trkpt lat="43.9905854" lon="11.2304235"><ele>262.0</ele><time>2026-05-02T12:43:43.907Z</time></trkpt><trkpt lat="43.9905446" lon="11.230187"><ele>262.0</ele><time>2026-05-02T12:43:44.907Z</time></trkpt><trkpt lat="43.9904904" lon="11.229941"><ele>262.0</ele><time>2026-05-02T12:43:45.907Z</time></trkpt><trkpt lat="43.9904331" lon="11.2297101"><ele>262.0</ele><time>2026-05-02T12:43:46.907Z</time></trkpt><trkpt lat="43.990373" lon="11.2294804"><ele>262.0</ele><time>2026-05-02T12:43:47.907Z</time></trkpt><trkpt lat="43.9902928" lon="11.2292484"><ele>262.0</ele><time>2026-05-02T12:43:48.907Z</time></trkpt><trkpt lat="43.9902031" lon="11.2290318"><ele>262.0</ele><time>2026-05-02T12:43:49.907Z</time></trkpt><trkpt lat="43.9900949" lon="11.2288118"><ele>264.3333333333333</ele><time>2026-05-02T12:43:50.907Z</time></trkpt><trkpt lat="43.9899843" lon="11.2286048"><ele>266.6666666666667</ele><time>2026-05-02T12:43:51.907Z</time></trkpt><trkpt lat="43.9898596" lon="11.2284085"><ele>269.0</ele><time>2026-05-02T12:43:52.907Z</time></trkpt><trkpt lat="43.9897192" lon="11.22822"><ele>270.0</ele><time>2026-05-02T12:43:53.907Z</time></trkpt><trkpt lat="43.989563" lon="11.2280444"><ele>271.0</ele><time>2026-05-02T12:43:54.907Z</time></trkpt><trkpt lat="43.9893846" lon="11.2278665"><ele>272.0</ele><time>2026-05-02T12:43:55.907Z</time></trkpt><trkpt lat="43.9891968" lon="11.2277093"><ele>273.0</ele><time>2026-05-02T12:43:56.907Z</time></trkpt><trkpt lat="43.9889923" lon="11.2275659"><ele>274.0</ele><time>2026-05-02T12:43:57.907Z</time></trkpt><trkpt lat="43.9887816" lon="11.2274341"><ele>274.0</ele><time>2026-05-02T12:43:58.907Z</time></trkpt><trkpt lat="43.9885694" lon="11.2273123"><ele>274.0</ele><time>2026-05-02T12:43:59.907Z</time></trkpt><trkpt lat="43.9883698" lon="11.2271963"><ele>274.0</ele><time>2026-05-02T12:44:00.907Z</time></trkpt><trkpt lat="43.9881868" lon="11.2270918"><ele>276.3333333333333</ele><time>2026-05-02T12:44:01.907Z</time></trkpt><trkpt lat="43.9880163" lon="11.2269998"><ele>278.6666666666667</ele><time>2026-05-02T12:44:02.907Z</time></trkpt><trkpt lat="43.9878529" lon="11.2269079"><ele>281.0</ele><time>2026-05-02T12:44:03.907Z</time></trkpt><trkpt lat="43.9877034" lon="11.2268031"><ele>281.0</ele><time>2026-05-02T12:44:04.907Z</time></trkpt><trkpt lat="43.9875515" lon="11.2266884"><ele>281.0</ele><time>2026-05-02T12:44:05.907Z</time></trkpt><trkpt lat="43.9874134" lon="11.2265548"><ele>281.0</ele><time>2026-05-02T12:44:06.907Z</time></trkpt><trkpt lat="43.9872827" lon="11.2264091"><ele>282.6666666666667</ele><time>2026-05-02T12:44:07.907Z</time></trkpt><trkpt lat="43.9871526" lon="11.2262412"><ele>284.3333333333333</ele><time>2026-05-02T12:44:08.907Z</time></trkpt><trkpt lat="43.9870201" lon="11.2260716"><ele>286.0</ele><time>2026-05-02T12:44:09.907Z</time></trkpt><trkpt lat="43.9868939" lon="11.2258951"><ele>286.0</ele><time>2026-05-02T12:44:10.907Z</time></trkpt><trkpt lat="43.9867738" lon="11.22571"><ele>286.0</ele><time>2026-05-02T12:44:11.907Z</time></trkpt><trkpt lat="43.9866601" lon="11.2255312"><ele>286.0</ele><time>2026-05-02T12:44:12.907Z</time></trkpt><trkpt lat="43.98655" lon="11.2253522"><ele>285.66666666666663</ele><time>2026-05-02T12:44:13.907Z</time></trkpt><trkpt lat="43.9864405" lon="11.2251695"><ele>285.3333333333333</ele><time>2026-05-02T12:44:14.907Z</time></trkpt><trkpt lat="43.9863328" lon="11.2249842"><ele>285.0</ele><time>2026-05-02T12:44:15.907Z</time></trkpt><trkpt lat="43.9862218" lon="11.2247926"><ele>284.0</ele><time>2026-05-02T12:44:16.907Z</time></trkpt><trkpt lat="43.9861172" lon="11.2245984"><ele>283.0</ele><time>2026-05-02T12:44:17.907Z</time></trkpt><trkpt lat="43.9860063" lon="11.2244038"><ele>282.0</ele><time>2026-05-02T12:44:18.907Z</time></trkpt><trkpt lat="43.9858959" lon="11.2242084"><ele>281.6666666666667</ele><time>2026-05-02T12:44:19.907Z</time></trkpt><trkpt lat="43.9857873" lon="11.2240195"><ele>281.33333333333337</ele><time>2026-05-02T12:44:20.907Z</time></trkpt><trkpt lat="43.9856723" lon="11.2238303"><ele>281.0</ele><time>2026-05-02T12:44:21.907Z</time></trkpt><trkpt lat="43.9855658" lon="11.223642"><ele>279.33333333333337</ele><time>2026-05-02T12:44:22.907Z</time></trkpt><trkpt lat="43.9854602" lon="11.2234537"><ele>277.6666666666667</ele><time>2026-05-02T12:44:23.907Z</time></trkpt><trkpt lat="43.98535" lon="11.2232576"><ele>276.0</ele><time>2026-05-02T12:44:24.907Z</time></trkpt><trkpt lat="43.9852307" lon="11.2230592"><ele>275.3333333333333</ele><time>2026-05-02T12:44:25.907Z</time></trkpt><trkpt lat="43.9851176" lon="11.2228643"><ele>274.66666666666663</ele><time>2026-05-02T12:44:26.907Z</time></trkpt><trkpt lat="43.9849931" lon="11.2226536"><ele>274.0</ele><time>2026-05-02T12:44:27.907Z</time></trkpt><trkpt lat="43.984873" lon="11.2224456"><ele>273.3333333333333</ele><time>2026-05-02T12:44:28.907Z</time></trkpt><trkpt lat="43.9847555" lon="11.2222419"><ele>272.6666666666667</ele><time>2026-05-02T12:44:29.907Z</time></trkpt><trkpt lat="43.9846314" lon="11.2220391"><ele>272.0</ele><time>2026-05-02T12:44:30.907Z</time></trkpt><trkpt lat="43.9845082" lon="11.2218285"><ele>272.0</ele><time>2026-05-02T12:44:31.907Z</time></trkpt><trkpt lat="43.9843944" lon="11.2216282"><ele>272.0</ele><time>2026-05-02T12:44:32.907Z</time></trkpt><trkpt lat="43.9842938" lon="11.2214389"><ele>272.0</ele><time>2026-05-02T12:44:33.907Z</time></trkpt><trkpt lat="43.9841962" lon="11.2212484"><ele>272.0</ele><time>2026-05-02T12:44:34.907Z</time></trkpt><trkpt lat="43.9840978" lon="11.2210545"><ele>272.0</ele><time>2026-05-02T12:44:35.907Z</time></trkpt><trkpt lat="43.9840038" lon="11.2208554"><ele>272.0</ele><time>2026-05-02T12:44:36.907Z</time></trkpt><trkpt lat="43.9839069" lon="11.2206534"><ele>272.0</ele><time>2026-05-02T12:44:37.907Z</time></trkpt><trkpt lat="43.9838141" lon="11.220439"><ele>272.0</ele><time>2026-05-02T12:44:38.907Z</time></trkpt><trkpt lat="43.9837201" lon="11.2202346"><ele>272.0</ele><time>2026-05-02T12:44:39.907Z</time></trkpt><trkpt lat="43.9836314" lon="11.2200314"><ele>272.0</ele><time>2026-05-02T12:44:40.907Z</time></trkpt><trkpt lat="43.9835407" lon="11.2198299"><ele>272.0</ele><time>2026-05-02T12:44:41.907Z</time></trkpt><trkpt lat="43.9834515" lon="11.2196236"><ele>272.0</ele><time>2026-05-02T12:44:42.907Z</time></trkpt><trkpt lat="43.9833555" lon="11.2194178"><ele>270.0</ele><time>2026-05-02T12:44:43.907Z</time></trkpt><trkpt lat="43.9832513" lon="11.219208"><ele>268.0</ele><time>2026-05-02T12:44:44.907Z</time></trkpt><trkpt lat="43.9831486" lon="11.2189974"><ele>266.0</ele><time>2026-05-02T12:44:45.907Z</time></trkpt><trkpt lat="43.9830543" lon="11.2187877"><ele>266.0</ele><time>2026-05-02T12:44:46.907Z</time></trkpt><trkpt lat="43.9829603" lon="11.2185822"><ele>266.0</ele><time>2026-05-02T12:44:47.907Z</time></trkpt><trkpt lat="43.9828729" lon="11.2183811"><ele>266.0</ele><time>2026-05-02T12:44:48.907Z</time></trkpt><trkpt lat="43.9827862" lon="11.2181812"><ele>266.33333333333337</ele><time>2026-05-02T12:44:49.907Z</time></trkpt><trkpt lat="43.9826973" lon="11.2179846"><ele>266.6666666666667</ele><time>2026-05-02T12:44:50.907Z</time></trkpt><trkpt lat="43.9826094" lon="11.2177943"><ele>267.0</ele><time>2026-05-02T12:44:51.907Z</time></trkpt><trkpt lat="43.9825273" lon="11.2176227"><ele>267.0</ele><time>2026-05-02T12:44:52.907Z</time></trkpt><trkpt lat="43.9824582" lon="11.2174692"><ele>267.0</ele><time>2026-05-02T12:44:53.907Z</time></trkpt><trkpt lat="43.9823928" lon="11.2173312"><ele>267.0</ele><time>2026-05-02T12:44:54.907Z</time></trkpt><trkpt lat="43.9823411" lon="11.2172202"><ele>267.0</ele><time>2026-05-02T12:44:55.907Z</time></trkpt><trkpt lat="43.9822995" lon="11.2171287"><ele>267.0</ele><time>2026-05-02T12:44:56.907Z</time></trkpt><trkpt lat="43.9822441" lon="11.2169877"><ele>267.4</ele><time>2026-05-02T12:44:58.907Z</time></trkpt><trkpt lat="43.982212" lon="11.2168928"><ele>267.79999999999995</ele><time>2026-05-02T12:45:00.907Z</time></trkpt><trkpt lat="43.982202" lon="11.2167667"><ele>268.2</ele><time>2026-05-02T12:45:03.907Z</time></trkpt><trkpt lat="43.9822152" lon="11.2165814"><ele>268.59999999999997</ele><time>2026-05-02T12:45:05.907Z</time></trkpt><trkpt lat="43.982212" lon="11.2164568"><ele>269.0</ele><time>2026-05-02T12:45:06.907Z</time></trkpt><trkpt lat="43.9821781" lon="11.2163427"><ele>270.2</ele><time>2026-05-02T12:45:07.907Z</time></trkpt><trkpt lat="43.9821207" lon="11.2162532"><ele>271.4</ele><time>2026-05-02T12:45:08.907Z</time></trkpt><trkpt lat="43.9820188" lon="11.2162408"><ele>272.6</ele><time>2026-05-02T12:45:09.907Z</time></trkpt><trkpt lat="43.9819171" lon="11.2162678"><ele>273.8</ele><time>2026-05-02T12:45:10.907Z</time></trkpt><trkpt lat="43.9818304" lon="11.2163485"><ele>275.0</ele><time>2026-05-02T12:45:11.907Z</time></trkpt><trkpt lat="43.9817613" lon="11.2164721"><ele>275.25</ele><time>2026-05-02T12:45:12.907Z</time></trkpt><trkpt lat="43.9816896" lon="11.2166127"><ele>275.5</ele><time>2026-05-02T12:45:13.907Z</time></trkpt><trkpt lat="43.9816184" lon="11.2167631"><ele>275.75</ele><time>2026-05-02T12:45:14.907Z</time></trkpt><trkpt lat="43.9815371" lon="11.2169034"><ele>276.0</ele><time>2026-05-02T12:45:15.907Z</time></trkpt><trkpt lat="43.9814412" lon="11.2170305"><ele>276.0</ele><time>2026-05-02T12:45:16.907Z</time></trkpt><trkpt lat="43.98134" lon="11.2171503"><ele>276.0</ele><time>2026-05-02T12:45:17.907Z</time></trkpt><trkpt lat="43.9812409" lon="11.2172736"><ele>276.0</ele><time>2026-05-02T12:45:18.907Z</time></trkpt><trkpt lat="43.9811501" lon="11.2173992"><ele>276.0</ele><time>2026-05-02T12:45:19.907Z</time></trkpt><trkpt lat="43.9810624" lon="11.2175262"><ele>274.5</ele><time>2026-05-02T12:45:20.907Z</time></trkpt><trkpt lat="43.9809776" lon="11.2176608"><ele>273.0</ele><time>2026-05-02T12:45:21.907Z</time></trkpt><trkpt lat="43.9808937" lon="11.2178013"><ele>271.5</ele><time>2026-05-02T12:45:22.907Z</time></trkpt><trkpt lat="43.9808155" lon="11.2179464"><ele>270.0</ele><time>2026-05-02T12:45:23.907Z</time></trkpt><trkpt lat="43.9807463" lon="11.2181087"><ele>269.75</ele><time>2026-05-02T12:45:24.907Z</time></trkpt><trkpt lat="43.9806975" lon="11.2182947"><ele>269.5</ele><time>2026-05-02T12:45:25.907Z</time></trkpt><trkpt lat="43.9806768" lon="11.218492"><ele>269.25</ele><time>2026-05-02T12:45:26.907Z</time></trkpt><trkpt lat="43.9806605" lon="11.2186959"><ele>269.0</ele><time>2026-05-02T12:45:27.907Z</time></trkpt><trkpt lat="43.9806484" lon="11.2188906"><ele>268.5</ele><time>2026-05-02T12:45:28.907Z</time></trkpt><trkpt lat="43.9806333" lon="11.219085"><ele>268.0</ele><time>2026-05-02T12:45:29.907Z</time></trkpt><trkpt lat="43.9806108" lon="11.2192807"><ele>267.5</ele><time>2026-05-02T12:45:30.907Z</time></trkpt><trkpt lat="43.9805825" lon="11.2194828"><ele>267.0</ele><time>2026-05-02T12:45:31.907Z</time></trkpt><trkpt lat="43.9805564" lon="11.2196818"><ele>266.3333333333333</ele><time>2026-05-02T12:45:32.907Z</time></trkpt><trkpt lat="43.9805311" lon="11.2198894"><ele>265.66666666666663</ele><time>2026-05-02T12:45:33.907Z</time></trkpt><trkpt lat="43.9805084" lon="11.2201019"><ele>265.0</ele><time>2026-05-02T12:45:34.907Z</time></trkpt><trkpt lat="43.9804779" lon="11.2203106"><ele>265.0</ele><time>2026-05-02T12:45:35.907Z</time></trkpt><trkpt lat="43.9804487" lon="11.2205177"><ele>265.0</ele><time>2026-05-02T12:45:36.907Z</time></trkpt><trkpt lat="43.9804162" lon="11.2207124"><ele>265.0</ele><time>2026-05-02T12:45:37.907Z</time></trkpt><trkpt lat="43.9803889" lon="11.2209035"><ele>265.0</ele><time>2026-05-02T12:45:38.907Z</time></trkpt><trkpt lat="43.9803577" lon="11.2210894"><ele>264.5</ele><time>2026-05-02T12:45:39.907Z</time></trkpt><trkpt lat="43.9803267" lon="11.2212761"><ele>264.0</ele><time>2026-05-02T12:45:40.907Z</time></trkpt><trkpt lat="43.98029" lon="11.221473"><ele>263.5</ele><time>2026-05-02T12:45:41.907Z</time></trkpt><trkpt lat="43.9802555" lon="11.2216664"><ele>263.0</ele><time>2026-05-02T12:45:42.907Z</time></trkpt><trkpt lat="43.9802278" lon="11.2218588"><ele>262.75</ele><time>2026-05-02T12:45:43.908Z</time></trkpt><trkpt lat="43.9801968" lon="11.2220428"><ele>262.5</ele><time>2026-05-02T12:45:44.907Z</time></trkpt><trkpt lat="43.980167" lon="11.2222051"><ele>262.25</ele><time>2026-05-02T12:45:45.907Z</time></trkpt><trkpt lat="43.980136" lon="11.2223561"><ele>262.0</ele><time>2026-05-02T12:45:46.907Z</time></trkpt><trkpt lat="43.9801088" lon="11.2225053"><ele>262.5</ele><time>2026-05-02T12:45:47.907Z</time></trkpt><trkpt lat="43.9800906" lon="11.2226618"><ele>263.0</ele><time>2026-05-02T12:45:48.907Z</time></trkpt><trkpt lat="43.9800863" lon="11.2228298"><ele>263.5</ele><time>2026-05-02T12:45:49.906Z</time></trkpt><trkpt lat="43.9800936" lon="11.2230052"><ele>264.0</ele><time>2026-05-02T12:45:50.906Z</time></trkpt><trkpt lat="43.9801128" lon="11.2231737"><ele>264.0</ele><time>2026-05-02T12:45:51.906Z</time></trkpt><trkpt lat="43.9801572" lon="11.223329"><ele>264.0</ele><time>2026-05-02T12:45:52.906Z</time></trkpt><trkpt lat="43.9802149" lon="11.2234669"><ele>264.0</ele><time>2026-05-02T12:45:53.906Z</time></trkpt><trkpt lat="43.9802934" lon="11.2235861"><ele>264.0</ele><time>2026-05-02T12:45:54.906Z</time></trkpt><trkpt lat="43.9803918" lon="11.2236799"><ele>264.0</ele><time>2026-05-02T12:45:55.906Z</time></trkpt><trkpt lat="43.9805096" lon="11.2237529"><ele>264.0</ele><time>2026-05-02T12:45:56.906Z</time></trkpt><trkpt lat="43.9806345" lon="11.2238236"><ele>264.0</ele><time>2026-05-02T12:45:57.906Z</time></trkpt><trkpt lat="43.9807607" lon="11.2238922"><ele>264.0</ele><time>2026-05-02T12:45:58.906Z</time></trkpt><trkpt lat="43.9808799" lon="11.2239643"><ele>264.75</ele><time>2026-05-02T12:45:59.906Z</time></trkpt><trkpt lat="43.9809727" lon="11.2240531"><ele>265.5</ele><time>2026-05-02T12:46:00.906Z</time></trkpt><trkpt lat="43.9810522" lon="11.224169"><ele>266.25</ele><time>2026-05-02T12:46:01.906Z</time></trkpt><trkpt lat="43.9811207" lon="11.2243117"><ele>267.0</ele><time>2026-05-02T12:46:02.906Z</time></trkpt><trkpt lat="43.9811617" lon="11.2244788"><ele>267.0</ele><time>2026-05-02T12:46:03.906Z</time></trkpt><trkpt lat="43.9811683" lon="11.2246619"><ele>267.0</ele><time>2026-05-02T12:46:04.906Z</time></trkpt><trkpt lat="43.9811467" lon="11.224851"><ele>267.0</ele><time>2026-05-02T12:46:05.906Z</time></trkpt><trkpt lat="43.9810877" lon="11.2250316"><ele>267.0</ele><time>2026-05-02T12:46:06.906Z</time></trkpt><trkpt lat="43.9810189" lon="11.2252205"><ele>267.5</ele><time>2026-05-02T12:46:07.906Z</time></trkpt><trkpt lat="43.9809534" lon="11.2253997"><ele>268.0</ele><time>2026-05-02T12:46:08.906Z</time></trkpt><trkpt lat="43.9808879" lon="11.2255545"><ele>268.5</ele><time>2026-05-02T12:46:09.906Z</time></trkpt><trkpt lat="43.9808238" lon="11.2256909"><ele>269.0</ele><time>2026-05-02T12:46:10.906Z</time></trkpt><trkpt lat="43.9807519" lon="11.2258045"><ele>266.75</ele><time>2026-05-02T12:46:11.906Z</time></trkpt><trkpt lat="43.980658" lon="11.2259042"><ele>264.5</ele><time>2026-05-02T12:46:12.906Z</time></trkpt><trkpt lat="43.9805418" lon="11.2259699"><ele>262.25</ele><time>2026-05-02T12:46:13.906Z</time></trkpt><trkpt lat="43.9804106" lon="11.2260065"><ele>260.0</ele><time>2026-05-02T12:46:14.906Z</time></trkpt><trkpt lat="43.9802571" lon="11.2259988"><ele>260.0</ele><time>2026-05-02T12:46:15.906Z</time></trkpt><trkpt lat="43.980084" lon="11.2259483"><ele>260.0</ele><time>2026-05-02T12:46:16.906Z</time></trkpt><trkpt lat="43.9799016" lon="11.2258551"><ele>260.0</ele><time>2026-05-02T12:46:17.906Z</time></trkpt><trkpt lat="43.9797112" lon="11.225729"><ele>260.0</ele><time>2026-05-02T12:46:18.906Z</time></trkpt><trkpt lat="43.9795283" lon="11.2256158"><ele>260.0</ele><time>2026-05-02T12:46:19.906Z</time></trkpt><trkpt lat="43.9793644" lon="11.2255183"><ele>260.0</ele><time>2026-05-02T12:46:20.906Z</time></trkpt><trkpt lat="43.9792092" lon="11.2254229"><ele>260.6666666666667</ele><time>2026-05-02T12:46:21.906Z</time></trkpt><trkpt lat="43.9790637" lon="11.2253284"><ele>261.3333333333333</ele><time>2026-05-02T12:46:22.906Z</time></trkpt><trkpt lat="43.9789117" lon="11.2252522"><ele>262.0</ele><time>2026-05-02T12:46:23.906Z</time></trkpt><trkpt lat="43.9787577" lon="11.2251752"><ele>262.0</ele><time>2026-05-02T12:46:24.906Z</time></trkpt><trkpt lat="43.9785916" lon="11.225101"><ele>262.0</ele><time>2026-05-02T12:46:25.906Z</time></trkpt><trkpt lat="43.9784116" lon="11.2250184"><ele>262.0</ele><time>2026-05-02T12:46:26.906Z</time></trkpt><trkpt lat="43.978227" lon="11.2249379"><ele>263.3333333333333</ele><time>2026-05-02T12:46:27.906Z</time></trkpt><trkpt lat="43.9780574" lon="11.2248584"><ele>264.6666666666667</ele><time>2026-05-02T12:46:28.906Z</time></trkpt><trkpt lat="43.9778997" lon="11.2247926"><ele>266.0</ele><time>2026-05-02T12:46:29.906Z</time></trkpt><trkpt lat="43.9777427" lon="11.2247249"><ele>268.0</ele><time>2026-05-02T12:46:30.906Z</time></trkpt><trkpt lat="43.9775903" lon="11.2246537"><ele>270.0</ele><time>2026-05-02T12:46:31.906Z</time></trkpt><trkpt lat="43.9774276" lon="11.2245917"><ele>272.0</ele><time>2026-05-02T12:46:32.906Z</time></trkpt><trkpt lat="43.9772677" lon="11.2245214"><ele>274.33333333333337</ele><time>2026-05-02T12:46:33.906Z</time></trkpt><trkpt lat="43.9771123" lon="11.2244452"><ele>276.6666666666667</ele><time>2026-05-02T12:46:34.906Z</time></trkpt><trkpt lat="43.9769608" lon="11.2243734"><ele>279.0</ele><time>2026-05-02T12:46:35.906Z</time></trkpt><trkpt lat="43.9768107" lon="11.2243154"><ele>279.0</ele><time>2026-05-02T12:46:36.906Z</time></trkpt><trkpt lat="43.9766578" lon="11.224252"><ele>279.0</ele><time>2026-05-02T12:46:37.906Z</time></trkpt><trkpt lat="43.9765103" lon="11.2241931"><ele>279.0</ele><time>2026-05-02T12:46:38.906Z</time></trkpt><trkpt lat="43.9763709" lon="11.2241206"><ele>279.0</ele><time>2026-05-02T12:46:39.906Z</time></trkpt><trkpt lat="43.9762458" lon="11.2240203"><ele>279.0</ele><time>2026-05-02T12:46:40.906Z</time></trkpt><trkpt lat="43.9761354" lon="11.2238734"><ele>279.0</ele><time>2026-05-02T12:46:41.906Z</time></trkpt><trkpt lat="43.9760556" lon="11.2236829"><ele>283.0</ele><time>2026-05-02T12:46:42.906Z</time></trkpt><trkpt lat="43.9760211" lon="11.2234752"><ele>287.0</ele><time>2026-05-02T12:46:43.906Z</time></trkpt><trkpt lat="43.9760198" lon="11.2232659"><ele>291.0</ele><time>2026-05-02T12:46:44.906Z</time></trkpt><trkpt lat="43.9760459" lon="11.2230274"><ele>292.6666666666667</ele><time>2026-05-02T12:46:45.906Z</time></trkpt><trkpt lat="43.9760764" lon="11.2227819"><ele>294.33333333333337</ele><time>2026-05-02T12:46:46.906Z</time></trkpt><trkpt lat="43.976099" lon="11.2225312"><ele>296.0</ele><time>2026-05-02T12:46:47.906Z</time></trkpt><trkpt lat="43.9761208" lon="11.2222943"><ele>296.0</ele><time>2026-05-02T12:46:48.906Z</time></trkpt><trkpt lat="43.976143" lon="11.2220687"><ele>296.0</ele><time>2026-05-02T12:46:49.906Z</time></trkpt><trkpt lat="43.976159" lon="11.2218537"><ele>296.0</ele><time>2026-05-02T12:46:50.906Z</time></trkpt><trkpt lat="43.9761743" lon="11.2216374"><ele>296.33333333333337</ele><time>2026-05-02T12:46:51.906Z</time></trkpt><trkpt lat="43.9761857" lon="11.2214252"><ele>296.6666666666667</ele><time>2026-05-02T12:46:52.906Z</time></trkpt><trkpt lat="43.9761893" lon="11.2212"><ele>297.0</ele><time>2026-05-02T12:46:53.906Z</time></trkpt><trkpt lat="43.9761738" lon="11.2209812"><ele>297.0</ele><time>2026-05-02T12:46:54.906Z</time></trkpt><trkpt lat="43.9761319" lon="11.2207626"><ele>297.0</ele><time>2026-05-02T12:46:55.906Z</time></trkpt><trkpt lat="43.9760569" lon="11.2205674"><ele>297.0</ele><time>2026-05-02T12:46:56.906Z</time></trkpt><trkpt lat="43.9759652" lon="11.2203769"><ele>297.3333333333333</ele><time>2026-05-02T12:46:57.906Z</time></trkpt><trkpt lat="43.9758625" lon="11.2201762"><ele>297.66666666666663</ele><time>2026-05-02T12:46:58.906Z</time></trkpt><trkpt lat="43.9757569" lon="11.2199794"><ele>298.0</ele><time>2026-05-02T12:46:59.906Z</time></trkpt><trkpt lat="43.975651" lon="11.2197841"><ele>298.0</ele><time>2026-05-02T12:47:00.906Z</time></trkpt><trkpt lat="43.9755498" lon="11.2195961"><ele>298.0</ele><time>2026-05-02T12:47:01.906Z</time></trkpt><trkpt lat="43.9754474" lon="11.2194126"><ele>298.0</ele><time>2026-05-02T12:47:02.906Z</time></trkpt><trkpt lat="43.9753474" lon="11.2192295"><ele>298.0</ele><time>2026-05-02T12:47:03.906Z</time></trkpt><trkpt lat="43.9752512" lon="11.2190499"><ele>298.0</ele><time>2026-05-02T12:47:04.906Z</time></trkpt><trkpt lat="43.9751518" lon="11.2188826"><ele>298.0</ele><time>2026-05-02T12:47:05.906Z</time></trkpt><trkpt lat="43.975032" lon="11.2187335"><ele>299.0</ele><time>2026-05-02T12:47:06.906Z</time></trkpt><trkpt lat="43.9749049" lon="11.2186126"><ele>300.0</ele><time>2026-05-02T12:47:07.906Z</time></trkpt><trkpt lat="43.9747662" lon="11.2184992"><ele>301.0</ele><time>2026-05-02T12:47:08.906Z</time></trkpt><trkpt lat="43.974615" lon="11.2184049"><ele>301.0</ele><time>2026-05-02T12:47:09.906Z</time></trkpt><trkpt lat="43.9744663" lon="11.2183253"><ele>301.0</ele><time>2026-05-02T12:47:10.906Z</time></trkpt><trkpt lat="43.9743218" lon="11.2182545"><ele>301.0</ele><time>2026-05-02T12:47:11.906Z</time></trkpt><trkpt lat="43.9741816" lon="11.2181915"><ele>303.66666666666663</ele><time>2026-05-02T12:47:12.906Z</time></trkpt><trkpt lat="43.9740388" lon="11.2181037"><ele>306.3333333333333</ele><time>2026-05-02T12:47:13.906Z</time></trkpt><trkpt lat="43.9739098" lon="11.2179922"><ele>309.0</ele><time>2026-05-02T12:47:14.906Z</time></trkpt><trkpt lat="43.9737883" lon="11.2178535"><ele>309.0</ele><time>2026-05-02T12:47:15.906Z</time></trkpt><trkpt lat="43.9736695" lon="11.2177267"><ele>309.0</ele><time>2026-05-02T12:47:16.906Z</time></trkpt><trkpt lat="43.9735552" lon="11.2175911"><ele>309.0</ele><time>2026-05-02T12:47:17.906Z</time></trkpt><trkpt lat="43.9734367" lon="11.2174446"><ele>308.5</ele><time>2026-05-02T12:47:18.906Z</time></trkpt><trkpt lat="43.973312" lon="11.2173165"><ele>308.0</ele><time>2026-05-02T12:47:19.906Z</time></trkpt><trkpt lat="43.9731783" lon="11.2172262"><ele>307.5</ele><time>2026-05-02T12:47:20.906Z</time></trkpt><trkpt lat="43.9730482" lon="11.2171385"><ele>307.0</ele><time>2026-05-02T12:47:21.906Z</time></trkpt><trkpt lat="43.9729146" lon="11.2170461"><ele>307.0</ele><time>2026-05-02T12:47:22.906Z</time></trkpt><trkpt lat="43.9727872" lon="11.2169765"><ele>307.0</ele><time>2026-05-02T12:47:23.906Z</time></trkpt><trkpt lat="43.972661" lon="11.2169132"><ele>307.0</ele><time>2026-05-02T12:47:24.906Z</time></trkpt><trkpt lat="43.9725395" lon="11.2168601"><ele>307.0</ele><time>2026-05-02T12:47:25.906Z</time></trkpt><trkpt lat="43.9724018" lon="11.2168352"><ele>307.0</ele><time>2026-05-02T12:47:26.906Z</time></trkpt><trkpt lat="43.9722455" lon="11.2168324"><ele>307.0</ele><time>2026-05-02T12:47:27.906Z</time></trkpt><trkpt lat="43.9720755" lon="11.2168493"><ele>307.0</ele><time>2026-05-02T12:47:28.906Z</time></trkpt><trkpt lat="43.9719153" lon="11.2168766"><ele>307.0</ele><time>2026-05-02T12:47:29.906Z</time></trkpt><trkpt lat="43.9717625" lon="11.2169175"><ele>307.0</ele><time>2026-05-02T12:47:30.906Z</time></trkpt><trkpt lat="43.9716238" lon="11.2169659"><ele>307.0</ele><time>2026-05-02T12:47:31.906Z</time></trkpt><trkpt lat="43.9714911" lon="11.2169996"><ele>307.0</ele><time>2026-05-02T12:47:32.906Z</time></trkpt><trkpt lat="43.9713615" lon="11.2170149"><ele>309.25</ele><time>2026-05-02T12:47:33.906Z</time></trkpt><trkpt lat="43.971236" lon="11.2170179"><ele>311.5</ele><time>2026-05-02T12:47:34.906Z</time></trkpt><trkpt lat="43.9711104" lon="11.2170083"><ele>313.75</ele><time>2026-05-02T12:47:35.906Z</time></trkpt><trkpt lat="43.9709844" lon="11.2170121"><ele>316.0</ele><time>2026-05-02T12:47:36.906Z</time></trkpt><trkpt lat="43.9708569" lon="11.2170186"><ele>317.5</ele><time>2026-05-02T12:47:37.906Z</time></trkpt><trkpt lat="43.9707355" lon="11.2170587"><ele>319.0</ele><time>2026-05-02T12:47:38.906Z</time></trkpt><trkpt lat="43.9706208" lon="11.2171268"><ele>320.5</ele><time>2026-05-02T12:47:39.906Z</time></trkpt><trkpt lat="43.970513" lon="11.2172095"><ele>322.0</ele><time>2026-05-02T12:47:40.906Z</time></trkpt><trkpt lat="43.970394" lon="11.2172848"><ele>317.0</ele><time>2026-05-02T12:47:41.906Z</time></trkpt><trkpt lat="43.9702617" lon="11.217334"><ele>312.0</ele><time>2026-05-02T12:47:42.906Z</time></trkpt><trkpt lat="43.9701046" lon="11.2173585"><ele>307.0</ele><time>2026-05-02T12:47:43.906Z</time></trkpt><trkpt lat="43.9699374" lon="11.2173592"><ele>306.0</ele><time>2026-05-02T12:47:44.906Z</time></trkpt><trkpt lat="43.9697631" lon="11.2173312"><ele>305.0</ele><time>2026-05-02T12:47:45.906Z</time></trkpt><trkpt lat="43.9695825" lon="11.2172892"><ele>304.0</ele><time>2026-05-02T12:47:46.906Z</time></trkpt><trkpt lat="43.9694051" lon="11.2172446"><ele>308.0</ele><time>2026-05-02T12:47:47.906Z</time></trkpt><trkpt lat="43.9692386" lon="11.2172026"><ele>312.0</ele><time>2026-05-02T12:47:48.906Z</time></trkpt><trkpt lat="43.9690819" lon="11.2171529"><ele>316.0</ele><time>2026-05-02T12:47:49.906Z</time></trkpt><trkpt lat="43.9689321" lon="11.217101"><ele>316.0</ele><time>2026-05-02T12:47:50.906Z</time></trkpt><trkpt lat="43.968789" lon="11.2170719"><ele>316.0</ele><time>2026-05-02T12:47:51.906Z</time></trkpt><trkpt lat="43.9686408" lon="11.2170601"><ele>316.0</ele><time>2026-05-02T12:47:52.906Z</time></trkpt><trkpt lat="43.9684887" lon="11.217075"><ele>316.0</ele><time>2026-05-02T12:47:53.906Z</time></trkpt><trkpt lat="43.9683351" lon="11.2170982"><ele>312.66666666666663</ele><time>2026-05-02T12:47:54.906Z</time></trkpt><trkpt lat="43.9681775" lon="11.2171239"><ele>309.3333333333333</ele><time>2026-05-02T12:47:55.906Z</time></trkpt><trkpt lat="43.9680141" lon="11.2171362"><ele>306.0</ele><time>2026-05-02T12:47:56.906Z</time></trkpt><trkpt lat="43.9678542" lon="11.217116"><ele>306.0</ele><time>2026-05-02T12:47:57.906Z</time></trkpt><trkpt lat="43.9676881" lon="11.2170507"><ele>306.0</ele><time>2026-05-02T12:47:58.906Z</time></trkpt><trkpt lat="43.9675089" lon="11.2168986"><ele>306.0</ele><time>2026-05-02T12:47:59.906Z</time></trkpt><trkpt lat="43.9673305" lon="11.2167343"><ele>303.3333333333333</ele><time>2026-05-02T12:48:00.907Z</time></trkpt><trkpt lat="43.9671589" lon="11.2166012"><ele>300.66666666666663</ele><time>2026-05-02T12:48:01.906Z</time></trkpt><trkpt lat="43.9669857" lon="11.2165196"><ele>298.0</ele><time>2026-05-02T12:48:02.906Z</time></trkpt><trkpt lat="43.9668144" lon="11.2164872"><ele>297.0</ele><time>2026-05-02T12:48:03.906Z</time></trkpt><trkpt lat="43.9666268" lon="11.216503"><ele>296.0</ele><time>2026-05-02T12:48:04.906Z</time></trkpt><trkpt lat="43.9664265" lon="11.2165424"><ele>295.0</ele><time>2026-05-02T12:48:05.906Z</time></trkpt><trkpt lat="43.9662296" lon="11.2165961"><ele>295.0</ele><time>2026-05-02T12:48:06.906Z</time></trkpt><trkpt lat="43.9660502" lon="11.2166529"><ele>295.0</ele><time>2026-05-02T12:48:07.906Z</time></trkpt><trkpt lat="43.9658734" lon="11.2166895"><ele>295.0</ele><time>2026-05-02T12:48:08.906Z</time></trkpt><trkpt lat="43.9656972" lon="11.2167105"><ele>295.0</ele><time>2026-05-02T12:48:09.906Z</time></trkpt><trkpt lat="43.9655199" lon="11.2167076"><ele>295.0</ele><time>2026-05-02T12:48:10.906Z</time></trkpt><trkpt lat="43.9653392" lon="11.2166876"><ele>295.0</ele><time>2026-05-02T12:48:11.906Z</time></trkpt><trkpt lat="43.9651651" lon="11.2166449"><ele>296.3333333333333</ele><time>2026-05-02T12:48:12.906Z</time></trkpt><trkpt lat="43.9649906" lon="11.2166002"><ele>297.6666666666667</ele><time>2026-05-02T12:48:13.906Z</time></trkpt><trkpt lat="43.9648218" lon="11.2165496"><ele>299.0</ele><time>2026-05-02T12:48:14.906Z</time></trkpt><trkpt lat="43.9646589" lon="11.2165115"><ele>301.0</ele><time>2026-05-02T12:48:15.906Z</time></trkpt><trkpt lat="43.9645067" lon="11.2164603"><ele>303.0</ele><time>2026-05-02T12:48:16.906Z</time></trkpt><trkpt lat="43.9643511" lon="11.2164327"><ele>305.0</ele><time>2026-05-02T12:48:17.906Z</time></trkpt><trkpt lat="43.964203" lon="11.2164384"><ele>304.5</ele><time>2026-05-02T12:48:18.906Z</time></trkpt><trkpt lat="43.9640607" lon="11.2164609"><ele>304.0</ele><time>2026-05-02T12:48:19.906Z</time></trkpt><trkpt lat="43.96392" lon="11.2164987"><ele>303.5</ele><time>2026-05-02T12:48:20.906Z</time></trkpt><trkpt lat="43.963788" lon="11.2165444"><ele>303.0</ele><time>2026-05-02T12:48:21.906Z</time></trkpt><trkpt lat="43.9636542" lon="11.2165901"><ele>303.0</ele><time>2026-05-02T12:48:22.906Z</time></trkpt><trkpt lat="43.9635136" lon="11.216627"><ele>303.0</ele><time>2026-05-02T12:48:23.906Z</time></trkpt><trkpt lat="43.9633682" lon="11.2166339"><ele>303.0</ele><time>2026-05-02T12:48:24.906Z</time></trkpt><trkpt lat="43.9632216" lon="11.2165986"><ele>303.0</ele><time>2026-05-02T12:48:25.906Z</time></trkpt><trkpt lat="43.9630711" lon="11.2165336"><ele>306.6666666666667</ele><time>2026-05-02T12:48:26.906Z</time></trkpt><trkpt lat="43.9629247" lon="11.2164401"><ele>310.33333333333337</ele><time>2026-05-02T12:48:27.906Z</time></trkpt><trkpt lat="43.9627786" lon="11.2163303"><ele>314.0</ele><time>2026-05-02T12:48:28.906Z</time></trkpt><trkpt lat="43.9626551" lon="11.2162171"><ele>314.0</ele><time>2026-05-02T12:48:29.906Z</time></trkpt><trkpt lat="43.9625333" lon="11.2161092"><ele>314.0</ele><time>2026-05-02T12:48:30.906Z</time></trkpt><trkpt lat="43.9624114" lon="11.2160058"><ele>314.0</ele><time>2026-05-02T12:48:31.906Z</time></trkpt><trkpt lat="43.962284" lon="11.215908"><ele>314.0</ele><time>2026-05-02T12:48:32.906Z</time></trkpt><trkpt lat="43.9621547" lon="11.2158124"><ele>313.6666666666667</ele><time>2026-05-02T12:48:33.906Z</time></trkpt><trkpt lat="43.962021" lon="11.2157155"><ele>313.3333333333333</ele><time>2026-05-02T12:48:34.906Z</time></trkpt><trkpt lat="43.9618823" lon="11.2156154"><ele>313.0</ele><time>2026-05-02T12:48:35.906Z</time></trkpt><trkpt lat="43.9617524" lon="11.2155218"><ele>311.25</ele><time>2026-05-02T12:48:36.906Z</time></trkpt><trkpt lat="43.9616345" lon="11.2154249"><ele>309.5</ele><time>2026-05-02T12:48:37.906Z</time></trkpt><trkpt lat="43.9615154" lon="11.2153375"><ele>307.75</ele><time>2026-05-02T12:48:38.906Z</time></trkpt><trkpt lat="43.9613934" lon="11.2152577"><ele>306.0</ele><time>2026-05-02T12:48:39.906Z</time></trkpt><trkpt lat="43.9612746" lon="11.2151837"><ele>306.0</ele><time>2026-05-02T12:48:40.906Z</time></trkpt><trkpt lat="43.9611617" lon="11.2151063"><ele>306.0</ele><time>2026-05-02T12:48:41.906Z</time></trkpt><trkpt lat="43.9610443" lon="11.2150178"><ele>306.0</ele><time>2026-05-02T12:48:42.906Z</time></trkpt><trkpt lat="43.9609266" lon="11.2149244"><ele>306.0</ele><time>2026-05-02T12:48:43.906Z</time></trkpt><trkpt lat="43.9608127" lon="11.2148374"><ele>306.25</ele><time>2026-05-02T12:48:44.906Z</time></trkpt><trkpt lat="43.9607073" lon="11.214756"><ele>306.5</ele><time>2026-05-02T12:48:45.906Z</time></trkpt><trkpt lat="43.9605996" lon="11.2146795"><ele>306.75</ele><time>2026-05-02T12:48:46.906Z</time></trkpt><trkpt lat="43.9604981" lon="11.2146106"><ele>307.0</ele><time>2026-05-02T12:48:47.906Z</time></trkpt><trkpt lat="43.9603913" lon="11.2145464"><ele>307.0</ele><time>2026-05-02T12:48:48.906Z</time></trkpt><trkpt lat="43.960273" lon="11.2144931"><ele>307.0</ele><time>2026-05-02T12:48:49.906Z</time></trkpt><trkpt lat="43.9601471" lon="11.2144535"><ele>307.0</ele><time>2026-05-02T12:48:50.906Z</time></trkpt><trkpt lat="43.9600123" lon="11.2144403"><ele>307.0</ele><time>2026-05-02T12:48:51.906Z</time></trkpt><trkpt lat="43.9598748" lon="11.2144515"><ele>308.0</ele><time>2026-05-02T12:48:52.906Z</time></trkpt><trkpt lat="43.9597383" lon="11.2144728"><ele>309.0</ele><time>2026-05-02T12:48:53.906Z</time></trkpt><trkpt lat="43.9595991" lon="11.2144832"><ele>310.0</ele><time>2026-05-02T12:48:54.906Z</time></trkpt><trkpt lat="43.9594614" lon="11.214484"><ele>311.0</ele><time>2026-05-02T12:48:55.906Z</time></trkpt><trkpt lat="43.9593085" lon="11.2144724"><ele>312.33333333333337</ele><time>2026-05-02T12:48:56.906Z</time></trkpt><trkpt lat="43.959153" lon="11.2144397"><ele>313.6666666666667</ele><time>2026-05-02T12:48:57.906Z</time></trkpt><trkpt lat="43.9590045" lon="11.2143798"><ele>315.0</ele><time>2026-05-02T12:48:58.906Z</time></trkpt><trkpt lat="43.9588605" lon="11.2143065"><ele>315.0</ele><time>2026-05-02T12:48:59.906Z</time></trkpt><trkpt lat="43.9587195" lon="11.2142093"><ele>315.0</ele><time>2026-05-02T12:49:00.906Z</time></trkpt><trkpt lat="43.9585809" lon="11.2140835"><ele>315.0</ele><time>2026-05-02T12:49:01.906Z</time></trkpt><trkpt lat="43.958449" lon="11.2139509"><ele>316.6666666666667</ele><time>2026-05-02T12:49:02.906Z</time></trkpt><trkpt lat="43.9583159" lon="11.2138333"><ele>318.33333333333337</ele><time>2026-05-02T12:49:03.906Z</time></trkpt><trkpt lat="43.9581821" lon="11.21374"><ele>320.0</ele><time>2026-05-02T12:49:04.906Z</time></trkpt><trkpt lat="43.9580384" lon="11.2136472"><ele>320.0</ele><time>2026-05-02T12:49:05.906Z</time></trkpt><trkpt lat="43.9578953" lon="11.213536"><ele>320.0</ele><time>2026-05-02T12:49:06.906Z</time></trkpt><trkpt lat="43.9577605" lon="11.2134232"><ele>320.0</ele><time>2026-05-02T12:49:07.906Z</time></trkpt><trkpt lat="43.957621" lon="11.2133408"><ele>324.6666666666667</ele><time>2026-05-02T12:49:08.906Z</time></trkpt><trkpt lat="43.9574685" lon="11.2133114"><ele>329.3333333333333</ele><time>2026-05-02T12:49:09.906Z</time></trkpt><trkpt lat="43.9573065" lon="11.2133137"><ele>334.0</ele><time>2026-05-02T12:49:10.906Z</time></trkpt><trkpt lat="43.9571255" lon="11.2133378"><ele>334.0</ele><time>2026-05-02T12:49:11.906Z</time></trkpt><trkpt lat="43.9569406" lon="11.2133533"><ele>334.0</ele><time>2026-05-02T12:49:12.906Z</time></trkpt><trkpt lat="43.9567675" lon="11.2133586"><ele>334.0</ele><time>2026-05-02T12:49:13.906Z</time></trkpt><trkpt lat="43.9565999" lon="11.2133441"><ele>338.0</ele><time>2026-05-02T12:49:14.907Z</time></trkpt><trkpt lat="43.9564417" lon="11.2133299"><ele>342.0</ele><time>2026-05-02T12:49:15.906Z</time></trkpt><trkpt lat="43.9562936" lon="11.2133153"><ele>346.0</ele><time>2026-05-02T12:49:16.906Z</time></trkpt><trkpt lat="43.9561511" lon="11.2132951"><ele>346.0</ele><time>2026-05-02T12:49:17.906Z</time></trkpt><trkpt lat="43.95601" lon="11.213271"><ele>346.0</ele><time>2026-05-02T12:49:18.906Z</time></trkpt><trkpt lat="43.9558761" lon="11.2132593"><ele>346.0</ele><time>2026-05-02T12:49:19.906Z</time></trkpt><trkpt lat="43.9557429" lon="11.2132514"><ele>346.0</ele><time>2026-05-02T12:49:20.906Z</time></trkpt><trkpt lat="43.9556139" lon="11.2132558"><ele>348.25</ele><time>2026-05-02T12:49:21.906Z</time></trkpt><trkpt lat="43.9554833" lon="11.2132777"><ele>350.5</ele><time>2026-05-02T12:49:22.906Z</time></trkpt><trkpt lat="43.9553524" lon="11.2133129"><ele>352.75</ele><time>2026-05-02T12:49:23.906Z</time></trkpt><trkpt lat="43.9552276" lon="11.2133517"><ele>355.0</ele><time>2026-05-02T12:49:24.906Z</time></trkpt><trkpt lat="43.9551033" lon="11.2133954"><ele>358.25</ele><time>2026-05-02T12:49:25.906Z</time></trkpt><trkpt lat="43.9549834" lon="11.2134359"><ele>361.5</ele><time>2026-05-02T12:49:26.906Z</time></trkpt><trkpt lat="43.9548675" lon="11.2134704"><ele>364.75</ele><time>2026-05-02T12:49:27.906Z</time></trkpt><trkpt lat="43.9547545" lon="11.2135003"><ele>368.0</ele><time>2026-05-02T12:49:28.906Z</time></trkpt><trkpt lat="43.9546406" lon="11.2135312"><ele>368.0</ele><time>2026-05-02T12:49:29.906Z</time></trkpt><trkpt lat="43.9545234" lon="11.2135659"><ele>368.0</ele><time>2026-05-02T12:49:30.906Z</time></trkpt><trkpt lat="43.9544023" lon="11.2135823"><ele>368.0</ele><time>2026-05-02T12:49:31.907Z</time></trkpt><trkpt lat="43.9542704" lon="11.2135739"><ele>368.0</ele><time>2026-05-02T12:49:32.906Z</time></trkpt><trkpt lat="43.9541443" lon="11.2135252"><ele>370.5</ele><time>2026-05-02T12:49:33.906Z</time></trkpt><trkpt lat="43.9540251" lon="11.2134452"><ele>373.0</ele><time>2026-05-02T12:49:34.906Z</time></trkpt><trkpt lat="43.9539017" lon="11.2133702"><ele>375.5</ele><time>2026-05-02T12:49:35.906Z</time></trkpt><trkpt lat="43.9537721" lon="11.2133247"><ele>378.0</ele><time>2026-05-02T12:49:36.906Z</time></trkpt><trkpt lat="43.9536443" lon="11.2133159"><ele>378.0</ele><time>2026-05-02T12:49:37.906Z</time></trkpt><trkpt lat="43.9535169" lon="11.2133381"><ele>378.0</ele><time>2026-05-02T12:49:38.906Z</time></trkpt><trkpt lat="43.9533872" lon="11.2133733"><ele>378.0</ele><time>2026-05-02T12:49:39.905Z</time></trkpt><trkpt lat="43.953259" lon="11.213387"><ele>378.0</ele><time>2026-05-02T12:49:40.906Z</time></trkpt><trkpt lat="43.9531282" lon="11.2133836"><ele>377.5</ele><time>2026-05-02T12:49:41.905Z</time></trkpt><trkpt lat="43.9530039" lon="11.2133668"><ele>377.0</ele><time>2026-05-02T12:49:42.905Z</time></trkpt><trkpt lat="43.9528878" lon="11.2133407"><ele>376.5</ele><time>2026-05-02T12:49:43.905Z</time></trkpt><trkpt lat="43.9527818" lon="11.2133131"><ele>376.0</ele><time>2026-05-02T12:49:44.905Z</time></trkpt><trkpt lat="43.952684" lon="11.2132772"><ele>376.0</ele><time>2026-05-02T12:49:45.906Z</time></trkpt><trkpt lat="43.9525938" lon="11.2132184"><ele>376.0</ele><time>2026-05-02T12:49:46.905Z</time></trkpt><trkpt lat="43.9525095" lon="11.21315"><ele>376.0</ele><time>2026-05-02T12:49:47.905Z</time></trkpt><trkpt lat="43.9524263" lon="11.2130672"><ele>376.0</ele><time>2026-05-02T12:49:48.905Z</time></trkpt><trkpt lat="43.9523369" lon="11.2129763"><ele>376.0</ele><time>2026-05-02T12:49:49.905Z</time></trkpt><trkpt lat="43.952245" lon="11.2128913"><ele>378.20000000000005</ele><time>2026-05-02T12:49:50.905Z</time></trkpt><trkpt lat="43.9521561" lon="11.2128172"><ele>380.40000000000003</ele><time>2026-05-02T12:49:51.905Z</time></trkpt><trkpt lat="43.9520705" lon="11.2127486"><ele>382.6</ele><time>2026-05-02T12:49:52.905Z</time></trkpt><trkpt lat="43.9519903" lon="11.2126748"><ele>384.8</ele><time>2026-05-02T12:49:53.905Z</time></trkpt><trkpt lat="43.9519139" lon="11.2125876"><ele>387.0</ele><time>2026-05-02T12:49:54.905Z</time></trkpt><trkpt lat="43.9518349" lon="11.2124803"><ele>387.0</ele><time>2026-05-02T12:49:55.905Z</time></trkpt><trkpt lat="43.9517519" lon="11.2123463"><ele>387.0</ele><time>2026-05-02T12:49:56.905Z</time></trkpt><trkpt lat="43.9516652" lon="11.2122118"><ele>387.0</ele><time>2026-05-02T12:49:57.905Z</time></trkpt><trkpt lat="43.9515758" lon="11.2120797"><ele>387.0</ele><time>2026-05-02T12:49:58.905Z</time></trkpt><trkpt lat="43.9514854" lon="11.2119491"><ele>389.6</ele><time>2026-05-02T12:49:59.905Z</time></trkpt><trkpt lat="43.9513944" lon="11.2118258"><ele>392.20000000000005</ele><time>2026-05-02T12:50:00.905Z</time></trkpt><trkpt lat="43.9513163" lon="11.2117142"><ele>394.8</ele><time>2026-05-02T12:50:01.905Z</time></trkpt><trkpt lat="43.9512545" lon="11.2116134"><ele>397.4</ele><time>2026-05-02T12:50:02.905Z</time></trkpt><trkpt lat="43.9511958" lon="11.2115105"><ele>400.0</ele><time>2026-05-02T12:50:03.905Z</time></trkpt><trkpt lat="43.9511347" lon="11.2114126"><ele>402.8</ele><time>2026-05-02T12:50:04.905Z</time></trkpt><trkpt lat="43.9510736" lon="11.211305"><ele>405.6</ele><time>2026-05-02T12:50:05.905Z</time></trkpt><trkpt lat="43.9510131" lon="11.211185"><ele>408.4</ele><time>2026-05-02T12:50:06.905Z</time></trkpt><trkpt lat="43.9509616" lon="11.2110562"><ele>411.2</ele><time>2026-05-02T12:50:07.905Z</time></trkpt><trkpt lat="43.9509215" lon="11.2109159"><ele>414.0</ele><time>2026-05-02T12:50:08.905Z</time></trkpt><trkpt lat="43.950893" lon="11.2107468"><ele>415.0</ele><time>2026-05-02T12:50:09.905Z</time></trkpt><trkpt lat="43.9508747" lon="11.2105695"><ele>416.0</ele><time>2026-05-02T12:50:10.905Z</time></trkpt><trkpt lat="43.9508464" lon="11.2103793"><ele>417.0</ele><time>2026-05-02T12:50:11.905Z</time></trkpt><trkpt lat="43.9508166" lon="11.2101978"><ele>418.0</ele><time>2026-05-02T12:50:12.905Z</time></trkpt><trkpt lat="43.9507884" lon="11.2100352"><ele>415.2</ele><time>2026-05-02T12:50:13.905Z</time></trkpt><trkpt lat="43.9507602" lon="11.2098846"><ele>412.4</ele><time>2026-05-02T12:50:14.905Z</time></trkpt><trkpt lat="43.9507319" lon="11.2097303"><ele>409.59999999999997</ele><time>2026-05-02T12:50:15.905Z</time></trkpt><trkpt lat="43.9506982" lon="11.2095839"><ele>406.79999999999995</ele><time>2026-05-02T12:50:16.905Z</time></trkpt><trkpt lat="43.950666" lon="11.2094575"><ele>404.0</ele><time>2026-05-02T12:50:17.905Z</time></trkpt><trkpt lat="43.9506175" lon="11.2093452"><ele>404.0</ele><time>2026-05-02T12:50:18.905Z</time></trkpt><trkpt lat="43.9505425" lon="11.2092654"><ele>404.0</ele><time>2026-05-02T12:50:19.905Z</time></trkpt><trkpt lat="43.9504494" lon="11.2092172"><ele>404.0</ele><time>2026-05-02T12:50:20.905Z</time></trkpt><trkpt lat="43.9503442" lon="11.2092092"><ele>404.0</ele><time>2026-05-02T12:50:21.905Z</time></trkpt><trkpt lat="43.9502422" lon="11.209247"><ele>404.0</ele><time>2026-05-02T12:50:22.905Z</time></trkpt><trkpt lat="43.9501514" lon="11.2093267"><ele>404.0</ele><time>2026-05-02T12:50:23.905Z</time></trkpt><trkpt lat="43.9500849" lon="11.2094428"><ele>404.0</ele><time>2026-05-02T12:50:24.905Z</time></trkpt><trkpt lat="43.9500272" lon="11.2095851"><ele>404.0</ele><time>2026-05-02T12:50:25.905Z</time></trkpt><trkpt lat="43.9499868" lon="11.2097407"><ele>404.0</ele><time>2026-05-02T12:50:26.905Z</time></trkpt><trkpt lat="43.94995" lon="11.2098935"><ele>403.75</ele><time>2026-05-02T12:50:27.905Z</time></trkpt><trkpt lat="43.9499081" lon="11.21005"><ele>403.5</ele><time>2026-05-02T12:50:28.905Z</time></trkpt><trkpt lat="43.9498625" lon="11.2101966"><ele>403.25</ele><time>2026-05-02T12:50:29.905Z</time></trkpt><trkpt lat="43.9498125" lon="11.2103435"><ele>403.0</ele><time>2026-05-02T12:50:30.905Z</time></trkpt><trkpt lat="43.9497395" lon="11.2104777"><ele>403.0</ele><time>2026-05-02T12:50:31.905Z</time></trkpt><trkpt lat="43.9496404" lon="11.210599"><ele>403.0</ele><time>2026-05-02T12:50:32.905Z</time></trkpt><trkpt lat="43.9495274" lon="11.2107007"><ele>403.0</ele><time>2026-05-02T12:50:33.905Z</time></trkpt><trkpt lat="43.9494068" lon="11.2107662"><ele>403.0</ele><time>2026-05-02T12:50:34.905Z</time></trkpt><trkpt lat="43.9492905" lon="11.2107986"><ele>402.75</ele><time>2026-05-02T12:50:35.905Z</time></trkpt><trkpt lat="43.9491648" lon="11.2108118"><ele>402.5</ele><time>2026-05-02T12:50:36.905Z</time></trkpt><trkpt lat="43.9490392" lon="11.210803"><ele>402.25</ele><time>2026-05-02T12:50:37.905Z</time></trkpt><trkpt lat="43.9489141" lon="11.2107583"><ele>402.0</ele><time>2026-05-02T12:50:38.905Z</time></trkpt><trkpt lat="43.9487904" lon="11.2106833"><ele>405.25</ele><time>2026-05-02T12:50:39.905Z</time></trkpt><trkpt lat="43.9486791" lon="11.2105919"><ele>408.5</ele><time>2026-05-02T12:50:40.905Z</time></trkpt><trkpt lat="43.9485824" lon="11.2105159"><ele>411.75</ele><time>2026-05-02T12:50:41.905Z</time></trkpt><trkpt lat="43.948483" lon="11.2104599"><ele>415.0</ele><time>2026-05-02T12:50:42.905Z</time></trkpt><trkpt lat="43.9483746" lon="11.2104312"><ele>415.0</ele><time>2026-05-02T12:50:43.905Z</time></trkpt><trkpt lat="43.9482598" lon="11.2104356"><ele>415.0</ele><time>2026-05-02T12:50:44.905Z</time></trkpt><trkpt lat="43.9481505" lon="11.2104723"><ele>415.0</ele><time>2026-05-02T12:50:45.905Z</time></trkpt><trkpt lat="43.9480522" lon="11.2105469"><ele>415.0</ele><time>2026-05-02T12:50:46.905Z</time></trkpt><trkpt lat="43.947972" lon="11.2106612"><ele>411.5</ele><time>2026-05-02T12:50:47.905Z</time></trkpt><trkpt lat="43.947915" lon="11.2108169"><ele>408.0</ele><time>2026-05-02T12:50:48.905Z</time></trkpt><trkpt lat="43.9478723" lon="11.210996"><ele>404.5</ele><time>2026-05-02T12:50:49.905Z</time></trkpt><trkpt lat="43.9478545" lon="11.2111682"><ele>401.0</ele><time>2026-05-02T12:50:50.905Z</time></trkpt><trkpt lat="43.9478482" lon="11.2113409"><ele>400.75</ele><time>2026-05-02T12:50:51.905Z</time></trkpt><trkpt lat="43.9478369" lon="11.2115017"><ele>400.5</ele><time>2026-05-02T12:50:52.905Z</time></trkpt><trkpt lat="43.9478079" lon="11.2116578"><ele>400.25</ele><time>2026-05-02T12:50:53.905Z</time></trkpt><trkpt lat="43.9477545" lon="11.2118054"><ele>400.0</ele><time>2026-05-02T12:50:54.905Z</time></trkpt><trkpt lat="43.9476815" lon="11.2119256"><ele>400.0</ele><time>2026-05-02T12:50:55.905Z</time></trkpt><trkpt lat="43.9475867" lon="11.2120183"><ele>400.0</ele><time>2026-05-02T12:50:56.905Z</time></trkpt><trkpt lat="43.9474809" lon="11.2120936"><ele>400.0</ele><time>2026-05-02T12:50:57.905Z</time></trkpt><trkpt lat="43.9473798" lon="11.2121617"><ele>400.0</ele><time>2026-05-02T12:50:58.905Z</time></trkpt><trkpt lat="43.9472777" lon="11.2122473"><ele>401.8</ele><time>2026-05-02T12:50:59.905Z</time></trkpt><trkpt lat="43.9471914" lon="11.2123572"><ele>403.6</ele><time>2026-05-02T12:51:00.905Z</time></trkpt><trkpt lat="43.9471236" lon="11.2124909"><ele>405.4</ele><time>2026-05-02T12:51:01.905Z</time></trkpt><trkpt lat="43.9470688" lon="11.2126309"><ele>407.2</ele><time>2026-05-02T12:51:02.905Z</time></trkpt><trkpt lat="43.9470293" lon="11.2127553"><ele>409.0</ele><time>2026-05-02T12:51:03.905Z</time></trkpt><trkpt lat="43.9469816" lon="11.2128656"><ele>409.0</ele><time>2026-05-02T12:51:04.905Z</time></trkpt><trkpt lat="43.9469231" lon="11.2129632"><ele>409.0</ele><time>2026-05-02T12:51:05.905Z</time></trkpt><trkpt lat="43.9468478" lon="11.2130476"><ele>409.0</ele><time>2026-05-02T12:51:06.905Z</time></trkpt><trkpt lat="43.9467465" lon="11.2131037"><ele>409.0</ele><time>2026-05-02T12:51:07.905Z</time></trkpt><trkpt lat="43.9466389" lon="11.2131351"><ele>409.0</ele><time>2026-05-02T12:51:08.905Z</time></trkpt><trkpt lat="43.9465181" lon="11.2131558"><ele>410.79999999999995</ele><time>2026-05-02T12:51:09.905Z</time></trkpt><trkpt lat="43.9464016" lon="11.2131728"><ele>412.59999999999997</ele><time>2026-05-02T12:51:10.905Z</time></trkpt><trkpt lat="43.9462981" lon="11.213203"><ele>414.4</ele><time>2026-05-02T12:51:11.905Z</time></trkpt><trkpt lat="43.9462152" lon="11.2132365"><ele>416.2</ele><time>2026-05-02T12:51:12.905Z</time></trkpt><trkpt lat="43.9461417" lon="11.2132723"><ele>418.0</ele><time>2026-05-02T12:51:13.905Z</time></trkpt><trkpt lat="43.9460754" lon="11.2133091"><ele>418.00000000000006</ele><time>2026-05-02T12:51:14.905Z</time></trkpt><trkpt lat="43.9460132" lon="11.2133449"><ele>418.0</ele><time>2026-05-02T12:51:15.905Z</time></trkpt><trkpt lat="43.9459552" lon="11.2133856"><ele>418.0</ele><time>2026-05-02T12:51:16.905Z</time></trkpt><trkpt lat="43.9458973" lon="11.2134253"><ele>418.0</ele><time>2026-05-02T12:51:17.905Z</time></trkpt><trkpt lat="43.9457896" lon="11.2134938"><ele>418.00000000000006</ele><time>2026-05-02T12:51:19.905Z</time></trkpt><trkpt lat="43.9457154" lon="11.2135524"><ele>418.0</ele><time>2026-05-02T12:51:21.905Z</time></trkpt><trkpt lat="43.9456484" lon="11.2136288"><ele>419.83333333333337</ele><time>2026-05-02T12:51:24.905Z</time></trkpt><trkpt lat="43.9455839" lon="11.2136639"><ele>421.6666666666667</ele><time>2026-05-02T12:51:26.905Z</time></trkpt><trkpt lat="43.945505" lon="11.2136827"><ele>423.5</ele><time>2026-05-02T12:51:28.905Z</time></trkpt><trkpt lat="43.9454169" lon="11.2137206"><ele>425.33333333333337</ele><time>2026-05-02T12:51:30.905Z</time></trkpt><trkpt lat="43.9453618" lon="11.2138088"><ele>427.1666666666667</ele><time>2026-05-02T12:51:32.905Z</time></trkpt><trkpt lat="43.9453385" lon="11.2138955"><ele>429.0</ele><time>2026-05-02T12:51:34.905Z</time></trkpt><trkpt lat="43.9453131" lon="11.2139848"><ele>428.0</ele><time>2026-05-02T12:51:36.905Z</time></trkpt><trkpt lat="43.945317" lon="11.2140929"><ele>427.0</ele><time>2026-05-02T12:51:38.905Z</time></trkpt><trkpt lat="43.9453961" lon="11.2141409"><ele>426.0</ele><time>2026-05-02T12:51:40.905Z</time></trkpt><trkpt lat="43.9455006" lon="11.2141822"><ele>425.0</ele><time>2026-05-02T12:51:42.905Z</time></trkpt><trkpt lat="43.9455779" lon="11.2142834"><ele>424.0</ele><time>2026-05-02T12:51:44.905Z</time></trkpt><trkpt lat="43.9455902" lon="11.2144265"><ele>424.0</ele><time>2026-05-02T12:51:46.905Z</time></trkpt><trkpt lat="43.9455481" lon="11.2145408"><ele>424.0</ele><time>2026-05-02T12:51:48.905Z</time></trkpt><trkpt lat="43.9454088" lon="11.2145277"><ele>424.0</ele><time>2026-05-02T12:51:50.905Z</time></trkpt><trkpt lat="43.9453286" lon="11.2145134"><ele>424.0</ele><time>2026-05-02T12:51:51.905Z</time></trkpt><trkpt lat="43.9452518" lon="11.2145214"><ele>424.0</ele><time>2026-05-02T12:51:52.905Z</time></trkpt><trkpt lat="43.9451883" lon="11.2145506"><ele>424.0</ele><time>2026-05-02T12:51:53.905Z</time></trkpt><trkpt lat="43.9451405" lon="11.2146355"><ele>424.0</ele><time>2026-05-02T12:51:54.905Z</time></trkpt><trkpt lat="43.9451117" lon="11.2147569"><ele>424.0</ele><time>2026-05-02T12:51:55.905Z</time></trkpt><trkpt lat="43.9450939" lon="11.2148995"><ele>424.0</ele><time>2026-05-02T12:51:56.905Z</time></trkpt><trkpt lat="43.9450844" lon="11.2150495"><ele>424.0</ele><time>2026-05-02T12:51:57.905Z</time></trkpt><trkpt lat="43.945079" lon="11.2151875"><ele>425.0</ele><time>2026-05-02T12:51:58.905Z</time></trkpt><trkpt lat="43.9450638" lon="11.2153072"><ele>426.0</ele><time>2026-05-02T12:51:59.905Z</time></trkpt><trkpt lat="43.9450342" lon="11.215414"><ele>427.0</ele><time>2026-05-02T12:52:00.905Z</time></trkpt><trkpt lat="43.944995" lon="11.2155264"><ele>428.0</ele><time>2026-05-02T12:52:01.905Z</time></trkpt><trkpt lat="43.9449456" lon="11.2156516"><ele>429.0</ele><time>2026-05-02T12:52:02.905Z</time></trkpt><trkpt lat="43.9448908" lon="11.2157956"><ele>431.5</ele><time>2026-05-02T12:52:03.905Z</time></trkpt><trkpt lat="43.9448394" lon="11.2159551"><ele>434.0</ele><time>2026-05-02T12:52:04.905Z</time></trkpt><trkpt lat="43.9447917" lon="11.2161265"><ele>436.5</ele><time>2026-05-02T12:52:05.905Z</time></trkpt><trkpt lat="43.9447471" lon="11.2162966"><ele>439.0</ele><time>2026-05-02T12:52:06.905Z</time></trkpt><trkpt lat="43.9447072" lon="11.2164566"><ele>441.0</ele><time>2026-05-02T12:52:07.905Z</time></trkpt><trkpt lat="43.9446696" lon="11.2166057"><ele>443.0</ele><time>2026-05-02T12:52:08.905Z</time></trkpt><trkpt lat="43.9446205" lon="11.2167567"><ele>445.0</ele><time>2026-05-02T12:52:09.905Z</time></trkpt><trkpt lat="43.9445583" lon="11.2169001"><ele>447.0</ele><time>2026-05-02T12:52:10.905Z</time></trkpt><trkpt lat="43.944485" lon="11.2170283"><ele>447.0</ele><time>2026-05-02T12:52:11.905Z</time></trkpt><trkpt lat="43.9443939" lon="11.2171388"><ele>447.0</ele><time>2026-05-02T12:52:12.905Z</time></trkpt><trkpt lat="43.9442901" lon="11.2172303"><ele>447.0</ele><time>2026-05-02T12:52:13.905Z</time></trkpt><trkpt lat="43.9441888" lon="11.2173143"><ele>447.0</ele><time>2026-05-02T12:52:14.905Z</time></trkpt><trkpt lat="43.9440947" lon="11.2174016"><ele>446.6</ele><time>2026-05-02T12:52:15.905Z</time></trkpt><trkpt lat="43.9440122" lon="11.2174916"><ele>446.20000000000005</ele><time>2026-05-02T12:52:16.905Z</time></trkpt><trkpt lat="43.9439357" lon="11.2175858"><ele>445.8</ele><time>2026-05-02T12:52:17.905Z</time></trkpt><trkpt lat="43.943866" lon="11.2176896"><ele>445.4</ele><time>2026-05-02T12:52:18.905Z</time></trkpt><trkpt lat="43.9438071" lon="11.2177907"><ele>445.0</ele><time>2026-05-02T12:52:19.905Z</time></trkpt><trkpt lat="43.9437571" lon="11.2178726"><ele>445.00000000000006</ele><time>2026-05-02T12:52:20.905Z</time></trkpt><trkpt lat="43.9437032" lon="11.21793"><ele>445.0</ele><time>2026-05-02T12:52:21.905Z</time></trkpt><trkpt lat="43.9435907" lon="11.2179816"><ele>445.0</ele><time>2026-05-02T12:52:23.905Z</time></trkpt><trkpt lat="43.9435343" lon="11.2180224"><ele>445.0</ele><time>2026-05-02T12:52:25.905Z</time></trkpt><trkpt lat="43.9435442" lon="11.2181328"><ele>445.00000000000006</ele><time>2026-05-02T12:52:28.905Z</time></trkpt><trkpt lat="43.9436229" lon="11.2182286"><ele>445.0</ele><time>2026-05-02T12:52:30.905Z</time></trkpt><trkpt lat="43.9436873" lon="11.2183092"><ele>446.75</ele><time>2026-05-02T12:52:31.905Z</time></trkpt><trkpt lat="43.9437605" lon="11.2184316"><ele>448.5</ele><time>2026-05-02T12:52:32.905Z</time></trkpt><trkpt lat="43.943837" lon="11.2185874"><ele>450.25</ele><time>2026-05-02T12:52:33.905Z</time></trkpt><trkpt lat="43.9439153" lon="11.2187629"><ele>452.0</ele><time>2026-05-02T12:52:34.905Z</time></trkpt><trkpt lat="43.9439926" lon="11.2189284"><ele>453.0</ele><time>2026-05-02T12:52:35.905Z</time></trkpt><trkpt lat="43.9440645" lon="11.2190609"><ele>454.00000000000006</ele><time>2026-05-02T12:52:36.905Z</time></trkpt><trkpt lat="43.9441304" lon="11.2191824"><ele>455.00000000000006</ele><time>2026-05-02T12:52:37.905Z</time></trkpt><trkpt lat="43.9441939" lon="11.2192698"><ele>456.0</ele><time>2026-05-02T12:52:38.905Z</time></trkpt><trkpt lat="43.9442506" lon="11.2193625"><ele>457.0</ele><time>2026-05-02T12:52:39.905Z</time></trkpt><trkpt lat="43.9443107" lon="11.2194582"><ele>457.8</ele><time>2026-05-02T12:52:40.905Z</time></trkpt><trkpt lat="43.9443813" lon="11.2195623"><ele>458.6</ele><time>2026-05-02T12:52:41.905Z</time></trkpt><trkpt lat="43.9444488" lon="11.2196819"><ele>459.40000000000003</ele><time>2026-05-02T12:52:42.905Z</time></trkpt><trkpt lat="43.9445074" lon="11.2197974"><ele>460.20000000000005</ele><time>2026-05-02T12:52:43.905Z</time></trkpt><trkpt lat="43.9445557" lon="11.2199178"><ele>461.0</ele><time>2026-05-02T12:52:44.905Z</time></trkpt><trkpt lat="43.9445742" lon="11.2200175"><ele>461.0</ele><time>2026-05-02T12:52:45.905Z</time></trkpt><trkpt lat="43.9445791" lon="11.2201569"><ele>461.0</ele><time>2026-05-02T12:52:47.905Z</time></trkpt><trkpt lat="43.9445547" lon="11.2203078"><ele>461.0</ele><time>2026-05-02T12:52:49.905Z</time></trkpt><trkpt lat="43.9445361" lon="11.2204155"><ele>461.0</ele><time>2026-05-02T12:52:50.905Z</time></trkpt><trkpt lat="43.9445085" lon="11.2205472"><ele>461.0</ele><time>2026-05-02T12:52:51.905Z</time></trkpt><trkpt lat="43.9444578" lon="11.2206637"><ele>460.3333333333333</ele><time>2026-05-02T12:52:52.905Z</time></trkpt><trkpt lat="43.9444157" lon="11.2207642"><ele>459.66666666666663</ele><time>2026-05-02T12:52:53.905Z</time></trkpt><trkpt lat="43.9443871" lon="11.220871"><ele>459.0</ele><time>2026-05-02T12:52:54.905Z</time></trkpt><trkpt lat="43.9443814" lon="11.2209589"><ele>458.33333333333337</ele><time>2026-05-02T12:52:55.905Z</time></trkpt><trkpt lat="43.9444122" lon="11.2210712"><ele>457.6666666666667</ele><time>2026-05-02T12:52:56.905Z</time></trkpt><trkpt lat="43.9444332" lon="11.221201"><ele>457.0</ele><time>2026-05-02T12:52:57.905Z</time></trkpt><trkpt lat="43.9444533" lon="11.2213495"><ele>455.8</ele><time>2026-05-02T12:52:58.905Z</time></trkpt><trkpt lat="43.9444753" lon="11.2215088"><ele>454.6</ele><time>2026-05-02T12:52:59.905Z</time></trkpt><trkpt lat="43.9444993" lon="11.2216635"><ele>453.40000000000003</ele><time>2026-05-02T12:53:00.905Z</time></trkpt><trkpt lat="43.9445209" lon="11.2218096"><ele>452.20000000000005</ele><time>2026-05-02T12:53:01.905Z</time></trkpt><trkpt lat="43.9445435" lon="11.2219513"><ele>451.0</ele><time>2026-05-02T12:53:02.905Z</time></trkpt><trkpt lat="43.9445497" lon="11.222083"><ele>451.0</ele><time>2026-05-02T12:53:03.905Z</time></trkpt><trkpt lat="43.9445483" lon="11.2222173"><ele>451.0</ele><time>2026-05-02T12:53:04.905Z</time></trkpt><trkpt lat="43.9445429" lon="11.2223568"><ele>451.0</ele><time>2026-05-02T12:53:05.905Z</time></trkpt><trkpt lat="43.9445225" lon="11.2225159"><ele>451.0</ele><time>2026-05-02T12:53:06.905Z</time></trkpt><trkpt lat="43.9444804" lon="11.2226809"><ele>451.0</ele><time>2026-05-02T12:53:07.905Z</time></trkpt><trkpt lat="43.9444425" lon="11.2228466"><ele>450.5</ele><time>2026-05-02T12:53:08.905Z</time></trkpt><trkpt lat="43.9443932" lon="11.223009"><ele>450.0</ele><time>2026-05-02T12:53:09.905Z</time></trkpt><trkpt lat="43.9443561" lon="11.2231621"><ele>449.5</ele><time>2026-05-02T12:53:10.905Z</time></trkpt><trkpt lat="43.944318" lon="11.2233228"><ele>449.0</ele><time>2026-05-02T12:53:11.905Z</time></trkpt><trkpt lat="43.9442822" lon="11.2234874"><ele>448.5</ele><time>2026-05-02T12:53:12.905Z</time></trkpt><trkpt lat="43.9442547" lon="11.2236589"><ele>448.0</ele><time>2026-05-02T12:53:13.905Z</time></trkpt><trkpt lat="43.9442371" lon="11.2238306"><ele>447.5</ele><time>2026-05-02T12:53:14.905Z</time></trkpt><trkpt lat="43.9442144" lon="11.2239842"><ele>447.0</ele><time>2026-05-02T12:53:15.905Z</time></trkpt><trkpt lat="43.9441849" lon="11.2241308"><ele>449.0</ele><time>2026-05-02T12:53:16.905Z</time></trkpt><trkpt lat="43.9441522" lon="11.2242811"><ele>451.0</ele><time>2026-05-02T12:53:17.905Z</time></trkpt><trkpt lat="43.9441106" lon="11.224435"><ele>453.0</ele><time>2026-05-02T12:53:18.905Z</time></trkpt><trkpt lat="43.9440731" lon="11.2245924"><ele>455.0</ele><time>2026-05-02T12:53:19.905Z</time></trkpt><trkpt lat="43.9440482" lon="11.2247683"><ele>456.0</ele><time>2026-05-02T12:53:20.905Z</time></trkpt><trkpt lat="43.9440303" lon="11.2249487"><ele>457.0</ele><time>2026-05-02T12:53:21.905Z</time></trkpt><trkpt lat="43.9440218" lon="11.2251353"><ele>458.0</ele><time>2026-05-02T12:53:22.905Z</time></trkpt><trkpt lat="43.9440244" lon="11.2253153"><ele>459.0</ele><time>2026-05-02T12:53:23.905Z</time></trkpt><trkpt lat="43.9440187" lon="11.22548"><ele>459.0</ele><time>2026-05-02T12:53:24.905Z</time></trkpt><trkpt lat="43.9440215" lon="11.2256415"><ele>459.0</ele><time>2026-05-02T12:53:25.905Z</time></trkpt><trkpt lat="43.9440139" lon="11.2257932"><ele>459.0</ele><time>2026-05-02T12:53:26.905Z</time></trkpt><trkpt lat="43.9440039" lon="11.2259308"><ele>459.0</ele><time>2026-05-02T12:53:27.905Z</time></trkpt><trkpt lat="43.9439802" lon="11.2260546"><ele>459.0</ele><time>2026-05-02T12:53:28.905Z</time></trkpt><trkpt lat="43.943941" lon="11.226166"><ele>459.4</ele><time>2026-05-02T12:53:29.905Z</time></trkpt><trkpt lat="43.9438886" lon="11.2262775"><ele>459.79999999999995</ele><time>2026-05-02T12:53:30.904Z</time></trkpt><trkpt lat="43.9438317" lon="11.2263854"><ele>460.20000000000005</ele><time>2026-05-02T12:53:31.904Z</time></trkpt><trkpt lat="43.9437722" lon="11.2264998"><ele>460.6</ele><time>2026-05-02T12:53:32.904Z</time></trkpt><trkpt lat="43.9437202" lon="11.2266274"><ele>461.0</ele><time>2026-05-02T12:53:33.904Z</time></trkpt><trkpt lat="43.9436572" lon="11.2267662"><ele>461.75</ele><time>2026-05-02T12:53:34.904Z</time></trkpt><trkpt lat="43.9436168" lon="11.2269232"><ele>462.5</ele><time>2026-05-02T12:53:35.904Z</time></trkpt><trkpt lat="43.943589" lon="11.2270858"><ele>463.25</ele><time>2026-05-02T12:53:36.904Z</time></trkpt><trkpt lat="43.9435568" lon="11.2272472"><ele>464.0</ele><time>2026-05-02T12:53:37.904Z</time></trkpt><trkpt lat="43.9435271" lon="11.2273934"><ele>465.79999999999995</ele><time>2026-05-02T12:53:38.904Z</time></trkpt><trkpt lat="43.9435017" lon="11.2275262"><ele>467.59999999999997</ele><time>2026-05-02T12:53:39.904Z</time></trkpt><trkpt lat="43.9434862" lon="11.227661"><ele>469.4</ele><time>2026-05-02T12:53:40.904Z</time></trkpt><trkpt lat="43.9434823" lon="11.2278048"><ele>471.2</ele><time>2026-05-02T12:53:41.904Z</time></trkpt><trkpt lat="43.9434967" lon="11.2279654"><ele>473.0</ele><time>2026-05-02T12:53:42.904Z</time></trkpt><trkpt lat="43.9435155" lon="11.2281374"><ele>474.0</ele><time>2026-05-02T12:53:43.904Z</time></trkpt><trkpt lat="43.9435344" lon="11.2283027"><ele>475.0</ele><time>2026-05-02T12:53:44.904Z</time></trkpt><trkpt lat="43.9435529" lon="11.228458"><ele>476.0</ele><time>2026-05-02T12:53:45.904Z</time></trkpt><trkpt lat="43.9435658" lon="11.2286145"><ele>477.0</ele><time>2026-05-02T12:53:46.904Z</time></trkpt><trkpt lat="43.9435755" lon="11.2287776"><ele>477.0</ele><time>2026-05-02T12:53:47.904Z</time></trkpt><trkpt lat="43.9435749" lon="11.2289314"><ele>477.0</ele><time>2026-05-02T12:53:48.904Z</time></trkpt><trkpt lat="43.943571" lon="11.229095"><ele>477.0</ele><time>2026-05-02T12:53:49.904Z</time></trkpt><trkpt lat="43.9435658" lon="11.229263"><ele>477.0</ele><time>2026-05-02T12:53:50.904Z</time></trkpt><trkpt lat="43.9435617" lon="11.2294389"><ele>474.75</ele><time>2026-05-02T12:53:51.904Z</time></trkpt><trkpt lat="43.9435529" lon="11.2296151"><ele>472.5</ele><time>2026-05-02T12:53:52.904Z</time></trkpt><trkpt lat="43.9435326" lon="11.2297818"><ele>470.25</ele><time>2026-05-02T12:53:53.904Z</time></trkpt><trkpt lat="43.9435045" lon="11.2299415"><ele>468.0</ele><time>2026-05-02T12:53:54.904Z</time></trkpt><trkpt lat="43.9434655" lon="11.2300917"><ele>469.0</ele><time>2026-05-02T12:53:55.904Z</time></trkpt><trkpt lat="43.9434242" lon="11.2302437"><ele>470.0</ele><time>2026-05-02T12:53:56.904Z</time></trkpt><trkpt lat="43.9433846" lon="11.2304125"><ele>471.0</ele><time>2026-05-02T12:53:57.904Z</time></trkpt><trkpt lat="43.9433452" lon="11.2305853"><ele>472.0</ele><time>2026-05-02T12:53:58.904Z</time></trkpt><trkpt lat="43.943301" lon="11.230755"><ele>472.5</ele><time>2026-05-02T12:53:59.904Z</time></trkpt><trkpt lat="43.9432591" lon="11.2309279"><ele>473.0</ele><time>2026-05-02T12:54:00.904Z</time></trkpt><trkpt lat="43.9432258" lon="11.2311115"><ele>473.5</ele><time>2026-05-02T12:54:01.904Z</time></trkpt><trkpt lat="43.9431836" lon="11.2312903"><ele>474.0</ele><time>2026-05-02T12:54:02.904Z</time></trkpt><trkpt lat="43.9431313" lon="11.2314507"><ele>474.79999999999995</ele><time>2026-05-02T12:54:03.904Z</time></trkpt><trkpt lat="43.9430737" lon="11.2315957"><ele>475.59999999999997</ele><time>2026-05-02T12:54:04.904Z</time></trkpt><trkpt lat="43.9430324" lon="11.2317385"><ele>476.4</ele><time>2026-05-02T12:54:05.904Z</time></trkpt><trkpt lat="43.9430166" lon="11.2318737"><ele>477.2</ele><time>2026-05-02T12:54:06.904Z</time></trkpt><trkpt lat="43.9430179" lon="11.2320099"><ele>478.0</ele><time>2026-05-02T12:54:07.904Z</time></trkpt><trkpt lat="43.9430239" lon="11.232157"><ele>478.0</ele><time>2026-05-02T12:54:08.904Z</time></trkpt><trkpt lat="43.943033" lon="11.2323053"><ele>477.99999999999994</ele><time>2026-05-02T12:54:09.904Z</time></trkpt><trkpt lat="43.9430347" lon="11.2324582"><ele>477.99999999999994</ele><time>2026-05-02T12:54:10.904Z</time></trkpt><trkpt lat="43.9430234" lon="11.2326009"><ele>478.0</ele><time>2026-05-02T12:54:11.904Z</time></trkpt><trkpt lat="43.9429944" lon="11.232737"><ele>478.0</ele><time>2026-05-02T12:54:12.904Z</time></trkpt><trkpt lat="43.9429575" lon="11.232882"><ele>478.4</ele><time>2026-05-02T12:54:13.904Z</time></trkpt><trkpt lat="43.942927" lon="11.233018"><ele>478.79999999999995</ele><time>2026-05-02T12:54:14.904Z</time></trkpt><trkpt lat="43.9429127" lon="11.2331657"><ele>479.2</ele><time>2026-05-02T12:54:15.904Z</time></trkpt><trkpt lat="43.9429146" lon="11.2333027"><ele>479.6</ele><time>2026-05-02T12:54:16.904Z</time></trkpt><trkpt lat="43.9429223" lon="11.2334427"><ele>480.0</ele><time>2026-05-02T12:54:17.904Z</time></trkpt><trkpt lat="43.9429337" lon="11.2335881"><ele>480.2</ele><time>2026-05-02T12:54:18.904Z</time></trkpt><trkpt lat="43.9429403" lon="11.2337363"><ele>480.4</ele><time>2026-05-02T12:54:19.904Z</time></trkpt><trkpt lat="43.9429369" lon="11.2338943"><ele>480.6</ele><time>2026-05-02T12:54:20.904Z</time></trkpt><trkpt lat="43.9429213" lon="11.2340495"><ele>480.8</ele><time>2026-05-02T12:54:21.904Z</time></trkpt><trkpt lat="43.9429022" lon="11.2341942"><ele>481.0</ele><time>2026-05-02T12:54:22.904Z</time></trkpt><trkpt lat="43.9428939" lon="11.2343205"><ele>481.8</ele><time>2026-05-02T12:54:23.904Z</time></trkpt><trkpt lat="43.9428966" lon="11.2344411"><ele>482.6</ele><time>2026-05-02T12:54:24.904Z</time></trkpt><trkpt lat="43.9428979" lon="11.2345365"><ele>483.4</ele><time>2026-05-02T12:54:25.904Z</time></trkpt><trkpt lat="43.942877" lon="11.2346866"><ele>484.2</ele><time>2026-05-02T12:54:27.904Z</time></trkpt><trkpt lat="43.9428168" lon="11.2348307"><ele>485.0</ele><time>2026-05-02T12:54:29.904Z</time></trkpt><trkpt lat="43.9427769" lon="11.234915"><ele>485.0</ele><time>2026-05-02T12:54:30.904Z</time></trkpt><trkpt lat="43.942729" lon="11.2350244"><ele>485.0</ele><time>2026-05-02T12:54:31.904Z</time></trkpt><trkpt lat="43.9426811" lon="11.2351439"><ele>485.0</ele><time>2026-05-02T12:54:32.904Z</time></trkpt><trkpt lat="43.9426352" lon="11.2352793"><ele>485.0</ele><time>2026-05-02T12:54:33.904Z</time></trkpt><trkpt lat="43.9425867" lon="11.2354311"><ele>485.0</ele><time>2026-05-02T12:54:34.904Z</time></trkpt><trkpt lat="43.9425385" lon="11.235591"><ele>486.6</ele><time>2026-05-02T12:54:35.904Z</time></trkpt><trkpt lat="43.9424879" lon="11.2357381"><ele>488.2</ele><time>2026-05-02T12:54:36.904Z</time></trkpt><trkpt lat="43.9424317" lon="11.2358661"><ele>489.79999999999995</ele><time>2026-05-02T12:54:37.904Z</time></trkpt><trkpt lat="43.9423725" lon="11.2359756"><ele>491.4</ele><time>2026-05-02T12:54:38.904Z</time></trkpt><trkpt lat="43.9423129" lon="11.2360894"><ele>493.0</ele><time>2026-05-02T12:54:39.904Z</time></trkpt><trkpt lat="43.9422533" lon="11.2362132"><ele>493.0</ele><time>2026-05-02T12:54:40.904Z</time></trkpt><trkpt lat="43.9421893" lon="11.2363362"><ele>493.0</ele><time>2026-05-02T12:54:41.904Z</time></trkpt><trkpt lat="43.9421161" lon="11.2364608"><ele>493.0</ele><time>2026-05-02T12:54:42.904Z</time></trkpt><trkpt lat="43.9420419" lon="11.2365851"><ele>493.0</ele><time>2026-05-02T12:54:43.904Z</time></trkpt><trkpt lat="43.9419797" lon="11.2367144"><ele>495.33333333333337</ele><time>2026-05-02T12:54:44.904Z</time></trkpt><trkpt lat="43.9419346" lon="11.2368391"><ele>497.6666666666667</ele><time>2026-05-02T12:54:45.904Z</time></trkpt><trkpt lat="43.9418966" lon="11.2369652"><ele>500.0</ele><time>2026-05-02T12:54:46.904Z</time></trkpt><trkpt lat="43.9418638" lon="11.2370804"><ele>502.33333333333337</ele><time>2026-05-02T12:54:47.904Z</time></trkpt><trkpt lat="43.9418327" lon="11.2371789"><ele>504.6666666666667</ele><time>2026-05-02T12:54:48.904Z</time></trkpt><trkpt lat="43.9418041" lon="11.2372771"><ele>507.0</ele><time>2026-05-02T12:54:49.904Z</time></trkpt><trkpt lat="43.9417574" lon="11.2373687"><ele>507.0</ele><time>2026-05-02T12:54:50.903Z</time></trkpt><trkpt lat="43.941694" lon="11.2374486"><ele>507.0</ele><time>2026-05-02T12:54:51.904Z</time></trkpt><trkpt lat="43.9416141" lon="11.2374891"><ele>507.0</ele><time>2026-05-02T12:54:52.904Z</time></trkpt><trkpt lat="43.9415362" lon="11.2374807"><ele>507.0</ele><time>2026-05-02T12:54:53.904Z</time></trkpt><trkpt lat="43.9414656" lon="11.2374504"><ele>507.0</ele><time>2026-05-02T12:54:54.904Z</time></trkpt><trkpt lat="43.9413996" lon="11.2374122"><ele>507.0</ele><time>2026-05-02T12:54:55.904Z</time></trkpt><trkpt lat="43.9412888" lon="11.2373741"><ele>507.0</ele><time>2026-05-02T12:54:57.904Z</time></trkpt><trkpt lat="43.9411776" lon="11.2374173"><ele>507.00000000000006</ele><time>2026-05-02T12:54:59.904Z</time></trkpt><trkpt lat="43.9410777" lon="11.2374954"><ele>507.00000000000006</ele><time>2026-05-02T12:55:01.904Z</time></trkpt><trkpt lat="43.9409673" lon="11.2375463"><ele>507.0</ele><time>2026-05-02T12:55:03.904Z</time></trkpt><trkpt lat="43.9408977" lon="11.2375639"><ele>507.0</ele><time>2026-05-02T12:55:04.904Z</time></trkpt><trkpt lat="43.9408143" lon="11.2375745"><ele>507.8</ele><time>2026-05-02T12:55:05.904Z</time></trkpt><trkpt lat="43.9407153" lon="11.2375787"><ele>508.6</ele><time>2026-05-02T12:55:06.904Z</time></trkpt><trkpt lat="43.9406181" lon="11.2375968"><ele>509.40000000000003</ele><time>2026-05-02T12:55:07.904Z</time></trkpt><trkpt lat="43.9405204" lon="11.2376254"><ele>510.20000000000005</ele><time>2026-05-02T12:55:08.904Z</time></trkpt><trkpt lat="43.9404375" lon="11.2376501"><ele>511.0</ele><time>2026-05-02T12:55:09.904Z</time></trkpt><trkpt lat="43.9403573" lon="11.2376816"><ele>511.0</ele><time>2026-05-02T12:55:10.904Z</time></trkpt><trkpt lat="43.9402864" lon="11.2377269"><ele>511.0</ele><time>2026-05-02T12:55:11.904Z</time></trkpt><trkpt lat="43.940217" lon="11.2377832"><ele>511.0</ele><time>2026-05-02T12:55:12.904Z</time></trkpt><trkpt lat="43.9401516" lon="11.2378576"><ele>511.0</ele><time>2026-05-02T12:55:13.904Z</time></trkpt><trkpt lat="43.9400936" lon="11.2379631"><ele>511.0</ele><time>2026-05-02T12:55:14.904Z</time></trkpt><trkpt lat="43.940039" lon="11.2381032"><ele>510.25</ele><time>2026-05-02T12:55:15.904Z</time></trkpt><trkpt lat="43.9399812" lon="11.2382476"><ele>509.5</ele><time>2026-05-02T12:55:16.904Z</time></trkpt><trkpt lat="43.9399257" lon="11.2383962"><ele>508.75</ele><time>2026-05-02T12:55:17.904Z</time></trkpt><trkpt lat="43.939866" lon="11.2385308"><ele>508.0</ele><time>2026-05-02T12:55:18.904Z</time></trkpt><trkpt lat="43.9398002" lon="11.2386458"><ele>508.00000000000006</ele><time>2026-05-02T12:55:19.904Z</time></trkpt><trkpt lat="43.9397364" lon="11.238743"><ele>508.0</ele><time>2026-05-02T12:55:20.904Z</time></trkpt><trkpt lat="43.9396813" lon="11.2388288"><ele>508.0</ele><time>2026-05-02T12:55:21.904Z</time></trkpt><trkpt lat="43.9396271" lon="11.2388986"><ele>508.0</ele><time>2026-05-02T12:55:22.904Z</time></trkpt><trkpt lat="43.9395742" lon="11.2389521"><ele>508.00000000000006</ele><time>2026-05-02T12:55:23.904Z</time></trkpt><trkpt lat="43.9394683" lon="11.2389643"><ele>508.0</ele><time>2026-05-02T12:55:25.904Z</time></trkpt><trkpt lat="43.9393568" lon="11.2388824"><ele>508.00000000000006</ele><time>2026-05-02T12:55:27.904Z</time></trkpt><trkpt lat="43.9392935" lon="11.2388082"><ele>508.0</ele><time>2026-05-02T12:55:28.904Z</time></trkpt><trkpt lat="43.9392205" lon="11.2387267"><ele>508.0</ele><time>2026-05-02T12:55:29.904Z</time></trkpt><trkpt lat="43.9391556" lon="11.2386392"><ele>508.0</ele><time>2026-05-02T12:55:30.904Z</time></trkpt><trkpt lat="43.939091" lon="11.2385515"><ele>508.00000000000006</ele><time>2026-05-02T12:55:31.904Z</time></trkpt><trkpt lat="43.9390297" lon="11.2384644"><ele>508.0</ele><time>2026-05-02T12:55:32.904Z</time></trkpt><trkpt lat="43.9389657" lon="11.2383794"><ele>507.59999999999997</ele><time>2026-05-02T12:55:33.904Z</time></trkpt><trkpt lat="43.9388951" lon="11.2382879"><ele>507.19999999999993</ele><time>2026-05-02T12:55:34.904Z</time></trkpt><trkpt lat="43.9388381" lon="11.2381818"><ele>506.8</ele><time>2026-05-02T12:55:35.904Z</time></trkpt><trkpt lat="43.9387891" lon="11.2380748"><ele>506.4</ele><time>2026-05-02T12:55:36.904Z</time></trkpt><trkpt lat="43.9387366" lon="11.2379748"><ele>506.0</ele><time>2026-05-02T12:55:37.904Z</time></trkpt><trkpt lat="43.9386853" lon="11.2378935"><ele>505.99999999999994</ele><time>2026-05-02T12:55:38.904Z</time></trkpt><trkpt lat="43.9386421" lon="11.2378117"><ele>506.0</ele><time>2026-05-02T12:55:39.904Z</time></trkpt><trkpt lat="43.9386019" lon="11.2377287"><ele>506.0</ele><time>2026-05-02T12:55:40.904Z</time></trkpt><trkpt lat="43.9385771" lon="11.2376369"><ele>506.0</ele><time>2026-05-02T12:55:41.904Z</time></trkpt><trkpt lat="43.9385606" lon="11.2375348"><ele>505.99999999999994</ele><time>2026-05-02T12:55:42.904Z</time></trkpt><trkpt lat="43.9385167" lon="11.2374036"><ele>506.0</ele><time>2026-05-02T12:55:44.904Z</time></trkpt><trkpt lat="43.938423" lon="11.2374033"><ele>502.8</ele><time>2026-05-02T12:55:46.904Z</time></trkpt><trkpt lat="43.938351" lon="11.2374663"><ele>499.6</ele><time>2026-05-02T12:55:47.904Z</time></trkpt><trkpt lat="43.9382646" lon="11.2375877"><ele>496.4</ele><time>2026-05-02T12:55:48.904Z</time></trkpt><trkpt lat="43.9381984" lon="11.2376754"><ele>493.2</ele><time>2026-05-02T12:55:49.904Z</time></trkpt><trkpt lat="43.9381297" lon="11.2377431"><ele>490.0</ele><time>2026-05-02T12:55:50.904Z</time></trkpt><trkpt lat="43.9380685" lon="11.2377878"><ele>490.00000000000006</ele><time>2026-05-02T12:55:51.904Z</time></trkpt><trkpt lat="43.937995" lon="11.2378175"><ele>490.0</ele><time>2026-05-02T12:55:52.904Z</time></trkpt><trkpt lat="43.9379219" lon="11.2378497"><ele>490.0</ele><time>2026-05-02T12:55:53.904Z</time></trkpt><trkpt lat="43.9378575" lon="11.2378883"><ele>490.0</ele><time>2026-05-02T12:55:54.904Z</time></trkpt><trkpt lat="43.9377558" lon="11.2379701"><ele>490.00000000000006</ele><time>2026-05-02T12:55:56.904Z</time></trkpt><trkpt lat="43.9376912" lon="11.2380767"><ele>490.0</ele><time>2026-05-02T12:55:58.904Z</time></trkpt><trkpt lat="43.9376268" lon="11.2381757"><ele>487.83333333333337</ele><time>2026-05-02T12:56:00.904Z</time></trkpt><trkpt lat="43.9375619" lon="11.2382525"><ele>485.6666666666667</ele><time>2026-05-02T12:56:02.904Z</time></trkpt><trkpt lat="43.9375084" lon="11.2383354"><ele>483.5</ele><time>2026-05-02T12:56:04.904Z</time></trkpt><trkpt lat="43.9374246" lon="11.2384672"><ele>481.33333333333337</ele><time>2026-05-02T12:56:06.904Z</time></trkpt><trkpt lat="43.9373814" lon="11.2385403"><ele>479.1666666666667</ele><time>2026-05-02T12:56:07.904Z</time></trkpt><trkpt lat="43.9373367" lon="11.2386182"><ele>477.0</ele><time>2026-05-02T12:56:08.904Z</time></trkpt><trkpt lat="43.9372685" lon="11.2387176"><ele>475.5</ele><time>2026-05-02T12:56:10.904Z</time></trkpt><trkpt lat="43.9371845" lon="11.2387576"><ele>474.0</ele><time>2026-05-02T12:57:03.903Z</time></trkpt><trkpt lat="43.9371251" lon="11.2388026"><ele>472.5</ele><time>2026-05-02T12:57:05.903Z</time></trkpt><trkpt lat="43.9370411" lon="11.2388563"><ele>471.0</ele><time>2026-05-02T12:57:07.903Z</time></trkpt><trkpt lat="43.9369537" lon="11.2388956"><ele>469.5</ele><time>2026-05-02T12:57:09.903Z</time></trkpt><trkpt lat="43.936887" lon="11.2389276"><ele>468.0</ele><time>2026-05-02T12:57:10.903Z</time></trkpt><trkpt lat="43.936807" lon="11.2389541"><ele>468.3333333333333</ele><time>2026-05-02T12:57:11.903Z</time></trkpt><trkpt lat="43.9367372" lon="11.2389696"><ele>468.66666666666663</ele><time>2026-05-02T12:57:12.903Z</time></trkpt><trkpt lat="43.9366503" lon="11.2389742"><ele>469.0</ele><time>2026-05-02T12:57:13.903Z</time></trkpt><trkpt lat="43.9365556" lon="11.2389758"><ele>469.3333333333333</ele><time>2026-05-02T12:57:14.903Z</time></trkpt><trkpt lat="43.9364544" lon="11.2389833"><ele>469.66666666666663</ele><time>2026-05-02T12:57:15.903Z</time></trkpt><trkpt lat="43.9363618" lon="11.2390074"><ele>470.0</ele><time>2026-05-02T12:57:16.903Z</time></trkpt><trkpt lat="43.9362665" lon="11.2390394"><ele>470.0</ele><time>2026-05-02T12:57:17.903Z</time></trkpt><trkpt lat="43.9361816" lon="11.2390733"><ele>470.0</ele><time>2026-05-02T12:57:18.903Z</time></trkpt><trkpt lat="43.9361029" lon="11.2390905"><ele>470.0</ele><time>2026-05-02T12:57:19.903Z</time></trkpt><trkpt lat="43.9360158" lon="11.2390967"><ele>470.0</ele><time>2026-05-02T12:57:20.904Z</time></trkpt><trkpt lat="43.9359173" lon="11.2390864"><ele>470.0</ele><time>2026-05-02T12:57:21.903Z</time></trkpt><trkpt lat="43.935819" lon="11.2390873"><ele>470.3333333333333</ele><time>2026-05-02T12:57:22.903Z</time></trkpt><trkpt lat="43.9357176" lon="11.2390937"><ele>470.66666666666663</ele><time>2026-05-02T12:57:23.903Z</time></trkpt><trkpt lat="43.9356221" lon="11.2390933"><ele>471.0</ele><time>2026-05-02T12:57:24.903Z</time></trkpt><trkpt lat="43.9355389" lon="11.2390864"><ele>471.33333333333337</ele><time>2026-05-02T12:57:25.903Z</time></trkpt><trkpt lat="43.9354637" lon="11.2390788"><ele>471.6666666666667</ele><time>2026-05-02T12:57:26.903Z</time></trkpt><trkpt lat="43.935395" lon="11.2390766"><ele>472.0</ele><time>2026-05-02T12:57:27.903Z</time></trkpt><trkpt lat="43.9353134" lon="11.2390651"><ele>472.0</ele><time>2026-05-02T12:57:28.903Z</time></trkpt><trkpt lat="43.9352294" lon="11.2390562"><ele>472.00000000000006</ele><time>2026-05-02T12:57:29.903Z</time></trkpt><trkpt lat="43.9351405" lon="11.239042"><ele>472.00000000000006</ele><time>2026-05-02T12:57:30.903Z</time></trkpt><trkpt lat="43.9350355" lon="11.2390221"><ele>472.0</ele><time>2026-05-02T12:57:31.903Z</time></trkpt><trkpt lat="43.9349282" lon="11.2389965"><ele>472.0</ele><time>2026-05-02T12:57:32.903Z</time></trkpt><trkpt lat="43.9348356" lon="11.2389593"><ele>470.6</ele><time>2026-05-02T12:57:33.903Z</time></trkpt><trkpt lat="43.9347326" lon="11.2389459"><ele>469.20000000000005</ele><time>2026-05-02T12:57:34.903Z</time></trkpt><trkpt lat="43.934628" lon="11.2389472"><ele>467.8</ele><time>2026-05-02T12:57:35.903Z</time></trkpt><trkpt lat="43.9345126" lon="11.2389622"><ele>466.4</ele><time>2026-05-02T12:57:36.903Z</time></trkpt><trkpt lat="43.9343903" lon="11.2389888"><ele>465.0</ele><time>2026-05-02T12:57:37.903Z</time></trkpt><trkpt lat="43.9342741" lon="11.2390194"><ele>463.8</ele><time>2026-05-02T12:57:38.903Z</time></trkpt><trkpt lat="43.9341746" lon="11.2390213"><ele>462.6</ele><time>2026-05-02T12:57:39.903Z</time></trkpt><trkpt lat="43.9340727" lon="11.2390024"><ele>461.4</ele><time>2026-05-02T12:57:40.903Z</time></trkpt><trkpt lat="43.933963" lon="11.238971"><ele>460.2</ele><time>2026-05-02T12:57:41.903Z</time></trkpt><trkpt lat="43.9338569" lon="11.2389329"><ele>459.0</ele><time>2026-05-02T12:57:42.903Z</time></trkpt><trkpt lat="43.9337608" lon="11.2388988"><ele>455.6666666666667</ele><time>2026-05-02T12:57:43.903Z</time></trkpt><trkpt lat="43.9336717" lon="11.2388577"><ele>452.33333333333337</ele><time>2026-05-02T12:57:44.903Z</time></trkpt><trkpt lat="43.933582" lon="11.2388097"><ele>449.0</ele><time>2026-05-02T12:57:45.903Z</time></trkpt><trkpt lat="43.9334976" lon="11.238766"><ele>445.6666666666667</ele><time>2026-05-02T12:57:46.903Z</time></trkpt><trkpt lat="43.9334119" lon="11.2387611"><ele>442.33333333333337</ele><time>2026-05-02T12:57:47.903Z</time></trkpt><trkpt lat="43.9333357" lon="11.2387776"><ele>439.0</ele><time>2026-05-02T12:57:48.903Z</time></trkpt><trkpt lat="43.9332507" lon="11.2387974"><ele>438.83333333333337</ele><time>2026-05-02T12:57:49.903Z</time></trkpt><trkpt lat="43.9331708" lon="11.2388387"><ele>438.6666666666667</ele><time>2026-05-02T12:57:50.903Z</time></trkpt><trkpt lat="43.9330909" lon="11.2388712"><ele>438.5</ele><time>2026-05-02T12:57:51.903Z</time></trkpt><trkpt lat="43.933011" lon="11.2388925"><ele>438.33333333333337</ele><time>2026-05-02T12:57:52.903Z</time></trkpt><trkpt lat="43.9329285" lon="11.2388985"><ele>438.1666666666667</ele><time>2026-05-02T12:57:53.903Z</time></trkpt><trkpt lat="43.9328442" lon="11.238881"><ele>438.0</ele><time>2026-05-02T12:57:54.903Z</time></trkpt><trkpt lat="43.9327608" lon="11.2388581"><ele>438.0</ele><time>2026-05-02T12:57:55.903Z</time></trkpt><trkpt lat="43.9326764" lon="11.2388187"><ele>438.0</ele><time>2026-05-02T12:57:56.903Z</time></trkpt><trkpt lat="43.9326007" lon="11.2387695"><ele>438.0</ele><time>2026-05-02T12:57:57.903Z</time></trkpt><trkpt lat="43.9325299" lon="11.2387329"><ele>438.0</ele><time>2026-05-02T12:57:58.903Z</time></trkpt><trkpt lat="43.9324578" lon="11.2387042"><ele>438.0</ele><time>2026-05-02T12:57:59.903Z</time></trkpt><trkpt lat="43.9323864" lon="11.2386829"><ele>438.0</ele><time>2026-05-02T12:58:00.903Z</time></trkpt><trkpt lat="43.9323101" lon="11.2386763"><ele>437.6666666666667</ele><time>2026-05-02T12:58:01.903Z</time></trkpt><trkpt lat="43.9322282" lon="11.2386793"><ele>437.33333333333337</ele><time>2026-05-02T12:58:02.903Z</time></trkpt><trkpt lat="43.9321448" lon="11.2386844"><ele>437.0</ele><time>2026-05-02T12:58:03.903Z</time></trkpt><trkpt lat="43.9320511" lon="11.2386979"><ele>436.6666666666667</ele><time>2026-05-02T12:58:04.903Z</time></trkpt><trkpt lat="43.9319598" lon="11.2387003"><ele>436.33333333333337</ele><time>2026-05-02T12:58:05.903Z</time></trkpt><trkpt lat="43.9318692" lon="11.2386812"><ele>436.0</ele><time>2026-05-02T12:58:06.903Z</time></trkpt><trkpt lat="43.931785" lon="11.2386392"><ele>435.6666666666667</ele><time>2026-05-02T12:58:07.903Z</time></trkpt><trkpt lat="43.9317056" lon="11.2385928"><ele>435.33333333333337</ele><time>2026-05-02T12:58:08.903Z</time></trkpt><trkpt lat="43.9316339" lon="11.2385549"><ele>435.0</ele><time>2026-05-02T12:58:09.903Z</time></trkpt><trkpt lat="43.9315531" lon="11.238513"><ele>434.66666666666663</ele><time>2026-05-02T12:58:10.903Z</time></trkpt><trkpt lat="43.9314819" lon="11.2384868"><ele>434.3333333333333</ele><time>2026-05-02T12:58:11.903Z</time></trkpt><trkpt lat="43.9314006" lon="11.2384785"><ele>434.0</ele><time>2026-05-02T12:58:12.903Z</time></trkpt><trkpt lat="43.9313198" lon="11.2384849"><ele>433.99999999999994</ele><time>2026-05-02T12:58:13.903Z</time></trkpt><trkpt lat="43.9312365" lon="11.2384985"><ele>434.0</ele><time>2026-05-02T12:58:14.903Z</time></trkpt><trkpt lat="43.9311529" lon="11.238525"><ele>434.0</ele><time>2026-05-02T12:58:15.903Z</time></trkpt><trkpt lat="43.9310656" lon="11.238544"><ele>434.0</ele><time>2026-05-02T12:58:16.903Z</time></trkpt><trkpt lat="43.9309832" lon="11.2385661"><ele>433.99999999999994</ele><time>2026-05-02T12:58:17.903Z</time></trkpt><trkpt lat="43.9308985" lon="11.2386077"><ele>434.0</ele><time>2026-05-02T12:58:18.903Z</time></trkpt><trkpt lat="43.9308145" lon="11.238645"><ele>432.99999999999994</ele><time>2026-05-02T12:58:19.903Z</time></trkpt><trkpt lat="43.9307303" lon="11.2386701"><ele>432.0</ele><time>2026-05-02T12:58:20.903Z</time></trkpt><trkpt lat="43.9306395" lon="11.2386812"><ele>431.0</ele><time>2026-05-02T12:58:21.903Z</time></trkpt><trkpt lat="43.9305501" lon="11.2386808"><ele>430.0</ele><time>2026-05-02T12:58:22.903Z</time></trkpt><trkpt lat="43.9304713" lon="11.2386652"><ele>428.99999999999994</ele><time>2026-05-02T12:58:23.903Z</time></trkpt><trkpt lat="43.9304061" lon="11.2386215"><ele>428.0</ele><time>2026-05-02T12:58:24.903Z</time></trkpt><trkpt lat="43.9303383" lon="11.2385506"><ele>427.99999999999994</ele><time>2026-05-02T12:58:25.903Z</time></trkpt><trkpt lat="43.930282" lon="11.2384639"><ele>428.0</ele><time>2026-05-02T12:58:26.903Z</time></trkpt><trkpt lat="43.9302444" lon="11.2383608"><ele>428.0</ele><time>2026-05-02T12:58:27.903Z</time></trkpt><trkpt lat="43.9302101" lon="11.2382564"><ele>428.0</ele><time>2026-05-02T12:58:28.903Z</time></trkpt><trkpt lat="43.9301758" lon="11.2381538"><ele>427.99999999999994</ele><time>2026-05-02T12:58:29.903Z</time></trkpt><trkpt lat="43.9301337" lon="11.2380756"><ele>428.0</ele><time>2026-05-02T12:58:30.903Z</time></trkpt><trkpt lat="43.9300477" lon="11.2380166"><ele>426.59999999999997</ele><time>2026-05-02T12:58:32.903Z</time></trkpt><trkpt lat="43.9299472" lon="11.238139"><ele>425.19999999999993</ele><time>2026-05-02T12:58:34.903Z</time></trkpt><trkpt lat="43.9299081" lon="11.2382113"><ele>423.8</ele><time>2026-05-02T12:58:35.903Z</time></trkpt><trkpt lat="43.9298577" lon="11.2382733"><ele>422.4</ele><time>2026-05-02T12:58:36.903Z</time></trkpt><trkpt lat="43.9297649" lon="11.2383208"><ele>421.0</ele><time>2026-05-02T12:58:38.903Z</time></trkpt><trkpt lat="43.9296456" lon="11.2382758"><ele>421.00000000000006</ele><time>2026-05-02T12:58:40.903Z</time></trkpt><trkpt lat="43.9295789" lon="11.2382295"><ele>421.0</ele><time>2026-05-02T12:58:41.903Z</time></trkpt><trkpt lat="43.9295164" lon="11.2381937"><ele>421.0</ele><time>2026-05-02T12:58:42.903Z</time></trkpt><trkpt lat="43.9294432" lon="11.2381566"><ele>421.0</ele><time>2026-05-02T12:58:43.903Z</time></trkpt><trkpt lat="43.9293502" lon="11.238116"><ele>421.00000000000006</ele><time>2026-05-02T12:58:44.903Z</time></trkpt><trkpt lat="43.9292438" lon="11.2380693"><ele>421.0</ele><time>2026-05-02T12:58:45.903Z</time></trkpt><trkpt lat="43.92913" lon="11.2380277"><ele>417.6</ele><time>2026-05-02T12:58:46.903Z</time></trkpt><trkpt lat="43.9290184" lon="11.2379854"><ele>414.20000000000005</ele><time>2026-05-02T12:58:47.903Z</time></trkpt><trkpt lat="43.9289225" lon="11.2379467"><ele>410.79999999999995</ele><time>2026-05-02T12:58:48.903Z</time></trkpt><trkpt lat="43.9288352" lon="11.2379256"><ele>407.4</ele><time>2026-05-02T12:58:49.903Z</time></trkpt><trkpt lat="43.9287617" lon="11.2379252"><ele>404.0</ele><time>2026-05-02T12:58:50.903Z</time></trkpt><trkpt lat="43.9286879" lon="11.2379456"><ele>404.0</ele><time>2026-05-02T12:58:51.903Z</time></trkpt><trkpt lat="43.9286217" lon="11.2380039"><ele>404.0</ele><time>2026-05-02T12:58:52.903Z</time></trkpt><trkpt lat="43.9285456" lon="11.2380952"><ele>404.0</ele><time>2026-05-02T12:58:53.903Z</time></trkpt><trkpt lat="43.9284575" lon="11.2382087"><ele>404.0</ele><time>2026-05-02T12:58:54.903Z</time></trkpt><trkpt lat="43.9283613" lon="11.2383276"><ele>404.0</ele><time>2026-05-02T12:58:55.903Z</time></trkpt><trkpt lat="43.9282632" lon="11.2384409"><ele>404.5</ele><time>2026-05-02T12:58:56.903Z</time></trkpt><trkpt lat="43.9281686" lon="11.2385441"><ele>405.0</ele><time>2026-05-02T12:58:57.903Z</time></trkpt><trkpt lat="43.9280766" lon="11.2386432"><ele>405.5</ele><time>2026-05-02T12:58:58.903Z</time></trkpt><trkpt lat="43.9279931" lon="11.2387404"><ele>406.0</ele><time>2026-05-02T12:58:59.903Z</time></trkpt><trkpt lat="43.9279121" lon="11.2388352"><ele>406.00000000000006</ele><time>2026-05-02T12:59:00.903Z</time></trkpt><trkpt lat="43.9278359" lon="11.2389238"><ele>406.0</ele><time>2026-05-02T12:59:01.903Z</time></trkpt><trkpt lat="43.9277538" lon="11.2389969"><ele>406.0</ele><time>2026-05-02T12:59:02.903Z</time></trkpt><trkpt lat="43.9276727" lon="11.2390453"><ele>406.0</ele><time>2026-05-02T12:59:03.903Z</time></trkpt><trkpt lat="43.9275933" lon="11.2390651"><ele>406.00000000000006</ele><time>2026-05-02T12:59:04.903Z</time></trkpt><trkpt lat="43.9275256" lon="11.2390642"><ele>406.0</ele><time>2026-05-02T12:59:05.903Z</time></trkpt><trkpt lat="43.9274178" lon="11.2390271"><ele>404.0</ele><time>2026-05-02T12:59:07.903Z</time></trkpt><trkpt lat="43.9273101" lon="11.2389074"><ele>402.0</ele><time>2026-05-02T12:59:09.903Z</time></trkpt><trkpt lat="43.9272484" lon="11.2388111"><ele>400.0</ele><time>2026-05-02T12:59:10.903Z</time></trkpt><trkpt lat="43.9271735" lon="11.2386695"><ele>398.0</ele><time>2026-05-02T12:59:11.903Z</time></trkpt><trkpt lat="43.9271028" lon="11.2385044"><ele>398.0</ele><time>2026-05-02T12:59:12.903Z</time></trkpt><trkpt lat="43.9270406" lon="11.2383281"><ele>398.0</ele><time>2026-05-02T12:59:13.903Z</time></trkpt><trkpt lat="43.9269872" lon="11.2381598"><ele>398.0</ele><time>2026-05-02T12:59:14.903Z</time></trkpt><trkpt lat="43.9269456" lon="11.2379981"><ele>398.0</ele><time>2026-05-02T12:59:15.903Z</time></trkpt><trkpt lat="43.9269064" lon="11.2378518"><ele>398.0</ele><time>2026-05-02T12:59:16.903Z</time></trkpt><trkpt lat="43.9268627" lon="11.2377309"><ele>398.0</ele><time>2026-05-02T12:59:17.903Z</time></trkpt><trkpt lat="43.9268067" lon="11.2376432"><ele>398.0</ele><time>2026-05-02T12:59:18.903Z</time></trkpt><trkpt lat="43.9267365" lon="11.237572"><ele>398.0</ele><time>2026-05-02T12:59:19.903Z</time></trkpt><trkpt lat="43.9266497" lon="11.2375162"><ele>398.0</ele><time>2026-05-02T12:59:20.903Z</time></trkpt><trkpt lat="43.9265518" lon="11.2374582"><ele>395.25</ele><time>2026-05-02T12:59:21.903Z</time></trkpt><trkpt lat="43.9264449" lon="11.2373972"><ele>392.5</ele><time>2026-05-02T12:59:22.903Z</time></trkpt><trkpt lat="43.9263361" lon="11.2373228"><ele>389.75</ele><time>2026-05-02T12:59:23.904Z</time></trkpt><trkpt lat="43.9262352" lon="11.237234"><ele>387.0</ele><time>2026-05-02T12:59:24.903Z</time></trkpt><trkpt lat="43.9261399" lon="11.2371364"><ele>385.40000000000003</ele><time>2026-05-02T12:59:25.903Z</time></trkpt><trkpt lat="43.9260558" lon="11.2370282"><ele>383.8</ele><time>2026-05-02T12:59:26.903Z</time></trkpt><trkpt lat="43.9259892" lon="11.2369237"><ele>382.2</ele><time>2026-05-02T12:59:27.903Z</time></trkpt><trkpt lat="43.925934" lon="11.2368202"><ele>380.6</ele><time>2026-05-02T12:59:28.903Z</time></trkpt><trkpt lat="43.9259013" lon="11.2367045"><ele>379.0</ele><time>2026-05-02T12:59:29.903Z</time></trkpt><trkpt lat="43.9258768" lon="11.2365768"><ele>376.4</ele><time>2026-05-02T12:59:30.903Z</time></trkpt><trkpt lat="43.9258552" lon="11.2364625"><ele>373.79999999999995</ele><time>2026-05-02T12:59:31.903Z</time></trkpt><trkpt lat="43.9258277" lon="11.2363488"><ele>371.20000000000005</ele><time>2026-05-02T12:59:32.903Z</time></trkpt><trkpt lat="43.9257912" lon="11.2362353"><ele>368.6</ele><time>2026-05-02T12:59:33.903Z</time></trkpt><trkpt lat="43.925742" lon="11.2361163"><ele>366.0</ele><time>2026-05-02T12:59:34.903Z</time></trkpt><trkpt lat="43.9256823" lon="11.2359846"><ele>366.0</ele><time>2026-05-02T12:59:35.903Z</time></trkpt><trkpt lat="43.9256275" lon="11.2358372"><ele>366.0</ele><time>2026-05-02T12:59:36.903Z</time></trkpt><trkpt lat="43.92557" lon="11.2356943"><ele>366.0</ele><time>2026-05-02T12:59:37.903Z</time></trkpt><trkpt lat="43.9255118" lon="11.2355582"><ele>366.0</ele><time>2026-05-02T12:59:38.903Z</time></trkpt><trkpt lat="43.9254656" lon="11.2354447"><ele>366.0</ele><time>2026-05-02T12:59:39.903Z</time></trkpt><trkpt lat="43.925413" lon="11.2353751"><ele>364.8333333333333</ele><time>2026-05-02T12:59:40.903Z</time></trkpt><trkpt lat="43.9253535" lon="11.2353406"><ele>363.6666666666667</ele><time>2026-05-02T12:59:41.903Z</time></trkpt><trkpt lat="43.925247" lon="11.2353599"><ele>362.5</ele><time>2026-05-02T12:59:43.903Z</time></trkpt><trkpt lat="43.9251769" lon="11.2354174"><ele>361.33333333333337</ele><time>2026-05-02T12:59:45.903Z</time></trkpt><trkpt lat="43.925113" lon="11.2354669"><ele>360.1666666666667</ele><time>2026-05-02T13:00:11.903Z</time></trkpt><trkpt lat="43.9250248" lon="11.2355308"><ele>359.0</ele><time>2026-05-02T13:00:13.903Z</time></trkpt><trkpt lat="43.924961" lon="11.2355978"><ele>357.6666666666667</ele><time>2026-05-02T13:00:15.903Z</time></trkpt><trkpt lat="43.9249207" lon="11.2357245"><ele>356.33333333333337</ele><time>2026-05-02T13:00:17.903Z</time></trkpt><trkpt lat="43.924892" lon="11.2358065"><ele>355.0</ele><time>2026-05-02T13:00:18.903Z</time></trkpt><trkpt lat="43.9248631" lon="11.2358966"><ele>353.6666666666667</ele><time>2026-05-02T13:00:19.903Z</time></trkpt><trkpt lat="43.9248234" lon="11.2359972"><ele>352.3333333333333</ele><time>2026-05-02T13:00:20.903Z</time></trkpt><trkpt lat="43.9247794" lon="11.2360957"><ele>351.0</ele><time>2026-05-02T13:00:21.903Z</time></trkpt><trkpt lat="43.9247301" lon="11.2361953"><ele>351.0</ele><time>2026-05-02T13:00:22.902Z</time></trkpt><trkpt lat="43.9246807" lon="11.2362948"><ele>351.0</ele><time>2026-05-02T13:00:23.902Z</time></trkpt><trkpt lat="43.924629" lon="11.2364054"><ele>351.0</ele><time>2026-05-02T13:00:24.902Z</time></trkpt><trkpt lat="43.9245723" lon="11.23653"><ele>351.0</ele><time>2026-05-02T13:00:25.902Z</time></trkpt><trkpt lat="43.9245035" lon="11.2366642"><ele>351.0</ele><time>2026-05-02T13:00:26.902Z</time></trkpt><trkpt lat="43.9244402" lon="11.236788"><ele>351.0</ele><time>2026-05-02T13:00:27.902Z</time></trkpt><trkpt lat="43.9243789" lon="11.2369062"><ele>351.0</ele><time>2026-05-02T13:00:28.902Z</time></trkpt><trkpt lat="43.9243146" lon="11.2370216"><ele>351.0</ele><time>2026-05-02T13:00:29.902Z</time></trkpt><trkpt lat="43.9242454" lon="11.237138"><ele>351.0</ele><time>2026-05-02T13:00:30.902Z</time></trkpt><trkpt lat="43.9241699" lon="11.2372534"><ele>351.0</ele><time>2026-05-02T13:00:31.902Z</time></trkpt><trkpt lat="43.9240993" lon="11.2373776"><ele>348.0</ele><time>2026-05-02T13:00:32.902Z</time></trkpt><trkpt lat="43.9240444" lon="11.2374948"><ele>345.0</ele><time>2026-05-02T13:00:33.902Z</time></trkpt><trkpt lat="43.923993" lon="11.2376113"><ele>342.0</ele><time>2026-05-02T13:00:34.902Z</time></trkpt><trkpt lat="43.9239436" lon="11.2377401"><ele>339.0</ele><time>2026-05-02T13:00:35.902Z</time></trkpt><trkpt lat="43.9238824" lon="11.2378681"><ele>336.0</ele><time>2026-05-02T13:00:36.902Z</time></trkpt><trkpt lat="43.9238308" lon="11.2380011"><ele>336.0</ele><time>2026-05-02T13:00:37.902Z</time></trkpt><trkpt lat="43.9237921" lon="11.2381218"><ele>336.0</ele><time>2026-05-02T13:00:38.902Z</time></trkpt><trkpt lat="43.9237643" lon="11.2382066"><ele>336.0</ele><time>2026-05-02T13:00:39.902Z</time></trkpt><trkpt lat="43.9237104" lon="11.2382842"><ele>336.0</ele><time>2026-05-02T13:00:41.902Z</time></trkpt><trkpt lat="43.9236181" lon="11.2382632"><ele>336.0</ele><time>2026-05-02T13:00:43.902Z</time></trkpt><trkpt lat="43.9235451" lon="11.2382213"><ele>336.0</ele><time>2026-05-02T13:00:44.902Z</time></trkpt><trkpt lat="43.9234624" lon="11.2381591"><ele>334.3333333333333</ele><time>2026-05-02T13:00:45.902Z</time></trkpt><trkpt lat="43.9233833" lon="11.2380812"><ele>332.6666666666667</ele><time>2026-05-02T13:00:46.902Z</time></trkpt><trkpt lat="43.9233057" lon="11.2380137"><ele>331.0</ele><time>2026-05-02T13:00:47.902Z</time></trkpt><trkpt lat="43.9232362" lon="11.2379652"><ele>329.33333333333337</ele><time>2026-05-02T13:00:48.902Z</time></trkpt><trkpt lat="43.9231688" lon="11.2379406"><ele>327.6666666666667</ele><time>2026-05-02T13:00:49.902Z</time></trkpt><trkpt lat="43.9231039" lon="11.2379458"><ele>326.0</ele><time>2026-05-02T13:00:50.902Z</time></trkpt><trkpt lat="43.9229883" lon="11.2380209"><ele>326.0</ele><time>2026-05-02T13:00:52.902Z</time></trkpt><trkpt lat="43.9229365" lon="11.2380736"><ele>326.0</ele><time>2026-05-02T13:00:53.902Z</time></trkpt><trkpt lat="43.9228271" lon="11.2382211"><ele>326.0</ele><time>2026-05-02T13:00:55.902Z</time></trkpt><trkpt lat="43.9227902" lon="11.2383089"><ele>326.0</ele><time>2026-05-02T13:00:56.902Z</time></trkpt><trkpt lat="43.9227736" lon="11.2384008"><ele>326.0</ele><time>2026-05-02T13:00:57.902Z</time></trkpt><trkpt lat="43.9227613" lon="11.2384892"><ele>326.0</ele><time>2026-05-02T13:00:58.902Z</time></trkpt><trkpt lat="43.9227567" lon="11.2386368"><ele>328.33333333333337</ele><time>2026-05-02T13:01:00.902Z</time></trkpt><trkpt lat="43.9227815" lon="11.2387718"><ele>330.6666666666667</ele><time>2026-05-02T13:01:02.902Z</time></trkpt><trkpt lat="43.922815" lon="11.2388512"><ele>333.0</ele><time>2026-05-02T13:01:03.902Z</time></trkpt><trkpt lat="43.9228551" lon="11.2389319"><ele>335.3333333333333</ele><time>2026-05-02T13:01:04.902Z</time></trkpt><trkpt lat="43.9229033" lon="11.2390167"><ele>337.66666666666663</ele><time>2026-05-02T13:01:05.902Z</time></trkpt><trkpt lat="43.9229489" lon="11.2391106"><ele>340.0</ele><time>2026-05-02T13:01:06.902Z</time></trkpt><trkpt lat="43.9229929" lon="11.2392093"><ele>340.0</ele><time>2026-05-02T13:01:07.902Z</time></trkpt><trkpt lat="43.923034" lon="11.2393074"><ele>340.0</ele><time>2026-05-02T13:01:08.902Z</time></trkpt><trkpt lat="43.9230783" lon="11.2394037"><ele>340.0</ele><time>2026-05-02T13:01:09.902Z</time></trkpt><trkpt lat="43.9231253" lon="11.2394948"><ele>340.0</ele><time>2026-05-02T13:01:10.902Z</time></trkpt><trkpt lat="43.9231651" lon="11.239591"><ele>340.0</ele><time>2026-05-02T13:01:11.902Z</time></trkpt><trkpt lat="43.9231992" lon="11.2396877"><ele>340.0</ele><time>2026-05-02T13:01:12.902Z</time></trkpt><trkpt lat="43.9232395" lon="11.2397915"><ele>339.66666666666663</ele><time>2026-05-02T13:01:13.902Z</time></trkpt><trkpt lat="43.9232678" lon="11.2398978"><ele>339.3333333333333</ele><time>2026-05-02T13:01:14.902Z</time></trkpt><trkpt lat="43.9232752" lon="11.2399938"><ele>339.0</ele><time>2026-05-02T13:01:15.902Z</time></trkpt><trkpt lat="43.9232847" lon="11.2401361"><ele>338.6666666666667</ele><time>2026-05-02T13:01:17.902Z</time></trkpt><trkpt lat="43.9232352" lon="11.2402105"><ele>338.33333333333337</ele><time>2026-05-02T13:01:19.902Z</time></trkpt><trkpt lat="43.9231591" lon="11.2402083"><ele>338.0</ele><time>2026-05-02T13:01:21.902Z</time></trkpt><trkpt lat="43.9231093" lon="11.240145"><ele>338.0</ele><time>2026-05-02T13:01:24.902Z</time></trkpt><trkpt lat="43.9230881" lon="11.2400325"><ele>338.0</ele><time>2026-05-02T13:01:27.902Z</time></trkpt><trkpt lat="43.9230478" lon="11.2399491"><ele>338.0</ele><time>2026-05-02T13:01:29.902Z</time></trkpt><trkpt lat="43.9229877" lon="11.2398517"><ele>338.0</ele><time>2026-05-02T13:01:31.902Z</time></trkpt><trkpt lat="43.922894" lon="11.2397628"><ele>338.0</ele><time>2026-05-02T13:01:33.902Z</time></trkpt><trkpt lat="43.9228424" lon="11.2396886"><ele>338.0</ele><time>2026-05-02T13:01:34.902Z</time></trkpt><trkpt lat="43.9227846" lon="11.2396248"><ele>338.2857142857143</ele><time>2026-05-02T13:01:35.902Z</time></trkpt><trkpt lat="43.9227287" lon="11.2395422"><ele>338.57142857142856</ele><time>2026-05-02T13:01:36.902Z</time></trkpt><trkpt lat="43.9226835" lon="11.2394602"><ele>338.8571428571429</ele><time>2026-05-02T13:01:37.903Z</time></trkpt><trkpt lat="43.9226408" lon="11.2393761"><ele>339.1428571428571</ele><time>2026-05-02T13:01:38.903Z</time></trkpt><trkpt lat="43.922598" lon="11.2393002"><ele>339.4285714285714</ele><time>2026-05-02T13:01:39.902Z</time></trkpt><trkpt lat="43.9225526" lon="11.2392229"><ele>339.7142857142857</ele><time>2026-05-02T13:01:40.902Z</time></trkpt><trkpt lat="43.9225059" lon="11.2391532"><ele>340.0</ele><time>2026-05-02T13:01:41.902Z</time></trkpt><trkpt lat="43.9224475" lon="11.2390719"><ele>338.2</ele><time>2026-05-02T13:01:42.902Z</time></trkpt><trkpt lat="43.9223845" lon="11.2389824"><ele>336.4</ele><time>2026-05-02T13:01:43.903Z</time></trkpt><trkpt lat="43.9223329" lon="11.2388856"><ele>334.6</ele><time>2026-05-02T13:01:44.902Z</time></trkpt><trkpt lat="43.9222787" lon="11.2387867"><ele>332.8</ele><time>2026-05-02T13:01:45.902Z</time></trkpt><trkpt lat="43.9222166" lon="11.2386899"><ele>331.0</ele><time>2026-05-02T13:01:46.902Z</time></trkpt><trkpt lat="43.9221609" lon="11.2385839"><ele>329.4</ele><time>2026-05-02T13:01:47.902Z</time></trkpt><trkpt lat="43.9220995" lon="11.2384821"><ele>327.8</ele><time>2026-05-02T13:01:48.902Z</time></trkpt><trkpt lat="43.9220338" lon="11.238368"><ele>326.2</ele><time>2026-05-02T13:01:49.902Z</time></trkpt><trkpt lat="43.9219724" lon="11.2382527"><ele>324.59999999999997</ele><time>2026-05-02T13:01:50.902Z</time></trkpt><trkpt lat="43.9219185" lon="11.2381462"><ele>323.0</ele><time>2026-05-02T13:01:51.902Z</time></trkpt><trkpt lat="43.9218628" lon="11.2380523"><ele>322.0</ele><time>2026-05-02T13:01:52.902Z</time></trkpt><trkpt lat="43.9218089" lon="11.2379633"><ele>321.0</ele><time>2026-05-02T13:01:53.902Z</time></trkpt><trkpt lat="43.9217541" lon="11.2378833"><ele>320.0</ele><time>2026-05-02T13:01:54.902Z</time></trkpt><trkpt lat="43.9216915" lon="11.2377967"><ele>319.0</ele><time>2026-05-02T13:01:55.902Z</time></trkpt><trkpt lat="43.9216187" lon="11.2377156"><ele>318.0</ele><time>2026-05-02T13:01:56.902Z</time></trkpt><trkpt lat="43.9215433" lon="11.2376421"><ele>317.0</ele><time>2026-05-02T13:01:57.902Z</time></trkpt><trkpt lat="43.9214612" lon="11.2375736"><ele>317.0</ele><time>2026-05-02T13:01:58.902Z</time></trkpt><trkpt lat="43.9213849" lon="11.2375073"><ele>317.0</ele><time>2026-05-02T13:01:59.902Z</time></trkpt><trkpt lat="43.9213176" lon="11.237447"><ele>317.0</ele><time>2026-05-02T13:02:00.902Z</time></trkpt><trkpt lat="43.9212408" lon="11.237405"><ele>317.0</ele><time>2026-05-02T13:02:01.902Z</time></trkpt><trkpt lat="43.9211757" lon="11.2373715"><ele>317.0</ele><time>2026-05-02T13:02:02.902Z</time></trkpt><trkpt lat="43.9211139" lon="11.2373466"><ele>317.0</ele><time>2026-05-02T13:02:03.902Z</time></trkpt><trkpt lat="43.9209997" lon="11.2373413"><ele>317.0</ele><time>2026-05-02T13:02:05.902Z</time></trkpt><trkpt lat="43.920933" lon="11.2373636"><ele>317.0</ele><time>2026-05-02T13:02:06.902Z</time></trkpt><trkpt lat="43.9208181" lon="11.237429"><ele>317.0</ele><time>2026-05-02T13:02:08.902Z</time></trkpt><trkpt lat="43.9206974" lon="11.2374328"><ele>317.0</ele><time>2026-05-02T13:02:10.902Z</time></trkpt><trkpt lat="43.9206084" lon="11.237414"><ele>317.0</ele><time>2026-05-02T13:02:11.902Z</time></trkpt><trkpt lat="43.920528" lon="11.237368"><ele>317.8</ele><time>2026-05-02T13:02:12.902Z</time></trkpt><trkpt lat="43.9204592" lon="11.237318"><ele>318.6</ele><time>2026-05-02T13:02:13.902Z</time></trkpt><trkpt lat="43.9204012" lon="11.2372811"><ele>319.40000000000003</ele><time>2026-05-02T13:02:14.902Z</time></trkpt><trkpt lat="43.9202954" lon="11.2372208"><ele>320.2</ele><time>2026-05-02T13:02:16.902Z</time></trkpt><trkpt lat="43.9201606" lon="11.2371751"><ele>321.0</ele><time>2026-05-02T13:02:18.902Z</time></trkpt><trkpt lat="43.9200691" lon="11.2371492"><ele>320.6</ele><time>2026-05-02T13:02:19.902Z</time></trkpt><trkpt lat="43.9199723" lon="11.2371152"><ele>320.20000000000005</ele><time>2026-05-02T13:02:20.902Z</time></trkpt><trkpt lat="43.9198758" lon="11.237072"><ele>319.79999999999995</ele><time>2026-05-02T13:02:21.902Z</time></trkpt><trkpt lat="43.9197833" lon="11.2370268"><ele>319.4</ele><time>2026-05-02T13:02:22.902Z</time></trkpt><trkpt lat="43.9196749" lon="11.2369796"><ele>319.0</ele><time>2026-05-02T13:02:23.902Z</time></trkpt><trkpt lat="43.9195651" lon="11.2369198"><ele>319.0</ele><time>2026-05-02T13:02:24.902Z</time></trkpt><trkpt lat="43.9194481" lon="11.2368429"><ele>319.0</ele><time>2026-05-02T13:02:25.902Z</time></trkpt><trkpt lat="43.9193387" lon="11.2367618"><ele>319.0</ele><time>2026-05-02T13:02:26.902Z</time></trkpt><trkpt lat="43.9192417" lon="11.2367026"><ele>319.0</ele><time>2026-05-02T13:02:27.902Z</time></trkpt><trkpt lat="43.9191559" lon="11.2366631"><ele>318.4</ele><time>2026-05-02T13:02:28.902Z</time></trkpt><trkpt lat="43.9190648" lon="11.2366306"><ele>317.79999999999995</ele><time>2026-05-02T13:02:29.902Z</time></trkpt><trkpt lat="43.9189949" lon="11.2365803"><ele>317.20000000000005</ele><time>2026-05-02T13:02:30.902Z</time></trkpt><trkpt lat="43.9189339" lon="11.2365002"><ele>316.6</ele><time>2026-05-02T13:02:31.902Z</time></trkpt><trkpt lat="43.918871" lon="11.2363894"><ele>316.0</ele><time>2026-05-02T13:02:32.902Z</time></trkpt><trkpt lat="43.9188121" lon="11.2362676"><ele>316.0</ele><time>2026-05-02T13:02:33.902Z</time></trkpt><trkpt lat="43.9187455" lon="11.2361364"><ele>316.0</ele><time>2026-05-02T13:02:34.902Z</time></trkpt><trkpt lat="43.9186753" lon="11.2360096"><ele>316.0</ele><time>2026-05-02T13:02:35.902Z</time></trkpt><trkpt lat="43.9186086" lon="11.2358878"><ele>316.0</ele><time>2026-05-02T13:02:36.902Z</time></trkpt><trkpt lat="43.9185502" lon="11.2357716"><ele>316.0</ele><time>2026-05-02T13:02:37.902Z</time></trkpt><trkpt lat="43.9185029" lon="11.2356529"><ele>314.2</ele><time>2026-05-02T13:02:38.902Z</time></trkpt><trkpt lat="43.9184569" lon="11.235517"><ele>312.40000000000003</ele><time>2026-05-02T13:02:39.902Z</time></trkpt><trkpt lat="43.9184096" lon="11.2353796"><ele>310.6</ele><time>2026-05-02T13:02:40.902Z</time></trkpt><trkpt lat="43.9183682" lon="11.2352442"><ele>308.8</ele><time>2026-05-02T13:02:41.902Z</time></trkpt><trkpt lat="43.9183404" lon="11.2351214"><ele>307.0</ele><time>2026-05-02T13:02:42.902Z</time></trkpt><trkpt lat="43.9183203" lon="11.2350087"><ele>310.66666666666663</ele><time>2026-05-02T13:02:43.902Z</time></trkpt><trkpt lat="43.9183067" lon="11.2348838"><ele>314.3333333333333</ele><time>2026-05-02T13:02:44.902Z</time></trkpt><trkpt lat="43.9182896" lon="11.2347478"><ele>318.0</ele><time>2026-05-02T13:02:45.902Z</time></trkpt><trkpt lat="43.9182657" lon="11.2346202"><ele>321.6666666666667</ele><time>2026-05-02T13:02:46.902Z</time></trkpt><trkpt lat="43.9182409" lon="11.2345079"><ele>325.33333333333337</ele><time>2026-05-02T13:02:47.902Z</time></trkpt><trkpt lat="43.9182131" lon="11.2344117"><ele>329.0</ele><time>2026-05-02T13:02:48.902Z</time></trkpt><trkpt lat="43.9181768" lon="11.2343279"><ele>329.0</ele><time>2026-05-02T13:02:49.902Z</time></trkpt><trkpt lat="43.9181358" lon="11.2342571"><ele>329.0</ele><time>2026-05-02T13:02:50.902Z</time></trkpt><trkpt lat="43.918061" lon="11.2341885"><ele>329.0</ele><time>2026-05-02T13:02:52.902Z</time></trkpt><trkpt lat="43.9180144" lon="11.2341153"><ele>329.0</ele><time>2026-05-02T13:02:54.902Z</time></trkpt><trkpt lat="43.9180011" lon="11.2340096"><ele>329.0</ele><time>2026-05-02T13:02:56.902Z</time></trkpt><trkpt lat="43.9179818" lon="11.2338857"><ele>329.0</ele><time>2026-05-02T13:02:58.902Z</time></trkpt><trkpt lat="43.917969" lon="11.2337409"><ele>328.5</ele><time>2026-05-02T13:03:00.902Z</time></trkpt><trkpt lat="43.9179649" lon="11.2336501"><ele>328.0</ele><time>2026-05-02T13:03:01.902Z</time></trkpt><trkpt lat="43.9179545" lon="11.2335618"><ele>327.5</ele><time>2026-05-02T13:03:02.902Z</time></trkpt><trkpt lat="43.9179299" lon="11.2334514"><ele>327.0</ele><time>2026-05-02T13:03:03.902Z</time></trkpt><trkpt lat="43.9179013" lon="11.2333386"><ele>326.5</ele><time>2026-05-02T13:03:04.902Z</time></trkpt><trkpt lat="43.9178682" lon="11.2332227"><ele>326.0</ele><time>2026-05-02T13:03:05.902Z</time></trkpt><trkpt lat="43.9178286" lon="11.2330977"><ele>325.5</ele><time>2026-05-02T13:03:06.902Z</time></trkpt><trkpt lat="43.9177887" lon="11.2329865"><ele>325.0</ele><time>2026-05-02T13:03:07.902Z</time></trkpt><trkpt lat="43.917744" lon="11.2328856"><ele>324.5</ele><time>2026-05-02T13:03:08.902Z</time></trkpt><trkpt lat="43.9176864" lon="11.2327934"><ele>324.0</ele><time>2026-05-02T13:03:09.902Z</time></trkpt><trkpt lat="43.9176371" lon="11.2327171"><ele>323.5</ele><time>2026-05-02T13:03:10.902Z</time></trkpt><trkpt lat="43.9175685" lon="11.2326159"><ele>323.0</ele><time>2026-05-02T13:03:12.902Z</time></trkpt><trkpt lat="43.9175202" lon="11.232545"><ele>323.0</ele><time>2026-05-02T13:04:37.901Z</time></trkpt><trkpt lat="43.9174857" lon="11.2324664"><ele>323.0</ele><time>2026-05-02T13:04:38.901Z</time></trkpt><trkpt lat="43.9174532" lon="11.2323858"><ele>323.0</ele><time>2026-05-02T13:04:39.901Z</time></trkpt><trkpt lat="43.9174273" lon="11.2322774"><ele>323.0</ele><time>2026-05-02T13:04:41.901Z</time></trkpt><trkpt lat="43.9174119" lon="11.232165"><ele>323.0</ele><time>2026-05-02T13:04:44.901Z</time></trkpt><trkpt lat="43.9173963" lon="11.232046"><ele>323.0</ele><time>2026-05-02T13:04:46.901Z</time></trkpt><trkpt lat="43.9173769" lon="11.2319307"><ele>322.83333333333337</ele><time>2026-05-02T13:04:48.901Z</time></trkpt><trkpt lat="43.9173453" lon="11.2318299"><ele>322.6666666666667</ele><time>2026-05-02T13:04:50.901Z</time></trkpt><trkpt lat="43.9173096" lon="11.2317351"><ele>322.5</ele><time>2026-05-02T13:04:52.901Z</time></trkpt><trkpt lat="43.9172816" lon="11.2316566"><ele>322.3333333333333</ele><time>2026-05-02T13:04:54.901Z</time></trkpt><trkpt lat="43.9172526" lon="11.231563"><ele>322.16666666666663</ele><time>2026-05-02T13:04:56.901Z</time></trkpt><trkpt lat="43.9172374" lon="11.2314494"><ele>322.0</ele><time>2026-05-02T13:04:58.901Z</time></trkpt><trkpt lat="43.9172243" lon="11.2313456"><ele>321.16666666666663</ele><time>2026-05-02T13:05:00.901Z</time></trkpt><trkpt lat="43.9172348" lon="11.2312517"><ele>320.3333333333333</ele><time>2026-05-02T13:05:02.901Z</time></trkpt><trkpt lat="43.9172677" lon="11.2311576"><ele>319.5</ele><time>2026-05-02T13:05:04.901Z</time></trkpt><trkpt lat="43.9173026" lon="11.2310517"><ele>318.6666666666667</ele><time>2026-05-02T13:05:06.901Z</time></trkpt><trkpt lat="43.9173341" lon="11.2309523"><ele>317.83333333333337</ele><time>2026-05-02T13:05:08.901Z</time></trkpt><trkpt lat="43.9173241" lon="11.2308558"><ele>317.0</ele><time>2026-05-02T13:05:10.901Z</time></trkpt><trkpt lat="43.9173117" lon="11.2307492"><ele>316.8</ele><time>2026-05-02T13:05:12.901Z</time></trkpt><trkpt lat="43.9172904" lon="11.2306083"><ele>316.6</ele><time>2026-05-02T13:05:14.901Z</time></trkpt><trkpt lat="43.9172648" lon="11.2304278"><ele>316.40000000000003</ele><time>2026-05-02T13:05:16.901Z</time></trkpt><trkpt lat="43.9172518" lon="11.2303145"><ele>316.2</ele><time>2026-05-02T13:05:17.901Z</time></trkpt><trkpt lat="43.9172337" lon="11.2302062"><ele>316.0</ele><time>2026-05-02T13:05:18.901Z</time></trkpt><trkpt lat="43.9172094" lon="11.2300824"><ele>316.0</ele><time>2026-05-02T13:05:19.901Z</time></trkpt><trkpt lat="43.9171812" lon="11.2299595"><ele>316.0</ele><time>2026-05-02T13:05:20.901Z</time></trkpt><trkpt lat="43.917163" lon="11.2298442"><ele>316.0</ele><time>2026-05-02T13:05:21.901Z</time></trkpt><trkpt lat="43.9171594" lon="11.2297251"><ele>316.0</ele><time>2026-05-02T13:05:22.901Z</time></trkpt><trkpt lat="43.9171455" lon="11.2296228"><ele>316.0</ele><time>2026-05-02T13:05:23.901Z</time></trkpt><trkpt lat="43.9171091" lon="11.2294763"><ele>315.0</ele><time>2026-05-02T13:05:25.901Z</time></trkpt><trkpt lat="43.9170513" lon="11.229408"><ele>314.0</ele><time>2026-05-02T13:05:27.901Z</time></trkpt><trkpt lat="43.9168923" lon="11.2294299"><ele>313.0</ele><time>2026-05-02T13:05:29.901Z</time></trkpt><trkpt lat="43.9167687" lon="11.2294522"><ele>312.0</ele><time>2026-05-02T13:05:30.901Z</time></trkpt><trkpt lat="43.9166614" lon="11.2294833"><ele>308.4</ele><time>2026-05-02T13:05:31.901Z</time></trkpt><trkpt lat="43.9165651" lon="11.2295116"><ele>304.79999999999995</ele><time>2026-05-02T13:05:32.901Z</time></trkpt><trkpt lat="43.9164669" lon="11.2295247"><ele>301.2</ele><time>2026-05-02T13:05:33.901Z</time></trkpt><trkpt lat="43.9163778" lon="11.2295301"><ele>297.59999999999997</ele><time>2026-05-02T13:05:34.901Z</time></trkpt><trkpt lat="43.9162857" lon="11.2295345"><ele>294.0</ele><time>2026-05-02T13:05:35.901Z</time></trkpt><trkpt lat="43.9162029" lon="11.2295363"><ele>294.0</ele><time>2026-05-02T13:05:36.901Z</time></trkpt><trkpt lat="43.9161271" lon="11.2295425"><ele>294.0</ele><time>2026-05-02T13:05:37.901Z</time></trkpt><trkpt lat="43.9160627" lon="11.2295476"><ele>294.0</ele><time>2026-05-02T13:05:38.901Z</time></trkpt><trkpt lat="43.9159601" lon="11.2295472"><ele>294.0</ele><time>2026-05-02T13:05:40.901Z</time></trkpt><trkpt lat="43.9158753" lon="11.2294859"><ele>294.0</ele><time>2026-05-02T13:05:42.901Z</time></trkpt><trkpt lat="43.9157854" lon="11.2294195"><ele>294.0</ele><time>2026-05-02T13:05:44.901Z</time></trkpt><trkpt lat="43.9156867" lon="11.2293556"><ele>290.8</ele><time>2026-05-02T13:05:46.901Z</time></trkpt><trkpt lat="43.9156064" lon="11.2292347"><ele>287.59999999999997</ele><time>2026-05-02T13:05:48.901Z</time></trkpt><trkpt lat="43.9155591" lon="11.2291572"><ele>284.4</ele><time>2026-05-02T13:05:49.901Z</time></trkpt><trkpt lat="43.9155058" lon="11.2290576"><ele>281.2</ele><time>2026-05-02T13:05:50.901Z</time></trkpt><trkpt lat="43.9154547" lon="11.228949"><ele>278.0</ele><time>2026-05-02T13:05:51.901Z</time></trkpt><trkpt lat="43.9154078" lon="11.2288258"><ele>275.0</ele><time>2026-05-02T13:05:52.901Z</time></trkpt><trkpt lat="43.9153596" lon="11.2287049"><ele>272.0</ele><time>2026-05-02T13:05:53.901Z</time></trkpt><trkpt lat="43.9153156" lon="11.2285859"><ele>269.0</ele><time>2026-05-02T13:05:54.902Z</time></trkpt><trkpt lat="43.9152717" lon="11.2284755"><ele>266.0</ele><time>2026-05-02T13:05:55.901Z</time></trkpt><trkpt lat="43.9152246" lon="11.2283685"><ele>263.0</ele><time>2026-05-02T13:05:56.901Z</time></trkpt><trkpt lat="43.9151656" lon="11.2282729"><ele>263.0</ele><time>2026-05-02T13:05:57.901Z</time></trkpt><trkpt lat="43.9151102" lon="11.2282054"><ele>263.0</ele><time>2026-05-02T13:05:58.901Z</time></trkpt><trkpt lat="43.9150364" lon="11.2281661"><ele>263.0</ele><time>2026-05-02T13:05:59.901Z</time></trkpt><trkpt lat="43.9149677" lon="11.2281067"><ele>263.0</ele><time>2026-05-02T13:06:00.901Z</time></trkpt><trkpt lat="43.9149157" lon="11.2280344"><ele>263.0</ele><time>2026-05-02T13:06:01.901Z</time></trkpt><trkpt lat="43.914876" lon="11.2279596"><ele>263.0</ele><time>2026-05-02T13:06:02.901Z</time></trkpt><trkpt lat="43.9148305" lon="11.2278833"><ele>263.0</ele><time>2026-05-02T13:06:03.901Z</time></trkpt><trkpt lat="43.9147768" lon="11.2278156"><ele>260.5</ele><time>2026-05-02T13:06:04.901Z</time></trkpt><trkpt lat="43.9147217" lon="11.2277529"><ele>258.0</ele><time>2026-05-02T13:06:05.901Z</time></trkpt><trkpt lat="43.9146624" lon="11.2276815"><ele>255.5</ele><time>2026-05-02T13:06:06.901Z</time></trkpt><trkpt lat="43.9145955" lon="11.2275973"><ele>253.0</ele><time>2026-05-02T13:06:07.901Z</time></trkpt><trkpt lat="43.9145306" lon="11.2275183"><ele>250.50000000000003</ele><time>2026-05-02T13:06:08.901Z</time></trkpt><trkpt lat="43.9144589" lon="11.2274324"><ele>248.0</ele><time>2026-05-02T13:06:09.901Z</time></trkpt><trkpt lat="43.9143801" lon="11.2273592"><ele>244.66666666666669</ele><time>2026-05-02T13:06:10.901Z</time></trkpt><trkpt lat="43.9143078" lon="11.2273003"><ele>241.33333333333334</ele><time>2026-05-02T13:06:11.901Z</time></trkpt><trkpt lat="43.9142565" lon="11.227236"><ele>238.0</ele><time>2026-05-02T13:06:12.901Z</time></trkpt><trkpt lat="43.9142882" lon="11.2271052"><ele>234.66666666666669</ele><time>2026-05-02T13:06:14.901Z</time></trkpt><trkpt lat="43.914369" lon="11.2270765"><ele>231.33333333333334</ele><time>2026-05-02T13:06:15.901Z</time></trkpt><trkpt lat="43.9144731" lon="11.2270622"><ele>228.0</ele><time>2026-05-02T13:06:16.901Z</time></trkpt><trkpt lat="43.9145875" lon="11.2270418"><ele>228.0</ele><time>2026-05-02T13:06:17.901Z</time></trkpt><trkpt lat="43.9147064" lon="11.2270148"><ele>228.0</ele><time>2026-05-02T13:06:18.901Z</time></trkpt><trkpt lat="43.9148263" lon="11.2269888"><ele>228.0</ele><time>2026-05-02T13:06:19.901Z</time></trkpt><trkpt lat="43.9149485" lon="11.2269632"><ele>228.0</ele><time>2026-05-02T13:06:20.901Z</time></trkpt><trkpt lat="43.9150668" lon="11.2269344"><ele>228.0</ele><time>2026-05-02T13:06:21.901Z</time></trkpt><trkpt lat="43.9151745" lon="11.2269123"><ele>228.0</ele><time>2026-05-02T13:06:22.901Z</time></trkpt><trkpt lat="43.9152716" lon="11.2268889"><ele>228.0</ele><time>2026-05-02T13:06:23.901Z</time></trkpt><trkpt lat="43.9153562" lon="11.226871"><ele>228.0</ele><time>2026-05-02T13:06:24.901Z</time></trkpt><trkpt lat="43.9153864" lon="11.2267729"><ele>228.0</ele><time>2026-05-02T13:06:26.902Z</time></trkpt><trkpt lat="43.9153108" lon="11.22665"><ele>228.0</ele><time>2026-05-02T13:06:28.901Z</time></trkpt><trkpt lat="43.9152462" lon="11.2265728"><ele>228.0</ele><time>2026-05-02T13:06:29.901Z</time></trkpt><trkpt lat="43.9151513" lon="11.2264977"><ele>228.0</ele><time>2026-05-02T13:06:30.901Z</time></trkpt><trkpt lat="43.9150427" lon="11.2264231"><ele>228.0</ele><time>2026-05-02T13:06:31.901Z</time></trkpt><trkpt lat="43.9149395" lon="11.2263485"><ele>228.0</ele><time>2026-05-02T13:06:32.901Z</time></trkpt><trkpt lat="43.9148365" lon="11.2262689"><ele>225.0</ele><time>2026-05-02T13:06:33.901Z</time></trkpt><trkpt lat="43.9147396" lon="11.2261856"><ele>222.0</ele><time>2026-05-02T13:06:34.901Z</time></trkpt><trkpt lat="43.9146432" lon="11.2261135"><ele>219.0</ele><time>2026-05-02T13:06:35.901Z</time></trkpt><trkpt lat="43.9145609" lon="11.2260492"><ele>216.0</ele><time>2026-05-02T13:06:36.901Z</time></trkpt><trkpt lat="43.9144733" lon="11.2260034"><ele>213.0</ele><time>2026-05-02T13:06:37.901Z</time></trkpt><trkpt lat="43.914375" lon="11.2259804"><ele>213.0</ele><time>2026-05-02T13:06:38.901Z</time></trkpt><trkpt lat="43.9142776" lon="11.2259804"><ele>213.0</ele><time>2026-05-02T13:06:39.901Z</time></trkpt><trkpt lat="43.9141881" lon="11.2259911"><ele>213.0</ele><time>2026-05-02T13:06:40.901Z</time></trkpt><trkpt lat="43.9141197" lon="11.2260054"><ele>213.0</ele><time>2026-05-02T13:06:41.901Z</time></trkpt><trkpt lat="43.9140288" lon="11.2259801"><ele>213.0</ele><time>2026-05-02T13:06:43.901Z</time></trkpt><trkpt lat="43.9140697" lon="11.2258274"><ele>212.5</ele><time>2026-05-02T13:06:46.901Z</time></trkpt><trkpt lat="43.9141115" lon="11.2257519"><ele>212.0</ele><time>2026-05-02T13:06:47.901Z</time></trkpt><trkpt lat="43.9141532" lon="11.2256741"><ele>211.5</ele><time>2026-05-02T13:06:48.901Z</time></trkpt><trkpt lat="43.914195" lon="11.2255877"><ele>211.0</ele><time>2026-05-02T13:06:49.901Z</time></trkpt><trkpt lat="43.914228" lon="11.2254922"><ele>210.5</ele><time>2026-05-02T13:06:50.901Z</time></trkpt><trkpt lat="43.9142535" lon="11.2253984"><ele>210.0</ele><time>2026-05-02T13:06:51.901Z</time></trkpt><trkpt lat="43.9143018" lon="11.2252398"><ele>209.4</ele><time>2026-05-02T13:06:53.901Z</time></trkpt><trkpt lat="43.914349" lon="11.2250911"><ele>208.8</ele><time>2026-05-02T13:06:55.9Z</time></trkpt><trkpt lat="43.9143975" lon="11.2249403"><ele>208.2</ele><time>2026-05-02T13:06:57.9Z</time></trkpt><trkpt lat="43.9144409" lon="11.2248152"><ele>207.6</ele><time>2026-05-02T13:06:59.9Z</time></trkpt><trkpt lat="43.9144596" lon="11.224697"><ele>207.0</ele><time>2026-05-02T13:07:02.9Z</time></trkpt><trkpt lat="43.9144202" lon="11.2245675"><ele>207.0</ele><time>2026-05-02T13:07:04.9Z</time></trkpt><trkpt lat="43.9143781" lon="11.2244863"><ele>207.0</ele><time>2026-05-02T13:07:05.9Z</time></trkpt><trkpt lat="43.9143235" lon="11.2244012"><ele>207.0</ele><time>2026-05-02T13:07:06.9Z</time></trkpt><trkpt lat="43.9142643" lon="11.2243105"><ele>207.0</ele><time>2026-05-02T13:07:07.9Z</time></trkpt><trkpt lat="43.9142047" lon="11.224226"><ele>207.0</ele><time>2026-05-02T13:07:08.9Z</time></trkpt><trkpt lat="43.9141303" lon="11.2241577"><ele>207.0</ele><time>2026-05-02T13:07:09.9Z</time></trkpt><trkpt lat="43.9140206" lon="11.2241023"><ele>205.75</ele><time>2026-05-02T13:07:10.9Z</time></trkpt><trkpt lat="43.9138979" lon="11.2240459"><ele>204.5</ele><time>2026-05-02T13:07:11.9Z</time></trkpt><trkpt lat="43.9137718" lon="11.2239647"><ele>203.25</ele><time>2026-05-02T13:07:12.9Z</time></trkpt><trkpt lat="43.9136479" lon="11.2238426"><ele>202.0</ele><time>2026-05-02T13:07:13.9Z</time></trkpt><trkpt lat="43.913536" lon="11.2236984"><ele>202.0</ele><time>2026-05-02T13:07:14.9Z</time></trkpt><trkpt lat="43.913436" lon="11.2235314"><ele>202.0</ele><time>2026-05-02T13:07:15.9Z</time></trkpt><trkpt lat="43.9133507" lon="11.2233744"><ele>202.0</ele><time>2026-05-02T13:07:16.9Z</time></trkpt><trkpt lat="43.9132657" lon="11.2232272"><ele>202.0</ele><time>2026-05-02T13:07:17.9Z</time></trkpt><trkpt lat="43.9131906" lon="11.2230911"><ele>199.8</ele><time>2026-05-02T13:07:18.9Z</time></trkpt><trkpt lat="43.9131225" lon="11.2229651"><ele>197.6</ele><time>2026-05-02T13:07:19.9Z</time></trkpt><trkpt lat="43.9130786" lon="11.2228334"><ele>195.4</ele><time>2026-05-02T13:07:20.9Z</time></trkpt><trkpt lat="43.9130536" lon="11.2226907"><ele>193.20000000000002</ele><time>2026-05-02T13:07:21.9Z</time></trkpt><trkpt lat="43.9130421" lon="11.2225317"><ele>191.0</ele><time>2026-05-02T13:07:22.9Z</time></trkpt><trkpt lat="43.9130386" lon="11.2223673"><ele>191.25</ele><time>2026-05-02T13:07:23.9Z</time></trkpt><trkpt lat="43.9130416" lon="11.2222"><ele>191.5</ele><time>2026-05-02T13:07:24.9Z</time></trkpt><trkpt lat="43.9130473" lon="11.2220212"><ele>191.75</ele><time>2026-05-02T13:07:25.9Z</time></trkpt><trkpt lat="43.913045" lon="11.2218511"><ele>192.0</ele><time>2026-05-02T13:07:26.9Z</time></trkpt><trkpt lat="43.9130306" lon="11.2216957"><ele>192.0</ele><time>2026-05-02T13:07:27.9Z</time></trkpt><trkpt lat="43.9130056" lon="11.221545"><ele>192.0</ele><time>2026-05-02T13:07:28.9Z</time></trkpt><trkpt lat="43.9129782" lon="11.2213971"><ele>192.0</ele><time>2026-05-02T13:07:29.9Z</time></trkpt><trkpt lat="43.9129374" lon="11.2212419"><ele>192.0</ele><time>2026-05-02T13:07:30.9Z</time></trkpt><trkpt lat="43.9128907" lon="11.2210752"><ele>194.0</ele><time>2026-05-02T13:07:31.9Z</time></trkpt><trkpt lat="43.912855" lon="11.2208922"><ele>196.0</ele><time>2026-05-02T13:07:32.9Z</time></trkpt><trkpt lat="43.9128282" lon="11.2207021"><ele>198.0</ele><time>2026-05-02T13:07:33.9Z</time></trkpt><trkpt lat="43.9127925" lon="11.2205274"><ele>200.0</ele><time>2026-05-02T13:07:34.9Z</time></trkpt><trkpt lat="43.9127251" lon="11.220368"><ele>203.33333333333334</ele><time>2026-05-02T13:07:35.9Z</time></trkpt><trkpt lat="43.9126345" lon="11.2202241"><ele>206.66666666666669</ele><time>2026-05-02T13:07:36.9Z</time></trkpt><trkpt lat="43.9125065" lon="11.2200999"><ele>210.0</ele><time>2026-05-02T13:07:37.9Z</time></trkpt><trkpt lat="43.9123612" lon="11.219987"><ele>206.66666666666669</ele><time>2026-05-02T13:07:38.9Z</time></trkpt><trkpt lat="43.9121999" lon="11.2198873"><ele>203.33333333333334</ele><time>2026-05-02T13:07:39.9Z</time></trkpt><trkpt lat="43.9120289" lon="11.2198054"><ele>200.0</ele><time>2026-05-02T13:07:40.9Z</time></trkpt><trkpt lat="43.9118689" lon="11.2197126"><ele>195.0</ele><time>2026-05-02T13:07:41.9Z</time></trkpt><trkpt lat="43.911724" lon="11.2196088"><ele>190.0</ele><time>2026-05-02T13:07:42.9Z</time></trkpt><trkpt lat="43.9115943" lon="11.2195066"><ele>185.0</ele><time>2026-05-02T13:07:43.9Z</time></trkpt><trkpt lat="43.9114677" lon="11.2193883"><ele>185.0</ele><time>2026-05-02T13:07:44.9Z</time></trkpt><trkpt lat="43.9113434" lon="11.2192526"><ele>185.0</ele><time>2026-05-02T13:07:45.9Z</time></trkpt><trkpt lat="43.9112287" lon="11.2190992"><ele>185.0</ele><time>2026-05-02T13:07:46.9Z</time></trkpt><trkpt lat="43.9111027" lon="11.2189413"><ele>185.33333333333331</ele><time>2026-05-02T13:07:47.9Z</time></trkpt><trkpt lat="43.9109696" lon="11.2188092"><ele>185.66666666666666</ele><time>2026-05-02T13:07:48.9Z</time></trkpt><trkpt lat="43.9108369" lon="11.2186736"><ele>186.0</ele><time>2026-05-02T13:07:49.9Z</time></trkpt><trkpt lat="43.9107023" lon="11.2185485"><ele>186.0</ele><time>2026-05-02T13:07:50.9Z</time></trkpt><trkpt lat="43.9105711" lon="11.2184249"><ele>186.0</ele><time>2026-05-02T13:07:51.9Z</time></trkpt><trkpt lat="43.9104383" lon="11.218301"><ele>186.0</ele><time>2026-05-02T13:07:52.9Z</time></trkpt><trkpt lat="43.910305" lon="11.2181695"><ele>185.0</ele><time>2026-05-02T13:07:53.9Z</time></trkpt><trkpt lat="43.9101653" lon="11.218051"><ele>184.0</ele><time>2026-05-02T13:07:54.9Z</time></trkpt><trkpt lat="43.9100256" lon="11.2179393"><ele>183.0</ele><time>2026-05-02T13:07:55.9Z</time></trkpt><trkpt lat="43.909898" lon="11.2178435"><ele>183.0</ele><time>2026-05-02T13:07:56.901Z</time></trkpt><trkpt lat="43.9097743" lon="11.2177479"><ele>183.0</ele><time>2026-05-02T13:07:57.9Z</time></trkpt><trkpt lat="43.9096655" lon="11.2176594"><ele>183.0</ele><time>2026-05-02T13:07:58.9Z</time></trkpt><trkpt lat="43.9095543" lon="11.2175707"><ele>183.0</ele><time>2026-05-02T13:07:59.9Z</time></trkpt><trkpt lat="43.9094335" lon="11.2174752"><ele>183.0</ele><time>2026-05-02T13:08:00.9Z</time></trkpt><trkpt lat="43.9093101" lon="11.217373"><ele>183.0</ele><time>2026-05-02T13:08:01.9Z</time></trkpt><trkpt lat="43.9091887" lon="11.2172584"><ele>183.0</ele><time>2026-05-02T13:08:02.9Z</time></trkpt><trkpt lat="43.9090618" lon="11.2171348"><ele>183.0</ele><time>2026-05-02T13:08:03.9Z</time></trkpt><trkpt lat="43.9089461" lon="11.2170012"><ele>181.75</ele><time>2026-05-02T13:08:04.9Z</time></trkpt><trkpt lat="43.9088406" lon="11.2168742"><ele>180.5</ele><time>2026-05-02T13:08:05.9Z</time></trkpt><trkpt lat="43.9087362" lon="11.2167488"><ele>179.25</ele><time>2026-05-02T13:08:06.9Z</time></trkpt><trkpt lat="43.9086347" lon="11.2166301"><ele>178.0</ele><time>2026-05-02T13:08:07.9Z</time></trkpt><trkpt lat="43.9085324" lon="11.2165129"><ele>178.33333333333334</ele><time>2026-05-02T13:08:08.9Z</time></trkpt><trkpt lat="43.9084266" lon="11.2163993"><ele>178.66666666666666</ele><time>2026-05-02T13:08:09.9Z</time></trkpt><trkpt lat="43.9083073" lon="11.2162754"><ele>179.0</ele><time>2026-05-02T13:08:10.9Z</time></trkpt><trkpt lat="43.9081642" lon="11.2161496"><ele>179.0</ele><time>2026-05-02T13:08:11.9Z</time></trkpt><trkpt lat="43.9080113" lon="11.2160271"><ele>179.0</ele><time>2026-05-02T13:08:12.9Z</time></trkpt><trkpt lat="43.9078666" lon="11.2158974"><ele>179.0</ele><time>2026-05-02T13:08:13.9Z</time></trkpt><trkpt lat="43.9077292" lon="11.215772"><ele>179.0</ele><time>2026-05-02T13:08:14.9Z</time></trkpt><trkpt lat="43.9076016" lon="11.215681"><ele>179.0</ele><time>2026-05-02T13:08:15.9Z</time></trkpt><trkpt lat="43.9074871" lon="11.2155776"><ele>179.0</ele><time>2026-05-02T13:08:16.9Z</time></trkpt><trkpt lat="43.9073801" lon="11.2154668"><ele>179.0</ele><time>2026-05-02T13:08:17.9Z</time></trkpt><trkpt lat="43.9072784" lon="11.2153271"><ele>178.33333333333331</ele><time>2026-05-02T13:08:18.9Z</time></trkpt><trkpt lat="43.9071743" lon="11.2151705"><ele>177.66666666666666</ele><time>2026-05-02T13:08:19.9Z</time></trkpt><trkpt lat="43.9070749" lon="11.2149896"><ele>177.0</ele><time>2026-05-02T13:08:20.9Z</time></trkpt><trkpt lat="43.9069893" lon="11.2147731"><ele>180.0</ele><time>2026-05-02T13:08:21.9Z</time></trkpt><trkpt lat="43.9069176" lon="11.2145368"><ele>183.0</ele><time>2026-05-02T13:08:22.9Z</time></trkpt><trkpt lat="43.9068482" lon="11.2142845"><ele>186.0</ele><time>2026-05-02T13:08:23.9Z</time></trkpt><trkpt lat="43.906789" lon="11.2140438"><ele>181.33333333333334</ele><time>2026-05-02T13:08:24.9Z</time></trkpt><trkpt lat="43.9067307" lon="11.2138326"><ele>176.66666666666669</ele><time>2026-05-02T13:08:25.9Z</time></trkpt><trkpt lat="43.9066575" lon="11.2136254"><ele>172.0</ele><time>2026-05-02T13:08:26.9Z</time></trkpt><trkpt lat="43.9065736" lon="11.2134182"><ele>172.0</ele><time>2026-05-02T13:08:27.9Z</time></trkpt><trkpt lat="43.9064869" lon="11.2132123"><ele>172.0</ele><time>2026-05-02T13:08:28.9Z</time></trkpt><trkpt lat="43.9063989" lon="11.213014"><ele>172.0</ele><time>2026-05-02T13:08:29.9Z</time></trkpt><trkpt lat="43.9063102" lon="11.212842"><ele>173.25</ele><time>2026-05-02T13:08:30.9Z</time></trkpt><trkpt lat="43.9062127" lon="11.2126989"><ele>174.5</ele><time>2026-05-02T13:08:31.9Z</time></trkpt><trkpt lat="43.9060982" lon="11.2125863"><ele>175.75</ele><time>2026-05-02T13:08:32.9Z</time></trkpt><trkpt lat="43.9059538" lon="11.2125036"><ele>177.0</ele><time>2026-05-02T13:08:33.9Z</time></trkpt><trkpt lat="43.9058014" lon="11.2124343"><ele>173.66666666666666</ele><time>2026-05-02T13:08:34.9Z</time></trkpt><trkpt lat="43.9056464" lon="11.2123687"><ele>170.33333333333331</ele><time>2026-05-02T13:08:35.9Z</time></trkpt><trkpt lat="43.9054903" lon="11.2123103"><ele>167.0</ele><time>2026-05-02T13:08:36.9Z</time></trkpt><trkpt lat="43.9053517" lon="11.2122567"><ele>167.0</ele><time>2026-05-02T13:08:37.9Z</time></trkpt><trkpt lat="43.905244" lon="11.2121836"><ele>167.0</ele><time>2026-05-02T13:08:38.9Z</time></trkpt><trkpt lat="43.9051769" lon="11.2120682"><ele>167.0</ele><time>2026-05-02T13:08:39.9Z</time></trkpt><trkpt lat="43.90514" lon="11.2119098"><ele>167.0</ele><time>2026-05-02T13:08:40.9Z</time></trkpt><trkpt lat="43.9051229" lon="11.2117129"><ele>169.33333333333331</ele><time>2026-05-02T13:08:41.9Z</time></trkpt><trkpt lat="43.9051227" lon="11.2114799"><ele>171.66666666666666</ele><time>2026-05-02T13:08:42.9Z</time></trkpt><trkpt lat="43.9051346" lon="11.2112274"><ele>174.0</ele><time>2026-05-02T13:08:43.9Z</time></trkpt><trkpt lat="43.9051496" lon="11.2109828"><ele>174.0</ele><time>2026-05-02T13:08:44.9Z</time></trkpt><trkpt lat="43.9051586" lon="11.2107436"><ele>174.0</ele><time>2026-05-02T13:08:45.9Z</time></trkpt><trkpt lat="43.9051586" lon="11.2105273"><ele>174.0</ele><time>2026-05-02T13:08:46.9Z</time></trkpt><trkpt lat="43.9051616" lon="11.2103171"><ele>172.75</ele><time>2026-05-02T13:08:47.9Z</time></trkpt><trkpt lat="43.9051553" lon="11.2101267"><ele>171.5</ele><time>2026-05-02T13:08:48.9Z</time></trkpt><trkpt lat="43.9051206" lon="11.2099663"><ele>170.25</ele><time>2026-05-02T13:08:49.9Z</time></trkpt><trkpt lat="43.9050604" lon="11.2098301"><ele>169.0</ele><time>2026-05-02T13:08:50.9Z</time></trkpt><trkpt lat="43.9049665" lon="11.2097408"><ele>177.0</ele><time>2026-05-02T13:08:51.9Z</time></trkpt><trkpt lat="43.9048416" lon="11.2096816"><ele>185.0</ele><time>2026-05-02T13:08:52.9Z</time></trkpt><trkpt lat="43.9047094" lon="11.2096296"><ele>193.0</ele><time>2026-05-02T13:08:53.9Z</time></trkpt><trkpt lat="43.9045741" lon="11.2096108"><ele>201.0</ele><time>2026-05-02T13:08:54.9Z</time></trkpt><trkpt lat="43.9044385" lon="11.2095818"><ele>201.0</ele><time>2026-05-02T13:08:55.9Z</time></trkpt><trkpt lat="43.9043001" lon="11.2095499"><ele>201.0</ele><time>2026-05-02T13:08:56.9Z</time></trkpt><trkpt lat="43.9041557" lon="11.2094993"><ele>201.0</ele><time>2026-05-02T13:08:57.9Z</time></trkpt><trkpt lat="43.9040036" lon="11.2094456"><ele>201.0</ele><time>2026-05-02T13:08:58.9Z</time></trkpt><trkpt lat="43.9038374" lon="11.2093785"><ele>192.0</ele><time>2026-05-02T13:08:59.9Z</time></trkpt><trkpt lat="43.903651" lon="11.20931"><ele>183.0</ele><time>2026-05-02T13:09:00.9Z</time></trkpt><trkpt lat="43.9034589" lon="11.209233"><ele>174.0</ele><time>2026-05-02T13:09:01.9Z</time></trkpt><trkpt lat="43.9032886" lon="11.2091489"><ele>172.0</ele><time>2026-05-02T13:09:02.9Z</time></trkpt><trkpt lat="43.9031575" lon="11.2090346"><ele>170.0</ele><time>2026-05-02T13:09:03.9Z</time></trkpt><trkpt lat="43.9030687" lon="11.2088869"><ele>168.0</ele><time>2026-05-02T13:09:04.9Z</time></trkpt><trkpt lat="43.903013" lon="11.2087038"><ele>166.0</ele><time>2026-05-02T13:09:05.9Z</time></trkpt><trkpt lat="43.9029823" lon="11.2084973"><ele>166.0</ele><time>2026-05-02T13:09:06.9Z</time></trkpt><trkpt lat="43.9029497" lon="11.2082716"><ele>166.0</ele><time>2026-05-02T13:09:07.9Z</time></trkpt><trkpt lat="43.9029033" lon="11.2080625"><ele>166.0</ele><time>2026-05-02T13:09:08.9Z</time></trkpt><trkpt lat="43.9028416" lon="11.2078724"><ele>164.0</ele><time>2026-05-02T13:09:09.9Z</time></trkpt><trkpt lat="43.9027673" lon="11.207705"><ele>162.0</ele><time>2026-05-02T13:09:10.9Z</time></trkpt><trkpt lat="43.9026719" lon="11.2075308"><ele>160.0</ele><time>2026-05-02T13:09:11.9Z</time></trkpt><trkpt lat="43.9025628" lon="11.207367"><ele>165.33333333333334</ele><time>2026-05-02T13:09:12.9Z</time></trkpt><trkpt lat="43.9024419" lon="11.2072227"><ele>170.66666666666666</ele><time>2026-05-02T13:09:13.9Z</time></trkpt><trkpt lat="43.9023123" lon="11.2070967"><ele>176.0</ele><time>2026-05-02T13:09:14.9Z</time></trkpt><trkpt lat="43.902183" lon="11.2069607"><ele>176.0</ele><time>2026-05-02T13:09:15.9Z</time></trkpt><trkpt lat="43.9020695" lon="11.2068173"><ele>176.0</ele><time>2026-05-02T13:09:16.9Z</time></trkpt><trkpt lat="43.9019792" lon="11.2066476"><ele>176.0</ele><time>2026-05-02T13:09:17.9Z</time></trkpt><trkpt lat="43.901909" lon="11.2064737"><ele>176.0</ele><time>2026-05-02T13:09:18.9Z</time></trkpt><trkpt lat="43.9018353" lon="11.2063019"><ele>171.0</ele><time>2026-05-02T13:09:19.9Z</time></trkpt><trkpt lat="43.9017537" lon="11.2061242"><ele>166.0</ele><time>2026-05-02T13:09:20.9Z</time></trkpt><trkpt lat="43.9016649" lon="11.2059419"><ele>161.0</ele><time>2026-05-02T13:09:21.9Z</time></trkpt><trkpt lat="43.9015751" lon="11.2057443"><ele>164.66666666666666</ele><time>2026-05-02T13:09:22.9Z</time></trkpt><trkpt lat="43.9014915" lon="11.2055312"><ele>168.33333333333334</ele><time>2026-05-02T13:09:23.9Z</time></trkpt><trkpt lat="43.9014119" lon="11.205317"><ele>172.0</ele><time>2026-05-02T13:09:24.9Z</time></trkpt><trkpt lat="43.9013349" lon="11.2051067"><ele>172.0</ele><time>2026-05-02T13:09:25.9Z</time></trkpt><trkpt lat="43.9012634" lon="11.2048939"><ele>172.0</ele><time>2026-05-02T13:09:26.9Z</time></trkpt><trkpt lat="43.9011899" lon="11.2046884"><ele>172.0</ele><time>2026-05-02T13:09:27.9Z</time></trkpt><trkpt lat="43.9011081" lon="11.2045021"><ele>169.0</ele><time>2026-05-02T13:09:28.9Z</time></trkpt><trkpt lat="43.9010359" lon="11.2043067"><ele>166.0</ele><time>2026-05-02T13:09:29.9Z</time></trkpt><trkpt lat="43.9009734" lon="11.2041106"><ele>163.0</ele><time>2026-05-02T13:09:30.9Z</time></trkpt><trkpt lat="43.9009112" lon="11.2039249"><ele>163.0</ele><time>2026-05-02T13:09:31.9Z</time></trkpt><trkpt lat="43.9008433" lon="11.2037496"><ele>163.0</ele><time>2026-05-02T13:09:32.9Z</time></trkpt><trkpt lat="43.9007725" lon="11.203562"><ele>163.0</ele><time>2026-05-02T13:09:33.9Z</time></trkpt><trkpt lat="43.9007064" lon="11.2033733"><ele>163.0</ele><time>2026-05-02T13:09:34.9Z</time></trkpt><trkpt lat="43.9006085" lon="11.2032041"><ele>175.0</ele><time>2026-05-02T13:09:35.9Z</time></trkpt><trkpt lat="43.9004799" lon="11.203073"><ele>187.0</ele><time>2026-05-02T13:09:36.9Z</time></trkpt><trkpt lat="43.9003459" lon="11.2029634"><ele>199.0</ele><time>2026-05-02T13:09:37.9Z</time></trkpt><trkpt lat="43.9001973" lon="11.2028822"><ele>190.33333333333331</ele><time>2026-05-02T13:09:38.9Z</time></trkpt><trkpt lat="43.9000191" lon="11.2028407"><ele>181.66666666666666</ele><time>2026-05-02T13:09:39.9Z</time></trkpt><trkpt lat="43.8998274" lon="11.2028288"><ele>173.0</ele><time>2026-05-02T13:09:40.9Z</time></trkpt><trkpt lat="43.8996136" lon="11.2028262"><ele>173.0</ele><time>2026-05-02T13:09:41.9Z</time></trkpt><trkpt lat="43.899405" lon="11.2028251"><ele>173.0</ele><time>2026-05-02T13:09:42.9Z</time></trkpt><trkpt lat="43.8992106" lon="11.2028188"><ele>173.0</ele><time>2026-05-02T13:09:43.9Z</time></trkpt><trkpt lat="43.8990271" lon="11.2028112"><ele>167.66666666666666</ele><time>2026-05-02T13:09:44.9Z</time></trkpt><trkpt lat="43.8988516" lon="11.2027942"><ele>162.33333333333334</ele><time>2026-05-02T13:09:45.9Z</time></trkpt><trkpt lat="43.8986804" lon="11.2027838"><ele>157.0</ele><time>2026-05-02T13:09:46.9Z</time></trkpt><trkpt lat="43.8985181" lon="11.2027649"><ele>155.0</ele><time>2026-05-02T13:09:47.9Z</time></trkpt><trkpt lat="43.8983586" lon="11.2027485"><ele>153.0</ele><time>2026-05-02T13:09:48.9Z</time></trkpt><trkpt lat="43.8981999" lon="11.2027085"><ele>151.0</ele><time>2026-05-02T13:09:49.9Z</time></trkpt><trkpt lat="43.8980424" lon="11.2026527"><ele>151.0</ele><time>2026-05-02T13:09:50.9Z</time></trkpt><trkpt lat="43.8978898" lon="11.2025759"><ele>151.0</ele><time>2026-05-02T13:09:51.9Z</time></trkpt><trkpt lat="43.897738" lon="11.202492"><ele>151.0</ele><time>2026-05-02T13:09:52.9Z</time></trkpt><trkpt lat="43.8975949" lon="11.2024208"><ele>147.66666666666669</ele><time>2026-05-02T13:09:53.9Z</time></trkpt><trkpt lat="43.8974564" lon="11.2023594"><ele>144.33333333333334</ele><time>2026-05-02T13:09:54.9Z</time></trkpt><trkpt lat="43.8973122" lon="11.2023027"><ele>141.0</ele><time>2026-05-02T13:09:55.9Z</time></trkpt><trkpt lat="43.8971635" lon="11.2022145"><ele>143.0</ele><time>2026-05-02T13:09:56.9Z</time></trkpt><trkpt lat="43.897005" lon="11.2020786"><ele>145.0</ele><time>2026-05-02T13:09:57.9Z</time></trkpt><trkpt lat="43.8968334" lon="11.2019269"><ele>147.0</ele><time>2026-05-02T13:09:58.9Z</time></trkpt><trkpt lat="43.8966644" lon="11.2017964"><ele>147.0</ele><time>2026-05-02T13:09:59.9Z</time></trkpt><trkpt lat="43.8965083" lon="11.2016787"><ele>147.0</ele><time>2026-05-02T13:10:00.9Z</time></trkpt><trkpt lat="43.896364" lon="11.2015614"><ele>147.0</ele><time>2026-05-02T13:10:01.9Z</time></trkpt><trkpt lat="43.8962192" lon="11.2014391"><ele>150.66666666666666</ele><time>2026-05-02T13:10:02.9Z</time></trkpt><trkpt lat="43.8960761" lon="11.2013309"><ele>154.33333333333331</ele><time>2026-05-02T13:10:03.9Z</time></trkpt><trkpt lat="43.8959295" lon="11.2012299"><ele>158.0</ele><time>2026-05-02T13:10:04.9Z</time></trkpt><trkpt lat="43.8957805" lon="11.2011693"><ele>158.0</ele><time>2026-05-02T13:10:05.9Z</time></trkpt><trkpt lat="43.8956358" lon="11.2011341"><ele>158.0</ele><time>2026-05-02T13:10:06.9Z</time></trkpt><trkpt lat="43.8954974" lon="11.2011179"><ele>158.0</ele><time>2026-05-02T13:10:07.9Z</time></trkpt><trkpt lat="43.8953628" lon="11.2010731"><ele>158.0</ele><time>2026-05-02T13:10:08.9Z</time></trkpt><trkpt lat="43.8952493" lon="11.2009561"><ele>158.0</ele><time>2026-05-02T13:10:09.899Z</time></trkpt><trkpt lat="43.8951468" lon="11.2007988"><ele>158.0</ele><time>2026-05-02T13:10:10.899Z</time></trkpt><trkpt lat="43.895045" lon="11.2006286"><ele>158.0</ele><time>2026-05-02T13:10:11.899Z</time></trkpt><trkpt lat="43.8949345" lon="11.2004895"><ele>161.5</ele><time>2026-05-02T13:10:12.899Z</time></trkpt><trkpt lat="43.8948116" lon="11.2003862"><ele>165.0</ele><time>2026-05-02T13:10:13.899Z</time></trkpt><trkpt lat="43.8946748" lon="11.2003056"><ele>168.5</ele><time>2026-05-02T13:10:14.899Z</time></trkpt><trkpt lat="43.8945234" lon="11.2002606"><ele>172.0</ele><time>2026-05-02T13:10:15.899Z</time></trkpt><trkpt lat="43.8943666" lon="11.2002254"><ele>164.0</ele><time>2026-05-02T13:10:16.899Z</time></trkpt><trkpt lat="43.8942162" lon="11.2001803"><ele>156.0</ele><time>2026-05-02T13:10:17.899Z</time></trkpt><trkpt lat="43.8940636" lon="11.2001448"><ele>148.0</ele><time>2026-05-02T13:10:18.899Z</time></trkpt><trkpt lat="43.8939155" lon="11.2001175"><ele>148.0</ele><time>2026-05-02T13:10:19.9Z</time></trkpt><trkpt lat="43.8937735" lon="11.2001333"><ele>148.0</ele><time>2026-05-02T13:10:20.899Z</time></trkpt><trkpt lat="43.8936345" lon="11.2001614"><ele>148.0</ele><time>2026-05-02T13:10:21.899Z</time></trkpt><trkpt lat="43.8934884" lon="11.2001756"><ele>148.0</ele><time>2026-05-02T13:10:22.899Z</time></trkpt><trkpt lat="43.8933305" lon="11.2001511"><ele>141.66666666666669</ele><time>2026-05-02T13:10:23.899Z</time></trkpt><trkpt lat="43.8931569" lon="11.2000924"><ele>135.33333333333334</ele><time>2026-05-02T13:10:24.899Z</time></trkpt><trkpt lat="43.8929809" lon="11.2000052"><ele>129.0</ele><time>2026-05-02T13:10:25.899Z</time></trkpt><trkpt lat="43.892812" lon="11.1998919"><ele>127.33333333333334</ele><time>2026-05-02T13:10:26.899Z</time></trkpt><trkpt lat="43.8926571" lon="11.1997564"><ele>125.66666666666667</ele><time>2026-05-02T13:10:27.899Z</time></trkpt><trkpt lat="43.8925146" lon="11.1996268"><ele>124.0</ele><time>2026-05-02T13:10:28.899Z</time></trkpt><trkpt lat="43.892368" lon="11.1994864"><ele>124.0</ele><time>2026-05-02T13:10:29.899Z</time></trkpt><trkpt lat="43.8922343" lon="11.1993469"><ele>124.0</ele><time>2026-05-02T13:10:30.899Z</time></trkpt><trkpt lat="43.8921017" lon="11.1991963"><ele>124.0</ele><time>2026-05-02T13:10:31.899Z</time></trkpt><trkpt lat="43.8919652" lon="11.1990405"><ele>124.33333333333334</ele><time>2026-05-02T13:10:32.899Z</time></trkpt><trkpt lat="43.8918508" lon="11.198857"><ele>124.66666666666666</ele><time>2026-05-02T13:10:33.899Z</time></trkpt><trkpt lat="43.8917497" lon="11.1986556"><ele>125.0</ele><time>2026-05-02T13:10:34.899Z</time></trkpt><trkpt lat="43.8916512" lon="11.1984564"><ele>125.0</ele><time>2026-05-02T13:10:35.899Z</time></trkpt><trkpt lat="43.8915559" lon="11.1982739"><ele>125.0</ele><time>2026-05-02T13:10:36.899Z</time></trkpt><trkpt lat="43.8914551" lon="11.1981109"><ele>125.0</ele><time>2026-05-02T13:10:37.899Z</time></trkpt><trkpt lat="43.8913471" lon="11.1979788"><ele>132.66666666666666</ele><time>2026-05-02T13:10:38.899Z</time></trkpt><trkpt lat="43.8912163" lon="11.1978677"><ele>140.33333333333334</ele><time>2026-05-02T13:10:39.899Z</time></trkpt><trkpt lat="43.8910713" lon="11.1977986"><ele>148.0</ele><time>2026-05-02T13:10:40.899Z</time></trkpt><trkpt lat="43.8909283" lon="11.1977531"><ele>143.25</ele><time>2026-05-02T13:10:41.899Z</time></trkpt><trkpt lat="43.8907878" lon="11.1977169"><ele>138.5</ele><time>2026-05-02T13:10:42.899Z</time></trkpt><trkpt lat="43.8906535" lon="11.1976588"><ele>133.75</ele><time>2026-05-02T13:10:43.899Z</time></trkpt><trkpt lat="43.8905309" lon="11.1975707"><ele>129.0</ele><time>2026-05-02T13:10:44.899Z</time></trkpt><trkpt lat="43.8904345" lon="11.1974334"><ele>134.66666666666666</ele><time>2026-05-02T13:10:45.899Z</time></trkpt><trkpt lat="43.8903636" lon="11.1972455"><ele>140.33333333333331</ele><time>2026-05-02T13:10:46.899Z</time></trkpt><trkpt lat="43.8903111" lon="11.1970365"><ele>146.0</ele><time>2026-05-02T13:10:47.899Z</time></trkpt><trkpt lat="43.8902685" lon="11.196814"><ele>146.0</ele><time>2026-05-02T13:10:48.899Z</time></trkpt><trkpt lat="43.8902324" lon="11.1965794"><ele>146.0</ele><time>2026-05-02T13:10:49.899Z</time></trkpt><trkpt lat="43.8901964" lon="11.1963394"><ele>146.0</ele><time>2026-05-02T13:10:50.899Z</time></trkpt><trkpt lat="43.8901536" lon="11.1961014"><ele>142.33333333333331</ele><time>2026-05-02T13:10:51.899Z</time></trkpt><trkpt lat="43.8900959" lon="11.1958618"><ele>138.66666666666666</ele><time>2026-05-02T13:10:52.899Z</time></trkpt><trkpt lat="43.8900009" lon="11.1956748"><ele>135.0</ele><time>2026-05-02T13:10:53.899Z</time></trkpt><trkpt lat="43.8898918" lon="11.1954926"><ele>135.0</ele><time>2026-05-02T13:10:54.899Z</time></trkpt><trkpt lat="43.8897754" lon="11.1953325"><ele>135.0</ele><time>2026-05-02T13:10:55.899Z</time></trkpt><trkpt lat="43.889656" lon="11.1951951"><ele>135.0</ele><time>2026-05-02T13:10:56.899Z</time></trkpt><trkpt lat="43.8895446" lon="11.1950571"><ele>135.0</ele><time>2026-05-02T13:10:57.899Z</time></trkpt><trkpt lat="43.8894373" lon="11.194917"><ele>135.0</ele><time>2026-05-02T13:10:58.899Z</time></trkpt><trkpt lat="43.8893408" lon="11.1947767"><ele>135.0</ele><time>2026-05-02T13:10:59.899Z</time></trkpt><trkpt lat="43.8892513" lon="11.1946347"><ele>135.0</ele><time>2026-05-02T13:11:00.899Z</time></trkpt><trkpt lat="43.8891638" lon="11.1944792"><ele>135.75</ele><time>2026-05-02T13:11:01.899Z</time></trkpt><trkpt lat="43.8890855" lon="11.1943197"><ele>136.5</ele><time>2026-05-02T13:11:02.899Z</time></trkpt><trkpt lat="43.8890073" lon="11.1941544"><ele>137.25</ele><time>2026-05-02T13:11:03.899Z</time></trkpt><trkpt lat="43.8889322" lon="11.1939853"><ele>138.0</ele><time>2026-05-02T13:11:04.899Z</time></trkpt><trkpt lat="43.8888675" lon="11.1938227"><ele>138.0</ele><time>2026-05-02T13:11:05.899Z</time></trkpt><trkpt lat="43.8888045" lon="11.1936738"><ele>138.0</ele><time>2026-05-02T13:11:06.899Z</time></trkpt><trkpt lat="43.8887461" lon="11.1935264"><ele>138.0</ele><time>2026-05-02T13:11:07.899Z</time></trkpt><trkpt lat="43.8886714" lon="11.1933822"><ele>138.0</ele><time>2026-05-02T13:11:08.899Z</time></trkpt><trkpt lat="43.88859" lon="11.1932456"><ele>137.75</ele><time>2026-05-02T13:11:09.899Z</time></trkpt><trkpt lat="43.8885038" lon="11.1931105"><ele>137.5</ele><time>2026-05-02T13:11:10.899Z</time></trkpt><trkpt lat="43.8884222" lon="11.1929682"><ele>137.25</ele><time>2026-05-02T13:11:11.899Z</time></trkpt><trkpt lat="43.8883418" lon="11.1928275"><ele>137.0</ele><time>2026-05-02T13:11:12.899Z</time></trkpt><trkpt lat="43.8882669" lon="11.1926845"><ele>131.5</ele><time>2026-05-02T13:11:13.899Z</time></trkpt><trkpt lat="43.8881921" lon="11.1925363"><ele>126.0</ele><time>2026-05-02T13:11:14.899Z</time></trkpt><trkpt lat="43.8881188" lon="11.1923962"><ele>120.5</ele><time>2026-05-02T13:11:15.899Z</time></trkpt><trkpt lat="43.8880444" lon="11.192253"><ele>115.0</ele><time>2026-05-02T13:11:16.899Z</time></trkpt><trkpt lat="43.8879689" lon="11.1921027"><ele>114.66666666666667</ele><time>2026-05-02T13:11:17.899Z</time></trkpt><trkpt lat="43.8878852" lon="11.1919416"><ele>114.33333333333334</ele><time>2026-05-02T13:11:18.899Z</time></trkpt><trkpt lat="43.8878177" lon="11.1917244"><ele>114.0</ele><time>2026-05-02T13:11:19.899Z</time></trkpt><trkpt lat="43.8877443" lon="11.1915217"><ele>116.33333333333334</ele><time>2026-05-02T13:11:20.899Z</time></trkpt><trkpt lat="43.8876533" lon="11.1913311"><ele>118.66666666666667</ele><time>2026-05-02T13:11:21.899Z</time></trkpt><trkpt lat="43.8875444" lon="11.1911237"><ele>121.0</ele><time>2026-05-02T13:11:22.899Z</time></trkpt><trkpt lat="43.8874325" lon="11.1908872"><ele>116.0</ele><time>2026-05-02T13:11:23.899Z</time></trkpt><trkpt lat="43.8873381" lon="11.1906371"><ele>111.0</ele><time>2026-05-02T13:11:24.899Z</time></trkpt><trkpt lat="43.887256" lon="11.190364"><ele>106.0</ele><time>2026-05-02T13:11:25.899Z</time></trkpt><trkpt lat="43.8871984" lon="11.1900758"><ele>106.33333333333334</ele><time>2026-05-02T13:11:26.899Z</time></trkpt><trkpt lat="43.8871632" lon="11.1897738"><ele>106.66666666666666</ele><time>2026-05-02T13:11:27.899Z</time></trkpt><trkpt lat="43.8871532" lon="11.1894736"><ele>107.0</ele><time>2026-05-02T13:11:28.899Z</time></trkpt><trkpt lat="43.8871603" lon="11.189178"><ele>108.0</ele><time>2026-05-02T13:11:29.899Z</time></trkpt><trkpt lat="43.8871817" lon="11.1889032"><ele>109.0</ele><time>2026-05-02T13:11:30.899Z</time></trkpt><trkpt lat="43.8871977" lon="11.188649"><ele>110.0</ele><time>2026-05-02T13:11:31.899Z</time></trkpt><trkpt lat="43.8872061" lon="11.1884128"><ele>110.0</ele><time>2026-05-02T13:11:32.899Z</time></trkpt><trkpt lat="43.8871957" lon="11.1881905"><ele>110.0</ele><time>2026-05-02T13:11:33.899Z</time></trkpt><trkpt lat="43.8871643" lon="11.1879842"><ele>110.0</ele><time>2026-05-02T13:11:34.899Z</time></trkpt><trkpt lat="43.8871157" lon="11.1878021"><ele>110.0</ele><time>2026-05-02T13:11:35.899Z</time></trkpt><trkpt lat="43.8870486" lon="11.1876437"><ele>110.0</ele><time>2026-05-02T13:11:36.899Z</time></trkpt><trkpt lat="43.8869624" lon="11.1875"><ele>110.0</ele><time>2026-05-02T13:11:37.899Z</time></trkpt><trkpt lat="43.8868655" lon="11.1873665"><ele>110.0</ele><time>2026-05-02T13:11:38.899Z</time></trkpt><trkpt lat="43.8867719" lon="11.1872397"><ele>108.0</ele><time>2026-05-02T13:11:39.899Z</time></trkpt><trkpt lat="43.8866839" lon="11.1871097"><ele>106.0</ele><time>2026-05-02T13:11:40.899Z</time></trkpt><trkpt lat="43.8865836" lon="11.1869696"><ele>104.0</ele><time>2026-05-02T13:11:41.899Z</time></trkpt><trkpt lat="43.8864729" lon="11.1868178"><ele>102.0</ele><time>2026-05-02T13:11:42.899Z</time></trkpt><trkpt lat="43.8863574" lon="11.1866622"><ele>102.66666666666666</ele><time>2026-05-02T13:11:43.899Z</time></trkpt><trkpt lat="43.8862539" lon="11.1865043"><ele>103.33333333333333</ele><time>2026-05-02T13:11:44.899Z</time></trkpt><trkpt lat="43.8861518" lon="11.186352"><ele>104.0</ele><time>2026-05-02T13:11:45.899Z</time></trkpt><trkpt lat="43.8860458" lon="11.1861939"><ele>101.66666666666666</ele><time>2026-05-02T13:11:46.899Z</time></trkpt><trkpt lat="43.8859255" lon="11.1860413"><ele>99.33333333333334</ele><time>2026-05-02T13:11:47.899Z</time></trkpt><trkpt lat="43.8857975" lon="11.1859083"><ele>97.0</ele><time>2026-05-02T13:11:48.899Z</time></trkpt><trkpt lat="43.8856612" lon="11.1858029"><ele>97.0</ele><time>2026-05-02T13:11:49.899Z</time></trkpt><trkpt lat="43.8855233" lon="11.1857103"><ele>97.0</ele><time>2026-05-02T13:11:50.899Z</time></trkpt><trkpt lat="43.8853857" lon="11.185628"><ele>97.0</ele><time>2026-05-02T13:11:51.899Z</time></trkpt><trkpt lat="43.8852527" lon="11.1855444"><ele>97.0</ele><time>2026-05-02T13:11:52.899Z</time></trkpt><trkpt lat="43.8851264" lon="11.1854439"><ele>97.0</ele><time>2026-05-02T13:11:53.899Z</time></trkpt><trkpt lat="43.8850009" lon="11.1853192"><ele>97.0</ele><time>2026-05-02T13:11:54.899Z</time></trkpt><trkpt lat="43.8848896" lon="11.1851705"><ele>97.0</ele><time>2026-05-02T13:11:55.899Z</time></trkpt><trkpt lat="43.8847913" lon="11.1849718"><ele>96.33333333333334</ele><time>2026-05-02T13:11:56.899Z</time></trkpt><trkpt lat="43.8847189" lon="11.1847656"><ele>95.66666666666667</ele><time>2026-05-02T13:11:57.899Z</time></trkpt><trkpt lat="43.8846451" lon="11.1845568"><ele>95.0</ele><time>2026-05-02T13:11:58.899Z</time></trkpt><trkpt lat="43.8845711" lon="11.1843383"><ele>95.0</ele><time>2026-05-02T13:11:59.899Z</time></trkpt><trkpt lat="43.8844999" lon="11.1841431"><ele>95.0</ele><time>2026-05-02T13:12:00.899Z</time></trkpt><trkpt lat="43.8844301" lon="11.1839531"><ele>95.0</ele><time>2026-05-02T13:12:01.899Z</time></trkpt><trkpt lat="43.8843578" lon="11.1837565"><ele>95.0</ele><time>2026-05-02T13:12:02.899Z</time></trkpt><trkpt lat="43.8842862" lon="11.1835606"><ele>95.0</ele><time>2026-05-02T13:12:03.899Z</time></trkpt><trkpt lat="43.8842114" lon="11.183363"><ele>95.0</ele><time>2026-05-02T13:12:04.899Z</time></trkpt><trkpt lat="43.8841377" lon="11.183178"><ele>94.75</ele><time>2026-05-02T13:12:05.899Z</time></trkpt><trkpt lat="43.8840682" lon="11.1829976"><ele>94.5</ele><time>2026-05-02T13:12:06.899Z</time></trkpt><trkpt lat="43.8840002" lon="11.1828298"><ele>94.25</ele><time>2026-05-02T13:12:07.899Z</time></trkpt><trkpt lat="43.8839363" lon="11.1826612"><ele>94.0</ele><time>2026-05-02T13:12:08.899Z</time></trkpt><trkpt lat="43.8838773" lon="11.1824904"><ele>93.75</ele><time>2026-05-02T13:12:09.899Z</time></trkpt><trkpt lat="43.8838221" lon="11.1823255"><ele>93.5</ele><time>2026-05-02T13:12:10.899Z</time></trkpt><trkpt lat="43.8837671" lon="11.1821623"><ele>93.25</ele><time>2026-05-02T13:12:11.899Z</time></trkpt><trkpt lat="43.8837204" lon="11.1820126"><ele>93.0</ele><time>2026-05-02T13:12:12.899Z</time></trkpt><trkpt lat="43.8836763" lon="11.1818774"><ele>93.0</ele><time>2026-05-02T13:12:13.899Z</time></trkpt><trkpt lat="43.8836396" lon="11.1817387"><ele>93.0</ele><time>2026-05-02T13:12:14.899Z</time></trkpt><trkpt lat="43.8836031" lon="11.1816045"><ele>93.0</ele><time>2026-05-02T13:12:15.899Z</time></trkpt><trkpt lat="43.8835723" lon="11.1814711"><ele>93.0</ele><time>2026-05-02T13:12:16.9Z</time></trkpt><trkpt lat="43.8835496" lon="11.1813417"><ele>93.0</ele><time>2026-05-02T13:12:17.899Z</time></trkpt><trkpt lat="43.8835403" lon="11.1812293"><ele>92.85714285714286</ele><time>2026-05-02T13:12:18.899Z</time></trkpt><trkpt lat="43.883553" lon="11.1811246"><ele>92.71428571428572</ele><time>2026-05-02T13:12:19.899Z</time></trkpt><trkpt lat="43.8835924" lon="11.1810367"><ele>92.57142857142858</ele><time>2026-05-02T13:12:20.899Z</time></trkpt><trkpt lat="43.8836474" lon="11.1809523"><ele>92.42857142857143</ele><time>2026-05-02T13:12:21.899Z</time></trkpt><trkpt lat="43.8836861" lon="11.1808599"><ele>92.28571428571428</ele><time>2026-05-02T13:12:22.899Z</time></trkpt><trkpt lat="43.8836989" lon="11.1807697"><ele>92.14285714285715</ele><time>2026-05-02T13:12:23.899Z</time></trkpt><trkpt lat="43.8836659" lon="11.1806882"><ele>92.0</ele><time>2026-05-02T13:12:24.899Z</time></trkpt><trkpt lat="43.8835955" lon="11.1806455"><ele>92.0</ele><time>2026-05-02T13:12:25.899Z</time></trkpt><trkpt lat="43.8835187" lon="11.1806361"><ele>92.0</ele><time>2026-05-02T13:12:26.899Z</time></trkpt><trkpt lat="43.8834227" lon="11.180675"><ele>92.0</ele><time>2026-05-02T13:12:27.899Z</time></trkpt><trkpt lat="43.8833227" lon="11.1807043"><ele>92.0</ele><time>2026-05-02T13:12:28.899Z</time></trkpt><trkpt lat="43.8832229" lon="11.180704"><ele>92.0</ele><time>2026-05-02T13:12:29.899Z</time></trkpt><trkpt lat="43.8831066" lon="11.1806728"><ele>91.75</ele><time>2026-05-02T13:12:30.899Z</time></trkpt><trkpt lat="43.8829891" lon="11.1806214"><ele>91.5</ele><time>2026-05-02T13:12:31.899Z</time></trkpt><trkpt lat="43.8828742" lon="11.180564"><ele>91.25</ele><time>2026-05-02T13:12:32.9Z</time></trkpt><trkpt lat="43.8827637" lon="11.1805139"><ele>91.0</ele><time>2026-05-02T13:12:33.899Z</time></trkpt><trkpt lat="43.8826462" lon="11.1804525"><ele>91.0</ele><time>2026-05-02T13:12:34.899Z</time></trkpt><trkpt lat="43.8825213" lon="11.1803907"><ele>91.0</ele><time>2026-05-02T13:12:35.899Z</time></trkpt><trkpt lat="43.8823916" lon="11.1803391"><ele>91.0</ele><time>2026-05-02T13:12:36.899Z</time></trkpt><trkpt lat="43.8822752" lon="11.1802957"><ele>91.0</ele><time>2026-05-02T13:12:37.899Z</time></trkpt><trkpt lat="43.8821646" lon="11.1802512"><ele>91.0</ele><time>2026-05-02T13:12:38.899Z</time></trkpt><trkpt lat="43.8820646" lon="11.1802085"><ele>91.0</ele><time>2026-05-02T13:12:39.899Z</time></trkpt><trkpt lat="43.8819685" lon="11.1801753"><ele>91.0</ele><time>2026-05-02T13:12:40.899Z</time></trkpt><trkpt lat="43.8818729" lon="11.1801384"><ele>91.0</ele><time>2026-05-02T13:12:41.899Z</time></trkpt><trkpt lat="43.8817798" lon="11.1801044"><ele>91.0</ele><time>2026-05-02T13:12:42.899Z</time></trkpt><trkpt lat="43.8816937" lon="11.1801005"><ele>90.4</ele><time>2026-05-02T13:12:43.899Z</time></trkpt><trkpt lat="43.8816156" lon="11.1801356"><ele>89.8</ele><time>2026-05-02T13:12:44.899Z</time></trkpt><trkpt lat="43.8815369" lon="11.1802123"><ele>89.2</ele><time>2026-05-02T13:12:45.899Z</time></trkpt><trkpt lat="43.8814491" lon="11.1803137"><ele>88.60000000000001</ele><time>2026-05-02T13:12:46.899Z</time></trkpt><trkpt lat="43.8813492" lon="11.1804037"><ele>88.0</ele><time>2026-05-02T13:12:47.899Z</time></trkpt><trkpt lat="43.8812389" lon="11.1804601"><ele>88.0</ele><time>2026-05-02T13:12:48.899Z</time></trkpt><trkpt lat="43.8811203" lon="11.180476"><ele>88.0</ele><time>2026-05-02T13:12:49.899Z</time></trkpt><trkpt lat="43.8809862" lon="11.1804621"><ele>88.0</ele><time>2026-05-02T13:12:50.899Z</time></trkpt><trkpt lat="43.8808449" lon="11.1804293"><ele>88.0</ele><time>2026-05-02T13:12:51.899Z</time></trkpt><trkpt lat="43.88071" lon="11.1803846"><ele>87.75</ele><time>2026-05-02T13:12:52.899Z</time></trkpt><trkpt lat="43.8805838" lon="11.1803075"><ele>87.5</ele><time>2026-05-02T13:12:53.899Z</time></trkpt><trkpt lat="43.8804552" lon="11.1802115"><ele>87.25</ele><time>2026-05-02T13:12:54.899Z</time></trkpt><trkpt lat="43.8803338" lon="11.1801094"><ele>87.0</ele><time>2026-05-02T13:12:55.899Z</time></trkpt><trkpt lat="43.880221" lon="11.1799949"><ele>87.0</ele><time>2026-05-02T13:12:56.899Z</time></trkpt><trkpt lat="43.8801226" lon="11.1798668"><ele>87.0</ele><time>2026-05-02T13:12:57.899Z</time></trkpt><trkpt lat="43.8800298" lon="11.1797342"><ele>87.0</ele><time>2026-05-02T13:12:58.899Z</time></trkpt><trkpt lat="43.8799491" lon="11.1795881"><ele>87.0</ele><time>2026-05-02T13:12:59.899Z</time></trkpt><trkpt lat="43.8798799" lon="11.1794424"><ele>87.0</ele><time>2026-05-02T13:13:00.899Z</time></trkpt><trkpt lat="43.8798168" lon="11.179304"><ele>87.0</ele><time>2026-05-02T13:13:01.899Z</time></trkpt><trkpt lat="43.8797524" lon="11.1791741"><ele>87.0</ele><time>2026-05-02T13:13:02.899Z</time></trkpt><trkpt lat="43.8796915" lon="11.1790449"><ele>87.0</ele><time>2026-05-02T13:13:03.899Z</time></trkpt><trkpt lat="43.8796265" lon="11.1789086"><ele>86.0</ele><time>2026-05-02T13:13:04.899Z</time></trkpt><trkpt lat="43.8795654" lon="11.1787712"><ele>85.0</ele><time>2026-05-02T13:13:05.899Z</time></trkpt><trkpt lat="43.8795117" lon="11.1786454"><ele>84.0</ele><time>2026-05-02T13:13:06.899Z</time></trkpt><trkpt lat="43.8794598" lon="11.1785229"><ele>83.0</ele><time>2026-05-02T13:13:07.899Z</time></trkpt><trkpt lat="43.879402" lon="11.1783932"><ele>82.0</ele><time>2026-05-02T13:13:08.899Z</time></trkpt><trkpt lat="43.8793322" lon="11.1782568"><ele>82.5</ele><time>2026-05-02T13:13:09.899Z</time></trkpt><trkpt lat="43.8792627" lon="11.1781229"><ele>83.0</ele><time>2026-05-02T13:13:10.899Z</time></trkpt><trkpt lat="43.879191" lon="11.1779932"><ele>83.5</ele><time>2026-05-02T13:13:11.899Z</time></trkpt><trkpt lat="43.8791187" lon="11.1778601"><ele>84.0</ele><time>2026-05-02T13:13:12.899Z</time></trkpt><trkpt lat="43.8790416" lon="11.177731"><ele>84.0</ele><time>2026-05-02T13:13:13.899Z</time></trkpt><trkpt lat="43.8789668" lon="11.1776061"><ele>84.0</ele><time>2026-05-02T13:13:14.899Z</time></trkpt><trkpt lat="43.8788903" lon="11.177487"><ele>84.0</ele><time>2026-05-02T13:13:15.899Z</time></trkpt><trkpt lat="43.8788163" lon="11.1773628"><ele>84.0</ele><time>2026-05-02T13:13:16.899Z</time></trkpt><trkpt lat="43.8787276" lon="11.1772196"><ele>84.25</ele><time>2026-05-02T13:13:17.899Z</time></trkpt><trkpt lat="43.8786293" lon="11.1770719"><ele>84.5</ele><time>2026-05-02T13:13:18.899Z</time></trkpt><trkpt lat="43.87853" lon="11.1769149"><ele>84.75</ele><time>2026-05-02T13:13:19.899Z</time></trkpt><trkpt lat="43.8784247" lon="11.1767655"><ele>85.0</ele><time>2026-05-02T13:13:20.899Z</time></trkpt><trkpt lat="43.8783099" lon="11.1766248"><ele>84.0</ele><time>2026-05-02T13:13:21.899Z</time></trkpt><trkpt lat="43.8781877" lon="11.1764793"><ele>83.0</ele><time>2026-05-02T13:13:22.899Z</time></trkpt><trkpt lat="43.878053" lon="11.1763366"><ele>82.0</ele><time>2026-05-02T13:13:23.899Z</time></trkpt><trkpt lat="43.8779133" lon="11.1761958"><ele>82.0</ele><time>2026-05-02T13:13:24.899Z</time></trkpt><trkpt lat="43.8777714" lon="11.1760632"><ele>82.0</ele><time>2026-05-02T13:13:25.899Z</time></trkpt><trkpt lat="43.8776221" lon="11.1759282"><ele>82.0</ele><time>2026-05-02T13:13:26.899Z</time></trkpt><trkpt lat="43.8774747" lon="11.1757966"><ele>81.66666666666666</ele><time>2026-05-02T13:13:27.899Z</time></trkpt><trkpt lat="43.8773236" lon="11.1756763"><ele>81.33333333333333</ele><time>2026-05-02T13:13:28.899Z</time></trkpt><trkpt lat="43.8771741" lon="11.1755554"><ele>81.0</ele><time>2026-05-02T13:13:29.899Z</time></trkpt><trkpt lat="43.8770277" lon="11.1754255"><ele>81.0</ele><time>2026-05-02T13:13:30.899Z</time></trkpt><trkpt lat="43.8768799" lon="11.1752981"><ele>81.0</ele><time>2026-05-02T13:13:31.899Z</time></trkpt><trkpt lat="43.8767355" lon="11.1751746"><ele>81.0</ele><time>2026-05-02T13:13:32.899Z</time></trkpt><trkpt lat="43.8765842" lon="11.1750472"><ele>80.66666666666667</ele><time>2026-05-02T13:13:33.899Z</time></trkpt><trkpt lat="43.8764382" lon="11.1749172"><ele>80.33333333333334</ele><time>2026-05-02T13:13:34.899Z</time></trkpt><trkpt lat="43.876294" lon="11.1747879"><ele>80.0</ele><time>2026-05-02T13:13:35.9Z</time></trkpt><trkpt lat="43.8761386" lon="11.1746594"><ele>80.0</ele><time>2026-05-02T13:13:36.899Z</time></trkpt><trkpt lat="43.8759861" lon="11.1745236"><ele>80.0</ele><time>2026-05-02T13:13:37.899Z</time></trkpt><trkpt lat="43.8758342" lon="11.1743854"><ele>80.0</ele><time>2026-05-02T13:13:38.899Z</time></trkpt><trkpt lat="43.8756827" lon="11.1742441"><ele>80.33333333333334</ele><time>2026-05-02T13:13:39.899Z</time></trkpt><trkpt lat="43.8755363" lon="11.1740891"><ele>80.66666666666667</ele><time>2026-05-02T13:13:40.899Z</time></trkpt><trkpt lat="43.8753913" lon="11.1739342"><ele>81.0</ele><time>2026-05-02T13:13:41.898Z</time></trkpt><trkpt lat="43.8752514" lon="11.173791"><ele>81.66666666666667</ele><time>2026-05-02T13:13:42.898Z</time></trkpt><trkpt lat="43.8751092" lon="11.1736468"><ele>82.33333333333334</ele><time>2026-05-02T13:13:43.898Z</time></trkpt><trkpt lat="43.8749646" lon="11.1735158"><ele>83.0</ele><time>2026-05-02T13:13:44.898Z</time></trkpt><trkpt lat="43.8748107" lon="11.1733919"><ele>83.0</ele><time>2026-05-02T13:13:45.898Z</time></trkpt><trkpt lat="43.8746535" lon="11.1732689"><ele>83.0</ele><time>2026-05-02T13:13:46.898Z</time></trkpt><trkpt lat="43.8744905" lon="11.173148"><ele>83.0</ele><time>2026-05-02T13:13:47.898Z</time></trkpt><trkpt lat="43.874328" lon="11.1730263"><ele>81.66666666666667</ele><time>2026-05-02T13:13:48.898Z</time></trkpt><trkpt lat="43.8741684" lon="11.1729065"><ele>80.33333333333333</ele><time>2026-05-02T13:13:49.898Z</time></trkpt><trkpt lat="43.8740076" lon="11.1727923"><ele>79.0</ele><time>2026-05-02T13:13:50.898Z</time></trkpt><trkpt lat="43.873849" lon="11.1726754"><ele>79.0</ele><time>2026-05-02T13:13:51.898Z</time></trkpt><trkpt lat="43.8736925" lon="11.1725638"><ele>79.0</ele><time>2026-05-02T13:13:52.898Z</time></trkpt><trkpt lat="43.8735436" lon="11.1724102"><ele>79.0</ele><time>2026-05-02T13:13:53.898Z</time></trkpt><trkpt lat="43.8734052" lon="11.172241"><ele>77.66666666666666</ele><time>2026-05-02T13:13:54.898Z</time></trkpt><trkpt lat="43.8732657" lon="11.1720456"><ele>76.33333333333333</ele><time>2026-05-02T13:13:55.898Z</time></trkpt><trkpt lat="43.8731297" lon="11.1718306"><ele>75.0</ele><time>2026-05-02T13:13:56.898Z</time></trkpt><trkpt lat="43.8729936" lon="11.1716042"><ele>74.66666666666667</ele><time>2026-05-02T13:13:57.898Z</time></trkpt><trkpt lat="43.8728608" lon="11.1713887"><ele>74.33333333333334</ele><time>2026-05-02T13:13:58.898Z</time></trkpt><trkpt lat="43.8727352" lon="11.1711889"><ele>74.0</ele><time>2026-05-02T13:13:59.898Z</time></trkpt><trkpt lat="43.8726162" lon="11.1709946"><ele>73.66666666666667</ele><time>2026-05-02T13:14:00.898Z</time></trkpt><trkpt lat="43.8725016" lon="11.1708212"><ele>73.33333333333333</ele><time>2026-05-02T13:14:01.898Z</time></trkpt><trkpt lat="43.8723935" lon="11.1706658"><ele>73.0</ele><time>2026-05-02T13:14:02.898Z</time></trkpt><trkpt lat="43.8722938" lon="11.1705252"><ele>73.0</ele><time>2026-05-02T13:14:03.898Z</time></trkpt><trkpt lat="43.8722047" lon="11.1703883"><ele>73.0</ele><time>2026-05-02T13:14:04.898Z</time></trkpt><trkpt lat="43.8721308" lon="11.170263"><ele>73.0</ele><time>2026-05-02T13:14:05.898Z</time></trkpt><trkpt lat="43.8720741" lon="11.1701487"><ele>73.0</ele><time>2026-05-02T13:14:06.898Z</time></trkpt><trkpt lat="43.8720369" lon="11.1700343"><ele>73.0</ele><time>2026-05-02T13:14:07.898Z</time></trkpt><trkpt lat="43.8720183" lon="11.1699201"><ele>72.85714285714286</ele><time>2026-05-02T13:14:08.898Z</time></trkpt><trkpt lat="43.8719999" lon="11.1698112"><ele>72.71428571428572</ele><time>2026-05-02T13:14:09.898Z</time></trkpt><trkpt lat="43.8719679" lon="11.1697187"><ele>72.57142857142858</ele><time>2026-05-02T13:14:10.898Z</time></trkpt><trkpt lat="43.871909" lon="11.16968"><ele>72.42857142857143</ele><time>2026-05-02T13:14:11.898Z</time></trkpt><trkpt lat="43.8718357" lon="11.1696792"><ele>72.28571428571429</ele><time>2026-05-02T13:14:12.898Z</time></trkpt><trkpt lat="43.871782" lon="11.1697372"><ele>72.14285714285715</ele><time>2026-05-02T13:14:13.898Z</time></trkpt><trkpt lat="43.8717463" lon="11.1698225"><ele>72.0</ele><time>2026-05-02T13:14:14.898Z</time></trkpt><trkpt lat="43.8717276" lon="11.1699332"><ele>73.4</ele><time>2026-05-02T13:14:15.898Z</time></trkpt><trkpt lat="43.8717179" lon="11.1700727"><ele>74.80000000000001</ele><time>2026-05-02T13:14:16.898Z</time></trkpt><trkpt lat="43.8717001" lon="11.1702109"><ele>76.2</ele><time>2026-05-02T13:14:17.898Z</time></trkpt><trkpt lat="43.8716637" lon="11.1703453"><ele>77.60000000000001</ele><time>2026-05-02T13:14:18.898Z</time></trkpt><trkpt lat="43.8716078" lon="11.1704703"><ele>79.0</ele><time>2026-05-02T13:14:19.898Z</time></trkpt><trkpt lat="43.8715421" lon="11.1705983"><ele>79.0</ele><time>2026-05-02T13:14:20.898Z</time></trkpt><trkpt lat="43.8714654" lon="11.1707492"><ele>79.0</ele><time>2026-05-02T13:14:21.898Z</time></trkpt><trkpt lat="43.8713681" lon="11.1709182"><ele>79.0</ele><time>2026-05-02T13:14:22.898Z</time></trkpt><trkpt lat="43.8712709" lon="11.1710956"><ele>79.0</ele><time>2026-05-02T13:14:23.898Z</time></trkpt><trkpt lat="43.871172" lon="11.1712787"><ele>79.0</ele><time>2026-05-02T13:14:24.898Z</time></trkpt><trkpt lat="43.8710647" lon="11.1714585"><ele>79.0</ele><time>2026-05-02T13:14:25.898Z</time></trkpt><trkpt lat="43.8709522" lon="11.1716367"><ele>81.66666666666666</ele><time>2026-05-02T13:14:26.898Z</time></trkpt><trkpt lat="43.8708279" lon="11.1718257"><ele>84.33333333333333</ele><time>2026-05-02T13:14:27.898Z</time></trkpt><trkpt lat="43.8706786" lon="11.1720209"><ele>87.0</ele><time>2026-05-02T13:14:28.898Z</time></trkpt><trkpt lat="43.870509" lon="11.1722203"><ele>87.5</ele><time>2026-05-02T13:14:29.898Z</time></trkpt><trkpt lat="43.8703312" lon="11.17242"><ele>88.0</ele><time>2026-05-02T13:14:30.898Z</time></trkpt><trkpt lat="43.8701376" lon="11.1725993"><ele>92.33333333333333</ele><time>2026-05-02T13:14:31.898Z</time></trkpt><trkpt lat="43.8699479" lon="11.172764"><ele>96.66666666666666</ele><time>2026-05-02T13:14:32.898Z</time></trkpt><trkpt lat="43.8697635" lon="11.1729128"><ele>101.0</ele><time>2026-05-02T13:14:33.898Z</time></trkpt><trkpt lat="43.8695832" lon="11.1730587"><ele>100.0</ele><time>2026-05-02T13:14:34.898Z</time></trkpt><trkpt lat="43.869409" lon="11.1731953"><ele>99.0</ele><time>2026-05-02T13:14:35.898Z</time></trkpt><trkpt lat="43.8692329" lon="11.1733345"><ele>98.0</ele><time>2026-05-02T13:14:36.898Z</time></trkpt><trkpt lat="43.8690596" lon="11.1734959"><ele>84.0</ele><time>2026-05-02T13:14:37.898Z</time></trkpt><trkpt lat="43.8655894" lon="11.1754879"><ele>84.0</ele><time>2026-05-02T13:14:56.923Z</time></trkpt><trkpt lat="43.8653829" lon="11.175581"><ele>84.0</ele><time>2026-05-02T13:14:57.923Z</time></trkpt><trkpt lat="43.8651901" lon="11.1756787"><ele>84.0</ele><time>2026-05-02T13:14:58.923Z</time></trkpt><trkpt lat="43.8649701" lon="11.1757221"><ele>84.33333333333333</ele><time>2026-05-02T13:14:59.923Z</time></trkpt><trkpt lat="43.8647663" lon="11.1757831"><ele>84.66666666666666</ele><time>2026-05-02T13:15:00.923Z</time></trkpt><trkpt lat="43.8645754" lon="11.1758374"><ele>85.0</ele><time>2026-05-02T13:15:01.923Z</time></trkpt><trkpt lat="43.864386" lon="11.1758862"><ele>84.0</ele><time>2026-05-02T13:15:02.923Z</time></trkpt><trkpt lat="43.8642139" lon="11.1759477"><ele>83.0</ele><time>2026-05-02T13:15:03.923Z</time></trkpt><trkpt lat="43.8640471" lon="11.1759946"><ele>82.0</ele><time>2026-05-02T13:15:04.923Z</time></trkpt><trkpt lat="43.8638879" lon="11.1760387"><ele>82.0</ele><time>2026-05-02T13:15:05.923Z</time></trkpt><trkpt lat="43.8637257" lon="11.1760969"><ele>82.0</ele><time>2026-05-02T13:15:06.923Z</time></trkpt><trkpt lat="43.8635731" lon="11.1761578"><ele>82.0</ele><time>2026-05-02T13:15:07.923Z</time></trkpt><trkpt lat="43.8634256" lon="11.1762046"><ele>81.39999999999999</ele><time>2026-05-02T13:15:08.923Z</time></trkpt><trkpt lat="43.8632934" lon="11.1762249"><ele>80.8</ele><time>2026-05-02T13:15:09.923Z</time></trkpt><trkpt lat="43.8631834" lon="11.1762244"><ele>80.2</ele><time>2026-05-02T13:15:10.923Z</time></trkpt><trkpt lat="43.8630999" lon="11.1761915"><ele>79.6</ele><time>2026-05-02T13:15:11.923Z</time></trkpt><trkpt lat="43.8630309" lon="11.1761229"><ele>79.0</ele><time>2026-05-02T13:15:12.923Z</time></trkpt><trkpt lat="43.8629517" lon="11.1760543"><ele>79.0</ele><time>2026-05-02T13:15:13.923Z</time></trkpt><trkpt lat="43.8628648" lon="11.1760116"><ele>79.0</ele><time>2026-05-02T13:15:14.923Z</time></trkpt><trkpt lat="43.8627837" lon="11.1760012"><ele>79.0</ele><time>2026-05-02T13:15:15.923Z</time></trkpt><trkpt lat="43.8627305" lon="11.1761524"><ele>79.0</ele><time>2026-05-02T13:15:17.923Z</time></trkpt><trkpt lat="43.8627477" lon="11.1762784"><ele>79.0</ele><time>2026-05-02T13:15:18.923Z</time></trkpt><trkpt lat="43.8627749" lon="11.1764183"><ele>79.0</ele><time>2026-05-02T13:15:19.923Z</time></trkpt><trkpt lat="43.8627899" lon="11.1765748"><ele>79.0</ele><time>2026-05-02T13:15:20.923Z</time></trkpt><trkpt lat="43.8627958" lon="11.1767357"><ele>79.0</ele><time>2026-05-02T13:15:21.923Z</time></trkpt><trkpt lat="43.8628013" lon="11.1769118"><ele>79.0</ele><time>2026-05-02T13:15:22.923Z</time></trkpt><trkpt lat="43.8627967" lon="11.1771153"><ele>79.0</ele><time>2026-05-02T13:15:23.923Z</time></trkpt><trkpt lat="43.8627791" lon="11.1773176"><ele>79.0</ele><time>2026-05-02T13:15:24.923Z</time></trkpt><trkpt lat="43.86275" lon="11.177522"><ele>79.0</ele><time>2026-05-02T13:15:25.923Z</time></trkpt><trkpt lat="43.8626977" lon="11.1776974"><ele>79.0</ele><time>2026-05-02T13:15:26.923Z</time></trkpt><trkpt lat="43.8626035" lon="11.1778454"><ele>79.0</ele><time>2026-05-02T13:15:27.923Z</time></trkpt><trkpt lat="43.8624553" lon="11.1779417"><ele>79.0</ele><time>2026-05-02T13:15:28.923Z</time></trkpt><trkpt lat="43.8622976" lon="11.1780341"><ele>79.0</ele><time>2026-05-02T13:15:29.923Z</time></trkpt><trkpt lat="43.8621475" lon="11.1781312"><ele>80.0</ele><time>2026-05-02T13:15:30.923Z</time></trkpt><trkpt lat="43.861991" lon="11.1782293"><ele>81.0</ele><time>2026-05-02T13:15:31.923Z</time></trkpt><trkpt lat="43.8618227" lon="11.178318"><ele>82.0</ele><time>2026-05-02T13:15:32.923Z</time></trkpt><trkpt lat="43.8616538" lon="11.178388"><ele>82.0</ele><time>2026-05-02T13:15:33.923Z</time></trkpt><trkpt lat="43.861487" lon="11.1784294"><ele>82.0</ele><time>2026-05-02T13:15:34.923Z</time></trkpt><trkpt lat="43.8613197" lon="11.1784656"><ele>82.0</ele><time>2026-05-02T13:15:35.923Z</time></trkpt><trkpt lat="43.8611342" lon="11.1784865"><ele>82.0</ele><time>2026-05-02T13:15:36.923Z</time></trkpt><trkpt lat="43.860934" lon="11.1785125"><ele>82.0</ele><time>2026-05-02T13:15:37.923Z</time></trkpt><trkpt lat="43.8607292" lon="11.1785386"><ele>82.0</ele><time>2026-05-02T13:15:38.923Z</time></trkpt><trkpt lat="43.8605292" lon="11.1785669"><ele>82.0</ele><time>2026-05-02T13:15:39.923Z</time></trkpt><trkpt lat="43.8603454" lon="11.1786085"><ele>82.0</ele><time>2026-05-02T13:15:40.923Z</time></trkpt><trkpt lat="43.8601749" lon="11.178644"><ele>82.0</ele><time>2026-05-02T13:15:41.923Z</time></trkpt><trkpt lat="43.8600016" lon="11.1786896"><ele>81.66666666666666</ele><time>2026-05-02T13:15:42.923Z</time></trkpt><trkpt lat="43.8598223" lon="11.178746"><ele>81.33333333333333</ele><time>2026-05-02T13:15:43.923Z</time></trkpt><trkpt lat="43.8596394" lon="11.1788132"><ele>81.0</ele><time>2026-05-02T13:15:44.923Z</time></trkpt><trkpt lat="43.8594628" lon="11.1788708"><ele>81.0</ele><time>2026-05-02T13:15:45.923Z</time></trkpt><trkpt lat="43.8592958" lon="11.1789252"><ele>81.0</ele><time>2026-05-02T13:15:46.923Z</time></trkpt><trkpt lat="43.8591392" lon="11.1789732"><ele>81.0</ele><time>2026-05-02T13:15:47.923Z</time></trkpt><trkpt lat="43.8590007" lon="11.1790072"><ele>81.0</ele><time>2026-05-02T13:15:48.923Z</time></trkpt><trkpt lat="43.8588717" lon="11.1790196"><ele>81.0</ele><time>2026-05-02T13:15:49.923Z</time></trkpt><trkpt lat="43.8587552" lon="11.179004"><ele>81.0</ele><time>2026-05-02T13:15:50.923Z</time></trkpt><trkpt lat="43.8586447" lon="11.1789493"><ele>81.0</ele><time>2026-05-02T13:15:51.923Z</time></trkpt><trkpt lat="43.8585472" lon="11.1788495"><ele>81.0</ele><time>2026-05-02T13:15:52.923Z</time></trkpt><trkpt lat="43.858461" lon="11.1786931"><ele>81.0</ele><time>2026-05-02T13:15:53.923Z</time></trkpt><trkpt lat="43.8583901" lon="11.1785114"><ele>81.0</ele><time>2026-05-02T13:15:54.923Z</time></trkpt><trkpt lat="43.8583201" lon="11.1783333"><ele>81.0</ele><time>2026-05-02T13:15:55.923Z</time></trkpt><trkpt lat="43.8582484" lon="11.1781709"><ele>80.0</ele><time>2026-05-02T13:15:56.923Z</time></trkpt><trkpt lat="43.8581689" lon="11.1780276"><ele>79.0</ele><time>2026-05-02T13:15:57.923Z</time></trkpt><trkpt lat="43.8580839" lon="11.1779085"><ele>78.0</ele><time>2026-05-02T13:15:58.923Z</time></trkpt><trkpt lat="43.857989" lon="11.1777968"><ele>77.0</ele><time>2026-05-02T13:15:59.923Z</time></trkpt><trkpt lat="43.8578964" lon="11.17772"><ele>77.0</ele><time>2026-05-02T13:16:00.923Z</time></trkpt><trkpt lat="43.8577866" lon="11.1776742"><ele>77.0</ele><time>2026-05-02T13:16:01.923Z</time></trkpt><trkpt lat="43.8576787" lon="11.1776724"><ele>77.0</ele><time>2026-05-02T13:16:02.923Z</time></trkpt><trkpt lat="43.857569" lon="11.1777223"><ele>77.0</ele><time>2026-05-02T13:16:03.923Z</time></trkpt><trkpt lat="43.8574615" lon="11.1778608"><ele>76.66666666666667</ele><time>2026-05-02T13:16:04.923Z</time></trkpt><trkpt lat="43.8573548" lon="11.1780555"><ele>76.33333333333333</ele><time>2026-05-02T13:16:05.923Z</time></trkpt><trkpt lat="43.8572661" lon="11.178217"><ele>76.0</ele><time>2026-05-02T13:16:06.923Z</time></trkpt><trkpt lat="43.8571742" lon="11.1783714"><ele>76.0</ele><time>2026-05-02T13:16:07.923Z</time></trkpt><trkpt lat="43.857063" lon="11.1784848"><ele>76.0</ele><time>2026-05-02T13:16:08.923Z</time></trkpt><trkpt lat="43.8569337" lon="11.1785692"><ele>76.0</ele><time>2026-05-02T13:16:09.923Z</time></trkpt><trkpt lat="43.8567896" lon="11.1786537"><ele>76.0</ele><time>2026-05-02T13:16:10.923Z</time></trkpt><trkpt lat="43.8566303" lon="11.1787169"><ele>75.5</ele><time>2026-05-02T13:16:11.923Z</time></trkpt><trkpt lat="43.8564788" lon="11.1787846"><ele>75.0</ele><time>2026-05-02T13:16:12.923Z</time></trkpt><trkpt lat="43.8563364" lon="11.1788419"><ele>74.5</ele><time>2026-05-02T13:16:13.923Z</time></trkpt><trkpt lat="43.856201" lon="11.1788956"><ele>74.0</ele><time>2026-05-02T13:16:14.923Z</time></trkpt><trkpt lat="43.8560752" lon="11.1789356"><ele>74.0</ele><time>2026-05-02T13:16:15.923Z</time></trkpt><trkpt lat="43.8559549" lon="11.1789699"><ele>74.0</ele><time>2026-05-02T13:16:16.923Z</time></trkpt><trkpt lat="43.8558426" lon="11.1789985"><ele>74.0</ele><time>2026-05-02T13:16:17.923Z</time></trkpt><trkpt lat="43.8557355" lon="11.1790212"><ele>74.0</ele><time>2026-05-02T13:16:18.923Z</time></trkpt><trkpt lat="43.855625" lon="11.1790252"><ele>74.0</ele><time>2026-05-02T13:16:19.923Z</time></trkpt><trkpt lat="43.8554964" lon="11.1790061"><ele>74.0</ele><time>2026-05-02T13:16:20.923Z</time></trkpt><trkpt lat="43.8553591" lon="11.1789957"><ele>74.0</ele><time>2026-05-02T13:16:21.923Z</time></trkpt><trkpt lat="43.8552277" lon="11.1789969"><ele>74.0</ele><time>2026-05-02T13:16:22.923Z</time></trkpt><trkpt lat="43.8551038" lon="11.1790173"><ele>73.75</ele><time>2026-05-02T13:16:23.923Z</time></trkpt><trkpt lat="43.8549838" lon="11.1790422"><ele>73.5</ele><time>2026-05-02T13:16:24.923Z</time></trkpt><trkpt lat="43.8548745" lon="11.1790747"><ele>73.25</ele><time>2026-05-02T13:16:25.923Z</time></trkpt><trkpt lat="43.8547629" lon="11.1791012"><ele>73.0</ele><time>2026-05-02T13:16:26.923Z</time></trkpt><trkpt lat="43.854645" lon="11.1791233"><ele>73.0</ele><time>2026-05-02T13:16:27.923Z</time></trkpt><trkpt lat="43.8545231" lon="11.1791465"><ele>73.0</ele><time>2026-05-02T13:16:28.923Z</time></trkpt><trkpt lat="43.8543888" lon="11.1791687"><ele>73.0</ele><time>2026-05-02T13:16:29.923Z</time></trkpt><trkpt lat="43.8542463" lon="11.1791894"><ele>73.0</ele><time>2026-05-02T13:16:30.923Z</time></trkpt><trkpt lat="43.8540881" lon="11.1792195"><ele>73.0</ele><time>2026-05-02T13:16:31.923Z</time></trkpt><trkpt lat="43.8539124" lon="11.1792456"><ele>73.0</ele><time>2026-05-02T13:16:32.923Z</time></trkpt><trkpt lat="43.8537301" lon="11.1792707"><ele>73.0</ele><time>2026-05-02T13:16:33.923Z</time></trkpt><trkpt lat="43.8535522" lon="11.1792865"><ele>71.66666666666666</ele><time>2026-05-02T13:16:34.923Z</time></trkpt><trkpt lat="43.8533741" lon="11.1792933"><ele>70.33333333333333</ele><time>2026-05-02T13:16:35.923Z</time></trkpt><trkpt lat="43.8532112" lon="11.179294"><ele>69.0</ele><time>2026-05-02T13:16:36.923Z</time></trkpt><trkpt lat="43.8530562" lon="11.1793117"><ele>69.0</ele><time>2026-05-02T13:16:37.923Z</time></trkpt><trkpt lat="43.8529033" lon="11.1793432"><ele>69.0</ele><time>2026-05-02T13:16:38.923Z</time></trkpt><trkpt lat="43.852754" lon="11.1793613"><ele>69.0</ele><time>2026-05-02T13:16:39.923Z</time></trkpt><trkpt lat="43.8526169" lon="11.1793743"><ele>69.0</ele><time>2026-05-02T13:16:40.923Z</time></trkpt><trkpt lat="43.8524842" lon="11.1793913"><ele>68.5</ele><time>2026-05-02T13:16:41.923Z</time></trkpt><trkpt lat="43.8523599" lon="11.179414"><ele>68.0</ele><time>2026-05-02T13:16:42.923Z</time></trkpt><trkpt lat="43.8522386" lon="11.1794313"><ele>67.5</ele><time>2026-05-02T13:16:43.924Z</time></trkpt><trkpt lat="43.8521212" lon="11.1794473"><ele>67.0</ele><time>2026-05-02T13:16:44.923Z</time></trkpt><trkpt lat="43.8520088" lon="11.1794578"><ele>67.0</ele><time>2026-05-02T13:16:45.923Z</time></trkpt><trkpt lat="43.8518954" lon="11.1794676"><ele>67.0</ele><time>2026-05-02T13:16:46.923Z</time></trkpt><trkpt lat="43.8517801" lon="11.1794753"><ele>67.0</ele><time>2026-05-02T13:16:47.923Z</time></trkpt><trkpt lat="43.8516529" lon="11.1794859"><ele>67.0</ele><time>2026-05-02T13:16:48.923Z</time></trkpt><trkpt lat="43.8515325" lon="11.1794976"><ele>66.5</ele><time>2026-05-02T13:16:49.923Z</time></trkpt><trkpt lat="43.8514167" lon="11.1795131"><ele>66.0</ele><time>2026-05-02T13:16:50.923Z</time></trkpt><trkpt lat="43.8513017" lon="11.1795337"><ele>65.5</ele><time>2026-05-02T13:16:51.923Z</time></trkpt><trkpt lat="43.8511887" lon="11.1795476"><ele>65.0</ele><time>2026-05-02T13:16:52.923Z</time></trkpt><trkpt lat="43.85107" lon="11.1795644"><ele>64.0</ele><time>2026-05-02T13:16:53.923Z</time></trkpt><trkpt lat="43.8509474" lon="11.1795752"><ele>63.0</ele><time>2026-05-02T13:16:54.923Z</time></trkpt><trkpt lat="43.8508289" lon="11.1795835"><ele>62.0</ele><time>2026-05-02T13:16:55.923Z</time></trkpt><trkpt lat="43.8507071" lon="11.1795952"><ele>61.0</ele><time>2026-05-02T13:16:56.923Z</time></trkpt><trkpt lat="43.8505839" lon="11.1796068"><ele>61.0</ele><time>2026-05-02T13:16:57.923Z</time></trkpt><trkpt lat="43.8504591" lon="11.1796201"><ele>61.0</ele><time>2026-05-02T13:16:58.923Z</time></trkpt><trkpt lat="43.8503407" lon="11.1796376"><ele>61.0</ele><time>2026-05-02T13:16:59.923Z</time></trkpt><trkpt lat="43.8502255" lon="11.1796601"><ele>61.0</ele><time>2026-05-02T13:17:00.923Z</time></trkpt><trkpt lat="43.8501165" lon="11.1796744"><ele>60.33333333333333</ele><time>2026-05-02T13:17:01.923Z</time></trkpt><trkpt lat="43.8500185" lon="11.179664"><ele>59.666666666666664</ele><time>2026-05-02T13:17:02.923Z</time></trkpt><trkpt lat="43.8499339" lon="11.179626"><ele>59.0</ele><time>2026-05-02T13:17:03.923Z</time></trkpt><trkpt lat="43.8498789" lon="11.1795523"><ele>58.33333333333333</ele><time>2026-05-02T13:17:04.923Z</time></trkpt><trkpt lat="43.8498493" lon="11.1794463"><ele>57.666666666666664</ele><time>2026-05-02T13:17:05.923Z</time></trkpt><trkpt lat="43.8498561" lon="11.1793157"><ele>57.0</ele><time>2026-05-02T13:17:06.923Z</time></trkpt><trkpt lat="43.8498878" lon="11.1791717"><ele>57.75</ele><time>2026-05-02T13:17:07.923Z</time></trkpt><trkpt lat="43.8499394" lon="11.179009"><ele>58.5</ele><time>2026-05-02T13:17:08.922Z</time></trkpt><trkpt lat="43.8499789" lon="11.1788329"><ele>59.25</ele><time>2026-05-02T13:17:09.922Z</time></trkpt><trkpt lat="43.8500059" lon="11.1786473"><ele>60.0</ele><time>2026-05-02T13:17:10.922Z</time></trkpt><trkpt lat="43.8500421" lon="11.1784753"><ele>60.0</ele><time>2026-05-02T13:17:11.922Z</time></trkpt><trkpt lat="43.8500953" lon="11.1783064"><ele>60.0</ele><time>2026-05-02T13:17:12.922Z</time></trkpt><trkpt lat="43.8501654" lon="11.1781438"><ele>60.0</ele><time>2026-05-02T13:17:13.922Z</time></trkpt><trkpt lat="43.8502483" lon="11.1779749"><ele>60.0</ele><time>2026-05-02T13:17:14.922Z</time></trkpt><trkpt lat="43.8503276" lon="11.1778058"><ele>60.5</ele><time>2026-05-02T13:17:15.922Z</time></trkpt><trkpt lat="43.8504132" lon="11.1776514"><ele>61.0</ele><time>2026-05-02T13:17:16.922Z</time></trkpt><trkpt lat="43.8504954" lon="11.1775023"><ele>61.5</ele><time>2026-05-02T13:17:17.922Z</time></trkpt><trkpt lat="43.8505711" lon="11.177348"><ele>62.0</ele><time>2026-05-02T13:17:18.922Z</time></trkpt><trkpt lat="43.8506453" lon="11.1771926"><ele>62.25</ele><time>2026-05-02T13:17:19.922Z</time></trkpt><trkpt lat="43.8507233" lon="11.1770393"><ele>62.5</ele><time>2026-05-02T13:17:20.922Z</time></trkpt><trkpt lat="43.8507949" lon="11.1768884"><ele>62.75</ele><time>2026-05-02T13:17:21.922Z</time></trkpt><trkpt lat="43.85087" lon="11.1767479"><ele>63.0</ele><time>2026-05-02T13:17:22.922Z</time></trkpt><trkpt lat="43.8509514" lon="11.1765953"><ele>63.5</ele><time>2026-05-02T13:17:23.922Z</time></trkpt><trkpt lat="43.8510285" lon="11.1764356"><ele>64.0</ele><time>2026-05-02T13:17:24.922Z</time></trkpt><trkpt lat="43.8511037" lon="11.1762864"><ele>64.5</ele><time>2026-05-02T13:17:25.922Z</time></trkpt><trkpt lat="43.851177" lon="11.1761468"><ele>65.0</ele><time>2026-05-02T13:17:26.922Z</time></trkpt><trkpt lat="43.8512298" lon="11.176018"><ele>65.0</ele><time>2026-05-02T13:17:27.922Z</time></trkpt><trkpt lat="43.8512732" lon="11.1758984"><ele>65.0</ele><time>2026-05-02T13:17:28.922Z</time></trkpt><trkpt lat="43.8513013" lon="11.1758034"><ele>65.0</ele><time>2026-05-02T13:17:29.922Z</time></trkpt><trkpt lat="43.851347" lon="11.175675"><ele>65.0</ele><time>2026-05-02T13:17:31.922Z</time></trkpt><trkpt lat="43.8513282" lon="11.1755761"><ele>65.0</ele><time>2026-05-02T13:17:34.922Z</time></trkpt><trkpt lat="43.8512739" lon="11.1755195"><ele>65.0</ele><time>2026-05-02T13:17:35.922Z</time></trkpt><trkpt lat="43.851193" lon="11.1754494"><ele>65.0</ele><time>2026-05-02T13:17:36.922Z</time></trkpt><trkpt lat="43.8510984" lon="11.1753562"><ele>65.0</ele><time>2026-05-02T13:17:37.922Z</time></trkpt><trkpt lat="43.8509914" lon="11.1752482"><ele>65.0</ele><time>2026-05-02T13:17:38.922Z</time></trkpt><trkpt lat="43.8508573" lon="11.1751168"><ele>65.0</ele><time>2026-05-02T13:17:39.922Z</time></trkpt><trkpt lat="43.8507073" lon="11.1749669"><ele>63.66666666666667</ele><time>2026-05-02T13:17:40.922Z</time></trkpt><trkpt lat="43.8505428" lon="11.1748148"><ele>62.33333333333333</ele><time>2026-05-02T13:17:41.922Z</time></trkpt><trkpt lat="43.8503828" lon="11.174656"><ele>61.0</ele><time>2026-05-02T13:17:42.922Z</time></trkpt><trkpt lat="43.8502246" lon="11.1745246"><ele>60.0</ele><time>2026-05-02T13:17:43.922Z</time></trkpt><trkpt lat="43.8500667" lon="11.1743787"><ele>59.0</ele><time>2026-05-02T13:17:44.922Z</time></trkpt><trkpt lat="43.8499179" lon="11.1742246"><ele>58.0</ele><time>2026-05-02T13:17:45.922Z</time></trkpt><trkpt lat="43.8497678" lon="11.1740716"><ele>57.666666666666664</ele><time>2026-05-02T13:17:46.922Z</time></trkpt><trkpt lat="43.8496083" lon="11.1739228"><ele>57.33333333333333</ele><time>2026-05-02T13:17:47.922Z</time></trkpt><trkpt lat="43.8494531" lon="11.1737791"><ele>57.0</ele><time>2026-05-02T13:17:48.922Z</time></trkpt><trkpt lat="43.8493021" lon="11.1736377"><ele>57.0</ele><time>2026-05-02T13:17:49.922Z</time></trkpt><trkpt lat="43.8491661" lon="11.1735154"><ele>57.0</ele><time>2026-05-02T13:17:50.922Z</time></trkpt><trkpt lat="43.8490406" lon="11.1734102"><ele>57.0</ele><time>2026-05-02T13:17:51.922Z</time></trkpt><trkpt lat="43.8489145" lon="11.1733085"><ele>57.0</ele><time>2026-05-02T13:17:52.922Z</time></trkpt><trkpt lat="43.8487878" lon="11.1731927"><ele>57.0</ele><time>2026-05-02T13:17:53.922Z</time></trkpt><trkpt lat="43.8486802" lon="11.1730938"><ele>57.0</ele><time>2026-05-02T13:17:54.922Z</time></trkpt><trkpt lat="43.8486079" lon="11.1729982"><ele>57.0</ele><time>2026-05-02T13:17:55.922Z</time></trkpt><trkpt lat="43.8485591" lon="11.1728991"><ele>56.833333333333336</ele><time>2026-05-02T13:17:56.923Z</time></trkpt><trkpt lat="43.8485279" lon="11.1727984"><ele>56.66666666666667</ele><time>2026-05-02T13:17:57.922Z</time></trkpt><trkpt lat="43.8485113" lon="11.1727035"><ele>56.5</ele><time>2026-05-02T13:17:58.922Z</time></trkpt><trkpt lat="43.848512" lon="11.1726104"><ele>56.333333333333336</ele><time>2026-05-02T13:17:59.922Z</time></trkpt><trkpt lat="43.8485733" lon="11.1724533"><ele>56.16666666666667</ele><time>2026-05-02T13:18:01.922Z</time></trkpt><trkpt lat="43.8486108" lon="11.1723654"><ele>56.0</ele><time>2026-05-02T13:18:02.922Z</time></trkpt><trkpt lat="43.8486648" lon="11.1722674"><ele>55.8</ele><time>2026-05-02T13:18:03.922Z</time></trkpt><trkpt lat="43.8487276" lon="11.1721572"><ele>55.599999999999994</ele><time>2026-05-02T13:18:04.922Z</time></trkpt><trkpt lat="43.8487931" lon="11.1720337"><ele>55.4</ele><time>2026-05-02T13:18:05.922Z</time></trkpt><trkpt lat="43.8488611" lon="11.1719069"><ele>55.2</ele><time>2026-05-02T13:18:06.922Z</time></trkpt><trkpt lat="43.8489318" lon="11.1717822"><ele>55.0</ele><time>2026-05-02T13:18:07.922Z</time></trkpt><trkpt lat="43.8489979" lon="11.1716527"><ele>55.0</ele><time>2026-05-02T13:18:08.922Z</time></trkpt><trkpt lat="43.8490587" lon="11.1715293"><ele>55.0</ele><time>2026-05-02T13:18:09.922Z</time></trkpt><trkpt lat="43.8491145" lon="11.1714161"><ele>55.0</ele><time>2026-05-02T13:18:10.922Z</time></trkpt><trkpt lat="43.849168" lon="11.171314"><ele>55.0</ele><time>2026-05-02T13:18:11.922Z</time></trkpt><trkpt lat="43.8492241" lon="11.1712143"><ele>55.0</ele><time>2026-05-02T13:18:12.922Z</time></trkpt><trkpt lat="43.8492783" lon="11.1711134"><ele>55.4</ele><time>2026-05-02T13:18:13.922Z</time></trkpt><trkpt lat="43.8493306" lon="11.171012"><ele>55.8</ele><time>2026-05-02T13:18:14.922Z</time></trkpt><trkpt lat="43.8493898" lon="11.1709106"><ele>56.2</ele><time>2026-05-02T13:18:15.922Z</time></trkpt><trkpt lat="43.8494599" lon="11.1708052"><ele>56.6</ele><time>2026-05-02T13:18:16.922Z</time></trkpt><trkpt lat="43.8495169" lon="11.1706873"><ele>57.0</ele><time>2026-05-02T13:18:17.922Z</time></trkpt><trkpt lat="43.8495608" lon="11.1705659"><ele>57.0</ele><time>2026-05-02T13:18:18.922Z</time></trkpt><trkpt lat="43.8496049" lon="11.170426"><ele>57.0</ele><time>2026-05-02T13:18:19.922Z</time></trkpt><trkpt lat="43.8496567" lon="11.1702852"><ele>57.0</ele><time>2026-05-02T13:18:20.922Z</time></trkpt><trkpt lat="43.849722" lon="11.1701555"><ele>57.0</ele><time>2026-05-02T13:18:21.922Z</time></trkpt><trkpt lat="43.8497862" lon="11.1700346"><ele>57.0</ele><time>2026-05-02T13:18:22.922Z</time></trkpt><trkpt lat="43.8498535" lon="11.1699199"><ele>57.0</ele><time>2026-05-02T13:18:23.922Z</time></trkpt><trkpt lat="43.8499255" lon="11.1698199"><ele>57.0</ele><time>2026-05-02T13:18:24.922Z</time></trkpt><trkpt lat="43.8499953" lon="11.1697493"><ele>57.0</ele><time>2026-05-02T13:18:25.922Z</time></trkpt><trkpt lat="43.8500559" lon="11.1697083"><ele>57.0</ele><time>2026-05-02T13:18:26.922Z</time></trkpt><trkpt lat="43.8501602" lon="11.1697158"><ele>57.0</ele><time>2026-05-02T13:18:28.922Z</time></trkpt><trkpt lat="43.8502001" lon="11.1698541"><ele>57.0</ele><time>2026-05-02T13:18:30.922Z</time></trkpt><trkpt lat="43.8502656" lon="11.16993"><ele>57.0</ele><time>2026-05-02T13:18:32.922Z</time></trkpt><trkpt lat="43.8503447" lon="11.1699387"><ele>57.0</ele><time>2026-05-02T13:18:34.922Z</time></trkpt><trkpt lat="43.8504021" lon="11.1698648"><ele>57.0</ele><time>2026-05-02T13:18:36.922Z</time></trkpt><trkpt lat="43.8504354" lon="11.1697339"><ele>57.0</ele><time>2026-05-02T13:18:38.922Z</time></trkpt><trkpt lat="43.8504607" lon="11.169624"><ele>57.0</ele><time>2026-05-02T13:18:40.922Z</time></trkpt><trkpt lat="43.8504739" lon="11.1695316"><ele>57.0</ele><time>2026-05-02T13:18:44.922Z</time></trkpt><trkpt lat="43.8504012" lon="11.1695431"><ele>57.0</ele><time>2026-05-02T13:27:52.919Z</time></trkpt><trkpt lat="43.8503166" lon="11.1694903"><ele>57.0</ele><time>2026-05-02T13:27:54.919Z</time></trkpt><trkpt lat="43.8502366" lon="11.1693801"><ele>57.0</ele><time>2026-05-02T13:27:56.919Z</time></trkpt><trkpt lat="43.8501953" lon="11.169286"><ele>57.0</ele><time>2026-05-02T13:27:58.919Z</time></trkpt><trkpt lat="43.8501964" lon="11.1691807"><ele>57.0</ele><time>2026-05-02T13:28:00.919Z</time></trkpt><trkpt lat="43.8502361" lon="11.1690186"><ele>57.25</ele><time>2026-05-02T13:28:02.919Z</time></trkpt><trkpt lat="43.850289" lon="11.1689126"><ele>57.5</ele><time>2026-05-02T13:28:03.919Z</time></trkpt><trkpt lat="43.8503574" lon="11.1687796"><ele>57.75</ele><time>2026-05-02T13:28:04.919Z</time></trkpt><trkpt lat="43.8504366" lon="11.168613"><ele>58.0</ele><time>2026-05-02T13:28:05.919Z</time></trkpt><trkpt lat="43.8505158" lon="11.1684294"><ele>58.0</ele><time>2026-05-02T13:28:06.919Z</time></trkpt><trkpt lat="43.8506027" lon="11.1682286"><ele>58.0</ele><time>2026-05-02T13:28:07.919Z</time></trkpt><trkpt lat="43.8506857" lon="11.1680346"><ele>58.0</ele><time>2026-05-02T13:28:08.919Z</time></trkpt><trkpt lat="43.8507628" lon="11.1678549"><ele>57.75</ele><time>2026-05-02T13:28:09.919Z</time></trkpt><trkpt lat="43.8508325" lon="11.167695"><ele>57.5</ele><time>2026-05-02T13:28:10.919Z</time></trkpt><trkpt lat="43.8508979" lon="11.1675306"><ele>57.25</ele><time>2026-05-02T13:28:11.919Z</time></trkpt><trkpt lat="43.8509598" lon="11.1673764"><ele>57.0</ele><time>2026-05-02T13:28:12.919Z</time></trkpt><trkpt lat="43.8510217" lon="11.1672355"><ele>57.0</ele><time>2026-05-02T13:28:13.919Z</time></trkpt><trkpt lat="43.8510749" lon="11.1670989"><ele>57.0</ele><time>2026-05-02T13:28:14.919Z</time></trkpt><trkpt lat="43.8511165" lon="11.1669678"><ele>57.0</ele><time>2026-05-02T13:28:15.919Z</time></trkpt><trkpt lat="43.8511386" lon="11.1668543"><ele>57.0</ele><time>2026-05-02T13:28:16.919Z</time></trkpt><trkpt lat="43.8511611" lon="11.166746"><ele>57.0</ele><time>2026-05-02T13:28:17.919Z</time></trkpt><trkpt lat="43.8511904" lon="11.1666436"><ele>57.0</ele><time>2026-05-02T13:28:18.919Z</time></trkpt><trkpt lat="43.8512303" lon="11.1665455"><ele>57.0</ele><time>2026-05-02T13:28:19.919Z</time></trkpt><trkpt lat="43.8512898" lon="11.1664435"><ele>57.0</ele><time>2026-05-02T13:28:20.919Z</time></trkpt><trkpt lat="43.8513583" lon="11.166326"><ele>57.0</ele><time>2026-05-02T13:28:21.919Z</time></trkpt><trkpt lat="43.8514281" lon="11.1661929"><ele>57.0</ele><time>2026-05-02T13:28:22.919Z</time></trkpt><trkpt lat="43.8514919" lon="11.166046"><ele>56.6</ele><time>2026-05-02T13:28:23.919Z</time></trkpt><trkpt lat="43.8515485" lon="11.165915"><ele>56.2</ele><time>2026-05-02T13:28:24.919Z</time></trkpt><trkpt lat="43.8516007" lon="11.165786"><ele>55.8</ele><time>2026-05-02T13:28:25.919Z</time></trkpt><trkpt lat="43.8516529" lon="11.16567"><ele>55.4</ele><time>2026-05-02T13:28:26.919Z</time></trkpt><trkpt lat="43.8516967" lon="11.1655612"><ele>55.0</ele><time>2026-05-02T13:28:27.919Z</time></trkpt><trkpt lat="43.8517364" lon="11.1654703"><ele>54.83333333333333</ele><time>2026-05-02T13:28:28.919Z</time></trkpt><trkpt lat="43.8517653" lon="11.1653869"><ele>54.666666666666664</ele><time>2026-05-02T13:28:29.919Z</time></trkpt><trkpt lat="43.8517964" lon="11.1653071"><ele>54.5</ele><time>2026-05-02T13:28:30.919Z</time></trkpt><trkpt lat="43.8518715" lon="11.165214"><ele>54.33333333333333</ele><time>2026-05-02T13:28:32.919Z</time></trkpt><trkpt lat="43.8519617" lon="11.1651935"><ele>54.166666666666664</ele><time>2026-05-02T13:28:34.919Z</time></trkpt><trkpt lat="43.8520634" lon="11.1652738"><ele>54.0</ele><time>2026-05-02T13:28:36.919Z</time></trkpt><trkpt lat="43.8521176" lon="11.1653399"><ele>54.0</ele><time>2026-05-02T13:28:37.919Z</time></trkpt><trkpt lat="43.8521818" lon="11.1654092"><ele>54.00000000000001</ele><time>2026-05-02T13:28:38.919Z</time></trkpt><trkpt lat="43.8522541" lon="11.1654762"><ele>54.00000000000001</ele><time>2026-05-02T13:28:39.919Z</time></trkpt><trkpt lat="43.852333" lon="11.1655456"><ele>54.0</ele><time>2026-05-02T13:28:40.919Z</time></trkpt><trkpt lat="43.8524094" lon="11.1656228"><ele>54.0</ele><time>2026-05-02T13:28:41.919Z</time></trkpt><trkpt lat="43.8524914" lon="11.1657021"><ele>54.2</ele><time>2026-05-02T13:28:42.919Z</time></trkpt><trkpt lat="43.8525702" lon="11.1657816"><ele>54.400000000000006</ele><time>2026-05-02T13:28:43.919Z</time></trkpt><trkpt lat="43.8526505" lon="11.1658621"><ele>54.6</ele><time>2026-05-02T13:28:44.919Z</time></trkpt><trkpt lat="43.8527399" lon="11.1659457"><ele>54.8</ele><time>2026-05-02T13:28:45.919Z</time></trkpt><trkpt lat="43.8528243" lon="11.1660321"><ele>55.0</ele><time>2026-05-02T13:28:46.919Z</time></trkpt><trkpt lat="43.8529078" lon="11.1661088"><ele>54.99999999999999</ele><time>2026-05-02T13:28:47.919Z</time></trkpt><trkpt lat="43.8529871" lon="11.1661734"><ele>55.0</ele><time>2026-05-02T13:28:48.919Z</time></trkpt><trkpt lat="43.8530674" lon="11.1662276"><ele>55.0</ele><time>2026-05-02T13:28:49.919Z</time></trkpt><trkpt lat="43.8531444" lon="11.1662865"><ele>55.0</ele><time>2026-05-02T13:28:50.919Z</time></trkpt><trkpt lat="43.8532168" lon="11.1663491"><ele>54.99999999999999</ele><time>2026-05-02T13:28:51.919Z</time></trkpt><trkpt lat="43.8532816" lon="11.1664038"><ele>55.0</ele><time>2026-05-02T13:28:52.919Z</time></trkpt><trkpt lat="43.8533404" lon="11.1664512"><ele>55.0</ele><time>2026-05-02T13:28:53.919Z</time></trkpt><trkpt lat="43.8534319" lon="11.1665204"><ele>55.0</ele><time>2026-05-02T13:28:55.919Z</time></trkpt><trkpt lat="43.8535176" lon="11.1665954"><ele>55.0</ele><time>2026-05-02T13:28:57.919Z</time></trkpt><trkpt lat="43.8536185" lon="11.1666922"><ele>55.0</ele><time>2026-05-02T13:28:59.919Z</time></trkpt><trkpt lat="43.8536773" lon="11.1667469"><ele>55.0</ele><time>2026-05-02T13:29:00.919Z</time></trkpt><trkpt lat="43.8537413" lon="11.1668046"><ele>55.33333333333333</ele><time>2026-05-02T13:29:01.919Z</time></trkpt><trkpt lat="43.853804" lon="11.16686"><ele>55.666666666666664</ele><time>2026-05-02T13:29:02.919Z</time></trkpt><trkpt lat="43.853862" lon="11.1669111"><ele>56.0</ele><time>2026-05-02T13:29:03.919Z</time></trkpt><trkpt lat="43.8539159" lon="11.1669586"><ele>56.33333333333333</ele><time>2026-05-02T13:29:04.918Z</time></trkpt><trkpt lat="43.8540054" lon="11.1670445"><ele>56.666666666666664</ele><time>2026-05-02T13:29:06.918Z</time></trkpt><trkpt lat="43.8540713" lon="11.1671073"><ele>57.0</ele><time>2026-05-02T13:29:08.918Z</time></trkpt><trkpt lat="43.8541303" lon="11.16716"><ele>57.0</ele><time>2026-05-02T13:29:10.918Z</time></trkpt><trkpt lat="43.8542016" lon="11.1672373"><ele>57.0</ele><time>2026-05-02T13:29:12.918Z</time></trkpt><trkpt lat="43.854254" lon="11.1673568"><ele>57.0</ele><time>2026-05-02T13:29:14.918Z</time></trkpt><trkpt lat="43.8542314" lon="11.1675023"><ele>57.0</ele><time>2026-05-02T13:29:16.918Z</time></trkpt><trkpt lat="43.8541912" lon="11.1675961"><ele>57.0</ele><time>2026-05-02T13:29:17.918Z</time></trkpt><trkpt lat="43.8541369" lon="11.1676968"><ele>57.400000000000006</ele><time>2026-05-02T13:29:18.918Z</time></trkpt><trkpt lat="43.8540757" lon="11.1677985"><ele>57.800000000000004</ele><time>2026-05-02T13:29:19.918Z</time></trkpt><trkpt lat="43.8540173" lon="11.1678938"><ele>58.2</ele><time>2026-05-02T13:29:20.918Z</time></trkpt><trkpt lat="43.8539653" lon="11.1679983"><ele>58.6</ele><time>2026-05-02T13:29:21.918Z</time></trkpt><trkpt lat="43.8539155" lon="11.1681078"><ele>59.0</ele><time>2026-05-02T13:29:22.918Z</time></trkpt><trkpt lat="43.8538679" lon="11.1682221"><ele>59.50000000000001</ele><time>2026-05-02T13:29:23.918Z</time></trkpt><trkpt lat="43.8538235" lon="11.1683313"><ele>60.0</ele><time>2026-05-02T13:29:24.918Z</time></trkpt><trkpt lat="43.8537789" lon="11.1684322"><ele>60.5</ele><time>2026-05-02T13:29:25.918Z</time></trkpt><trkpt lat="43.8537314" lon="11.1685328"><ele>61.0</ele><time>2026-05-02T13:29:26.918Z</time></trkpt><trkpt lat="43.8536871" lon="11.168621"><ele>61.50000000000001</ele><time>2026-05-02T13:29:27.918Z</time></trkpt><trkpt lat="43.8536475" lon="11.1687009"><ele>62.0</ele><time>2026-05-02T13:29:28.918Z</time></trkpt><trkpt lat="43.8536093" lon="11.1687714"><ele>62.0</ele><time>2026-05-02T13:29:29.918Z</time></trkpt><trkpt lat="43.8535487" lon="11.1688891"><ele>62.0</ele><time>2026-05-02T13:29:31.918Z</time></trkpt><trkpt lat="43.8535206" lon="11.1689987"><ele>62.0</ele><time>2026-05-02T13:29:34.918Z</time></trkpt><trkpt lat="43.853566" lon="11.1690609"><ele>63.0</ele><time>2026-05-02T13:29:38.918Z</time></trkpt><trkpt lat="43.8536277" lon="11.1691973"><ele>63.0</ele><time>2026-05-02T13:33:37.917Z</time></trkpt></trkseg></trk></gpx>